<?xml version="1.0" encoding="UTF-8" standalone="no" ?>
<gpx xmlns="http://www.topografix.com/GPX/1/1" xmlns:xsi="http://www.w3.org/2001/XMLSchema-instance" xsi:schemaLocation="http://www.topografix.com/GPX/1/1 http://www.topografix.com/GPX/1/1/gpx.xsd" version="1.1" creator="VisuGPX - https://www.visugpx.com">
  <metadata>
    <name>Pégairolles-de-Buèges - Mas Aubert</name>
    <desc><![CDATA[Pégairolles-de-Buèges - Mas Coulet - Mas Aubert

[b]album[/b] : [url]https://photos.app.goo.gl/RD8ZrNrnRDMXaRuC6[/url]
[img]https://blogger.googleusercontent.com/img/b/R29vZ2xl/AVvXsEiQTy8bwDvDcHmf60t_YKggu8z9NrBrTV8Ko4fw7D94dG0VAVMAIvhA70QExiPPspBtJmybmqboIN3aHrjEktM4BNlJ_-0VSViTJ3D_rOntv1-zIzQPFdg-NfgKwh9NqwlLEQghVWCPUXB14-Ai2VqP4XzhLIe93FkkW4sr4ArETT10QithOfjLI0YoUged/s600/2019-1-3%20-%20Pegairolles.JPG[/img]
[b]Idées de randonnées dans la même région[/b]
Parcours : [url]https://www.visugpx.com/membres/24856/causses/seranne/[/url]
Photos : [url]https://jcvertygo.blogspot.com/p/seranne.html[/url]]]></desc>
  </metadata>
  <trk>
    <name><![CDATA[2019-01-03_16h05m39_m'as coulet- m'as aubett]]></name>
    <extensions>
      <line xmlns="http://www.topografix.com/GPX/gpx_style/0/2">
        <color>0000FF</color>
        <width>4</width>
      </line>
    </extensions>
    <trkseg>
      <trkpt lat="43.80128" lon="3.57878">
        <ele>283</ele>
        <time>2019-01-03T12:00:58Z</time>
      </trkpt>
      <trkpt lat="43.80125" lon="3.57876">
        <ele>270</ele>
        <time>2019-01-03T12:00:58Z</time>
      </trkpt>
      <trkpt lat="43.80123" lon="3.57873">
        <ele>291</ele>
        <time>2019-01-03T12:00:58Z</time>
      </trkpt>
      <trkpt lat="43.80122" lon="3.57872">
        <ele>291</ele>
        <time>2019-01-03T12:00:58Z</time>
      </trkpt>
      <trkpt lat="43.80119" lon="3.57867">
        <ele>291</ele>
        <time>2019-01-03T12:00:58Z</time>
      </trkpt>
      <trkpt lat="43.80117" lon="3.57862">
        <ele>291</ele>
        <time>2019-01-03T12:01:14Z</time>
      </trkpt>
      <trkpt lat="43.80115" lon="3.57857">
        <ele>291</ele>
        <time>2019-01-03T12:01:14Z</time>
      </trkpt>
      <trkpt lat="43.80114" lon="3.57852">
        <ele>291</ele>
        <time>2019-01-03T12:01:14Z</time>
      </trkpt>
      <trkpt lat="43.80114" lon="3.57847">
        <ele>291</ele>
        <time>2019-01-03T12:01:14Z</time>
      </trkpt>
      <trkpt lat="43.80112" lon="3.5784">
        <ele>291</ele>
        <time>2019-01-03T12:01:30Z</time>
      </trkpt>
      <trkpt lat="43.8011" lon="3.57836">
        <ele>291</ele>
        <time>2019-01-03T12:01:30Z</time>
      </trkpt>
      <trkpt lat="43.80107" lon="3.5783">
        <ele>291</ele>
        <time>2019-01-03T12:01:30Z</time>
      </trkpt>
      <trkpt lat="43.80105" lon="3.57824">
        <ele>291</ele>
        <time>2019-01-03T12:01:30Z</time>
      </trkpt>
      <trkpt lat="43.80103" lon="3.57817">
        <ele>291</ele>
        <time>2019-01-03T12:01:46Z</time>
      </trkpt>
      <trkpt lat="43.80101" lon="3.57813">
        <ele>291</ele>
        <time>2019-01-03T12:01:46Z</time>
      </trkpt>
      <trkpt lat="43.80099" lon="3.57809">
        <ele>291</ele>
        <time>2019-01-03T12:01:46Z</time>
      </trkpt>
      <trkpt lat="43.80097" lon="3.57804">
        <ele>291</ele>
        <time>2019-01-03T12:01:46Z</time>
      </trkpt>
      <trkpt lat="43.80094" lon="3.578">
        <ele>291</ele>
        <time>2019-01-03T12:02:02Z</time>
      </trkpt>
      <trkpt lat="43.8009" lon="3.57796">
        <ele>291</ele>
        <time>2019-01-03T12:02:02Z</time>
      </trkpt>
      <trkpt lat="43.80085" lon="3.5779">
        <ele>302</ele>
        <time>2019-01-03T12:02:02Z</time>
      </trkpt>
      <trkpt lat="43.80081" lon="3.57786">
        <ele>302</ele>
        <time>2019-01-03T12:02:02Z</time>
      </trkpt>
      <trkpt lat="43.80077" lon="3.57782">
        <ele>302</ele>
        <time>2019-01-03T12:02:18Z</time>
      </trkpt>
      <trkpt lat="43.80073" lon="3.57777">
        <ele>302</ele>
        <time>2019-01-03T12:02:18Z</time>
      </trkpt>
      <trkpt lat="43.80071" lon="3.57772">
        <ele>302</ele>
        <time>2019-01-03T12:02:18Z</time>
      </trkpt>
      <trkpt lat="43.80068" lon="3.57768">
        <ele>302</ele>
        <time>2019-01-03T12:02:18Z</time>
      </trkpt>
      <trkpt lat="43.80066" lon="3.57763">
        <ele>302</ele>
        <time>2019-01-03T12:03:02Z</time>
      </trkpt>
      <trkpt lat="43.80065" lon="3.5776">
        <ele>302</ele>
        <time>2019-01-03T12:03:02Z</time>
      </trkpt>
      <trkpt lat="43.80067" lon="3.57759">
        <ele>302</ele>
        <time>2019-01-03T12:03:02Z</time>
      </trkpt>
      <trkpt lat="43.80068" lon="3.57753">
        <ele>302</ele>
        <time>2019-01-03T12:03:02Z</time>
      </trkpt>
      <trkpt lat="43.80069" lon="3.57749">
        <ele>302</ele>
        <time>2019-01-03T12:03:02Z</time>
      </trkpt>
      <trkpt lat="43.80069" lon="3.57745">
        <ele>302</ele>
        <time>2019-01-03T12:03:18Z</time>
      </trkpt>
      <trkpt lat="43.80069" lon="3.57739">
        <ele>302</ele>
        <time>2019-01-03T12:03:18Z</time>
      </trkpt>
      <trkpt lat="43.8007" lon="3.57734">
        <ele>302</ele>
        <time>2019-01-03T12:03:18Z</time>
      </trkpt>
      <trkpt lat="43.80072" lon="3.57729">
        <ele>302</ele>
        <time>2019-01-03T12:03:18Z</time>
      </trkpt>
      <trkpt lat="43.80074" lon="3.57723">
        <ele>302</ele>
        <time>2019-01-03T12:03:34Z</time>
      </trkpt>
      <trkpt lat="43.80076" lon="3.57717">
        <ele>302</ele>
        <time>2019-01-03T12:03:34Z</time>
      </trkpt>
      <trkpt lat="43.80075" lon="3.5771">
        <ele>302</ele>
        <time>2019-01-03T12:03:34Z</time>
      </trkpt>
      <trkpt lat="43.80075" lon="3.57704">
        <ele>316</ele>
        <time>2019-01-03T12:03:34Z</time>
      </trkpt>
      <trkpt lat="43.80075" lon="3.577">
        <ele>316</ele>
        <time>2019-01-03T12:03:54Z</time>
      </trkpt>
      <trkpt lat="43.80077" lon="3.57701">
        <ele>316</ele>
        <time>2019-01-03T12:03:54Z</time>
      </trkpt>
      <trkpt lat="43.80079" lon="3.57703">
        <ele>316</ele>
        <time>2019-01-03T12:03:54Z</time>
      </trkpt>
      <trkpt lat="43.80081" lon="3.57705">
        <ele>316</ele>
        <time>2019-01-03T12:03:54Z</time>
      </trkpt>
      <trkpt lat="43.80082" lon="3.57707">
        <ele>316</ele>
        <time>2019-01-03T12:03:54Z</time>
      </trkpt>
      <trkpt lat="43.80083" lon="3.57711">
        <ele>302</ele>
        <time>2019-01-03T12:04:10Z</time>
      </trkpt>
      <trkpt lat="43.80084" lon="3.57716">
        <ele>302</ele>
        <time>2019-01-03T12:04:10Z</time>
      </trkpt>
      <trkpt lat="43.80084" lon="3.57721">
        <ele>302</ele>
        <time>2019-01-03T12:04:10Z</time>
      </trkpt>
      <trkpt lat="43.80084" lon="3.57727">
        <ele>302</ele>
        <time>2019-01-03T12:04:10Z</time>
      </trkpt>
      <trkpt lat="43.80085" lon="3.57732">
        <ele>302</ele>
        <time>2019-01-03T12:04:26Z</time>
      </trkpt>
      <trkpt lat="43.80086" lon="3.57736">
        <ele>302</ele>
        <time>2019-01-03T12:04:26Z</time>
      </trkpt>
      <trkpt lat="43.80089" lon="3.57741">
        <ele>302</ele>
        <time>2019-01-03T12:04:26Z</time>
      </trkpt>
      <trkpt lat="43.80091" lon="3.57743">
        <ele>302</ele>
        <time>2019-01-03T12:04:26Z</time>
      </trkpt>
      <trkpt lat="43.80093" lon="3.57739">
        <ele>302</ele>
        <time>2019-01-03T12:04:42Z</time>
      </trkpt>
      <trkpt lat="43.80094" lon="3.57733">
        <ele>302</ele>
        <time>2019-01-03T12:04:42Z</time>
      </trkpt>
      <trkpt lat="43.80096" lon="3.57728">
        <ele>302</ele>
        <time>2019-01-03T12:04:42Z</time>
      </trkpt>
      <trkpt lat="43.80099" lon="3.57721">
        <ele>302</ele>
        <time>2019-01-03T12:04:42Z</time>
      </trkpt>
      <trkpt lat="43.80101" lon="3.57717">
        <ele>302</ele>
        <time>2019-01-03T12:05:02Z</time>
      </trkpt>
      <trkpt lat="43.80104" lon="3.57716">
        <ele>302</ele>
        <time>2019-01-03T12:05:02Z</time>
      </trkpt>
      <trkpt lat="43.80105" lon="3.57716">
        <ele>302</ele>
        <time>2019-01-03T12:05:02Z</time>
      </trkpt>
      <trkpt lat="43.80108" lon="3.57715">
        <ele>302</ele>
        <time>2019-01-03T12:05:02Z</time>
      </trkpt>
      <trkpt lat="43.80111" lon="3.57712">
        <ele>302</ele>
        <time>2019-01-03T12:05:02Z</time>
      </trkpt>
      <trkpt lat="43.80113" lon="3.57707">
        <ele>316</ele>
        <time>2019-01-03T12:05:30Z</time>
      </trkpt>
      <trkpt lat="43.80114" lon="3.57705">
        <ele>316</ele>
        <time>2019-01-03T12:05:30Z</time>
      </trkpt>
      <trkpt lat="43.80114" lon="3.57705">
        <ele>316</ele>
        <time>2019-01-03T12:05:30Z</time>
      </trkpt>
      <trkpt lat="43.80117" lon="3.577">
        <ele>316</ele>
        <time>2019-01-03T12:05:30Z</time>
      </trkpt>
      <trkpt lat="43.80119" lon="3.57695">
        <ele>316</ele>
        <time>2019-01-03T12:05:30Z</time>
      </trkpt>
      <trkpt lat="43.80121" lon="3.5769">
        <ele>316</ele>
        <time>2019-01-03T12:05:46Z</time>
      </trkpt>
      <trkpt lat="43.80124" lon="3.57683">
        <ele>316</ele>
        <time>2019-01-03T12:05:46Z</time>
      </trkpt>
      <trkpt lat="43.80125" lon="3.57679">
        <ele>316</ele>
        <time>2019-01-03T12:05:46Z</time>
      </trkpt>
      <trkpt lat="43.80125" lon="3.57677">
        <ele>318</ele>
        <time>2019-01-03T12:05:46Z</time>
      </trkpt>
      <trkpt lat="43.80128" lon="3.57668">
        <ele>318</ele>
        <time>2019-01-03T12:06:06Z</time>
      </trkpt>
      <trkpt lat="43.80128" lon="3.57664">
        <ele>318</ele>
        <time>2019-01-03T12:06:06Z</time>
      </trkpt>
      <trkpt lat="43.80129" lon="3.5766">
        <ele>318</ele>
        <time>2019-01-03T12:06:06Z</time>
      </trkpt>
      <trkpt lat="43.80129" lon="3.57651">
        <ele>318</ele>
        <time>2019-01-03T12:06:06Z</time>
      </trkpt>
      <trkpt lat="43.80129" lon="3.57647">
        <ele>318</ele>
        <time>2019-01-03T12:06:22Z</time>
      </trkpt>
      <trkpt lat="43.80129" lon="3.57644">
        <ele>318</ele>
        <time>2019-01-03T12:06:22Z</time>
      </trkpt>
      <trkpt lat="43.80129" lon="3.5764">
        <ele>318</ele>
        <time>2019-01-03T12:06:22Z</time>
      </trkpt>
      <trkpt lat="43.80129" lon="3.5763">
        <ele>318</ele>
        <time>2019-01-03T12:06:22Z</time>
      </trkpt>
      <trkpt lat="43.80129" lon="3.57628">
        <ele>318</ele>
        <time>2019-01-03T12:06:42Z</time>
      </trkpt>
      <trkpt lat="43.80129" lon="3.57623">
        <ele>344</ele>
        <time>2019-01-03T12:06:42Z</time>
      </trkpt>
      <trkpt lat="43.8013" lon="3.57618">
        <ele>344</ele>
        <time>2019-01-03T12:06:42Z</time>
      </trkpt>
      <trkpt lat="43.80131" lon="3.57611">
        <ele>344</ele>
        <time>2019-01-03T12:06:42Z</time>
      </trkpt>
      <trkpt lat="43.8013" lon="3.57608">
        <ele>344</ele>
        <time>2019-01-03T12:07:02Z</time>
      </trkpt>
      <trkpt lat="43.80129" lon="3.57606">
        <ele>344</ele>
        <time>2019-01-03T12:07:02Z</time>
      </trkpt>
      <trkpt lat="43.80126" lon="3.57599">
        <ele>344</ele>
        <time>2019-01-03T12:07:02Z</time>
      </trkpt>
      <trkpt lat="43.80125" lon="3.57593">
        <ele>344</ele>
        <time>2019-01-03T12:07:02Z</time>
      </trkpt>
      <trkpt lat="43.80125" lon="3.5759">
        <ele>327</ele>
        <time>2019-01-03T12:07:18Z</time>
      </trkpt>
      <trkpt lat="43.80122" lon="3.57584">
        <ele>327</ele>
        <time>2019-01-03T12:07:18Z</time>
      </trkpt>
      <trkpt lat="43.80119" lon="3.57577">
        <ele>327</ele>
        <time>2019-01-03T12:07:18Z</time>
      </trkpt>
      <trkpt lat="43.80117" lon="3.57571">
        <ele>327</ele>
        <time>2019-01-03T12:07:18Z</time>
      </trkpt>
      <trkpt lat="43.80116" lon="3.57569">
        <ele>327</ele>
        <time>2019-01-03T12:07:34Z</time>
      </trkpt>
      <trkpt lat="43.80114" lon="3.57563">
        <ele>327</ele>
        <time>2019-01-03T12:07:34Z</time>
      </trkpt>
      <trkpt lat="43.80112" lon="3.5756">
        <ele>327</ele>
        <time>2019-01-03T12:07:34Z</time>
      </trkpt>
      <trkpt lat="43.80111" lon="3.57554">
        <ele>327</ele>
        <time>2019-01-03T12:07:34Z</time>
      </trkpt>
      <trkpt lat="43.8011" lon="3.57549">
        <ele>327</ele>
        <time>2019-01-03T12:07:54Z</time>
      </trkpt>
      <trkpt lat="43.8011" lon="3.57543">
        <ele>327</ele>
        <time>2019-01-03T12:07:54Z</time>
      </trkpt>
      <trkpt lat="43.80109" lon="3.5754">
        <ele>346</ele>
        <time>2019-01-03T12:07:54Z</time>
      </trkpt>
      <trkpt lat="43.80109" lon="3.57538">
        <ele>346</ele>
        <time>2019-01-03T12:07:54Z</time>
      </trkpt>
      <trkpt lat="43.80109" lon="3.57533">
        <ele>346</ele>
        <time>2019-01-03T12:07:54Z</time>
      </trkpt>
      <trkpt lat="43.80111" lon="3.57526">
        <ele>346</ele>
        <time>2019-01-03T12:08:22Z</time>
      </trkpt>
      <trkpt lat="43.80111" lon="3.57523">
        <ele>346</ele>
        <time>2019-01-03T12:08:22Z</time>
      </trkpt>
      <trkpt lat="43.80109" lon="3.57521">
        <ele>346</ele>
        <time>2019-01-03T12:08:22Z</time>
      </trkpt>
      <trkpt lat="43.80109" lon="3.57519">
        <ele>346</ele>
        <time>2019-01-03T12:08:22Z</time>
      </trkpt>
      <trkpt lat="43.80107" lon="3.57516">
        <ele>346</ele>
        <time>2019-01-03T12:08:22Z</time>
      </trkpt>
      <trkpt lat="43.80106" lon="3.57513">
        <ele>346</ele>
        <time>2019-01-03T12:08:38Z</time>
      </trkpt>
      <trkpt lat="43.80104" lon="3.57506">
        <ele>346</ele>
        <time>2019-01-03T12:08:38Z</time>
      </trkpt>
      <trkpt lat="43.80102" lon="3.57498">
        <ele>346</ele>
        <time>2019-01-03T12:08:38Z</time>
      </trkpt>
      <trkpt lat="43.80099" lon="3.57494">
        <ele>346</ele>
        <time>2019-01-03T12:08:38Z</time>
      </trkpt>
      <trkpt lat="43.80099" lon="3.57493">
        <ele>346</ele>
        <time>2019-01-03T12:08:58Z</time>
      </trkpt>
      <trkpt lat="43.80097" lon="3.5749">
        <ele>346</ele>
        <time>2019-01-03T12:08:58Z</time>
      </trkpt>
      <trkpt lat="43.80096" lon="3.57484">
        <ele>346</ele>
        <time>2019-01-03T12:08:58Z</time>
      </trkpt>
      <trkpt lat="43.80096" lon="3.57481">
        <ele>346</ele>
        <time>2019-01-03T12:08:58Z</time>
      </trkpt>
      <trkpt lat="43.80095" lon="3.57474">
        <ele>346</ele>
        <time>2019-01-03T12:08:58Z</time>
      </trkpt>
      <trkpt lat="43.80093" lon="3.57471">
        <ele>346</ele>
        <time>2019-01-03T12:09:14Z</time>
      </trkpt>
      <trkpt lat="43.80089" lon="3.57467">
        <ele>346</ele>
        <time>2019-01-03T12:09:14Z</time>
      </trkpt>
      <trkpt lat="43.80084" lon="3.57461">
        <ele>346</ele>
        <time>2019-01-03T12:09:14Z</time>
      </trkpt>
      <trkpt lat="43.8008" lon="3.57457">
        <ele>386</ele>
        <time>2019-01-03T12:09:14Z</time>
      </trkpt>
      <trkpt lat="43.80076" lon="3.57455">
        <ele>386</ele>
        <time>2019-01-03T12:09:38Z</time>
      </trkpt>
      <trkpt lat="43.80074" lon="3.57453">
        <ele>386</ele>
        <time>2019-01-03T12:09:38Z</time>
      </trkpt>
      <trkpt lat="43.80073" lon="3.57449">
        <ele>386</ele>
        <time>2019-01-03T12:09:38Z</time>
      </trkpt>
      <trkpt lat="43.80073" lon="3.57446">
        <ele>386</ele>
        <time>2019-01-03T12:09:38Z</time>
      </trkpt>
      <trkpt lat="43.80071" lon="3.5744">
        <ele>386</ele>
        <time>2019-01-03T12:09:38Z</time>
      </trkpt>
      <trkpt lat="43.8007" lon="3.57438">
        <ele>386</ele>
        <time>2019-01-03T12:09:54Z</time>
      </trkpt>
      <trkpt lat="43.80068" lon="3.57428">
        <ele>386</ele>
        <time>2019-01-03T12:09:54Z</time>
      </trkpt>
      <trkpt lat="43.80065" lon="3.57422">
        <ele>386</ele>
        <time>2019-01-03T12:09:54Z</time>
      </trkpt>
      <trkpt lat="43.8006" lon="3.5742">
        <ele>386</ele>
        <time>2019-01-03T12:09:54Z</time>
      </trkpt>
      <trkpt lat="43.80059" lon="3.5742">
        <ele>386</ele>
        <time>2019-01-03T12:10:38Z</time>
      </trkpt>
      <trkpt lat="43.80058" lon="3.57416">
        <ele>386</ele>
        <time>2019-01-03T12:10:38Z</time>
      </trkpt>
      <trkpt lat="43.80056" lon="3.57415">
        <ele>386</ele>
        <time>2019-01-03T12:10:38Z</time>
      </trkpt>
      <trkpt lat="43.80053" lon="3.57413">
        <ele>386</ele>
        <time>2019-01-03T12:10:38Z</time>
      </trkpt>
      <trkpt lat="43.80052" lon="3.57406">
        <ele>386</ele>
        <time>2019-01-03T12:10:38Z</time>
      </trkpt>
      <trkpt lat="43.80051" lon="3.57404">
        <ele>386</ele>
        <time>2019-01-03T12:11:02Z</time>
      </trkpt>
      <trkpt lat="43.80049" lon="3.57395">
        <ele>386</ele>
        <time>2019-01-03T12:11:02Z</time>
      </trkpt>
      <trkpt lat="43.80046" lon="3.57388">
        <ele>386</ele>
        <time>2019-01-03T12:11:02Z</time>
      </trkpt>
      <trkpt lat="43.80043" lon="3.57381">
        <ele>386</ele>
        <time>2019-01-03T12:11:02Z</time>
      </trkpt>
      <trkpt lat="43.80042" lon="3.57376">
        <ele>386</ele>
        <time>2019-01-03T12:11:38Z</time>
      </trkpt>
      <trkpt lat="43.80045" lon="3.57378">
        <ele>386</ele>
        <time>2019-01-03T12:11:38Z</time>
      </trkpt>
      <trkpt lat="43.80049" lon="3.5738">
        <ele>386</ele>
        <time>2019-01-03T12:11:38Z</time>
      </trkpt>
      <trkpt lat="43.80051" lon="3.57386">
        <ele>386</ele>
        <time>2019-01-03T12:11:38Z</time>
      </trkpt>
      <trkpt lat="43.80052" lon="3.57391">
        <ele>386</ele>
        <time>2019-01-03T12:11:38Z</time>
      </trkpt>
      <trkpt lat="43.80054" lon="3.57391">
        <ele>386</ele>
        <time>2019-01-03T12:12:02Z</time>
      </trkpt>
      <trkpt lat="43.80056" lon="3.57391">
        <ele>386</ele>
        <time>2019-01-03T12:12:02Z</time>
      </trkpt>
      <trkpt lat="43.8006" lon="3.57391">
        <ele>386</ele>
        <time>2019-01-03T12:12:02Z</time>
      </trkpt>
      <trkpt lat="43.80064" lon="3.57393">
        <ele>386</ele>
        <time>2019-01-03T12:12:02Z</time>
      </trkpt>
      <trkpt lat="43.80068" lon="3.57398">
        <ele>386</ele>
        <time>2019-01-03T12:12:26Z</time>
      </trkpt>
      <trkpt lat="43.8007" lon="3.57399">
        <ele>386</ele>
        <time>2019-01-03T12:12:26Z</time>
      </trkpt>
      <trkpt lat="43.80072" lon="3.574">
        <ele>386</ele>
        <time>2019-01-03T12:12:26Z</time>
      </trkpt>
      <trkpt lat="43.80074" lon="3.57402">
        <ele>386</ele>
        <time>2019-01-03T12:12:26Z</time>
      </trkpt>
      <trkpt lat="43.80077" lon="3.57406">
        <ele>386</ele>
        <time>2019-01-03T12:12:26Z</time>
      </trkpt>
      <trkpt lat="43.80082" lon="3.57409">
        <ele>386</ele>
        <time>2019-01-03T12:13:06Z</time>
      </trkpt>
      <trkpt lat="43.80082" lon="3.57409">
        <ele>386</ele>
        <time>2019-01-03T12:13:06Z</time>
      </trkpt>
      <trkpt lat="43.80086" lon="3.57407">
        <ele>386</ele>
        <time>2019-01-03T12:13:06Z</time>
      </trkpt>
      <trkpt lat="43.80087" lon="3.57406">
        <ele>386</ele>
        <time>2019-01-03T12:13:06Z</time>
      </trkpt>
      <trkpt lat="43.80089" lon="3.57408">
        <ele>386</ele>
        <time>2019-01-03T12:13:06Z</time>
      </trkpt>
      <trkpt lat="43.80089" lon="3.57406">
        <ele>386</ele>
        <time>2019-01-03T12:13:46Z</time>
      </trkpt>
      <trkpt lat="43.8009" lon="3.57402">
        <ele>386</ele>
        <time>2019-01-03T12:13:46Z</time>
      </trkpt>
      <trkpt lat="43.8009" lon="3.57402">
        <ele>386</ele>
        <time>2019-01-03T12:13:46Z</time>
      </trkpt>
      <trkpt lat="43.8009" lon="3.57398">
        <ele>386</ele>
        <time>2019-01-03T12:13:46Z</time>
      </trkpt>
      <trkpt lat="43.80089" lon="3.57392">
        <ele>386</ele>
        <time>2019-01-03T12:13:46Z</time>
      </trkpt>
      <trkpt lat="43.80091" lon="3.57391">
        <ele>386</ele>
        <time>2019-01-03T12:14:06Z</time>
      </trkpt>
      <trkpt lat="43.80091" lon="3.57393">
        <ele>386</ele>
        <time>2019-01-03T12:14:06Z</time>
      </trkpt>
      <trkpt lat="43.80092" lon="3.57396">
        <ele>386</ele>
        <time>2019-01-03T12:14:06Z</time>
      </trkpt>
      <trkpt lat="43.80095" lon="3.57398">
        <ele>386</ele>
        <time>2019-01-03T12:14:06Z</time>
      </trkpt>
      <trkpt lat="43.80097" lon="3.57401">
        <ele>386</ele>
        <time>2019-01-03T12:14:06Z</time>
      </trkpt>
      <trkpt lat="43.80098" lon="3.57404">
        <ele>386</ele>
        <time>2019-01-03T12:14:26Z</time>
      </trkpt>
      <trkpt lat="43.801" lon="3.57409">
        <ele>386</ele>
        <time>2019-01-03T12:14:26Z</time>
      </trkpt>
      <trkpt lat="43.80102" lon="3.57412">
        <ele>386</ele>
        <time>2019-01-03T12:14:26Z</time>
      </trkpt>
      <trkpt lat="43.80103" lon="3.57412">
        <ele>386</ele>
        <time>2019-01-03T12:14:26Z</time>
      </trkpt>
      <trkpt lat="43.80105" lon="3.57415">
        <ele>386</ele>
        <time>2019-01-03T12:14:26Z</time>
      </trkpt>
      <trkpt lat="43.80105" lon="3.57415">
        <ele>386</ele>
        <time>2019-01-03T12:14:50Z</time>
      </trkpt>
      <trkpt lat="43.80107" lon="3.57413">
        <ele>386</ele>
        <time>2019-01-03T12:14:50Z</time>
      </trkpt>
      <trkpt lat="43.8011" lon="3.57408">
        <ele>386</ele>
        <time>2019-01-03T12:14:50Z</time>
      </trkpt>
      <trkpt lat="43.80113" lon="3.57404">
        <ele>386</ele>
        <time>2019-01-03T12:14:50Z</time>
      </trkpt>
      <trkpt lat="43.80114" lon="3.57401">
        <ele>386</ele>
        <time>2019-01-03T12:15:10Z</time>
      </trkpt>
      <trkpt lat="43.80113" lon="3.57398">
        <ele>386</ele>
        <time>2019-01-03T12:15:10Z</time>
      </trkpt>
      <trkpt lat="43.80113" lon="3.57394">
        <ele>386</ele>
        <time>2019-01-03T12:15:10Z</time>
      </trkpt>
      <trkpt lat="43.80112" lon="3.57391">
        <ele>386</ele>
        <time>2019-01-03T12:15:10Z</time>
      </trkpt>
      <trkpt lat="43.80111" lon="3.57387">
        <ele>386</ele>
        <time>2019-01-03T12:15:10Z</time>
      </trkpt>
      <trkpt lat="43.80112" lon="3.57388">
        <ele>386</ele>
        <time>2019-01-03T12:16:18Z</time>
      </trkpt>
      <trkpt lat="43.80114" lon="3.57392">
        <ele>386</ele>
        <time>2019-01-03T12:16:18Z</time>
      </trkpt>
      <trkpt lat="43.80116" lon="3.57395">
        <ele>386</ele>
        <time>2019-01-03T12:16:18Z</time>
      </trkpt>
      <trkpt lat="43.80119" lon="3.57396">
        <ele>386</ele>
        <time>2019-01-03T12:16:18Z</time>
      </trkpt>
      <trkpt lat="43.8012" lon="3.57398">
        <ele>386</ele>
        <time>2019-01-03T12:16:18Z</time>
      </trkpt>
      <trkpt lat="43.80123" lon="3.57399">
        <ele>386</ele>
        <time>2019-01-03T12:16:46Z</time>
      </trkpt>
      <trkpt lat="43.80125" lon="3.57403">
        <ele>418</ele>
        <time>2019-01-03T12:16:46Z</time>
      </trkpt>
      <trkpt lat="43.80125" lon="3.57404">
        <ele>418</ele>
        <time>2019-01-03T12:16:46Z</time>
      </trkpt>
      <trkpt lat="43.80126" lon="3.57409">
        <ele>418</ele>
        <time>2019-01-03T12:16:46Z</time>
      </trkpt>
      <trkpt lat="43.80127" lon="3.57414">
        <ele>418</ele>
        <time>2019-01-03T12:16:46Z</time>
      </trkpt>
      <trkpt lat="43.8013" lon="3.57415">
        <ele>418</ele>
        <time>2019-01-03T12:17:02Z</time>
      </trkpt>
      <trkpt lat="43.80134" lon="3.5741">
        <ele>418</ele>
        <time>2019-01-03T12:17:02Z</time>
      </trkpt>
      <trkpt lat="43.80137" lon="3.57406">
        <ele>418</ele>
        <time>2019-01-03T12:17:02Z</time>
      </trkpt>
      <trkpt lat="43.80138" lon="3.57403">
        <ele>418</ele>
        <time>2019-01-03T12:17:02Z</time>
      </trkpt>
      <trkpt lat="43.80139" lon="3.57398">
        <ele>418</ele>
        <time>2019-01-03T12:17:18Z</time>
      </trkpt>
      <trkpt lat="43.80138" lon="3.57394">
        <ele>418</ele>
        <time>2019-01-03T12:17:18Z</time>
      </trkpt>
      <trkpt lat="43.80137" lon="3.5739">
        <ele>418</ele>
        <time>2019-01-03T12:17:18Z</time>
      </trkpt>
      <trkpt lat="43.80137" lon="3.57385">
        <ele>418</ele>
        <time>2019-01-03T12:17:18Z</time>
      </trkpt>
      <trkpt lat="43.80137" lon="3.57381">
        <ele>418</ele>
        <time>2019-01-03T12:17:34Z</time>
      </trkpt>
      <trkpt lat="43.80136" lon="3.57377">
        <ele>418</ele>
        <time>2019-01-03T12:17:34Z</time>
      </trkpt>
      <trkpt lat="43.80134" lon="3.57373">
        <ele>447</ele>
        <time>2019-01-03T12:17:34Z</time>
      </trkpt>
      <trkpt lat="43.80132" lon="3.57368">
        <ele>447</ele>
        <time>2019-01-03T12:17:34Z</time>
      </trkpt>
      <trkpt lat="43.8013" lon="3.57364">
        <ele>447</ele>
        <time>2019-01-03T12:17:54Z</time>
      </trkpt>
      <trkpt lat="43.80128" lon="3.57361">
        <ele>447</ele>
        <time>2019-01-03T12:17:54Z</time>
      </trkpt>
      <trkpt lat="43.80126" lon="3.57356">
        <ele>447</ele>
        <time>2019-01-03T12:17:54Z</time>
      </trkpt>
      <trkpt lat="43.80125" lon="3.57353">
        <ele>447</ele>
        <time>2019-01-03T12:17:54Z</time>
      </trkpt>
      <trkpt lat="43.80126" lon="3.57356">
        <ele>447</ele>
        <time>2019-01-03T12:18:14Z</time>
      </trkpt>
      <trkpt lat="43.80127" lon="3.57357">
        <ele>447</ele>
        <time>2019-01-03T12:18:14Z</time>
      </trkpt>
      <trkpt lat="43.80129" lon="3.57359">
        <ele>447</ele>
        <time>2019-01-03T12:18:14Z</time>
      </trkpt>
      <trkpt lat="43.80131" lon="3.57362">
        <ele>447</ele>
        <time>2019-01-03T12:18:14Z</time>
      </trkpt>
      <trkpt lat="43.80133" lon="3.57366">
        <ele>447</ele>
        <time>2019-01-03T12:18:14Z</time>
      </trkpt>
      <trkpt lat="43.80135" lon="3.57371">
        <ele>447</ele>
        <time>2019-01-03T12:18:30Z</time>
      </trkpt>
      <trkpt lat="43.80139" lon="3.57373">
        <ele>447</ele>
        <time>2019-01-03T12:18:30Z</time>
      </trkpt>
      <trkpt lat="43.80142" lon="3.57374">
        <ele>447</ele>
        <time>2019-01-03T12:18:30Z</time>
      </trkpt>
      <trkpt lat="43.80146" lon="3.57376">
        <ele>418</ele>
        <time>2019-01-03T12:18:30Z</time>
      </trkpt>
      <trkpt lat="43.80147" lon="3.57377">
        <ele>418</ele>
        <time>2019-01-03T12:18:50Z</time>
      </trkpt>
      <trkpt lat="43.80148" lon="3.57379">
        <ele>418</ele>
        <time>2019-01-03T12:18:50Z</time>
      </trkpt>
      <trkpt lat="43.8015" lon="3.57384">
        <ele>418</ele>
        <time>2019-01-03T12:18:50Z</time>
      </trkpt>
      <trkpt lat="43.80153" lon="3.57386">
        <ele>418</ele>
        <time>2019-01-03T12:18:50Z</time>
      </trkpt>
      <trkpt lat="43.80157" lon="3.57387">
        <ele>418</ele>
        <time>2019-01-03T12:18:50Z</time>
      </trkpt>
      <trkpt lat="43.80161" lon="3.57387">
        <ele>418</ele>
        <time>2019-01-03T12:19:06Z</time>
      </trkpt>
      <trkpt lat="43.80164" lon="3.57387">
        <ele>418</ele>
        <time>2019-01-03T12:19:06Z</time>
      </trkpt>
      <trkpt lat="43.80169" lon="3.57387">
        <ele>418</ele>
        <time>2019-01-03T12:19:06Z</time>
      </trkpt>
      <trkpt lat="43.80171" lon="3.57387">
        <ele>418</ele>
        <time>2019-01-03T12:19:06Z</time>
      </trkpt>
      <trkpt lat="43.80178" lon="3.5739">
        <ele>418</ele>
        <time>2019-01-03T12:19:30Z</time>
      </trkpt>
      <trkpt lat="43.8018" lon="3.57392">
        <ele>418</ele>
        <time>2019-01-03T12:19:30Z</time>
      </trkpt>
      <trkpt lat="43.8018" lon="3.57392">
        <ele>418</ele>
        <time>2019-01-03T12:19:30Z</time>
      </trkpt>
      <trkpt lat="43.80182" lon="3.57388">
        <ele>418</ele>
        <time>2019-01-03T12:19:30Z</time>
      </trkpt>
      <trkpt lat="43.80183" lon="3.57383">
        <ele>418</ele>
        <time>2019-01-03T12:19:30Z</time>
      </trkpt>
      <trkpt lat="43.80184" lon="3.57381">
        <ele>418</ele>
        <time>2019-01-03T12:19:46Z</time>
      </trkpt>
      <trkpt lat="43.80184" lon="3.57377">
        <ele>418</ele>
        <time>2019-01-03T12:19:46Z</time>
      </trkpt>
      <trkpt lat="43.80183" lon="3.57372">
        <ele>447</ele>
        <time>2019-01-03T12:19:46Z</time>
      </trkpt>
      <trkpt lat="43.80182" lon="3.57368">
        <ele>447</ele>
        <time>2019-01-03T12:19:46Z</time>
      </trkpt>
      <trkpt lat="43.80178" lon="3.57364">
        <ele>447</ele>
        <time>2019-01-03T12:20:02Z</time>
      </trkpt>
      <trkpt lat="43.80176" lon="3.57361">
        <ele>447</ele>
        <time>2019-01-03T12:20:02Z</time>
      </trkpt>
      <trkpt lat="43.80173" lon="3.57356">
        <ele>447</ele>
        <time>2019-01-03T12:20:02Z</time>
      </trkpt>
      <trkpt lat="43.8017" lon="3.57353">
        <ele>447</ele>
        <time>2019-01-03T12:20:02Z</time>
      </trkpt>
      <trkpt lat="43.80168" lon="3.57349">
        <ele>447</ele>
        <time>2019-01-03T12:20:34Z</time>
      </trkpt>
      <trkpt lat="43.80171" lon="3.57351">
        <ele>447</ele>
        <time>2019-01-03T12:20:34Z</time>
      </trkpt>
      <trkpt lat="43.80174" lon="3.57352">
        <ele>447</ele>
        <time>2019-01-03T12:20:34Z</time>
      </trkpt>
      <trkpt lat="43.80175" lon="3.57354">
        <ele>447</ele>
        <time>2019-01-03T12:20:34Z</time>
      </trkpt>
      <trkpt lat="43.80178" lon="3.57356">
        <ele>447</ele>
        <time>2019-01-03T12:20:34Z</time>
      </trkpt>
      <trkpt lat="43.80181" lon="3.57358">
        <ele>447</ele>
        <time>2019-01-03T12:20:50Z</time>
      </trkpt>
      <trkpt lat="43.80184" lon="3.5736">
        <ele>447</ele>
        <time>2019-01-03T12:20:50Z</time>
      </trkpt>
      <trkpt lat="43.80188" lon="3.57362">
        <ele>447</ele>
        <time>2019-01-03T12:20:50Z</time>
      </trkpt>
      <trkpt lat="43.80192" lon="3.57363">
        <ele>447</ele>
        <time>2019-01-03T12:20:50Z</time>
      </trkpt>
      <trkpt lat="43.80195" lon="3.57363">
        <ele>447</ele>
        <time>2019-01-03T12:21:06Z</time>
      </trkpt>
      <trkpt lat="43.80197" lon="3.57365">
        <ele>447</ele>
        <time>2019-01-03T12:21:06Z</time>
      </trkpt>
      <trkpt lat="43.80199" lon="3.57368">
        <ele>447</ele>
        <time>2019-01-03T12:21:06Z</time>
      </trkpt>
      <trkpt lat="43.80203" lon="3.5737">
        <ele>447</ele>
        <time>2019-01-03T12:21:06Z</time>
      </trkpt>
      <trkpt lat="43.80205" lon="3.57373">
        <ele>447</ele>
        <time>2019-01-03T12:21:22Z</time>
      </trkpt>
      <trkpt lat="43.80209" lon="3.57376">
        <ele>440</ele>
        <time>2019-01-03T12:21:22Z</time>
      </trkpt>
      <trkpt lat="43.80211" lon="3.57379">
        <ele>440</ele>
        <time>2019-01-03T12:21:22Z</time>
      </trkpt>
      <trkpt lat="43.80214" lon="3.57384">
        <ele>440</ele>
        <time>2019-01-03T12:21:22Z</time>
      </trkpt>
      <trkpt lat="43.80215" lon="3.57385">
        <ele>440</ele>
        <time>2019-01-03T12:21:38Z</time>
      </trkpt>
      <trkpt lat="43.80219" lon="3.57387">
        <ele>440</ele>
        <time>2019-01-03T12:21:38Z</time>
      </trkpt>
      <trkpt lat="43.80222" lon="3.57388">
        <ele>440</ele>
        <time>2019-01-03T12:21:38Z</time>
      </trkpt>
      <trkpt lat="43.80225" lon="3.5739">
        <ele>440</ele>
        <time>2019-01-03T12:21:38Z</time>
      </trkpt>
      <trkpt lat="43.80227" lon="3.57392">
        <ele>440</ele>
        <time>2019-01-03T12:22:22Z</time>
      </trkpt>
      <trkpt lat="43.8023" lon="3.57393">
        <ele>440</ele>
        <time>2019-01-03T12:22:22Z</time>
      </trkpt>
      <trkpt lat="43.80233" lon="3.57395">
        <ele>440</ele>
        <time>2019-01-03T12:22:22Z</time>
      </trkpt>
      <trkpt lat="43.80234" lon="3.57396">
        <ele>440</ele>
        <time>2019-01-03T12:22:22Z</time>
      </trkpt>
      <trkpt lat="43.80237" lon="3.57394">
        <ele>440</ele>
        <time>2019-01-03T12:22:22Z</time>
      </trkpt>
      <trkpt lat="43.80236" lon="3.57389">
        <ele>440</ele>
        <time>2019-01-03T12:22:38Z</time>
      </trkpt>
      <trkpt lat="43.80234" lon="3.57386">
        <ele>440</ele>
        <time>2019-01-03T12:22:38Z</time>
      </trkpt>
      <trkpt lat="43.80232" lon="3.57381">
        <ele>440</ele>
        <time>2019-01-03T12:22:38Z</time>
      </trkpt>
      <trkpt lat="43.80229" lon="3.57378">
        <ele>440</ele>
        <time>2019-01-03T12:22:38Z</time>
      </trkpt>
      <trkpt lat="43.80226" lon="3.57371">
        <ele>478</ele>
        <time>2019-01-03T12:23:18Z</time>
      </trkpt>
      <trkpt lat="43.80225" lon="3.5737">
        <ele>478</ele>
        <time>2019-01-03T12:23:18Z</time>
      </trkpt>
      <trkpt lat="43.80223" lon="3.57367">
        <ele>478</ele>
        <time>2019-01-03T12:23:18Z</time>
      </trkpt>
      <trkpt lat="43.80223" lon="3.57367">
        <ele>478</ele>
        <time>2019-01-03T12:23:18Z</time>
      </trkpt>
      <trkpt lat="43.80224" lon="3.57362">
        <ele>478</ele>
        <time>2019-01-03T12:23:18Z</time>
      </trkpt>
      <trkpt lat="43.80223" lon="3.57353">
        <ele>478</ele>
        <time>2019-01-03T12:23:38Z</time>
      </trkpt>
      <trkpt lat="43.80222" lon="3.57349">
        <ele>478</ele>
        <time>2019-01-03T12:23:38Z</time>
      </trkpt>
      <trkpt lat="43.80221" lon="3.57346">
        <ele>478</ele>
        <time>2019-01-03T12:23:38Z</time>
      </trkpt>
      <trkpt lat="43.8022" lon="3.57342">
        <ele>478</ele>
        <time>2019-01-03T12:23:38Z</time>
      </trkpt>
      <trkpt lat="43.80219" lon="3.57339">
        <ele>478</ele>
        <time>2019-01-03T12:23:38Z</time>
      </trkpt>
      <trkpt lat="43.80217" lon="3.57336">
        <ele>478</ele>
        <time>2019-01-03T12:23:54Z</time>
      </trkpt>
      <trkpt lat="43.80216" lon="3.57331">
        <ele>478</ele>
        <time>2019-01-03T12:23:54Z</time>
      </trkpt>
      <trkpt lat="43.80212" lon="3.57329">
        <ele>478</ele>
        <time>2019-01-03T12:23:54Z</time>
      </trkpt>
      <trkpt lat="43.80209" lon="3.57324">
        <ele>478</ele>
        <time>2019-01-03T12:23:54Z</time>
      </trkpt>
      <trkpt lat="43.80206" lon="3.57321">
        <ele>447</ele>
        <time>2019-01-03T12:24:10Z</time>
      </trkpt>
      <trkpt lat="43.80202" lon="3.57319">
        <ele>447</ele>
        <time>2019-01-03T12:24:10Z</time>
      </trkpt>
      <trkpt lat="43.80197" lon="3.57316">
        <ele>447</ele>
        <time>2019-01-03T12:24:10Z</time>
      </trkpt>
      <trkpt lat="43.80194" lon="3.57312">
        <ele>447</ele>
        <time>2019-01-03T12:24:10Z</time>
      </trkpt>
      <trkpt lat="43.80193" lon="3.5731">
        <ele>447</ele>
        <time>2019-01-03T12:24:58Z</time>
      </trkpt>
      <trkpt lat="43.80196" lon="3.5731">
        <ele>447</ele>
        <time>2019-01-03T12:24:58Z</time>
      </trkpt>
      <trkpt lat="43.80197" lon="3.57311">
        <ele>447</ele>
        <time>2019-01-03T12:24:58Z</time>
      </trkpt>
      <trkpt lat="43.80199" lon="3.57311">
        <ele>447</ele>
        <time>2019-01-03T12:24:58Z</time>
      </trkpt>
      <trkpt lat="43.80202" lon="3.57312">
        <ele>447</ele>
        <time>2019-01-03T12:24:58Z</time>
      </trkpt>
      <trkpt lat="43.80205" lon="3.57313">
        <ele>447</ele>
        <time>2019-01-03T12:25:14Z</time>
      </trkpt>
      <trkpt lat="43.80207" lon="3.57314">
        <ele>447</ele>
        <time>2019-01-03T12:25:14Z</time>
      </trkpt>
      <trkpt lat="43.80213" lon="3.57314">
        <ele>478</ele>
        <time>2019-01-03T12:25:14Z</time>
      </trkpt>
      <trkpt lat="43.80217" lon="3.57315">
        <ele>478</ele>
        <time>2019-01-03T12:25:14Z</time>
      </trkpt>
      <trkpt lat="43.80218" lon="3.57317">
        <ele>478</ele>
        <time>2019-01-03T12:25:34Z</time>
      </trkpt>
      <trkpt lat="43.8022" lon="3.57321">
        <ele>478</ele>
        <time>2019-01-03T12:25:34Z</time>
      </trkpt>
      <trkpt lat="43.80223" lon="3.57323">
        <ele>478</ele>
        <time>2019-01-03T12:25:34Z</time>
      </trkpt>
      <trkpt lat="43.80225" lon="3.57324">
        <ele>478</ele>
        <time>2019-01-03T12:25:34Z</time>
      </trkpt>
      <trkpt lat="43.80227" lon="3.57326">
        <ele>478</ele>
        <time>2019-01-03T12:25:34Z</time>
      </trkpt>
      <trkpt lat="43.8023" lon="3.57328">
        <ele>478</ele>
        <time>2019-01-03T12:25:50Z</time>
      </trkpt>
      <trkpt lat="43.80232" lon="3.57331">
        <ele>478</ele>
        <time>2019-01-03T12:25:50Z</time>
      </trkpt>
      <trkpt lat="43.80235" lon="3.57334">
        <ele>478</ele>
        <time>2019-01-03T12:25:50Z</time>
      </trkpt>
      <trkpt lat="43.80237" lon="3.57337">
        <ele>478</ele>
        <time>2019-01-03T12:25:50Z</time>
      </trkpt>
      <trkpt lat="43.80238" lon="3.57343">
        <ele>478</ele>
        <time>2019-01-03T12:26:06Z</time>
      </trkpt>
      <trkpt lat="43.80242" lon="3.57346">
        <ele>478</ele>
        <time>2019-01-03T12:26:06Z</time>
      </trkpt>
      <trkpt lat="43.80246" lon="3.57346">
        <ele>478</ele>
        <time>2019-01-03T12:26:06Z</time>
      </trkpt>
      <trkpt lat="43.80249" lon="3.57347">
        <ele>478</ele>
        <time>2019-01-03T12:26:06Z</time>
      </trkpt>
      <trkpt lat="43.80249" lon="3.57347">
        <ele>478</ele>
        <time>2019-01-03T12:26:22Z</time>
      </trkpt>
      <trkpt lat="43.8025" lon="3.57347">
        <ele>478</ele>
        <time>2019-01-03T12:26:22Z</time>
      </trkpt>
      <trkpt lat="43.80255" lon="3.57349">
        <ele>478</ele>
        <time>2019-01-03T12:26:22Z</time>
      </trkpt>
      <trkpt lat="43.80258" lon="3.57352">
        <ele>478</ele>
        <time>2019-01-03T12:26:22Z</time>
      </trkpt>
      <trkpt lat="43.80261" lon="3.57355">
        <ele>478</ele>
        <time>2019-01-03T12:26:38Z</time>
      </trkpt>
      <trkpt lat="43.80265" lon="3.57358">
        <ele>478</ele>
        <time>2019-01-03T12:26:38Z</time>
      </trkpt>
      <trkpt lat="43.80269" lon="3.57362">
        <ele>478</ele>
        <time>2019-01-03T12:26:38Z</time>
      </trkpt>
      <trkpt lat="43.80273" lon="3.57365">
        <ele>478</ele>
        <time>2019-01-03T12:26:38Z</time>
      </trkpt>
      <trkpt lat="43.80278" lon="3.57367">
        <ele>478</ele>
        <time>2019-01-03T12:26:54Z</time>
      </trkpt>
      <trkpt lat="43.80283" lon="3.57369">
        <ele>478</ele>
        <time>2019-01-03T12:26:54Z</time>
      </trkpt>
      <trkpt lat="43.80288" lon="3.57371">
        <ele>478</ele>
        <time>2019-01-03T12:26:54Z</time>
      </trkpt>
      <trkpt lat="43.80293" lon="3.57372">
        <ele>501</ele>
        <time>2019-01-03T12:26:54Z</time>
      </trkpt>
      <trkpt lat="43.80297" lon="3.57375">
        <ele>501</ele>
        <time>2019-01-03T12:27:10Z</time>
      </trkpt>
      <trkpt lat="43.80301" lon="3.57377">
        <ele>460</ele>
        <time>2019-01-03T12:27:10Z</time>
      </trkpt>
      <trkpt lat="43.80305" lon="3.57379">
        <ele>460</ele>
        <time>2019-01-03T12:27:10Z</time>
      </trkpt>
      <trkpt lat="43.8031" lon="3.5738">
        <ele>460</ele>
        <time>2019-01-03T12:27:10Z</time>
      </trkpt>
      <trkpt lat="43.80314" lon="3.57382">
        <ele>460</ele>
        <time>2019-01-03T12:27:26Z</time>
      </trkpt>
      <trkpt lat="43.80318" lon="3.57384">
        <ele>460</ele>
        <time>2019-01-03T12:27:26Z</time>
      </trkpt>
      <trkpt lat="43.80323" lon="3.57384">
        <ele>460</ele>
        <time>2019-01-03T12:27:26Z</time>
      </trkpt>
      <trkpt lat="43.80325" lon="3.57384">
        <ele>460</ele>
        <time>2019-01-03T12:27:26Z</time>
      </trkpt>
      <trkpt lat="43.80327" lon="3.57384">
        <ele>460</ele>
        <time>2019-01-03T12:28:22Z</time>
      </trkpt>
      <trkpt lat="43.8033" lon="3.57384">
        <ele>460</ele>
        <time>2019-01-03T12:28:22Z</time>
      </trkpt>
      <trkpt lat="43.80334" lon="3.57383">
        <ele>460</ele>
        <time>2019-01-03T12:28:22Z</time>
      </trkpt>
      <trkpt lat="43.80342" lon="3.57382">
        <ele>460</ele>
        <time>2019-01-03T12:28:22Z</time>
      </trkpt>
      <trkpt lat="43.80353" lon="3.57382">
        <ele>460</ele>
        <time>2019-01-03T12:28:38Z</time>
      </trkpt>
      <trkpt lat="43.80358" lon="3.5738">
        <ele>460</ele>
        <time>2019-01-03T12:28:38Z</time>
      </trkpt>
      <trkpt lat="43.80365" lon="3.57378">
        <ele>460</ele>
        <time>2019-01-03T12:28:38Z</time>
      </trkpt>
      <trkpt lat="43.80369" lon="3.57378">
        <ele>460</ele>
        <time>2019-01-03T12:28:38Z</time>
      </trkpt>
      <trkpt lat="43.80373" lon="3.57376">
        <ele>460</ele>
        <time>2019-01-03T12:28:58Z</time>
      </trkpt>
      <trkpt lat="43.80375" lon="3.57377">
        <ele>480</ele>
        <time>2019-01-03T12:28:58Z</time>
      </trkpt>
      <trkpt lat="43.8038" lon="3.57379">
        <ele>480</ele>
        <time>2019-01-03T12:28:58Z</time>
      </trkpt>
      <trkpt lat="43.80383" lon="3.5738">
        <ele>480</ele>
        <time>2019-01-03T12:28:58Z</time>
      </trkpt>
      <trkpt lat="43.80385" lon="3.5738">
        <ele>480</ele>
        <time>2019-01-03T12:29:22Z</time>
      </trkpt>
      <trkpt lat="43.80386" lon="3.57381">
        <ele>480</ele>
        <time>2019-01-03T12:29:22Z</time>
      </trkpt>
      <trkpt lat="43.8039" lon="3.57383">
        <ele>480</ele>
        <time>2019-01-03T12:29:22Z</time>
      </trkpt>
      <trkpt lat="43.80394" lon="3.57385">
        <ele>480</ele>
        <time>2019-01-03T12:29:22Z</time>
      </trkpt>
      <trkpt lat="43.80399" lon="3.57387">
        <ele>480</ele>
        <time>2019-01-03T12:29:38Z</time>
      </trkpt>
      <trkpt lat="43.80404" lon="3.57389">
        <ele>480</ele>
        <time>2019-01-03T12:29:38Z</time>
      </trkpt>
      <trkpt lat="43.80409" lon="3.57391">
        <ele>480</ele>
        <time>2019-01-03T12:29:38Z</time>
      </trkpt>
      <trkpt lat="43.80414" lon="3.57392">
        <ele>480</ele>
        <time>2019-01-03T12:29:38Z</time>
      </trkpt>
      <trkpt lat="43.80418" lon="3.57392">
        <ele>480</ele>
        <time>2019-01-03T12:29:54Z</time>
      </trkpt>
      <trkpt lat="43.80422" lon="3.57394">
        <ele>480</ele>
        <time>2019-01-03T12:29:54Z</time>
      </trkpt>
      <trkpt lat="43.80426" lon="3.57396">
        <ele>480</ele>
        <time>2019-01-03T12:29:54Z</time>
      </trkpt>
      <trkpt lat="43.80431" lon="3.57397">
        <ele>480</ele>
        <time>2019-01-03T12:29:54Z</time>
      </trkpt>
      <trkpt lat="43.80434" lon="3.57397">
        <ele>480</ele>
        <time>2019-01-03T12:30:14Z</time>
      </trkpt>
      <trkpt lat="43.80437" lon="3.57398">
        <ele>480</ele>
        <time>2019-01-03T12:30:14Z</time>
      </trkpt>
      <trkpt lat="43.80438" lon="3.57398">
        <ele>480</ele>
        <time>2019-01-03T12:30:14Z</time>
      </trkpt>
      <trkpt lat="43.80441" lon="3.57399">
        <ele>480</ele>
        <time>2019-01-03T12:30:14Z</time>
      </trkpt>
      <trkpt lat="43.80447" lon="3.57398">
        <ele>480</ele>
        <time>2019-01-03T12:30:14Z</time>
      </trkpt>
      <trkpt lat="43.80451" lon="3.57396">
        <ele>480</ele>
        <time>2019-01-03T12:30:30Z</time>
      </trkpt>
      <trkpt lat="43.80457" lon="3.57395">
        <ele>480</ele>
        <time>2019-01-03T12:30:30Z</time>
      </trkpt>
      <trkpt lat="43.8046" lon="3.57395">
        <ele>500</ele>
        <time>2019-01-03T12:30:30Z</time>
      </trkpt>
      <trkpt lat="43.80464" lon="3.57395">
        <ele>500</ele>
        <time>2019-01-03T12:30:30Z</time>
      </trkpt>
      <trkpt lat="43.80468" lon="3.57396">
        <ele>500</ele>
        <time>2019-01-03T12:30:46Z</time>
      </trkpt>
      <trkpt lat="43.80471" lon="3.57396">
        <ele>500</ele>
        <time>2019-01-03T12:30:46Z</time>
      </trkpt>
      <trkpt lat="43.80474" lon="3.57395">
        <ele>500</ele>
        <time>2019-01-03T12:30:46Z</time>
      </trkpt>
      <trkpt lat="43.80478" lon="3.57396">
        <ele>500</ele>
        <time>2019-01-03T12:30:46Z</time>
      </trkpt>
      <trkpt lat="43.80482" lon="3.57396">
        <ele>500</ele>
        <time>2019-01-03T12:31:02Z</time>
      </trkpt>
      <trkpt lat="43.80484" lon="3.57394">
        <ele>500</ele>
        <time>2019-01-03T12:31:02Z</time>
      </trkpt>
      <trkpt lat="43.80489" lon="3.57394">
        <ele>500</ele>
        <time>2019-01-03T12:31:02Z</time>
      </trkpt>
      <trkpt lat="43.80493" lon="3.57394">
        <ele>500</ele>
        <time>2019-01-03T12:31:02Z</time>
      </trkpt>
      <trkpt lat="43.80497" lon="3.57394">
        <ele>500</ele>
        <time>2019-01-03T12:31:22Z</time>
      </trkpt>
      <trkpt lat="43.80501" lon="3.57394">
        <ele>500</ele>
        <time>2019-01-03T12:31:22Z</time>
      </trkpt>
      <trkpt lat="43.80504" lon="3.57394">
        <ele>500</ele>
        <time>2019-01-03T12:31:22Z</time>
      </trkpt>
      <trkpt lat="43.80506" lon="3.57393">
        <ele>500</ele>
        <time>2019-01-03T12:31:22Z</time>
      </trkpt>
      <trkpt lat="43.80508" lon="3.57393">
        <ele>500</ele>
        <time>2019-01-03T12:31:22Z</time>
      </trkpt>
      <trkpt lat="43.80512" lon="3.57393">
        <ele>500</ele>
        <time>2019-01-03T12:31:42Z</time>
      </trkpt>
      <trkpt lat="43.80516" lon="3.57392">
        <ele>500</ele>
        <time>2019-01-03T12:31:42Z</time>
      </trkpt>
      <trkpt lat="43.80517" lon="3.57391">
        <ele>500</ele>
        <time>2019-01-03T12:31:42Z</time>
      </trkpt>
      <trkpt lat="43.80519" lon="3.57391">
        <ele>500</ele>
        <time>2019-01-03T12:31:42Z</time>
      </trkpt>
      <trkpt lat="43.80523" lon="3.57392">
        <ele>500</ele>
        <time>2019-01-03T12:31:42Z</time>
      </trkpt>
      <trkpt lat="43.80526" lon="3.57393">
        <ele>500</ele>
        <time>2019-01-03T12:31:58Z</time>
      </trkpt>
      <trkpt lat="43.80532" lon="3.57393">
        <ele>500</ele>
        <time>2019-01-03T12:31:58Z</time>
      </trkpt>
      <trkpt lat="43.80535" lon="3.57392">
        <ele>500</ele>
        <time>2019-01-03T12:31:58Z</time>
      </trkpt>
      <trkpt lat="43.8054" lon="3.57394">
        <ele>500</ele>
        <time>2019-01-03T12:31:58Z</time>
      </trkpt>
      <trkpt lat="43.80545" lon="3.57396">
        <ele>518</ele>
        <time>2019-01-03T12:32:14Z</time>
      </trkpt>
      <trkpt lat="43.80549" lon="3.57399">
        <ele>518</ele>
        <time>2019-01-03T12:32:14Z</time>
      </trkpt>
      <trkpt lat="43.80552" lon="3.57401">
        <ele>518</ele>
        <time>2019-01-03T12:32:14Z</time>
      </trkpt>
      <trkpt lat="43.80555" lon="3.57404">
        <ele>518</ele>
        <time>2019-01-03T12:32:14Z</time>
      </trkpt>
      <trkpt lat="43.80557" lon="3.57407">
        <ele>518</ele>
        <time>2019-01-03T12:32:30Z</time>
      </trkpt>
      <trkpt lat="43.8056" lon="3.5741">
        <ele>518</ele>
        <time>2019-01-03T12:32:30Z</time>
      </trkpt>
      <trkpt lat="43.80562" lon="3.57412">
        <ele>518</ele>
        <time>2019-01-03T12:32:30Z</time>
      </trkpt>
      <trkpt lat="43.80566" lon="3.57413">
        <ele>518</ele>
        <time>2019-01-03T12:32:30Z</time>
      </trkpt>
      <trkpt lat="43.80569" lon="3.57416">
        <ele>518</ele>
        <time>2019-01-03T12:32:46Z</time>
      </trkpt>
      <trkpt lat="43.80573" lon="3.57418">
        <ele>518</ele>
        <time>2019-01-03T12:32:46Z</time>
      </trkpt>
      <trkpt lat="43.80576" lon="3.57421">
        <ele>518</ele>
        <time>2019-01-03T12:32:46Z</time>
      </trkpt>
      <trkpt lat="43.80578" lon="3.57421">
        <ele>518</ele>
        <time>2019-01-03T12:32:46Z</time>
      </trkpt>
      <trkpt lat="43.80581" lon="3.57423">
        <ele>518</ele>
        <time>2019-01-03T12:33:02Z</time>
      </trkpt>
      <trkpt lat="43.80586" lon="3.57425">
        <ele>518</ele>
        <time>2019-01-03T12:33:02Z</time>
      </trkpt>
      <trkpt lat="43.80588" lon="3.57427">
        <ele>518</ele>
        <time>2019-01-03T12:33:02Z</time>
      </trkpt>
      <trkpt lat="43.8059" lon="3.57428">
        <ele>518</ele>
        <time>2019-01-03T12:33:02Z</time>
      </trkpt>
      <trkpt lat="43.80594" lon="3.57429">
        <ele>518</ele>
        <time>2019-01-03T12:33:18Z</time>
      </trkpt>
      <trkpt lat="43.80597" lon="3.5743">
        <ele>518</ele>
        <time>2019-01-03T12:33:18Z</time>
      </trkpt>
      <trkpt lat="43.80601" lon="3.5743">
        <ele>518</ele>
        <time>2019-01-03T12:33:18Z</time>
      </trkpt>
      <trkpt lat="43.80606" lon="3.5743">
        <ele>518</ele>
        <time>2019-01-03T12:33:18Z</time>
      </trkpt>
      <trkpt lat="43.80611" lon="3.57433">
        <ele>518</ele>
        <time>2019-01-03T12:33:42Z</time>
      </trkpt>
      <trkpt lat="43.80615" lon="3.57435">
        <ele>518</ele>
        <time>2019-01-03T12:33:42Z</time>
      </trkpt>
      <trkpt lat="43.80615" lon="3.57435">
        <ele>518</ele>
        <time>2019-01-03T12:33:42Z</time>
      </trkpt>
      <trkpt lat="43.80617" lon="3.57435">
        <ele>518</ele>
        <time>2019-01-03T12:33:42Z</time>
      </trkpt>
      <trkpt lat="43.80624" lon="3.57435">
        <ele>518</ele>
        <time>2019-01-03T12:33:42Z</time>
      </trkpt>
      <trkpt lat="43.8063" lon="3.57435">
        <ele>533</ele>
        <time>2019-01-03T12:33:58Z</time>
      </trkpt>
      <trkpt lat="43.80634" lon="3.57433">
        <ele>533</ele>
        <time>2019-01-03T12:33:58Z</time>
      </trkpt>
      <trkpt lat="43.80637" lon="3.57434">
        <ele>533</ele>
        <time>2019-01-03T12:33:58Z</time>
      </trkpt>
      <trkpt lat="43.80641" lon="3.57433">
        <ele>533</ele>
        <time>2019-01-03T12:33:58Z</time>
      </trkpt>
      <trkpt lat="43.80641" lon="3.57433">
        <ele>533</ele>
        <time>2019-01-03T12:34:26Z</time>
      </trkpt>
      <trkpt lat="43.80643" lon="3.57434">
        <ele>533</ele>
        <time>2019-01-03T12:34:26Z</time>
      </trkpt>
      <trkpt lat="43.80648" lon="3.57434">
        <ele>533</ele>
        <time>2019-01-03T12:34:26Z</time>
      </trkpt>
      <trkpt lat="43.80649" lon="3.57434">
        <ele>533</ele>
        <time>2019-01-03T12:34:26Z</time>
      </trkpt>
      <trkpt lat="43.80654" lon="3.57431">
        <ele>533</ele>
        <time>2019-01-03T12:34:26Z</time>
      </trkpt>
      <trkpt lat="43.80657" lon="3.5743">
        <ele>533</ele>
        <time>2019-01-03T12:34:42Z</time>
      </trkpt>
      <trkpt lat="43.8066" lon="3.57429">
        <ele>533</ele>
        <time>2019-01-03T12:34:42Z</time>
      </trkpt>
      <trkpt lat="43.80661" lon="3.57429">
        <ele>533</ele>
        <time>2019-01-03T12:34:42Z</time>
      </trkpt>
      <trkpt lat="43.80666" lon="3.57426">
        <ele>533</ele>
        <time>2019-01-03T12:34:42Z</time>
      </trkpt>
      <trkpt lat="43.8067" lon="3.57425">
        <ele>533</ele>
        <time>2019-01-03T12:35:46Z</time>
      </trkpt>
      <trkpt lat="43.80675" lon="3.57426">
        <ele>533</ele>
        <time>2019-01-03T12:35:46Z</time>
      </trkpt>
      <trkpt lat="43.80677" lon="3.57426">
        <ele>533</ele>
        <time>2019-01-03T12:35:46Z</time>
      </trkpt>
      <trkpt lat="43.80678" lon="3.57427">
        <ele>533</ele>
        <time>2019-01-03T12:35:46Z</time>
      </trkpt>
      <trkpt lat="43.80681" lon="3.57428">
        <ele>533</ele>
        <time>2019-01-03T12:35:46Z</time>
      </trkpt>
      <trkpt lat="43.80687" lon="3.57428">
        <ele>533</ele>
        <time>2019-01-03T12:36:34Z</time>
      </trkpt>
      <trkpt lat="43.80688" lon="3.57428">
        <ele>533</ele>
        <time>2019-01-03T12:36:34Z</time>
      </trkpt>
      <trkpt lat="43.80694" lon="3.57426">
        <ele>533</ele>
        <time>2019-01-03T12:36:34Z</time>
      </trkpt>
      <trkpt lat="43.80696" lon="3.57425">
        <ele>533</ele>
        <time>2019-01-03T12:36:34Z</time>
      </trkpt>
      <trkpt lat="43.807" lon="3.57424">
        <ele>533</ele>
        <time>2019-01-03T12:36:34Z</time>
      </trkpt>
      <trkpt lat="43.80707" lon="3.5742">
        <ele>533</ele>
        <time>2019-01-03T12:36:50Z</time>
      </trkpt>
      <trkpt lat="43.80712" lon="3.57418">
        <ele>545</ele>
        <time>2019-01-03T12:36:50Z</time>
      </trkpt>
      <trkpt lat="43.80715" lon="3.57417">
        <ele>545</ele>
        <time>2019-01-03T12:36:50Z</time>
      </trkpt>
      <trkpt lat="43.80716" lon="3.57417">
        <ele>545</ele>
        <time>2019-01-03T12:36:50Z</time>
      </trkpt>
      <trkpt lat="43.80719" lon="3.57418">
        <ele>545</ele>
        <time>2019-01-03T12:37:06Z</time>
      </trkpt>
      <trkpt lat="43.80723" lon="3.5742">
        <ele>545</ele>
        <time>2019-01-03T12:37:06Z</time>
      </trkpt>
      <trkpt lat="43.80725" lon="3.5742">
        <ele>545</ele>
        <time>2019-01-03T12:37:06Z</time>
      </trkpt>
      <trkpt lat="43.80728" lon="3.57421">
        <ele>545</ele>
        <time>2019-01-03T12:37:06Z</time>
      </trkpt>
      <trkpt lat="43.80731" lon="3.5742">
        <ele>545</ele>
        <time>2019-01-03T12:37:26Z</time>
      </trkpt>
      <trkpt lat="43.80735" lon="3.57419">
        <ele>545</ele>
        <time>2019-01-03T12:37:26Z</time>
      </trkpt>
      <trkpt lat="43.80738" lon="3.57418">
        <ele>545</ele>
        <time>2019-01-03T12:37:26Z</time>
      </trkpt>
      <trkpt lat="43.8074" lon="3.57417">
        <ele>545</ele>
        <time>2019-01-03T12:37:26Z</time>
      </trkpt>
      <trkpt lat="43.80744" lon="3.57416">
        <ele>545</ele>
        <time>2019-01-03T12:37:26Z</time>
      </trkpt>
      <trkpt lat="43.80746" lon="3.57416">
        <ele>545</ele>
        <time>2019-01-03T12:37:50Z</time>
      </trkpt>
      <trkpt lat="43.80747" lon="3.57415">
        <ele>545</ele>
        <time>2019-01-03T12:37:50Z</time>
      </trkpt>
      <trkpt lat="43.8075" lon="3.57415">
        <ele>545</ele>
        <time>2019-01-03T12:37:50Z</time>
      </trkpt>
      <trkpt lat="43.80754" lon="3.57414">
        <ele>545</ele>
        <time>2019-01-03T12:37:50Z</time>
      </trkpt>
      <trkpt lat="43.80758" lon="3.57413">
        <ele>545</ele>
        <time>2019-01-03T12:37:50Z</time>
      </trkpt>
      <trkpt lat="43.80761" lon="3.57412">
        <ele>545</ele>
        <time>2019-01-03T12:40:50Z</time>
      </trkpt>
      <trkpt lat="43.80764" lon="3.57412">
        <ele>545</ele>
        <time>2019-01-03T12:40:50Z</time>
      </trkpt>
      <trkpt lat="43.80767" lon="3.5741">
        <ele>545</ele>
        <time>2019-01-03T12:40:50Z</time>
      </trkpt>
      <trkpt lat="43.80773" lon="3.57408">
        <ele>545</ele>
        <time>2019-01-03T12:40:50Z</time>
      </trkpt>
      <trkpt lat="43.80777" lon="3.57406">
        <ele>545</ele>
        <time>2019-01-03T12:41:06Z</time>
      </trkpt>
      <trkpt lat="43.80783" lon="3.57404">
        <ele>545</ele>
        <time>2019-01-03T12:41:06Z</time>
      </trkpt>
      <trkpt lat="43.80788" lon="3.57401">
        <ele>545</ele>
        <time>2019-01-03T12:41:06Z</time>
      </trkpt>
      <trkpt lat="43.8079" lon="3.57401">
        <ele>545</ele>
        <time>2019-01-03T12:41:06Z</time>
      </trkpt>
      <trkpt lat="43.80793" lon="3.574">
        <ele>540</ele>
        <time>2019-01-03T12:41:26Z</time>
      </trkpt>
      <trkpt lat="43.80793" lon="3.57401">
        <ele>540</ele>
        <time>2019-01-03T12:41:26Z</time>
      </trkpt>
      <trkpt lat="43.80796" lon="3.574">
        <ele>540</ele>
        <time>2019-01-03T12:41:26Z</time>
      </trkpt>
      <trkpt lat="43.80799" lon="3.57402">
        <ele>540</ele>
        <time>2019-01-03T12:41:26Z</time>
      </trkpt>
      <trkpt lat="43.80802" lon="3.57402">
        <ele>540</ele>
        <time>2019-01-03T12:41:26Z</time>
      </trkpt>
      <trkpt lat="43.80804" lon="3.57401">
        <ele>540</ele>
        <time>2019-01-03T12:41:42Z</time>
      </trkpt>
      <trkpt lat="43.80808" lon="3.57401">
        <ele>540</ele>
        <time>2019-01-03T12:41:42Z</time>
      </trkpt>
      <trkpt lat="43.80811" lon="3.57399">
        <ele>540</ele>
        <time>2019-01-03T12:41:42Z</time>
      </trkpt>
      <trkpt lat="43.80813" lon="3.57397">
        <ele>540</ele>
        <time>2019-01-03T12:41:42Z</time>
      </trkpt>
      <trkpt lat="43.80817" lon="3.57395">
        <ele>540</ele>
        <time>2019-01-03T12:41:58Z</time>
      </trkpt>
      <trkpt lat="43.80821" lon="3.5739">
        <ele>540</ele>
        <time>2019-01-03T12:41:58Z</time>
      </trkpt>
      <trkpt lat="43.80823" lon="3.57387">
        <ele>540</ele>
        <time>2019-01-03T12:41:58Z</time>
      </trkpt>
      <trkpt lat="43.80827" lon="3.57381">
        <ele>540</ele>
        <time>2019-01-03T12:41:58Z</time>
      </trkpt>
      <trkpt lat="43.80832" lon="3.57377">
        <ele>540</ele>
        <time>2019-01-03T12:42:14Z</time>
      </trkpt>
      <trkpt lat="43.80836" lon="3.57377">
        <ele>540</ele>
        <time>2019-01-03T12:42:14Z</time>
      </trkpt>
      <trkpt lat="43.80839" lon="3.57378">
        <ele>540</ele>
        <time>2019-01-03T12:42:14Z</time>
      </trkpt>
      <trkpt lat="43.80843" lon="3.57377">
        <ele>540</ele>
        <time>2019-01-03T12:42:14Z</time>
      </trkpt>
      <trkpt lat="43.80846" lon="3.57372">
        <ele>577</ele>
        <time>2019-01-03T12:42:30Z</time>
      </trkpt>
      <trkpt lat="43.80849" lon="3.5737">
        <ele>577</ele>
        <time>2019-01-03T12:42:30Z</time>
      </trkpt>
      <trkpt lat="43.80852" lon="3.57366">
        <ele>577</ele>
        <time>2019-01-03T12:42:30Z</time>
      </trkpt>
      <trkpt lat="43.80854" lon="3.57363">
        <ele>577</ele>
        <time>2019-01-03T12:42:30Z</time>
      </trkpt>
      <trkpt lat="43.80857" lon="3.57362">
        <ele>577</ele>
        <time>2019-01-03T12:42:46Z</time>
      </trkpt>
      <trkpt lat="43.80859" lon="3.5736">
        <ele>577</ele>
        <time>2019-01-03T12:42:46Z</time>
      </trkpt>
      <trkpt lat="43.80862" lon="3.57358">
        <ele>577</ele>
        <time>2019-01-03T12:42:46Z</time>
      </trkpt>
      <trkpt lat="43.80864" lon="3.57355">
        <ele>577</ele>
        <time>2019-01-03T12:42:46Z</time>
      </trkpt>
      <trkpt lat="43.80867" lon="3.57351">
        <ele>577</ele>
        <time>2019-01-03T12:43:42Z</time>
      </trkpt>
      <trkpt lat="43.80869" lon="3.57348">
        <ele>577</ele>
        <time>2019-01-03T12:43:42Z</time>
      </trkpt>
      <trkpt lat="43.80872" lon="3.57343">
        <ele>577</ele>
        <time>2019-01-03T12:43:42Z</time>
      </trkpt>
      <trkpt lat="43.80873" lon="3.57338">
        <ele>577</ele>
        <time>2019-01-03T12:43:42Z</time>
      </trkpt>
      <trkpt lat="43.80876" lon="3.57332">
        <ele>557</ele>
        <time>2019-01-03T12:43:58Z</time>
      </trkpt>
      <trkpt lat="43.80878" lon="3.57326">
        <ele>557</ele>
        <time>2019-01-03T12:43:58Z</time>
      </trkpt>
      <trkpt lat="43.80883" lon="3.5732">
        <ele>557</ele>
        <time>2019-01-03T12:43:58Z</time>
      </trkpt>
      <trkpt lat="43.80888" lon="3.57314">
        <ele>557</ele>
        <time>2019-01-03T12:43:58Z</time>
      </trkpt>
      <trkpt lat="43.80891" lon="3.57309">
        <ele>557</ele>
        <time>2019-01-03T12:44:14Z</time>
      </trkpt>
      <trkpt lat="43.80896" lon="3.57303">
        <ele>557</ele>
        <time>2019-01-03T12:44:14Z</time>
      </trkpt>
      <trkpt lat="43.809" lon="3.573">
        <ele>557</ele>
        <time>2019-01-03T12:44:14Z</time>
      </trkpt>
      <trkpt lat="43.80903" lon="3.57299">
        <ele>557</ele>
        <time>2019-01-03T12:44:14Z</time>
      </trkpt>
      <trkpt lat="43.80907" lon="3.57295">
        <ele>557</ele>
        <time>2019-01-03T12:44:30Z</time>
      </trkpt>
      <trkpt lat="43.80911" lon="3.57292">
        <ele>557</ele>
        <time>2019-01-03T12:44:30Z</time>
      </trkpt>
      <trkpt lat="43.80913" lon="3.57288">
        <ele>582</ele>
        <time>2019-01-03T12:44:30Z</time>
      </trkpt>
      <trkpt lat="43.80916" lon="3.57285">
        <ele>582</ele>
        <time>2019-01-03T12:44:30Z</time>
      </trkpt>
      <trkpt lat="43.80918" lon="3.57281">
        <ele>582</ele>
        <time>2019-01-03T12:44:46Z</time>
      </trkpt>
      <trkpt lat="43.80921" lon="3.57279">
        <ele>582</ele>
        <time>2019-01-03T12:44:46Z</time>
      </trkpt>
      <trkpt lat="43.80922" lon="3.57274">
        <ele>582</ele>
        <time>2019-01-03T12:44:46Z</time>
      </trkpt>
      <trkpt lat="43.80926" lon="3.57269">
        <ele>582</ele>
        <time>2019-01-03T12:44:46Z</time>
      </trkpt>
      <trkpt lat="43.80929" lon="3.57263">
        <ele>582</ele>
        <time>2019-01-03T12:45:02Z</time>
      </trkpt>
      <trkpt lat="43.80928" lon="3.57258">
        <ele>582</ele>
        <time>2019-01-03T12:45:02Z</time>
      </trkpt>
      <trkpt lat="43.80929" lon="3.57252">
        <ele>582</ele>
        <time>2019-01-03T12:45:02Z</time>
      </trkpt>
      <trkpt lat="43.80932" lon="3.57246">
        <ele>582</ele>
        <time>2019-01-03T12:45:02Z</time>
      </trkpt>
      <trkpt lat="43.80936" lon="3.57243">
        <ele>582</ele>
        <time>2019-01-03T12:45:22Z</time>
      </trkpt>
      <trkpt lat="43.80939" lon="3.57238">
        <ele>582</ele>
        <time>2019-01-03T12:45:22Z</time>
      </trkpt>
      <trkpt lat="43.80939" lon="3.57238">
        <ele>582</ele>
        <time>2019-01-03T12:45:22Z</time>
      </trkpt>
      <trkpt lat="43.80942" lon="3.57234">
        <ele>582</ele>
        <time>2019-01-03T12:45:22Z</time>
      </trkpt>
      <trkpt lat="43.80946" lon="3.57232">
        <ele>582</ele>
        <time>2019-01-03T12:45:22Z</time>
      </trkpt>
      <trkpt lat="43.8095" lon="3.57231">
        <ele>582</ele>
        <time>2019-01-03T12:45:38Z</time>
      </trkpt>
      <trkpt lat="43.80953" lon="3.57226">
        <ele>582</ele>
        <time>2019-01-03T12:45:38Z</time>
      </trkpt>
      <trkpt lat="43.80957" lon="3.57225">
        <ele>582</ele>
        <time>2019-01-03T12:45:38Z</time>
      </trkpt>
      <trkpt lat="43.8096" lon="3.5722">
        <ele>577</ele>
        <time>2019-01-03T12:45:38Z</time>
      </trkpt>
      <trkpt lat="43.80963" lon="3.57217">
        <ele>577</ele>
        <time>2019-01-03T12:45:54Z</time>
      </trkpt>
      <trkpt lat="43.80965" lon="3.57213">
        <ele>577</ele>
        <time>2019-01-03T12:45:54Z</time>
      </trkpt>
      <trkpt lat="43.80967" lon="3.57212">
        <ele>577</ele>
        <time>2019-01-03T12:45:54Z</time>
      </trkpt>
      <trkpt lat="43.8097" lon="3.57207">
        <ele>599</ele>
        <time>2019-01-03T12:45:54Z</time>
      </trkpt>
      <trkpt lat="43.80973" lon="3.57204">
        <ele>599</ele>
        <time>2019-01-03T12:46:18Z</time>
      </trkpt>
      <trkpt lat="43.80977" lon="3.57204">
        <ele>599</ele>
        <time>2019-01-03T12:46:18Z</time>
      </trkpt>
      <trkpt lat="43.8098" lon="3.57205">
        <ele>599</ele>
        <time>2019-01-03T12:46:18Z</time>
      </trkpt>
      <trkpt lat="43.80983" lon="3.57205">
        <ele>599</ele>
        <time>2019-01-03T12:46:18Z</time>
      </trkpt>
      <trkpt lat="43.80986" lon="3.57208">
        <ele>599</ele>
        <time>2019-01-03T12:46:34Z</time>
      </trkpt>
      <trkpt lat="43.80992" lon="3.57209">
        <ele>577</ele>
        <time>2019-01-03T12:46:34Z</time>
      </trkpt>
      <trkpt lat="43.80993" lon="3.5721">
        <ele>577</ele>
        <time>2019-01-03T12:46:34Z</time>
      </trkpt>
      <trkpt lat="43.80996" lon="3.57211">
        <ele>577</ele>
        <time>2019-01-03T12:46:34Z</time>
      </trkpt>
      <trkpt lat="43.81" lon="3.5721">
        <ele>577</ele>
        <time>2019-01-03T12:46:50Z</time>
      </trkpt>
      <trkpt lat="43.81002" lon="3.57206">
        <ele>599</ele>
        <time>2019-01-03T12:46:50Z</time>
      </trkpt>
      <trkpt lat="43.81004" lon="3.57201">
        <ele>599</ele>
        <time>2019-01-03T12:46:50Z</time>
      </trkpt>
      <trkpt lat="43.81005" lon="3.57194">
        <ele>599</ele>
        <time>2019-01-03T12:46:50Z</time>
      </trkpt>
      <trkpt lat="43.81006" lon="3.57189">
        <ele>599</ele>
        <time>2019-01-03T12:47:06Z</time>
      </trkpt>
      <trkpt lat="43.81006" lon="3.57183">
        <ele>599</ele>
        <time>2019-01-03T12:47:06Z</time>
      </trkpt>
      <trkpt lat="43.81007" lon="3.57179">
        <ele>599</ele>
        <time>2019-01-03T12:47:06Z</time>
      </trkpt>
      <trkpt lat="43.81006" lon="3.57175">
        <ele>599</ele>
        <time>2019-01-03T12:47:06Z</time>
      </trkpt>
      <trkpt lat="43.81006" lon="3.57171">
        <ele>599</ele>
        <time>2019-01-03T12:47:22Z</time>
      </trkpt>
      <trkpt lat="43.81005" lon="3.57166">
        <ele>599</ele>
        <time>2019-01-03T12:47:22Z</time>
      </trkpt>
      <trkpt lat="43.81003" lon="3.57163">
        <ele>599</ele>
        <time>2019-01-03T12:47:22Z</time>
      </trkpt>
      <trkpt lat="43.81002" lon="3.57158">
        <ele>599</ele>
        <time>2019-01-03T12:47:22Z</time>
      </trkpt>
      <trkpt lat="43.81002" lon="3.57153">
        <ele>599</ele>
        <time>2019-01-03T12:47:50Z</time>
      </trkpt>
      <trkpt lat="43.81002" lon="3.57149">
        <ele>599</ele>
        <time>2019-01-03T12:47:50Z</time>
      </trkpt>
      <trkpt lat="43.81004" lon="3.57148">
        <ele>599</ele>
        <time>2019-01-03T12:47:50Z</time>
      </trkpt>
      <trkpt lat="43.81003" lon="3.57146">
        <ele>599</ele>
        <time>2019-01-03T12:47:50Z</time>
      </trkpt>
      <trkpt lat="43.81003" lon="3.57141">
        <ele>599</ele>
        <time>2019-01-03T12:47:50Z</time>
      </trkpt>
      <trkpt lat="43.81003" lon="3.57135">
        <ele>599</ele>
        <time>2019-01-03T12:48:10Z</time>
      </trkpt>
      <trkpt lat="43.81002" lon="3.57124">
        <ele>611</ele>
        <time>2019-01-03T12:48:10Z</time>
      </trkpt>
      <trkpt lat="43.81003" lon="3.5712">
        <ele>611</ele>
        <time>2019-01-03T12:48:10Z</time>
      </trkpt>
      <trkpt lat="43.81004" lon="3.57117">
        <ele>611</ele>
        <time>2019-01-03T12:48:10Z</time>
      </trkpt>
      <trkpt lat="43.81004" lon="3.57114">
        <ele>611</ele>
        <time>2019-01-03T12:48:26Z</time>
      </trkpt>
      <trkpt lat="43.81005" lon="3.57109">
        <ele>611</ele>
        <time>2019-01-03T12:48:26Z</time>
      </trkpt>
      <trkpt lat="43.81005" lon="3.57103">
        <ele>611</ele>
        <time>2019-01-03T12:48:26Z</time>
      </trkpt>
      <trkpt lat="43.81006" lon="3.57098">
        <ele>611</ele>
        <time>2019-01-03T12:48:26Z</time>
      </trkpt>
      <trkpt lat="43.81005" lon="3.57093">
        <ele>611</ele>
        <time>2019-01-03T12:48:42Z</time>
      </trkpt>
      <trkpt lat="43.81004" lon="3.57088">
        <ele>611</ele>
        <time>2019-01-03T12:48:42Z</time>
      </trkpt>
      <trkpt lat="43.81002" lon="3.57082">
        <ele>611</ele>
        <time>2019-01-03T12:48:42Z</time>
      </trkpt>
      <trkpt lat="43.81001" lon="3.57078">
        <ele>611</ele>
        <time>2019-01-03T12:48:42Z</time>
      </trkpt>
      <trkpt lat="43.81002" lon="3.57075">
        <ele>611</ele>
        <time>2019-01-03T12:48:58Z</time>
      </trkpt>
      <trkpt lat="43.81001" lon="3.57071">
        <ele>611</ele>
        <time>2019-01-03T12:48:58Z</time>
      </trkpt>
      <trkpt lat="43.81" lon="3.57069">
        <ele>611</ele>
        <time>2019-01-03T12:48:58Z</time>
      </trkpt>
      <trkpt lat="43.80998" lon="3.57062">
        <ele>611</ele>
        <time>2019-01-03T12:48:58Z</time>
      </trkpt>
      <trkpt lat="43.80997" lon="3.57057">
        <ele>611</ele>
        <time>2019-01-03T12:49:14Z</time>
      </trkpt>
      <trkpt lat="43.80995" lon="3.5705">
        <ele>611</ele>
        <time>2019-01-03T12:49:14Z</time>
      </trkpt>
      <trkpt lat="43.80995" lon="3.57046">
        <ele>611</ele>
        <time>2019-01-03T12:49:14Z</time>
      </trkpt>
      <trkpt lat="43.80994" lon="3.57041">
        <ele>623</ele>
        <time>2019-01-03T12:49:14Z</time>
      </trkpt>
      <trkpt lat="43.80994" lon="3.57037">
        <ele>623</ele>
        <time>2019-01-03T12:49:30Z</time>
      </trkpt>
      <trkpt lat="43.80993" lon="3.57032">
        <ele>623</ele>
        <time>2019-01-03T12:49:30Z</time>
      </trkpt>
      <trkpt lat="43.80993" lon="3.57027">
        <ele>623</ele>
        <time>2019-01-03T12:49:30Z</time>
      </trkpt>
      <trkpt lat="43.80993" lon="3.57022">
        <ele>623</ele>
        <time>2019-01-03T12:49:30Z</time>
      </trkpt>
      <trkpt lat="43.80992" lon="3.57019">
        <ele>623</ele>
        <time>2019-01-03T12:49:46Z</time>
      </trkpt>
      <trkpt lat="43.80991" lon="3.57017">
        <ele>623</ele>
        <time>2019-01-03T12:49:46Z</time>
      </trkpt>
      <trkpt lat="43.80989" lon="3.5701">
        <ele>623</ele>
        <time>2019-01-03T12:49:46Z</time>
      </trkpt>
      <trkpt lat="43.80988" lon="3.57005">
        <ele>623</ele>
        <time>2019-01-03T12:49:46Z</time>
      </trkpt>
      <trkpt lat="43.80987" lon="3.57">
        <ele>623</ele>
        <time>2019-01-03T12:50:02Z</time>
      </trkpt>
      <trkpt lat="43.80986" lon="3.56998">
        <ele>623</ele>
        <time>2019-01-03T12:50:02Z</time>
      </trkpt>
      <trkpt lat="43.80984" lon="3.56991">
        <ele>623</ele>
        <time>2019-01-03T12:50:02Z</time>
      </trkpt>
      <trkpt lat="43.80982" lon="3.56985">
        <ele>623</ele>
        <time>2019-01-03T12:50:02Z</time>
      </trkpt>
      <trkpt lat="43.80979" lon="3.56981">
        <ele>623</ele>
        <time>2019-01-03T12:50:18Z</time>
      </trkpt>
      <trkpt lat="43.80977" lon="3.56977">
        <ele>623</ele>
        <time>2019-01-03T12:50:18Z</time>
      </trkpt>
      <trkpt lat="43.80977" lon="3.56973">
        <ele>623</ele>
        <time>2019-01-03T12:50:18Z</time>
      </trkpt>
      <trkpt lat="43.80976" lon="3.56968">
        <ele>623</ele>
        <time>2019-01-03T12:50:18Z</time>
      </trkpt>
      <trkpt lat="43.80974" lon="3.56964">
        <ele>623</ele>
        <time>2019-01-03T12:50:34Z</time>
      </trkpt>
      <trkpt lat="43.80972" lon="3.56958">
        <ele>634</ele>
        <time>2019-01-03T12:50:34Z</time>
      </trkpt>
      <trkpt lat="43.80972" lon="3.56952">
        <ele>634</ele>
        <time>2019-01-03T12:50:34Z</time>
      </trkpt>
      <trkpt lat="43.80971" lon="3.56948">
        <ele>634</ele>
        <time>2019-01-03T12:50:34Z</time>
      </trkpt>
      <trkpt lat="43.8097" lon="3.56944">
        <ele>634</ele>
        <time>2019-01-03T12:50:54Z</time>
      </trkpt>
      <trkpt lat="43.80969" lon="3.5694">
        <ele>634</ele>
        <time>2019-01-03T12:50:54Z</time>
      </trkpt>
      <trkpt lat="43.80968" lon="3.56936">
        <ele>634</ele>
        <time>2019-01-03T12:50:54Z</time>
      </trkpt>
      <trkpt lat="43.80967" lon="3.56933">
        <ele>634</ele>
        <time>2019-01-03T12:50:54Z</time>
      </trkpt>
      <trkpt lat="43.80965" lon="3.5693">
        <ele>634</ele>
        <time>2019-01-03T12:50:54Z</time>
      </trkpt>
      <trkpt lat="43.80964" lon="3.5693">
        <ele>634</ele>
        <time>2019-01-03T12:51:10Z</time>
      </trkpt>
      <trkpt lat="43.80964" lon="3.56928">
        <ele>634</ele>
        <time>2019-01-03T12:51:10Z</time>
      </trkpt>
      <trkpt lat="43.80962" lon="3.56922">
        <ele>634</ele>
        <time>2019-01-03T12:51:10Z</time>
      </trkpt>
      <trkpt lat="43.80962" lon="3.56913">
        <ele>634</ele>
        <time>2019-01-03T12:51:10Z</time>
      </trkpt>
      <trkpt lat="43.80964" lon="3.56906">
        <ele>634</ele>
        <time>2019-01-03T12:51:34Z</time>
      </trkpt>
      <trkpt lat="43.80965" lon="3.56903">
        <ele>634</ele>
        <time>2019-01-03T12:51:34Z</time>
      </trkpt>
      <trkpt lat="43.80964" lon="3.56902">
        <ele>634</ele>
        <time>2019-01-03T12:51:34Z</time>
      </trkpt>
      <trkpt lat="43.80964" lon="3.56899">
        <ele>634</ele>
        <time>2019-01-03T12:51:34Z</time>
      </trkpt>
      <trkpt lat="43.80963" lon="3.56893">
        <ele>634</ele>
        <time>2019-01-03T12:51:34Z</time>
      </trkpt>
      <trkpt lat="43.80963" lon="3.5689">
        <ele>634</ele>
        <time>2019-01-03T12:51:54Z</time>
      </trkpt>
      <trkpt lat="43.80964" lon="3.56889">
        <ele>634</ele>
        <time>2019-01-03T12:51:54Z</time>
      </trkpt>
      <trkpt lat="43.80964" lon="3.56887">
        <ele>634</ele>
        <time>2019-01-03T12:51:54Z</time>
      </trkpt>
      <trkpt lat="43.80965" lon="3.56879">
        <ele>634</ele>
        <time>2019-01-03T12:51:54Z</time>
      </trkpt>
      <trkpt lat="43.80964" lon="3.56876">
        <ele>634</ele>
        <time>2019-01-03T12:51:54Z</time>
      </trkpt>
      <trkpt lat="43.80962" lon="3.56871">
        <ele>644</ele>
        <time>2019-01-03T12:52:14Z</time>
      </trkpt>
      <trkpt lat="43.80961" lon="3.5687">
        <ele>644</ele>
        <time>2019-01-03T12:52:14Z</time>
      </trkpt>
      <trkpt lat="43.8096" lon="3.56865">
        <ele>644</ele>
        <time>2019-01-03T12:52:14Z</time>
      </trkpt>
      <trkpt lat="43.80958" lon="3.56859">
        <ele>638</ele>
        <time>2019-01-03T12:52:14Z</time>
      </trkpt>
      <trkpt lat="43.80957" lon="3.56857">
        <ele>638</ele>
        <time>2019-01-03T12:52:46Z</time>
      </trkpt>
      <trkpt lat="43.80956" lon="3.56855">
        <ele>638</ele>
        <time>2019-01-03T12:52:46Z</time>
      </trkpt>
      <trkpt lat="43.80955" lon="3.5685">
        <ele>638</ele>
        <time>2019-01-03T12:52:46Z</time>
      </trkpt>
      <trkpt lat="43.80954" lon="3.56849">
        <ele>638</ele>
        <time>2019-01-03T12:52:46Z</time>
      </trkpt>
      <trkpt lat="43.80956" lon="3.56842">
        <ele>638</ele>
        <time>2019-01-03T12:52:46Z</time>
      </trkpt>
      <trkpt lat="43.80956" lon="3.56833">
        <ele>638</ele>
        <time>2019-01-03T12:53:02Z</time>
      </trkpt>
      <trkpt lat="43.80955" lon="3.56824">
        <ele>638</ele>
        <time>2019-01-03T12:53:02Z</time>
      </trkpt>
      <trkpt lat="43.80955" lon="3.56819">
        <ele>638</ele>
        <time>2019-01-03T12:53:02Z</time>
      </trkpt>
      <trkpt lat="43.80956" lon="3.56818">
        <ele>638</ele>
        <time>2019-01-03T12:53:02Z</time>
      </trkpt>
      <trkpt lat="43.80958" lon="3.56816">
        <ele>644</ele>
        <time>2019-01-03T12:53:18Z</time>
      </trkpt>
      <trkpt lat="43.8096" lon="3.56814">
        <ele>644</ele>
        <time>2019-01-03T12:53:18Z</time>
      </trkpt>
      <trkpt lat="43.8096" lon="3.56808">
        <ele>644</ele>
        <time>2019-01-03T12:53:18Z</time>
      </trkpt>
      <trkpt lat="43.80958" lon="3.56802">
        <ele>638</ele>
        <time>2019-01-03T12:53:18Z</time>
      </trkpt>
      <trkpt lat="43.80957" lon="3.56795">
        <ele>638</ele>
        <time>2019-01-03T12:53:34Z</time>
      </trkpt>
      <trkpt lat="43.80954" lon="3.5679">
        <ele>643</ele>
        <time>2019-01-03T12:53:34Z</time>
      </trkpt>
      <trkpt lat="43.80951" lon="3.56785">
        <ele>643</ele>
        <time>2019-01-03T12:53:34Z</time>
      </trkpt>
      <trkpt lat="43.80949" lon="3.5678">
        <ele>643</ele>
        <time>2019-01-03T12:53:34Z</time>
      </trkpt>
      <trkpt lat="43.8095" lon="3.56777">
        <ele>643</ele>
        <time>2019-01-03T12:53:50Z</time>
      </trkpt>
      <trkpt lat="43.80953" lon="3.56774">
        <ele>643</ele>
        <time>2019-01-03T12:53:50Z</time>
      </trkpt>
      <trkpt lat="43.80954" lon="3.56773">
        <ele>643</ele>
        <time>2019-01-03T12:53:50Z</time>
      </trkpt>
      <trkpt lat="43.80959" lon="3.5677">
        <ele>654</ele>
        <time>2019-01-03T12:53:50Z</time>
      </trkpt>
      <trkpt lat="43.80962" lon="3.56766">
        <ele>654</ele>
        <time>2019-01-03T12:54:10Z</time>
      </trkpt>
      <trkpt lat="43.80962" lon="3.56765">
        <ele>654</ele>
        <time>2019-01-03T12:54:10Z</time>
      </trkpt>
      <trkpt lat="43.80966" lon="3.56761">
        <ele>654</ele>
        <time>2019-01-03T12:54:10Z</time>
      </trkpt>
      <trkpt lat="43.80968" lon="3.56757">
        <ele>654</ele>
        <time>2019-01-03T12:54:10Z</time>
      </trkpt>
      <trkpt lat="43.80967" lon="3.56752">
        <ele>654</ele>
        <time>2019-01-03T12:54:10Z</time>
      </trkpt>
      <trkpt lat="43.80968" lon="3.56745">
        <ele>654</ele>
        <time>2019-01-03T12:54:26Z</time>
      </trkpt>
      <trkpt lat="43.80969" lon="3.5674">
        <ele>654</ele>
        <time>2019-01-03T12:54:26Z</time>
      </trkpt>
      <trkpt lat="43.80969" lon="3.56736">
        <ele>654</ele>
        <time>2019-01-03T12:54:26Z</time>
      </trkpt>
      <trkpt lat="43.80971" lon="3.56733">
        <ele>654</ele>
        <time>2019-01-03T12:54:26Z</time>
      </trkpt>
      <trkpt lat="43.80973" lon="3.56728">
        <ele>654</ele>
        <time>2019-01-03T12:54:42Z</time>
      </trkpt>
      <trkpt lat="43.80975" lon="3.56724">
        <ele>654</ele>
        <time>2019-01-03T12:54:42Z</time>
      </trkpt>
      <trkpt lat="43.80975" lon="3.56717">
        <ele>654</ele>
        <time>2019-01-03T12:54:42Z</time>
      </trkpt>
      <trkpt lat="43.80976" lon="3.56709">
        <ele>654</ele>
        <time>2019-01-03T12:54:42Z</time>
      </trkpt>
      <trkpt lat="43.80977" lon="3.56703">
        <ele>661</ele>
        <time>2019-01-03T12:54:58Z</time>
      </trkpt>
      <trkpt lat="43.80977" lon="3.56697">
        <ele>661</ele>
        <time>2019-01-03T12:54:58Z</time>
      </trkpt>
      <trkpt lat="43.80976" lon="3.56693">
        <ele>661</ele>
        <time>2019-01-03T12:54:58Z</time>
      </trkpt>
      <trkpt lat="43.80972" lon="3.56689">
        <ele>661</ele>
        <time>2019-01-03T12:54:58Z</time>
      </trkpt>
      <trkpt lat="43.80969" lon="3.56685">
        <ele>661</ele>
        <time>2019-01-03T12:55:14Z</time>
      </trkpt>
      <trkpt lat="43.80965" lon="3.56681">
        <ele>661</ele>
        <time>2019-01-03T12:55:14Z</time>
      </trkpt>
      <trkpt lat="43.8096" lon="3.56677">
        <ele>661</ele>
        <time>2019-01-03T12:55:14Z</time>
      </trkpt>
      <trkpt lat="43.80955" lon="3.56672">
        <ele>646</ele>
        <time>2019-01-03T12:55:14Z</time>
      </trkpt>
      <trkpt lat="43.80951" lon="3.56667">
        <ele>646</ele>
        <time>2019-01-03T12:55:30Z</time>
      </trkpt>
      <trkpt lat="43.80947" lon="3.56663">
        <ele>646</ele>
        <time>2019-01-03T12:55:30Z</time>
      </trkpt>
      <trkpt lat="43.80944" lon="3.56658">
        <ele>646</ele>
        <time>2019-01-03T12:55:30Z</time>
      </trkpt>
      <trkpt lat="43.80941" lon="3.56654">
        <ele>646</ele>
        <time>2019-01-03T12:55:30Z</time>
      </trkpt>
      <trkpt lat="43.80936" lon="3.56651">
        <ele>646</ele>
        <time>2019-01-03T12:55:46Z</time>
      </trkpt>
      <trkpt lat="43.80932" lon="3.56649">
        <ele>646</ele>
        <time>2019-01-03T12:55:46Z</time>
      </trkpt>
      <trkpt lat="43.80927" lon="3.56651">
        <ele>646</ele>
        <time>2019-01-03T12:55:46Z</time>
      </trkpt>
      <trkpt lat="43.80923" lon="3.56651">
        <ele>646</ele>
        <time>2019-01-03T12:55:46Z</time>
      </trkpt>
      <trkpt lat="43.80915" lon="3.56653">
        <ele>646</ele>
        <time>2019-01-03T12:56:02Z</time>
      </trkpt>
      <trkpt lat="43.8091" lon="3.56657">
        <ele>646</ele>
        <time>2019-01-03T12:56:02Z</time>
      </trkpt>
      <trkpt lat="43.80906" lon="3.5666">
        <ele>646</ele>
        <time>2019-01-03T12:56:02Z</time>
      </trkpt>
      <trkpt lat="43.80903" lon="3.56661">
        <ele>646</ele>
        <time>2019-01-03T12:56:02Z</time>
      </trkpt>
      <trkpt lat="43.80901" lon="3.56664">
        <ele>646</ele>
        <time>2019-01-03T12:56:18Z</time>
      </trkpt>
      <trkpt lat="43.80897" lon="3.56667">
        <ele>646</ele>
        <time>2019-01-03T12:56:18Z</time>
      </trkpt>
      <trkpt lat="43.80893" lon="3.56668">
        <ele>646</ele>
        <time>2019-01-03T12:56:18Z</time>
      </trkpt>
      <trkpt lat="43.8089" lon="3.56672">
        <ele>646</ele>
        <time>2019-01-03T12:56:18Z</time>
      </trkpt>
      <trkpt lat="43.80891" lon="3.56675">
        <ele>646</ele>
        <time>2019-01-03T12:57:18Z</time>
      </trkpt>
      <trkpt lat="43.80892" lon="3.56671">
        <ele>646</ele>
        <time>2019-01-03T12:57:18Z</time>
      </trkpt>
      <trkpt lat="43.80896" lon="3.56668">
        <ele>646</ele>
        <time>2019-01-03T12:57:18Z</time>
      </trkpt>
      <trkpt lat="43.80899" lon="3.56667">
        <ele>646</ele>
        <time>2019-01-03T12:57:18Z</time>
      </trkpt>
      <trkpt lat="43.80903" lon="3.56666">
        <ele>646</ele>
        <time>2019-01-03T12:57:18Z</time>
      </trkpt>
      <trkpt lat="43.80908" lon="3.56662">
        <ele>646</ele>
        <time>2019-01-03T12:57:34Z</time>
      </trkpt>
      <trkpt lat="43.80907" lon="3.56654">
        <ele>646</ele>
        <time>2019-01-03T12:57:34Z</time>
      </trkpt>
      <trkpt lat="43.80905" lon="3.56645">
        <ele>646</ele>
        <time>2019-01-03T12:57:34Z</time>
      </trkpt>
      <trkpt lat="43.80905" lon="3.56639">
        <ele>646</ele>
        <time>2019-01-03T12:57:34Z</time>
      </trkpt>
      <trkpt lat="43.80907" lon="3.56635">
        <ele>646</ele>
        <time>2019-01-03T12:57:50Z</time>
      </trkpt>
      <trkpt lat="43.80908" lon="3.56631">
        <ele>646</ele>
        <time>2019-01-03T12:57:50Z</time>
      </trkpt>
      <trkpt lat="43.8091" lon="3.56627">
        <ele>646</ele>
        <time>2019-01-03T12:57:50Z</time>
      </trkpt>
      <trkpt lat="43.80913" lon="3.56624">
        <ele>652</ele>
        <time>2019-01-03T12:57:50Z</time>
      </trkpt>
      <trkpt lat="43.80915" lon="3.56622">
        <ele>652</ele>
        <time>2019-01-03T12:58:06Z</time>
      </trkpt>
      <trkpt lat="43.80919" lon="3.5662">
        <ele>652</ele>
        <time>2019-01-03T12:58:06Z</time>
      </trkpt>
      <trkpt lat="43.80924" lon="3.56617">
        <ele>652</ele>
        <time>2019-01-03T12:58:06Z</time>
      </trkpt>
      <trkpt lat="43.80926" lon="3.5661">
        <ele>652</ele>
        <time>2019-01-03T12:58:06Z</time>
      </trkpt>
      <trkpt lat="43.80928" lon="3.56603">
        <ele>652</ele>
        <time>2019-01-03T12:58:22Z</time>
      </trkpt>
      <trkpt lat="43.8093" lon="3.56598">
        <ele>652</ele>
        <time>2019-01-03T12:58:22Z</time>
      </trkpt>
      <trkpt lat="43.80931" lon="3.56591">
        <ele>652</ele>
        <time>2019-01-03T12:58:22Z</time>
      </trkpt>
      <trkpt lat="43.80932" lon="3.56584">
        <ele>652</ele>
        <time>2019-01-03T12:58:22Z</time>
      </trkpt>
      <trkpt lat="43.80933" lon="3.56577">
        <ele>652</ele>
        <time>2019-01-03T12:58:38Z</time>
      </trkpt>
      <trkpt lat="43.80935" lon="3.56571">
        <ele>652</ele>
        <time>2019-01-03T12:58:38Z</time>
      </trkpt>
      <trkpt lat="43.80936" lon="3.56565">
        <ele>652</ele>
        <time>2019-01-03T12:58:38Z</time>
      </trkpt>
      <trkpt lat="43.80938" lon="3.5656">
        <ele>652</ele>
        <time>2019-01-03T12:58:38Z</time>
      </trkpt>
      <trkpt lat="43.80939" lon="3.56553">
        <ele>652</ele>
        <time>2019-01-03T12:58:54Z</time>
      </trkpt>
      <trkpt lat="43.80939" lon="3.56549">
        <ele>652</ele>
        <time>2019-01-03T12:58:54Z</time>
      </trkpt>
      <trkpt lat="43.8094" lon="3.56544">
        <ele>652</ele>
        <time>2019-01-03T12:58:54Z</time>
      </trkpt>
      <trkpt lat="43.80941" lon="3.56537">
        <ele>659</ele>
        <time>2019-01-03T12:58:54Z</time>
      </trkpt>
      <trkpt lat="43.80939" lon="3.56531">
        <ele>659</ele>
        <time>2019-01-03T12:59:10Z</time>
      </trkpt>
      <trkpt lat="43.80936" lon="3.56525">
        <ele>659</ele>
        <time>2019-01-03T12:59:10Z</time>
      </trkpt>
      <trkpt lat="43.80934" lon="3.56519">
        <ele>659</ele>
        <time>2019-01-03T12:59:10Z</time>
      </trkpt>
      <trkpt lat="43.80934" lon="3.56512">
        <ele>659</ele>
        <time>2019-01-03T12:59:10Z</time>
      </trkpt>
      <trkpt lat="43.80933" lon="3.56506">
        <ele>659</ele>
        <time>2019-01-03T12:59:26Z</time>
      </trkpt>
      <trkpt lat="43.80931" lon="3.56499">
        <ele>659</ele>
        <time>2019-01-03T12:59:26Z</time>
      </trkpt>
      <trkpt lat="43.80929" lon="3.56491">
        <ele>659</ele>
        <time>2019-01-03T12:59:26Z</time>
      </trkpt>
      <trkpt lat="43.80927" lon="3.56485">
        <ele>659</ele>
        <time>2019-01-03T12:59:26Z</time>
      </trkpt>
      <trkpt lat="43.80924" lon="3.56479">
        <ele>659</ele>
        <time>2019-01-03T12:59:42Z</time>
      </trkpt>
      <trkpt lat="43.80921" lon="3.56474">
        <ele>659</ele>
        <time>2019-01-03T12:59:42Z</time>
      </trkpt>
      <trkpt lat="43.8092" lon="3.56468">
        <ele>659</ele>
        <time>2019-01-03T12:59:42Z</time>
      </trkpt>
      <trkpt lat="43.80916" lon="3.56464">
        <ele>659</ele>
        <time>2019-01-03T12:59:42Z</time>
      </trkpt>
      <trkpt lat="43.80913" lon="3.56459">
        <ele>659</ele>
        <time>2019-01-03T12:59:58Z</time>
      </trkpt>
      <trkpt lat="43.80909" lon="3.56455">
        <ele>661</ele>
        <time>2019-01-03T12:59:58Z</time>
      </trkpt>
      <trkpt lat="43.80906" lon="3.56449">
        <ele>661</ele>
        <time>2019-01-03T12:59:58Z</time>
      </trkpt>
      <trkpt lat="43.80905" lon="3.56442">
        <ele>661</ele>
        <time>2019-01-03T12:59:58Z</time>
      </trkpt>
      <trkpt lat="43.80903" lon="3.56436">
        <ele>661</ele>
        <time>2019-01-03T13:00:14Z</time>
      </trkpt>
      <trkpt lat="43.809" lon="3.56431">
        <ele>661</ele>
        <time>2019-01-03T13:00:14Z</time>
      </trkpt>
      <trkpt lat="43.80899" lon="3.56424">
        <ele>661</ele>
        <time>2019-01-03T13:00:14Z</time>
      </trkpt>
      <trkpt lat="43.80897" lon="3.56418">
        <ele>661</ele>
        <time>2019-01-03T13:00:14Z</time>
      </trkpt>
      <trkpt lat="43.80897" lon="3.56412">
        <ele>661</ele>
        <time>2019-01-03T13:00:30Z</time>
      </trkpt>
      <trkpt lat="43.80896" lon="3.56405">
        <ele>661</ele>
        <time>2019-01-03T13:00:30Z</time>
      </trkpt>
      <trkpt lat="43.80894" lon="3.56399">
        <ele>661</ele>
        <time>2019-01-03T13:00:30Z</time>
      </trkpt>
      <trkpt lat="43.80893" lon="3.56395">
        <ele>661</ele>
        <time>2019-01-03T13:00:30Z</time>
      </trkpt>
      <trkpt lat="43.80891" lon="3.5639">
        <ele>661</ele>
        <time>2019-01-03T13:00:46Z</time>
      </trkpt>
      <trkpt lat="43.80887" lon="3.56386">
        <ele>661</ele>
        <time>2019-01-03T13:00:46Z</time>
      </trkpt>
      <trkpt lat="43.80885" lon="3.56381">
        <ele>661</ele>
        <time>2019-01-03T13:00:46Z</time>
      </trkpt>
      <trkpt lat="43.80883" lon="3.56375">
        <ele>662</ele>
        <time>2019-01-03T13:00:46Z</time>
      </trkpt>
      <trkpt lat="43.80879" lon="3.56369">
        <ele>662</ele>
        <time>2019-01-03T13:01:02Z</time>
      </trkpt>
      <trkpt lat="43.80877" lon="3.56366">
        <ele>662</ele>
        <time>2019-01-03T13:01:02Z</time>
      </trkpt>
      <trkpt lat="43.80876" lon="3.56359">
        <ele>662</ele>
        <time>2019-01-03T13:01:02Z</time>
      </trkpt>
      <trkpt lat="43.80874" lon="3.56352">
        <ele>649</ele>
        <time>2019-01-03T13:01:02Z</time>
      </trkpt>
      <trkpt lat="43.80873" lon="3.56346">
        <ele>649</ele>
        <time>2019-01-03T13:01:22Z</time>
      </trkpt>
      <trkpt lat="43.80872" lon="3.56345">
        <ele>649</ele>
        <time>2019-01-03T13:01:22Z</time>
      </trkpt>
      <trkpt lat="43.80872" lon="3.56344">
        <ele>649</ele>
        <time>2019-01-03T13:01:22Z</time>
      </trkpt>
      <trkpt lat="43.80871" lon="3.56338">
        <ele>649</ele>
        <time>2019-01-03T13:01:22Z</time>
      </trkpt>
      <trkpt lat="43.80869" lon="3.56333">
        <ele>649</ele>
        <time>2019-01-03T13:01:22Z</time>
      </trkpt>
      <trkpt lat="43.80866" lon="3.56328">
        <ele>649</ele>
        <time>2019-01-03T13:01:38Z</time>
      </trkpt>
      <trkpt lat="43.80865" lon="3.56323">
        <ele>649</ele>
        <time>2019-01-03T13:01:38Z</time>
      </trkpt>
      <trkpt lat="43.80862" lon="3.56319">
        <ele>649</ele>
        <time>2019-01-03T13:01:38Z</time>
      </trkpt>
      <trkpt lat="43.80857" lon="3.56315">
        <ele>649</ele>
        <time>2019-01-03T13:01:38Z</time>
      </trkpt>
      <trkpt lat="43.80853" lon="3.56314">
        <ele>649</ele>
        <time>2019-01-03T13:01:54Z</time>
      </trkpt>
      <trkpt lat="43.80847" lon="3.5631">
        <ele>649</ele>
        <time>2019-01-03T13:01:54Z</time>
      </trkpt>
      <trkpt lat="43.80844" lon="3.56304">
        <ele>649</ele>
        <time>2019-01-03T13:01:54Z</time>
      </trkpt>
      <trkpt lat="43.80841" lon="3.56299">
        <ele>649</ele>
        <time>2019-01-03T13:01:54Z</time>
      </trkpt>
      <trkpt lat="43.80837" lon="3.56297">
        <ele>649</ele>
        <time>2019-01-03T13:02:10Z</time>
      </trkpt>
      <trkpt lat="43.80833" lon="3.56295">
        <ele>649</ele>
        <time>2019-01-03T13:02:10Z</time>
      </trkpt>
      <trkpt lat="43.80829" lon="3.56292">
        <ele>649</ele>
        <time>2019-01-03T13:02:10Z</time>
      </trkpt>
      <trkpt lat="43.80824" lon="3.5629">
        <ele>650</ele>
        <time>2019-01-03T13:02:10Z</time>
      </trkpt>
      <trkpt lat="43.80818" lon="3.5629">
        <ele>650</ele>
        <time>2019-01-03T13:02:26Z</time>
      </trkpt>
      <trkpt lat="43.80812" lon="3.5629">
        <ele>650</ele>
        <time>2019-01-03T13:02:26Z</time>
      </trkpt>
      <trkpt lat="43.80807" lon="3.56289">
        <ele>650</ele>
        <time>2019-01-03T13:02:26Z</time>
      </trkpt>
      <trkpt lat="43.80801" lon="3.56288">
        <ele>650</ele>
        <time>2019-01-03T13:02:26Z</time>
      </trkpt>
      <trkpt lat="43.80797" lon="3.56286">
        <ele>650</ele>
        <time>2019-01-03T13:02:42Z</time>
      </trkpt>
      <trkpt lat="43.80794" lon="3.56283">
        <ele>650</ele>
        <time>2019-01-03T13:02:42Z</time>
      </trkpt>
      <trkpt lat="43.80791" lon="3.56283">
        <ele>654</ele>
        <time>2019-01-03T13:02:42Z</time>
      </trkpt>
      <trkpt lat="43.80788" lon="3.56283">
        <ele>654</ele>
        <time>2019-01-03T13:02:42Z</time>
      </trkpt>
      <trkpt lat="43.80783" lon="3.56283">
        <ele>654</ele>
        <time>2019-01-03T13:02:58Z</time>
      </trkpt>
      <trkpt lat="43.8078" lon="3.5628">
        <ele>654</ele>
        <time>2019-01-03T13:02:58Z</time>
      </trkpt>
      <trkpt lat="43.80777" lon="3.56278">
        <ele>654</ele>
        <time>2019-01-03T13:02:58Z</time>
      </trkpt>
      <trkpt lat="43.80774" lon="3.56275">
        <ele>654</ele>
        <time>2019-01-03T13:02:58Z</time>
      </trkpt>
      <trkpt lat="43.8077" lon="3.56271">
        <ele>654</ele>
        <time>2019-01-03T13:03:14Z</time>
      </trkpt>
      <trkpt lat="43.80765" lon="3.56266">
        <ele>654</ele>
        <time>2019-01-03T13:03:14Z</time>
      </trkpt>
      <trkpt lat="43.8076" lon="3.56265">
        <ele>654</ele>
        <time>2019-01-03T13:03:14Z</time>
      </trkpt>
      <trkpt lat="43.80756" lon="3.56263">
        <ele>654</ele>
        <time>2019-01-03T13:03:14Z</time>
      </trkpt>
      <trkpt lat="43.80752" lon="3.56261">
        <ele>654</ele>
        <time>2019-01-03T13:03:30Z</time>
      </trkpt>
      <trkpt lat="43.80749" lon="3.56259">
        <ele>654</ele>
        <time>2019-01-03T13:03:30Z</time>
      </trkpt>
      <trkpt lat="43.80745" lon="3.56256">
        <ele>654</ele>
        <time>2019-01-03T13:03:30Z</time>
      </trkpt>
      <trkpt lat="43.80742" lon="3.56256">
        <ele>654</ele>
        <time>2019-01-03T13:03:30Z</time>
      </trkpt>
      <trkpt lat="43.80738" lon="3.56258">
        <ele>654</ele>
        <time>2019-01-03T13:03:46Z</time>
      </trkpt>
      <trkpt lat="43.80733" lon="3.5626">
        <ele>654</ele>
        <time>2019-01-03T13:03:46Z</time>
      </trkpt>
      <trkpt lat="43.80728" lon="3.56261">
        <ele>654</ele>
        <time>2019-01-03T13:03:46Z</time>
      </trkpt>
      <trkpt lat="43.80724" lon="3.56264">
        <ele>654</ele>
        <time>2019-01-03T13:03:46Z</time>
      </trkpt>
      <trkpt lat="43.80719" lon="3.56266">
        <ele>654</ele>
        <time>2019-01-03T13:04:02Z</time>
      </trkpt>
      <trkpt lat="43.80714" lon="3.56269">
        <ele>654</ele>
        <time>2019-01-03T13:04:02Z</time>
      </trkpt>
      <trkpt lat="43.80709" lon="3.56269">
        <ele>654</ele>
        <time>2019-01-03T13:04:02Z</time>
      </trkpt>
      <trkpt lat="43.80705" lon="3.5627">
        <ele>659</ele>
        <time>2019-01-03T13:04:02Z</time>
      </trkpt>
      <trkpt lat="43.80699" lon="3.56273">
        <ele>659</ele>
        <time>2019-01-03T13:04:18Z</time>
      </trkpt>
      <trkpt lat="43.80694" lon="3.56277">
        <ele>659</ele>
        <time>2019-01-03T13:04:18Z</time>
      </trkpt>
      <trkpt lat="43.80692" lon="3.56283">
        <ele>659</ele>
        <time>2019-01-03T13:04:18Z</time>
      </trkpt>
      <trkpt lat="43.80689" lon="3.56289">
        <ele>659</ele>
        <time>2019-01-03T13:04:18Z</time>
      </trkpt>
      <trkpt lat="43.80684" lon="3.56283">
        <ele>659</ele>
        <time>2019-01-03T13:05:38Z</time>
      </trkpt>
      <trkpt lat="43.8068" lon="3.56286">
        <ele>659</ele>
        <time>2019-01-03T13:05:38Z</time>
      </trkpt>
      <trkpt lat="43.80675" lon="3.56287">
        <ele>659</ele>
        <time>2019-01-03T13:05:38Z</time>
      </trkpt>
      <trkpt lat="43.8067" lon="3.56286">
        <ele>659</ele>
        <time>2019-01-03T13:05:38Z</time>
      </trkpt>
      <trkpt lat="43.80665" lon="3.56285">
        <ele>659</ele>
        <time>2019-01-03T13:05:38Z</time>
      </trkpt>
      <trkpt lat="43.80662" lon="3.56285">
        <ele>659</ele>
        <time>2019-01-03T13:05:54Z</time>
      </trkpt>
      <trkpt lat="43.80657" lon="3.56285">
        <ele>659</ele>
        <time>2019-01-03T13:05:54Z</time>
      </trkpt>
      <trkpt lat="43.80652" lon="3.56286">
        <ele>659</ele>
        <time>2019-01-03T13:05:54Z</time>
      </trkpt>
      <trkpt lat="43.80649" lon="3.56286">
        <ele>659</ele>
        <time>2019-01-03T13:05:54Z</time>
      </trkpt>
      <trkpt lat="43.80645" lon="3.56285">
        <ele>659</ele>
        <time>2019-01-03T13:06:10Z</time>
      </trkpt>
      <trkpt lat="43.80642" lon="3.56284">
        <ele>659</ele>
        <time>2019-01-03T13:06:10Z</time>
      </trkpt>
      <trkpt lat="43.80638" lon="3.56281">
        <ele>659</ele>
        <time>2019-01-03T13:06:10Z</time>
      </trkpt>
      <trkpt lat="43.80634" lon="3.56279">
        <ele>659</ele>
        <time>2019-01-03T13:06:10Z</time>
      </trkpt>
      <trkpt lat="43.80628" lon="3.56278">
        <ele>659</ele>
        <time>2019-01-03T13:06:26Z</time>
      </trkpt>
      <trkpt lat="43.80624" lon="3.56276">
        <ele>660</ele>
        <time>2019-01-03T13:06:26Z</time>
      </trkpt>
      <trkpt lat="43.80622" lon="3.56273">
        <ele>660</ele>
        <time>2019-01-03T13:06:26Z</time>
      </trkpt>
      <trkpt lat="43.80618" lon="3.5627">
        <ele>660</ele>
        <time>2019-01-03T13:06:26Z</time>
      </trkpt>
      <trkpt lat="43.80614" lon="3.56266">
        <ele>660</ele>
        <time>2019-01-03T13:06:42Z</time>
      </trkpt>
      <trkpt lat="43.80611" lon="3.56263">
        <ele>660</ele>
        <time>2019-01-03T13:06:42Z</time>
      </trkpt>
      <trkpt lat="43.80608" lon="3.56259">
        <ele>660</ele>
        <time>2019-01-03T13:06:42Z</time>
      </trkpt>
      <trkpt lat="43.80605" lon="3.56253">
        <ele>660</ele>
        <time>2019-01-03T13:06:42Z</time>
      </trkpt>
      <trkpt lat="43.80604" lon="3.56248">
        <ele>660</ele>
        <time>2019-01-03T13:06:58Z</time>
      </trkpt>
      <trkpt lat="43.80603" lon="3.56243">
        <ele>660</ele>
        <time>2019-01-03T13:06:58Z</time>
      </trkpt>
      <trkpt lat="43.806" lon="3.56238">
        <ele>660</ele>
        <time>2019-01-03T13:06:58Z</time>
      </trkpt>
      <trkpt lat="43.80598" lon="3.56234">
        <ele>660</ele>
        <time>2019-01-03T13:06:58Z</time>
      </trkpt>
      <trkpt lat="43.80597" lon="3.56237">
        <ele>660</ele>
        <time>2019-01-03T13:07:18Z</time>
      </trkpt>
      <trkpt lat="43.80597" lon="3.56238">
        <ele>660</ele>
        <time>2019-01-03T13:07:18Z</time>
      </trkpt>
      <trkpt lat="43.80596" lon="3.56239">
        <ele>660</ele>
        <time>2019-01-03T13:07:18Z</time>
      </trkpt>
      <trkpt lat="43.80592" lon="3.5624">
        <ele>660</ele>
        <time>2019-01-03T13:07:18Z</time>
      </trkpt>
      <trkpt lat="43.80587" lon="3.56242">
        <ele>660</ele>
        <time>2019-01-03T13:07:18Z</time>
      </trkpt>
      <trkpt lat="43.80584" lon="3.56241">
        <ele>660</ele>
        <time>2019-01-03T13:07:34Z</time>
      </trkpt>
      <trkpt lat="43.80581" lon="3.5624">
        <ele>660</ele>
        <time>2019-01-03T13:07:34Z</time>
      </trkpt>
      <trkpt lat="43.80576" lon="3.5624">
        <ele>660</ele>
        <time>2019-01-03T13:07:34Z</time>
      </trkpt>
      <trkpt lat="43.80572" lon="3.56239">
        <ele>660</ele>
        <time>2019-01-03T13:07:34Z</time>
      </trkpt>
      <trkpt lat="43.80567" lon="3.56237">
        <ele>660</ele>
        <time>2019-01-03T13:07:54Z</time>
      </trkpt>
      <trkpt lat="43.80562" lon="3.56238">
        <ele>660</ele>
        <time>2019-01-03T13:07:54Z</time>
      </trkpt>
      <trkpt lat="43.80559" lon="3.56239">
        <ele>660</ele>
        <time>2019-01-03T13:07:54Z</time>
      </trkpt>
      <trkpt lat="43.80559" lon="3.56238">
        <ele>660</ele>
        <time>2019-01-03T13:07:54Z</time>
      </trkpt>
      <trkpt lat="43.80556" lon="3.56237">
        <ele>660</ele>
        <time>2019-01-03T13:07:54Z</time>
      </trkpt>
      <trkpt lat="43.80553" lon="3.56234">
        <ele>660</ele>
        <time>2019-01-03T13:08:10Z</time>
      </trkpt>
      <trkpt lat="43.80549" lon="3.56232">
        <ele>660</ele>
        <time>2019-01-03T13:08:10Z</time>
      </trkpt>
      <trkpt lat="43.80545" lon="3.56229">
        <ele>660</ele>
        <time>2019-01-03T13:08:10Z</time>
      </trkpt>
      <trkpt lat="43.80541" lon="3.56225">
        <ele>661</ele>
        <time>2019-01-03T13:08:10Z</time>
      </trkpt>
      <trkpt lat="43.80539" lon="3.56224">
        <ele>661</ele>
        <time>2019-01-03T13:08:50Z</time>
      </trkpt>
      <trkpt lat="43.80541" lon="3.56226">
        <ele>661</ele>
        <time>2019-01-03T13:08:50Z</time>
      </trkpt>
      <trkpt lat="43.80544" lon="3.56229">
        <ele>660</ele>
        <time>2019-01-03T13:08:50Z</time>
      </trkpt>
      <trkpt lat="43.80548" lon="3.56231">
        <ele>660</ele>
        <time>2019-01-03T13:08:50Z</time>
      </trkpt>
      <trkpt lat="43.8055" lon="3.56235">
        <ele>660</ele>
        <time>2019-01-03T13:09:46Z</time>
      </trkpt>
      <trkpt lat="43.80554" lon="3.56238">
        <ele>660</ele>
        <time>2019-01-03T13:09:46Z</time>
      </trkpt>
      <trkpt lat="43.80556" lon="3.56239">
        <ele>660</ele>
        <time>2019-01-03T13:09:46Z</time>
      </trkpt>
      <trkpt lat="43.80556" lon="3.5624">
        <ele>660</ele>
        <time>2019-01-03T13:09:46Z</time>
      </trkpt>
      <trkpt lat="43.8056" lon="3.56241">
        <ele>660</ele>
        <time>2019-01-03T13:09:46Z</time>
      </trkpt>
      <trkpt lat="43.80566" lon="3.56242">
        <ele>660</ele>
        <time>2019-01-03T13:10:02Z</time>
      </trkpt>
      <trkpt lat="43.80569" lon="3.56242">
        <ele>660</ele>
        <time>2019-01-03T13:10:02Z</time>
      </trkpt>
      <trkpt lat="43.80575" lon="3.56242">
        <ele>660</ele>
        <time>2019-01-03T13:10:02Z</time>
      </trkpt>
      <trkpt lat="43.80578" lon="3.56245">
        <ele>660</ele>
        <time>2019-01-03T13:10:02Z</time>
      </trkpt>
      <trkpt lat="43.8058" lon="3.56245">
        <ele>660</ele>
        <time>2019-01-03T13:10:22Z</time>
      </trkpt>
      <trkpt lat="43.80583" lon="3.56245">
        <ele>660</ele>
        <time>2019-01-03T13:10:22Z</time>
      </trkpt>
      <trkpt lat="43.80585" lon="3.56241">
        <ele>660</ele>
        <time>2019-01-03T13:10:22Z</time>
      </trkpt>
      <trkpt lat="43.80588" lon="3.56241">
        <ele>660</ele>
        <time>2019-01-03T13:10:22Z</time>
      </trkpt>
      <trkpt lat="43.80592" lon="3.56239">
        <ele>660</ele>
        <time>2019-01-03T13:10:22Z</time>
      </trkpt>
      <trkpt lat="43.80593" lon="3.56232">
        <ele>660</ele>
        <time>2019-01-03T13:10:38Z</time>
      </trkpt>
      <trkpt lat="43.80595" lon="3.56225">
        <ele>660</ele>
        <time>2019-01-03T13:10:38Z</time>
      </trkpt>
      <trkpt lat="43.80595" lon="3.56218">
        <ele>660</ele>
        <time>2019-01-03T13:10:38Z</time>
      </trkpt>
      <trkpt lat="43.80596" lon="3.56212">
        <ele>660</ele>
        <time>2019-01-03T13:10:38Z</time>
      </trkpt>
      <trkpt lat="43.80598" lon="3.56206">
        <ele>662</ele>
        <time>2019-01-03T13:10:54Z</time>
      </trkpt>
      <trkpt lat="43.80601" lon="3.56201">
        <ele>662</ele>
        <time>2019-01-03T13:10:54Z</time>
      </trkpt>
      <trkpt lat="43.80604" lon="3.56196">
        <ele>662</ele>
        <time>2019-01-03T13:10:54Z</time>
      </trkpt>
      <trkpt lat="43.80606" lon="3.56191">
        <ele>662</ele>
        <time>2019-01-03T13:10:54Z</time>
      </trkpt>
      <trkpt lat="43.80608" lon="3.56185">
        <ele>662</ele>
        <time>2019-01-03T13:11:10Z</time>
      </trkpt>
      <trkpt lat="43.80609" lon="3.56178">
        <ele>662</ele>
        <time>2019-01-03T13:11:10Z</time>
      </trkpt>
      <trkpt lat="43.80611" lon="3.56172">
        <ele>662</ele>
        <time>2019-01-03T13:11:10Z</time>
      </trkpt>
      <trkpt lat="43.80613" lon="3.56166">
        <ele>662</ele>
        <time>2019-01-03T13:11:10Z</time>
      </trkpt>
      <trkpt lat="43.80616" lon="3.56161">
        <ele>662</ele>
        <time>2019-01-03T13:11:26Z</time>
      </trkpt>
      <trkpt lat="43.80618" lon="3.56156">
        <ele>662</ele>
        <time>2019-01-03T13:11:26Z</time>
      </trkpt>
      <trkpt lat="43.8062" lon="3.56149">
        <ele>662</ele>
        <time>2019-01-03T13:11:26Z</time>
      </trkpt>
      <trkpt lat="43.8062" lon="3.56143">
        <ele>662</ele>
        <time>2019-01-03T13:11:26Z</time>
      </trkpt>
      <trkpt lat="43.8062" lon="3.56137">
        <ele>662</ele>
        <time>2019-01-03T13:11:42Z</time>
      </trkpt>
      <trkpt lat="43.80621" lon="3.56131">
        <ele>662</ele>
        <time>2019-01-03T13:11:42Z</time>
      </trkpt>
      <trkpt lat="43.80622" lon="3.56124">
        <ele>660</ele>
        <time>2019-01-03T13:11:42Z</time>
      </trkpt>
      <trkpt lat="43.80624" lon="3.56119">
        <ele>660</ele>
        <time>2019-01-03T13:11:42Z</time>
      </trkpt>
      <trkpt lat="43.80627" lon="3.56114">
        <ele>663</ele>
        <time>2019-01-03T13:11:58Z</time>
      </trkpt>
      <trkpt lat="43.8063" lon="3.56112">
        <ele>663</ele>
        <time>2019-01-03T13:11:58Z</time>
      </trkpt>
      <trkpt lat="43.80633" lon="3.56108">
        <ele>663</ele>
        <time>2019-01-03T13:11:58Z</time>
      </trkpt>
      <trkpt lat="43.80636" lon="3.56103">
        <ele>663</ele>
        <time>2019-01-03T13:11:58Z</time>
      </trkpt>
      <trkpt lat="43.80638" lon="3.561">
        <ele>663</ele>
        <time>2019-01-03T13:12:14Z</time>
      </trkpt>
      <trkpt lat="43.80641" lon="3.56093">
        <ele>663</ele>
        <time>2019-01-03T13:12:14Z</time>
      </trkpt>
      <trkpt lat="43.80643" lon="3.56089">
        <ele>663</ele>
        <time>2019-01-03T13:12:14Z</time>
      </trkpt>
      <trkpt lat="43.80643" lon="3.56086">
        <ele>663</ele>
        <time>2019-01-03T13:12:14Z</time>
      </trkpt>
      <trkpt lat="43.80646" lon="3.56081">
        <ele>663</ele>
        <time>2019-01-03T13:12:30Z</time>
      </trkpt>
      <trkpt lat="43.80649" lon="3.56076">
        <ele>663</ele>
        <time>2019-01-03T13:12:30Z</time>
      </trkpt>
      <trkpt lat="43.80653" lon="3.56071">
        <ele>663</ele>
        <time>2019-01-03T13:12:30Z</time>
      </trkpt>
      <trkpt lat="43.80656" lon="3.56066">
        <ele>663</ele>
        <time>2019-01-03T13:12:30Z</time>
      </trkpt>
      <trkpt lat="43.8066" lon="3.56062">
        <ele>663</ele>
        <time>2019-01-03T13:12:46Z</time>
      </trkpt>
      <trkpt lat="43.80664" lon="3.56059">
        <ele>663</ele>
        <time>2019-01-03T13:12:46Z</time>
      </trkpt>
      <trkpt lat="43.80667" lon="3.5606">
        <ele>663</ele>
        <time>2019-01-03T13:12:46Z</time>
      </trkpt>
      <trkpt lat="43.80669" lon="3.56064">
        <ele>663</ele>
        <time>2019-01-03T13:12:46Z</time>
      </trkpt>
      <trkpt lat="43.80673" lon="3.56068">
        <ele>663</ele>
        <time>2019-01-03T13:13:02Z</time>
      </trkpt>
      <trkpt lat="43.80677" lon="3.56069">
        <ele>663</ele>
        <time>2019-01-03T13:13:02Z</time>
      </trkpt>
      <trkpt lat="43.80682" lon="3.56067">
        <ele>663</ele>
        <time>2019-01-03T13:13:02Z</time>
      </trkpt>
      <trkpt lat="43.80686" lon="3.56062">
        <ele>663</ele>
        <time>2019-01-03T13:13:02Z</time>
      </trkpt>
      <trkpt lat="43.80689" lon="3.56056">
        <ele>663</ele>
        <time>2019-01-03T13:13:18Z</time>
      </trkpt>
      <trkpt lat="43.80692" lon="3.5605">
        <ele>663</ele>
        <time>2019-01-03T13:13:18Z</time>
      </trkpt>
      <trkpt lat="43.80695" lon="3.56044">
        <ele>663</ele>
        <time>2019-01-03T13:13:18Z</time>
      </trkpt>
      <trkpt lat="43.80698" lon="3.5604">
        <ele>663</ele>
        <time>2019-01-03T13:13:18Z</time>
      </trkpt>
      <trkpt lat="43.80701" lon="3.56035">
        <ele>663</ele>
        <time>2019-01-03T13:13:34Z</time>
      </trkpt>
      <trkpt lat="43.80706" lon="3.5603">
        <ele>663</ele>
        <time>2019-01-03T13:13:34Z</time>
      </trkpt>
      <trkpt lat="43.80709" lon="3.56026">
        <ele>661</ele>
        <time>2019-01-03T13:13:34Z</time>
      </trkpt>
      <trkpt lat="43.80712" lon="3.56021">
        <ele>661</ele>
        <time>2019-01-03T13:13:34Z</time>
      </trkpt>
      <trkpt lat="43.80716" lon="3.56019">
        <ele>661</ele>
        <time>2019-01-03T13:13:50Z</time>
      </trkpt>
      <trkpt lat="43.8072" lon="3.56016">
        <ele>661</ele>
        <time>2019-01-03T13:13:50Z</time>
      </trkpt>
      <trkpt lat="43.80725" lon="3.56013">
        <ele>661</ele>
        <time>2019-01-03T13:13:50Z</time>
      </trkpt>
      <trkpt lat="43.80731" lon="3.56011">
        <ele>661</ele>
        <time>2019-01-03T13:13:50Z</time>
      </trkpt>
      <trkpt lat="43.80735" lon="3.56008">
        <ele>661</ele>
        <time>2019-01-03T13:14:06Z</time>
      </trkpt>
      <trkpt lat="43.80738" lon="3.56003">
        <ele>661</ele>
        <time>2019-01-03T13:14:06Z</time>
      </trkpt>
      <trkpt lat="43.80742" lon="3.56">
        <ele>661</ele>
        <time>2019-01-03T13:14:06Z</time>
      </trkpt>
      <trkpt lat="43.80746" lon="3.55998">
        <ele>661</ele>
        <time>2019-01-03T13:14:06Z</time>
      </trkpt>
      <trkpt lat="43.80749" lon="3.55992">
        <ele>661</ele>
        <time>2019-01-03T13:14:22Z</time>
      </trkpt>
      <trkpt lat="43.8075" lon="3.55987">
        <ele>661</ele>
        <time>2019-01-03T13:14:22Z</time>
      </trkpt>
      <trkpt lat="43.80755" lon="3.55982">
        <ele>661</ele>
        <time>2019-01-03T13:14:22Z</time>
      </trkpt>
      <trkpt lat="43.80759" lon="3.55979">
        <ele>661</ele>
        <time>2019-01-03T13:14:22Z</time>
      </trkpt>
      <trkpt lat="43.80762" lon="3.55973">
        <ele>661</ele>
        <time>2019-01-03T13:14:38Z</time>
      </trkpt>
      <trkpt lat="43.80767" lon="3.55969">
        <ele>661</ele>
        <time>2019-01-03T13:14:38Z</time>
      </trkpt>
      <trkpt lat="43.80771" lon="3.55964">
        <ele>661</ele>
        <time>2019-01-03T13:14:38Z</time>
      </trkpt>
      <trkpt lat="43.80776" lon="3.5596">
        <ele>661</ele>
        <time>2019-01-03T13:14:38Z</time>
      </trkpt>
      <trkpt lat="43.80779" lon="3.55956">
        <ele>664</ele>
        <time>2019-01-03T13:14:54Z</time>
      </trkpt>
      <trkpt lat="43.80783" lon="3.55952">
        <ele>664</ele>
        <time>2019-01-03T13:14:54Z</time>
      </trkpt>
      <trkpt lat="43.80789" lon="3.5595">
        <ele>664</ele>
        <time>2019-01-03T13:14:54Z</time>
      </trkpt>
      <trkpt lat="43.80793" lon="3.55948">
        <ele>664</ele>
        <time>2019-01-03T13:14:54Z</time>
      </trkpt>
      <trkpt lat="43.80798" lon="3.55945">
        <ele>664</ele>
        <time>2019-01-03T13:15:10Z</time>
      </trkpt>
      <trkpt lat="43.80802" lon="3.55943">
        <ele>664</ele>
        <time>2019-01-03T13:15:10Z</time>
      </trkpt>
      <trkpt lat="43.80806" lon="3.55941">
        <ele>664</ele>
        <time>2019-01-03T13:15:10Z</time>
      </trkpt>
      <trkpt lat="43.80809" lon="3.5594">
        <ele>664</ele>
        <time>2019-01-03T13:15:10Z</time>
      </trkpt>
      <trkpt lat="43.80812" lon="3.55938">
        <ele>664</ele>
        <time>2019-01-03T13:15:26Z</time>
      </trkpt>
      <trkpt lat="43.80817" lon="3.55935">
        <ele>664</ele>
        <time>2019-01-03T13:15:26Z</time>
      </trkpt>
      <trkpt lat="43.80821" lon="3.55934">
        <ele>664</ele>
        <time>2019-01-03T13:15:26Z</time>
      </trkpt>
      <trkpt lat="43.80826" lon="3.55932">
        <ele>664</ele>
        <time>2019-01-03T13:15:26Z</time>
      </trkpt>
      <trkpt lat="43.80832" lon="3.55931">
        <ele>664</ele>
        <time>2019-01-03T13:15:42Z</time>
      </trkpt>
      <trkpt lat="43.80836" lon="3.55928">
        <ele>664</ele>
        <time>2019-01-03T13:15:42Z</time>
      </trkpt>
      <trkpt lat="43.80841" lon="3.55927">
        <ele>664</ele>
        <time>2019-01-03T13:15:42Z</time>
      </trkpt>
      <trkpt lat="43.80846" lon="3.55926">
        <ele>664</ele>
        <time>2019-01-03T13:15:42Z</time>
      </trkpt>
      <trkpt lat="43.8085" lon="3.55925">
        <ele>664</ele>
        <time>2019-01-03T13:15:58Z</time>
      </trkpt>
      <trkpt lat="43.80856" lon="3.55926">
        <ele>664</ele>
        <time>2019-01-03T13:15:58Z</time>
      </trkpt>
      <trkpt lat="43.80862" lon="3.55926">
        <ele>664</ele>
        <time>2019-01-03T13:15:58Z</time>
      </trkpt>
      <trkpt lat="43.80868" lon="3.55925">
        <ele>664</ele>
        <time>2019-01-03T13:15:58Z</time>
      </trkpt>
      <trkpt lat="43.80872" lon="3.55926">
        <ele>664</ele>
        <time>2019-01-03T13:16:14Z</time>
      </trkpt>
      <trkpt lat="43.80877" lon="3.55926">
        <ele>673</ele>
        <time>2019-01-03T13:16:14Z</time>
      </trkpt>
      <trkpt lat="43.8088" lon="3.55923">
        <ele>673</ele>
        <time>2019-01-03T13:16:14Z</time>
      </trkpt>
      <trkpt lat="43.80884" lon="3.5592">
        <ele>673</ele>
        <time>2019-01-03T13:16:14Z</time>
      </trkpt>
      <trkpt lat="43.80888" lon="3.55918">
        <ele>673</ele>
        <time>2019-01-03T13:16:34Z</time>
      </trkpt>
      <trkpt lat="43.80891" lon="3.55916">
        <ele>673</ele>
        <time>2019-01-03T13:16:34Z</time>
      </trkpt>
      <trkpt lat="43.80893" lon="3.55916">
        <ele>673</ele>
        <time>2019-01-03T13:16:34Z</time>
      </trkpt>
      <trkpt lat="43.80893" lon="3.55915">
        <ele>673</ele>
        <time>2019-01-03T13:16:34Z</time>
      </trkpt>
      <trkpt lat="43.80898" lon="3.5591">
        <ele>673</ele>
        <time>2019-01-03T13:16:34Z</time>
      </trkpt>
      <trkpt lat="43.80902" lon="3.55907">
        <ele>673</ele>
        <time>2019-01-03T13:16:50Z</time>
      </trkpt>
      <trkpt lat="43.80905" lon="3.55904">
        <ele>673</ele>
        <time>2019-01-03T13:16:50Z</time>
      </trkpt>
      <trkpt lat="43.80909" lon="3.55897">
        <ele>673</ele>
        <time>2019-01-03T13:16:50Z</time>
      </trkpt>
      <trkpt lat="43.8091" lon="3.55889">
        <ele>673</ele>
        <time>2019-01-03T13:16:50Z</time>
      </trkpt>
      <trkpt lat="43.80912" lon="3.55881">
        <ele>673</ele>
        <time>2019-01-03T13:17:06Z</time>
      </trkpt>
      <trkpt lat="43.80913" lon="3.55876">
        <ele>673</ele>
        <time>2019-01-03T13:17:06Z</time>
      </trkpt>
      <trkpt lat="43.80916" lon="3.55872">
        <ele>675</ele>
        <time>2019-01-03T13:17:06Z</time>
      </trkpt>
      <trkpt lat="43.80918" lon="3.55866">
        <ele>675</ele>
        <time>2019-01-03T13:17:06Z</time>
      </trkpt>
      <trkpt lat="43.80919" lon="3.55858">
        <ele>675</ele>
        <time>2019-01-03T13:17:22Z</time>
      </trkpt>
      <trkpt lat="43.8092" lon="3.55851">
        <ele>675</ele>
        <time>2019-01-03T13:17:22Z</time>
      </trkpt>
      <trkpt lat="43.80922" lon="3.55844">
        <ele>675</ele>
        <time>2019-01-03T13:17:22Z</time>
      </trkpt>
      <trkpt lat="43.80923" lon="3.55839">
        <ele>675</ele>
        <time>2019-01-03T13:17:22Z</time>
      </trkpt>
      <trkpt lat="43.80923" lon="3.55833">
        <ele>675</ele>
        <time>2019-01-03T13:17:38Z</time>
      </trkpt>
      <trkpt lat="43.80922" lon="3.55826">
        <ele>675</ele>
        <time>2019-01-03T13:17:38Z</time>
      </trkpt>
      <trkpt lat="43.80922" lon="3.55819">
        <ele>675</ele>
        <time>2019-01-03T13:17:38Z</time>
      </trkpt>
      <trkpt lat="43.80921" lon="3.55813">
        <ele>675</ele>
        <time>2019-01-03T13:17:38Z</time>
      </trkpt>
      <trkpt lat="43.80921" lon="3.55806">
        <ele>675</ele>
        <time>2019-01-03T13:17:54Z</time>
      </trkpt>
      <trkpt lat="43.80921" lon="3.55801">
        <ele>675</ele>
        <time>2019-01-03T13:17:54Z</time>
      </trkpt>
      <trkpt lat="43.80922" lon="3.55795">
        <ele>675</ele>
        <time>2019-01-03T13:17:54Z</time>
      </trkpt>
      <trkpt lat="43.80922" lon="3.5579">
        <ele>679</ele>
        <time>2019-01-03T13:17:54Z</time>
      </trkpt>
      <trkpt lat="43.80922" lon="3.55785">
        <ele>679</ele>
        <time>2019-01-03T13:18:10Z</time>
      </trkpt>
      <trkpt lat="43.80922" lon="3.55778">
        <ele>679</ele>
        <time>2019-01-03T13:18:10Z</time>
      </trkpt>
      <trkpt lat="43.80922" lon="3.55773">
        <ele>679</ele>
        <time>2019-01-03T13:18:10Z</time>
      </trkpt>
      <trkpt lat="43.80922" lon="3.55767">
        <ele>679</ele>
        <time>2019-01-03T13:18:10Z</time>
      </trkpt>
      <trkpt lat="43.80923" lon="3.5576">
        <ele>679</ele>
        <time>2019-01-03T13:18:26Z</time>
      </trkpt>
      <trkpt lat="43.80921" lon="3.55754">
        <ele>679</ele>
        <time>2019-01-03T13:18:26Z</time>
      </trkpt>
      <trkpt lat="43.80919" lon="3.55749">
        <ele>679</ele>
        <time>2019-01-03T13:18:26Z</time>
      </trkpt>
      <trkpt lat="43.80919" lon="3.55744">
        <ele>679</ele>
        <time>2019-01-03T13:18:26Z</time>
      </trkpt>
      <trkpt lat="43.80918" lon="3.55738">
        <ele>679</ele>
        <time>2019-01-03T13:18:42Z</time>
      </trkpt>
      <trkpt lat="43.80919" lon="3.55732">
        <ele>679</ele>
        <time>2019-01-03T13:18:42Z</time>
      </trkpt>
      <trkpt lat="43.80918" lon="3.55727">
        <ele>679</ele>
        <time>2019-01-03T13:18:42Z</time>
      </trkpt>
      <trkpt lat="43.80918" lon="3.55721">
        <ele>679</ele>
        <time>2019-01-03T13:18:42Z</time>
      </trkpt>
      <trkpt lat="43.80918" lon="3.55715">
        <ele>679</ele>
        <time>2019-01-03T13:18:58Z</time>
      </trkpt>
      <trkpt lat="43.80918" lon="3.55712">
        <ele>679</ele>
        <time>2019-01-03T13:18:58Z</time>
      </trkpt>
      <trkpt lat="43.8092" lon="3.55707">
        <ele>686</ele>
        <time>2019-01-03T13:18:58Z</time>
      </trkpt>
      <trkpt lat="43.80923" lon="3.55704">
        <ele>686</ele>
        <time>2019-01-03T13:18:58Z</time>
      </trkpt>
      <trkpt lat="43.80926" lon="3.55702">
        <ele>686</ele>
        <time>2019-01-03T13:19:14Z</time>
      </trkpt>
      <trkpt lat="43.8093" lon="3.55699">
        <ele>686</ele>
        <time>2019-01-03T13:19:14Z</time>
      </trkpt>
      <trkpt lat="43.80934" lon="3.55696">
        <ele>686</ele>
        <time>2019-01-03T13:19:14Z</time>
      </trkpt>
      <trkpt lat="43.80938" lon="3.55695">
        <ele>686</ele>
        <time>2019-01-03T13:19:14Z</time>
      </trkpt>
      <trkpt lat="43.80942" lon="3.55694">
        <ele>686</ele>
        <time>2019-01-03T13:19:30Z</time>
      </trkpt>
      <trkpt lat="43.80946" lon="3.55691">
        <ele>686</ele>
        <time>2019-01-03T13:19:30Z</time>
      </trkpt>
      <trkpt lat="43.80949" lon="3.55688">
        <ele>686</ele>
        <time>2019-01-03T13:19:30Z</time>
      </trkpt>
      <trkpt lat="43.80953" lon="3.55686">
        <ele>686</ele>
        <time>2019-01-03T13:19:30Z</time>
      </trkpt>
      <trkpt lat="43.80956" lon="3.55682">
        <ele>686</ele>
        <time>2019-01-03T13:19:46Z</time>
      </trkpt>
      <trkpt lat="43.8096" lon="3.55678">
        <ele>680</ele>
        <time>2019-01-03T13:19:46Z</time>
      </trkpt>
      <trkpt lat="43.80965" lon="3.55675">
        <ele>680</ele>
        <time>2019-01-03T13:19:46Z</time>
      </trkpt>
      <trkpt lat="43.8097" lon="3.55671">
        <ele>680</ele>
        <time>2019-01-03T13:19:46Z</time>
      </trkpt>
      <trkpt lat="43.80973" lon="3.55667">
        <ele>680</ele>
        <time>2019-01-03T13:20:02Z</time>
      </trkpt>
      <trkpt lat="43.80976" lon="3.55663">
        <ele>680</ele>
        <time>2019-01-03T13:20:02Z</time>
      </trkpt>
      <trkpt lat="43.8098" lon="3.55659">
        <ele>680</ele>
        <time>2019-01-03T13:20:02Z</time>
      </trkpt>
      <trkpt lat="43.80983" lon="3.55656">
        <ele>680</ele>
        <time>2019-01-03T13:20:02Z</time>
      </trkpt>
      <trkpt lat="43.80986" lon="3.55652">
        <ele>680</ele>
        <time>2019-01-03T13:20:38Z</time>
      </trkpt>
      <trkpt lat="43.80989" lon="3.5565">
        <ele>680</ele>
        <time>2019-01-03T13:20:38Z</time>
      </trkpt>
      <trkpt lat="43.80991" lon="3.55649">
        <ele>680</ele>
        <time>2019-01-03T13:20:38Z</time>
      </trkpt>
      <trkpt lat="43.80993" lon="3.55645">
        <ele>680</ele>
        <time>2019-01-03T13:20:38Z</time>
      </trkpt>
      <trkpt lat="43.80995" lon="3.55642">
        <ele>680</ele>
        <time>2019-01-03T13:20:38Z</time>
      </trkpt>
      <trkpt lat="43.80995" lon="3.55641">
        <ele>680</ele>
        <time>2019-01-03T13:22:42Z</time>
      </trkpt>
      <trkpt lat="43.80991" lon="3.55643">
        <ele>680</ele>
        <time>2019-01-03T13:22:42Z</time>
      </trkpt>
      <trkpt lat="43.80988" lon="3.55647">
        <ele>680</ele>
        <time>2019-01-03T13:22:42Z</time>
      </trkpt>
      <trkpt lat="43.80984" lon="3.55651">
        <ele>680</ele>
        <time>2019-01-03T13:22:42Z</time>
      </trkpt>
      <trkpt lat="43.80981" lon="3.55655">
        <ele>680</ele>
        <time>2019-01-03T13:22:42Z</time>
      </trkpt>
      <trkpt lat="43.8098" lon="3.55656">
        <ele>680</ele>
        <time>2019-01-03T13:23:14Z</time>
      </trkpt>
      <trkpt lat="43.80976" lon="3.55661">
        <ele>680</ele>
        <time>2019-01-03T13:23:14Z</time>
      </trkpt>
      <trkpt lat="43.80972" lon="3.55663">
        <ele>680</ele>
        <time>2019-01-03T13:23:14Z</time>
      </trkpt>
      <trkpt lat="43.80968" lon="3.55665">
        <ele>680</ele>
        <time>2019-01-03T13:23:14Z</time>
      </trkpt>
      <trkpt lat="43.80964" lon="3.55667">
        <ele>680</ele>
        <time>2019-01-03T13:23:30Z</time>
      </trkpt>
      <trkpt lat="43.8096" lon="3.5567">
        <ele>680</ele>
        <time>2019-01-03T13:23:30Z</time>
      </trkpt>
      <trkpt lat="43.80956" lon="3.55673">
        <ele>686</ele>
        <time>2019-01-03T13:23:30Z</time>
      </trkpt>
      <trkpt lat="43.80953" lon="3.55676">
        <ele>686</ele>
        <time>2019-01-03T13:23:30Z</time>
      </trkpt>
      <trkpt lat="43.80949" lon="3.55679">
        <ele>686</ele>
        <time>2019-01-03T13:23:46Z</time>
      </trkpt>
      <trkpt lat="43.80945" lon="3.55682">
        <ele>686</ele>
        <time>2019-01-03T13:23:46Z</time>
      </trkpt>
      <trkpt lat="43.80941" lon="3.55684">
        <ele>686</ele>
        <time>2019-01-03T13:23:46Z</time>
      </trkpt>
      <trkpt lat="43.80937" lon="3.55685">
        <ele>686</ele>
        <time>2019-01-03T13:23:46Z</time>
      </trkpt>
      <trkpt lat="43.80933" lon="3.55687">
        <ele>686</ele>
        <time>2019-01-03T13:24:02Z</time>
      </trkpt>
      <trkpt lat="43.80928" lon="3.5569">
        <ele>686</ele>
        <time>2019-01-03T13:24:02Z</time>
      </trkpt>
      <trkpt lat="43.80923" lon="3.55692">
        <ele>686</ele>
        <time>2019-01-03T13:24:02Z</time>
      </trkpt>
      <trkpt lat="43.80918" lon="3.55694">
        <ele>686</ele>
        <time>2019-01-03T13:24:02Z</time>
      </trkpt>
      <trkpt lat="43.80914" lon="3.55696">
        <ele>686</ele>
        <time>2019-01-03T13:24:18Z</time>
      </trkpt>
      <trkpt lat="43.8091" lon="3.55697">
        <ele>686</ele>
        <time>2019-01-03T13:24:18Z</time>
      </trkpt>
      <trkpt lat="43.80905" lon="3.55698">
        <ele>686</ele>
        <time>2019-01-03T13:24:18Z</time>
      </trkpt>
      <trkpt lat="43.80901" lon="3.55698">
        <ele>686</ele>
        <time>2019-01-03T13:24:18Z</time>
      </trkpt>
      <trkpt lat="43.80896" lon="3.55698">
        <ele>686</ele>
        <time>2019-01-03T13:24:34Z</time>
      </trkpt>
      <trkpt lat="43.80891" lon="3.55699">
        <ele>686</ele>
        <time>2019-01-03T13:24:34Z</time>
      </trkpt>
      <trkpt lat="43.80885" lon="3.55698">
        <ele>686</ele>
        <time>2019-01-03T13:24:34Z</time>
      </trkpt>
      <trkpt lat="43.80881" lon="3.55698">
        <ele>686</ele>
        <time>2019-01-03T13:24:34Z</time>
      </trkpt>
      <trkpt lat="43.80875" lon="3.55697">
        <ele>686</ele>
        <time>2019-01-03T13:24:50Z</time>
      </trkpt>
      <trkpt lat="43.80871" lon="3.55697">
        <ele>689</ele>
        <time>2019-01-03T13:24:50Z</time>
      </trkpt>
      <trkpt lat="43.80867" lon="3.55695">
        <ele>689</ele>
        <time>2019-01-03T13:24:50Z</time>
      </trkpt>
      <trkpt lat="43.80864" lon="3.55692">
        <ele>689</ele>
        <time>2019-01-03T13:24:50Z</time>
      </trkpt>
      <trkpt lat="43.80861" lon="3.55691">
        <ele>689</ele>
        <time>2019-01-03T13:25:06Z</time>
      </trkpt>
      <trkpt lat="43.80854" lon="3.5569">
        <ele>689</ele>
        <time>2019-01-03T13:25:06Z</time>
      </trkpt>
      <trkpt lat="43.80848" lon="3.5569">
        <ele>689</ele>
        <time>2019-01-03T13:25:06Z</time>
      </trkpt>
      <trkpt lat="43.80843" lon="3.55691">
        <ele>689</ele>
        <time>2019-01-03T13:25:06Z</time>
      </trkpt>
      <trkpt lat="43.80838" lon="3.55689">
        <ele>689</ele>
        <time>2019-01-03T13:25:22Z</time>
      </trkpt>
      <trkpt lat="43.80834" lon="3.55687">
        <ele>689</ele>
        <time>2019-01-03T13:25:22Z</time>
      </trkpt>
      <trkpt lat="43.8083" lon="3.55686">
        <ele>689</ele>
        <time>2019-01-03T13:25:22Z</time>
      </trkpt>
      <trkpt lat="43.80826" lon="3.55685">
        <ele>689</ele>
        <time>2019-01-03T13:25:22Z</time>
      </trkpt>
      <trkpt lat="43.80822" lon="3.55684">
        <ele>689</ele>
        <time>2019-01-03T13:25:38Z</time>
      </trkpt>
      <trkpt lat="43.80817" lon="3.55681">
        <ele>689</ele>
        <time>2019-01-03T13:25:38Z</time>
      </trkpt>
      <trkpt lat="43.80813" lon="3.55679">
        <ele>689</ele>
        <time>2019-01-03T13:25:38Z</time>
      </trkpt>
      <trkpt lat="43.80808" lon="3.55676">
        <ele>689</ele>
        <time>2019-01-03T13:25:38Z</time>
      </trkpt>
      <trkpt lat="43.80804" lon="3.55672">
        <ele>689</ele>
        <time>2019-01-03T13:25:54Z</time>
      </trkpt>
      <trkpt lat="43.80802" lon="3.55669">
        <ele>689</ele>
        <time>2019-01-03T13:25:54Z</time>
      </trkpt>
      <trkpt lat="43.80801" lon="3.55663">
        <ele>689</ele>
        <time>2019-01-03T13:25:54Z</time>
      </trkpt>
      <trkpt lat="43.808" lon="3.55658">
        <ele>689</ele>
        <time>2019-01-03T13:25:54Z</time>
      </trkpt>
      <trkpt lat="43.80799" lon="3.55653">
        <ele>689</ele>
        <time>2019-01-03T13:26:10Z</time>
      </trkpt>
      <trkpt lat="43.80796" lon="3.55648">
        <ele>689</ele>
        <time>2019-01-03T13:26:10Z</time>
      </trkpt>
      <trkpt lat="43.80792" lon="3.55644">
        <ele>689</ele>
        <time>2019-01-03T13:26:10Z</time>
      </trkpt>
      <trkpt lat="43.80788" lon="3.5564">
        <ele>685</ele>
        <time>2019-01-03T13:26:10Z</time>
      </trkpt>
      <trkpt lat="43.80783" lon="3.55638">
        <ele>685</ele>
        <time>2019-01-03T13:26:26Z</time>
      </trkpt>
      <trkpt lat="43.80778" lon="3.55635">
        <ele>685</ele>
        <time>2019-01-03T13:26:26Z</time>
      </trkpt>
      <trkpt lat="43.80772" lon="3.55634">
        <ele>685</ele>
        <time>2019-01-03T13:26:26Z</time>
      </trkpt>
      <trkpt lat="43.80767" lon="3.55631">
        <ele>685</ele>
        <time>2019-01-03T13:26:26Z</time>
      </trkpt>
      <trkpt lat="43.80761" lon="3.55628">
        <ele>685</ele>
        <time>2019-01-03T13:26:42Z</time>
      </trkpt>
      <trkpt lat="43.80757" lon="3.55625">
        <ele>696</ele>
        <time>2019-01-03T13:26:42Z</time>
      </trkpt>
      <trkpt lat="43.80752" lon="3.55622">
        <ele>696</ele>
        <time>2019-01-03T13:26:42Z</time>
      </trkpt>
      <trkpt lat="43.80748" lon="3.55618">
        <ele>696</ele>
        <time>2019-01-03T13:26:42Z</time>
      </trkpt>
      <trkpt lat="43.80745" lon="3.55614">
        <ele>696</ele>
        <time>2019-01-03T13:26:58Z</time>
      </trkpt>
      <trkpt lat="43.8074" lon="3.55611">
        <ele>696</ele>
        <time>2019-01-03T13:26:58Z</time>
      </trkpt>
      <trkpt lat="43.80736" lon="3.55609">
        <ele>696</ele>
        <time>2019-01-03T13:26:58Z</time>
      </trkpt>
      <trkpt lat="43.80732" lon="3.55609">
        <ele>696</ele>
        <time>2019-01-03T13:26:58Z</time>
      </trkpt>
      <trkpt lat="43.80729" lon="3.55607">
        <ele>696</ele>
        <time>2019-01-03T13:27:14Z</time>
      </trkpt>
      <trkpt lat="43.80725" lon="3.55607">
        <ele>696</ele>
        <time>2019-01-03T13:27:14Z</time>
      </trkpt>
      <trkpt lat="43.80719" lon="3.55607">
        <ele>696</ele>
        <time>2019-01-03T13:27:14Z</time>
      </trkpt>
      <trkpt lat="43.80714" lon="3.55608">
        <ele>696</ele>
        <time>2019-01-03T13:27:14Z</time>
      </trkpt>
      <trkpt lat="43.80708" lon="3.55609">
        <ele>698</ele>
        <time>2019-01-03T13:27:30Z</time>
      </trkpt>
      <trkpt lat="43.80703" lon="3.5561">
        <ele>698</ele>
        <time>2019-01-03T13:27:30Z</time>
      </trkpt>
      <trkpt lat="43.80699" lon="3.55612">
        <ele>698</ele>
        <time>2019-01-03T13:27:30Z</time>
      </trkpt>
      <trkpt lat="43.80694" lon="3.55614">
        <ele>698</ele>
        <time>2019-01-03T13:27:30Z</time>
      </trkpt>
      <trkpt lat="43.80689" lon="3.55616">
        <ele>698</ele>
        <time>2019-01-03T13:27:46Z</time>
      </trkpt>
      <trkpt lat="43.80683" lon="3.55617">
        <ele>698</ele>
        <time>2019-01-03T13:27:46Z</time>
      </trkpt>
      <trkpt lat="43.80678" lon="3.55618">
        <ele>698</ele>
        <time>2019-01-03T13:27:46Z</time>
      </trkpt>
      <trkpt lat="43.80672" lon="3.55619">
        <ele>698</ele>
        <time>2019-01-03T13:27:46Z</time>
      </trkpt>
      <trkpt lat="43.80668" lon="3.55618">
        <ele>698</ele>
        <time>2019-01-03T13:28:02Z</time>
      </trkpt>
      <trkpt lat="43.80663" lon="3.55619">
        <ele>698</ele>
        <time>2019-01-03T13:28:02Z</time>
      </trkpt>
      <trkpt lat="43.80657" lon="3.55621">
        <ele>698</ele>
        <time>2019-01-03T13:28:02Z</time>
      </trkpt>
      <trkpt lat="43.80651" lon="3.55621">
        <ele>698</ele>
        <time>2019-01-03T13:28:02Z</time>
      </trkpt>
      <trkpt lat="43.80645" lon="3.55622">
        <ele>698</ele>
        <time>2019-01-03T13:28:18Z</time>
      </trkpt>
      <trkpt lat="43.80638" lon="3.55623">
        <ele>698</ele>
        <time>2019-01-03T13:28:18Z</time>
      </trkpt>
      <trkpt lat="43.80634" lon="3.55623">
        <ele>698</ele>
        <time>2019-01-03T13:28:18Z</time>
      </trkpt>
      <trkpt lat="43.80628" lon="3.55624">
        <ele>698</ele>
        <time>2019-01-03T13:28:18Z</time>
      </trkpt>
      <trkpt lat="43.80623" lon="3.55624">
        <ele>697</ele>
        <time>2019-01-03T13:28:34Z</time>
      </trkpt>
      <trkpt lat="43.80618" lon="3.55625">
        <ele>689</ele>
        <time>2019-01-03T13:28:34Z</time>
      </trkpt>
      <trkpt lat="43.80612" lon="3.55627">
        <ele>689</ele>
        <time>2019-01-03T13:28:34Z</time>
      </trkpt>
      <trkpt lat="43.80607" lon="3.55628">
        <ele>689</ele>
        <time>2019-01-03T13:28:34Z</time>
      </trkpt>
      <trkpt lat="43.80602" lon="3.55629">
        <ele>689</ele>
        <time>2019-01-03T13:28:50Z</time>
      </trkpt>
      <trkpt lat="43.80597" lon="3.55631">
        <ele>689</ele>
        <time>2019-01-03T13:28:50Z</time>
      </trkpt>
      <trkpt lat="43.80592" lon="3.55631">
        <ele>689</ele>
        <time>2019-01-03T13:28:50Z</time>
      </trkpt>
      <trkpt lat="43.80586" lon="3.55632">
        <ele>689</ele>
        <time>2019-01-03T13:28:50Z</time>
      </trkpt>
      <trkpt lat="43.80582" lon="3.55632">
        <ele>689</ele>
        <time>2019-01-03T13:29:06Z</time>
      </trkpt>
      <trkpt lat="43.80579" lon="3.55631">
        <ele>689</ele>
        <time>2019-01-03T13:29:06Z</time>
      </trkpt>
      <trkpt lat="43.80574" lon="3.55629">
        <ele>689</ele>
        <time>2019-01-03T13:29:06Z</time>
      </trkpt>
      <trkpt lat="43.80571" lon="3.55627">
        <ele>689</ele>
        <time>2019-01-03T13:29:06Z</time>
      </trkpt>
      <trkpt lat="43.80566" lon="3.55624">
        <ele>697</ele>
        <time>2019-01-03T13:29:22Z</time>
      </trkpt>
      <trkpt lat="43.80562" lon="3.5562">
        <ele>697</ele>
        <time>2019-01-03T13:29:22Z</time>
      </trkpt>
      <trkpt lat="43.80558" lon="3.55615">
        <ele>697</ele>
        <time>2019-01-03T13:29:22Z</time>
      </trkpt>
      <trkpt lat="43.80555" lon="3.55609">
        <ele>697</ele>
        <time>2019-01-03T13:29:22Z</time>
      </trkpt>
      <trkpt lat="43.80552" lon="3.55603">
        <ele>697</ele>
        <time>2019-01-03T13:29:38Z</time>
      </trkpt>
      <trkpt lat="43.80549" lon="3.55597">
        <ele>697</ele>
        <time>2019-01-03T13:29:38Z</time>
      </trkpt>
      <trkpt lat="43.80546" lon="3.55591">
        <ele>697</ele>
        <time>2019-01-03T13:29:38Z</time>
      </trkpt>
      <trkpt lat="43.80544" lon="3.55585">
        <ele>697</ele>
        <time>2019-01-03T13:29:38Z</time>
      </trkpt>
      <trkpt lat="43.80543" lon="3.55579">
        <ele>697</ele>
        <time>2019-01-03T13:29:54Z</time>
      </trkpt>
      <trkpt lat="43.8054" lon="3.55574">
        <ele>690</ele>
        <time>2019-01-03T13:29:54Z</time>
      </trkpt>
      <trkpt lat="43.80538" lon="3.55567">
        <ele>690</ele>
        <time>2019-01-03T13:29:54Z</time>
      </trkpt>
      <trkpt lat="43.80536" lon="3.5556">
        <ele>690</ele>
        <time>2019-01-03T13:29:54Z</time>
      </trkpt>
      <trkpt lat="43.80533" lon="3.55554">
        <ele>690</ele>
        <time>2019-01-03T13:30:10Z</time>
      </trkpt>
      <trkpt lat="43.8053" lon="3.55547">
        <ele>690</ele>
        <time>2019-01-03T13:30:10Z</time>
      </trkpt>
      <trkpt lat="43.80527" lon="3.5554">
        <ele>695</ele>
        <time>2019-01-03T13:30:10Z</time>
      </trkpt>
      <trkpt lat="43.80524" lon="3.55534">
        <ele>695</ele>
        <time>2019-01-03T13:30:10Z</time>
      </trkpt>
      <trkpt lat="43.80521" lon="3.55528">
        <ele>695</ele>
        <time>2019-01-03T13:30:26Z</time>
      </trkpt>
      <trkpt lat="43.80518" lon="3.55523">
        <ele>695</ele>
        <time>2019-01-03T13:30:26Z</time>
      </trkpt>
      <trkpt lat="43.80515" lon="3.55517">
        <ele>695</ele>
        <time>2019-01-03T13:30:26Z</time>
      </trkpt>
      <trkpt lat="43.80512" lon="3.55511">
        <ele>695</ele>
        <time>2019-01-03T13:30:26Z</time>
      </trkpt>
      <trkpt lat="43.80509" lon="3.55505">
        <ele>695</ele>
        <time>2019-01-03T13:30:42Z</time>
      </trkpt>
      <trkpt lat="43.80505" lon="3.55501">
        <ele>695</ele>
        <time>2019-01-03T13:30:42Z</time>
      </trkpt>
      <trkpt lat="43.80501" lon="3.55497">
        <ele>695</ele>
        <time>2019-01-03T13:30:42Z</time>
      </trkpt>
      <trkpt lat="43.80496" lon="3.55494">
        <ele>695</ele>
        <time>2019-01-03T13:30:42Z</time>
      </trkpt>
      <trkpt lat="43.80491" lon="3.55492">
        <ele>695</ele>
        <time>2019-01-03T13:30:58Z</time>
      </trkpt>
      <trkpt lat="43.80485" lon="3.55491">
        <ele>695</ele>
        <time>2019-01-03T13:30:58Z</time>
      </trkpt>
      <trkpt lat="43.80479" lon="3.5549">
        <ele>695</ele>
        <time>2019-01-03T13:30:58Z</time>
      </trkpt>
      <trkpt lat="43.80474" lon="3.55489">
        <ele>695</ele>
        <time>2019-01-03T13:30:58Z</time>
      </trkpt>
      <trkpt lat="43.80469" lon="3.55487">
        <ele>695</ele>
        <time>2019-01-03T13:31:14Z</time>
      </trkpt>
      <trkpt lat="43.80465" lon="3.55485">
        <ele>695</ele>
        <time>2019-01-03T13:31:14Z</time>
      </trkpt>
      <trkpt lat="43.8046" lon="3.55485">
        <ele>695</ele>
        <time>2019-01-03T13:31:14Z</time>
      </trkpt>
      <trkpt lat="43.80455" lon="3.55484">
        <ele>693</ele>
        <time>2019-01-03T13:31:14Z</time>
      </trkpt>
      <trkpt lat="43.80451" lon="3.55482">
        <ele>693</ele>
        <time>2019-01-03T13:31:30Z</time>
      </trkpt>
      <trkpt lat="43.80446" lon="3.5548">
        <ele>693</ele>
        <time>2019-01-03T13:31:30Z</time>
      </trkpt>
      <trkpt lat="43.80441" lon="3.55478">
        <ele>693</ele>
        <time>2019-01-03T13:31:30Z</time>
      </trkpt>
      <trkpt lat="43.80436" lon="3.55479">
        <ele>693</ele>
        <time>2019-01-03T13:31:30Z</time>
      </trkpt>
      <trkpt lat="43.8043" lon="3.55479">
        <ele>693</ele>
        <time>2019-01-03T13:31:46Z</time>
      </trkpt>
      <trkpt lat="43.80425" lon="3.55478">
        <ele>693</ele>
        <time>2019-01-03T13:31:46Z</time>
      </trkpt>
      <trkpt lat="43.80417" lon="3.55479">
        <ele>693</ele>
        <time>2019-01-03T13:31:46Z</time>
      </trkpt>
      <trkpt lat="43.80411" lon="3.5548">
        <ele>693</ele>
        <time>2019-01-03T13:31:46Z</time>
      </trkpt>
      <trkpt lat="43.80405" lon="3.5548">
        <ele>693</ele>
        <time>2019-01-03T13:32:02Z</time>
      </trkpt>
      <trkpt lat="43.80398" lon="3.5548">
        <ele>693</ele>
        <time>2019-01-03T13:32:02Z</time>
      </trkpt>
      <trkpt lat="43.80392" lon="3.5548">
        <ele>693</ele>
        <time>2019-01-03T13:32:02Z</time>
      </trkpt>
      <trkpt lat="43.80388" lon="3.5548">
        <ele>693</ele>
        <time>2019-01-03T13:32:02Z</time>
      </trkpt>
      <trkpt lat="43.80383" lon="3.5548">
        <ele>693</ele>
        <time>2019-01-03T13:32:18Z</time>
      </trkpt>
      <trkpt lat="43.80378" lon="3.55479">
        <ele>693</ele>
        <time>2019-01-03T13:32:18Z</time>
      </trkpt>
      <trkpt lat="43.80373" lon="3.5548">
        <ele>696</ele>
        <time>2019-01-03T13:32:18Z</time>
      </trkpt>
      <trkpt lat="43.80368" lon="3.55479">
        <ele>696</ele>
        <time>2019-01-03T13:32:18Z</time>
      </trkpt>
      <trkpt lat="43.80362" lon="3.5548">
        <ele>696</ele>
        <time>2019-01-03T13:32:34Z</time>
      </trkpt>
      <trkpt lat="43.80358" lon="3.55481">
        <ele>696</ele>
        <time>2019-01-03T13:32:34Z</time>
      </trkpt>
      <trkpt lat="43.80352" lon="3.55483">
        <ele>696</ele>
        <time>2019-01-03T13:32:34Z</time>
      </trkpt>
      <trkpt lat="43.80347" lon="3.55486">
        <ele>696</ele>
        <time>2019-01-03T13:32:34Z</time>
      </trkpt>
      <trkpt lat="43.80343" lon="3.55487">
        <ele>696</ele>
        <time>2019-01-03T13:32:50Z</time>
      </trkpt>
      <trkpt lat="43.80338" lon="3.55488">
        <ele>696</ele>
        <time>2019-01-03T13:32:50Z</time>
      </trkpt>
      <trkpt lat="43.80334" lon="3.55489">
        <ele>696</ele>
        <time>2019-01-03T13:32:50Z</time>
      </trkpt>
      <trkpt lat="43.80329" lon="3.55488">
        <ele>696</ele>
        <time>2019-01-03T13:32:50Z</time>
      </trkpt>
      <trkpt lat="43.80324" lon="3.55489">
        <ele>696</ele>
        <time>2019-01-03T13:33:06Z</time>
      </trkpt>
      <trkpt lat="43.80319" lon="3.55489">
        <ele>696</ele>
        <time>2019-01-03T13:33:06Z</time>
      </trkpt>
      <trkpt lat="43.80313" lon="3.55488">
        <ele>696</ele>
        <time>2019-01-03T13:33:06Z</time>
      </trkpt>
      <trkpt lat="43.80307" lon="3.55488">
        <ele>696</ele>
        <time>2019-01-03T13:33:06Z</time>
      </trkpt>
      <trkpt lat="43.80302" lon="3.55487">
        <ele>696</ele>
        <time>2019-01-03T13:33:22Z</time>
      </trkpt>
      <trkpt lat="43.80298" lon="3.55486">
        <ele>696</ele>
        <time>2019-01-03T13:33:22Z</time>
      </trkpt>
      <trkpt lat="43.80293" lon="3.55486">
        <ele>696</ele>
        <time>2019-01-03T13:33:22Z</time>
      </trkpt>
      <trkpt lat="43.80289" lon="3.55485">
        <ele>697</ele>
        <time>2019-01-03T13:33:22Z</time>
      </trkpt>
      <trkpt lat="43.80284" lon="3.55485">
        <ele>697</ele>
        <time>2019-01-03T13:33:38Z</time>
      </trkpt>
      <trkpt lat="43.80279" lon="3.55486">
        <ele>697</ele>
        <time>2019-01-03T13:33:38Z</time>
      </trkpt>
      <trkpt lat="43.80273" lon="3.55486">
        <ele>697</ele>
        <time>2019-01-03T13:33:38Z</time>
      </trkpt>
      <trkpt lat="43.80267" lon="3.55485">
        <ele>697</ele>
        <time>2019-01-03T13:33:38Z</time>
      </trkpt>
      <trkpt lat="43.80262" lon="3.55484">
        <ele>697</ele>
        <time>2019-01-03T13:33:54Z</time>
      </trkpt>
      <trkpt lat="43.80256" lon="3.55483">
        <ele>697</ele>
        <time>2019-01-03T13:33:54Z</time>
      </trkpt>
      <trkpt lat="43.80251" lon="3.55482">
        <ele>697</ele>
        <time>2019-01-03T13:33:54Z</time>
      </trkpt>
      <trkpt lat="43.80247" lon="3.55479">
        <ele>697</ele>
        <time>2019-01-03T13:33:54Z</time>
      </trkpt>
      <trkpt lat="43.80241" lon="3.55478">
        <ele>697</ele>
        <time>2019-01-03T13:34:10Z</time>
      </trkpt>
      <trkpt lat="43.80237" lon="3.55476">
        <ele>697</ele>
        <time>2019-01-03T13:34:10Z</time>
      </trkpt>
      <trkpt lat="43.80233" lon="3.55474">
        <ele>697</ele>
        <time>2019-01-03T13:34:10Z</time>
      </trkpt>
      <trkpt lat="43.80229" lon="3.55471">
        <ele>697</ele>
        <time>2019-01-03T13:34:10Z</time>
      </trkpt>
      <trkpt lat="43.80224" lon="3.55469">
        <ele>697</ele>
        <time>2019-01-03T13:34:26Z</time>
      </trkpt>
      <trkpt lat="43.8022" lon="3.55466">
        <ele>697</ele>
        <time>2019-01-03T13:34:26Z</time>
      </trkpt>
      <trkpt lat="43.80215" lon="3.55465">
        <ele>697</ele>
        <time>2019-01-03T13:34:26Z</time>
      </trkpt>
      <trkpt lat="43.80212" lon="3.55462">
        <ele>697</ele>
        <time>2019-01-03T13:34:26Z</time>
      </trkpt>
      <trkpt lat="43.80207" lon="3.55461">
        <ele>698</ele>
        <time>2019-01-03T13:34:42Z</time>
      </trkpt>
      <trkpt lat="43.80202" lon="3.5546">
        <ele>698</ele>
        <time>2019-01-03T13:34:42Z</time>
      </trkpt>
      <trkpt lat="43.80197" lon="3.5546">
        <ele>698</ele>
        <time>2019-01-03T13:34:42Z</time>
      </trkpt>
      <trkpt lat="43.80192" lon="3.55459">
        <ele>698</ele>
        <time>2019-01-03T13:34:42Z</time>
      </trkpt>
      <trkpt lat="43.80188" lon="3.55458">
        <ele>701</ele>
        <time>2019-01-03T13:34:58Z</time>
      </trkpt>
      <trkpt lat="43.80184" lon="3.55455">
        <ele>701</ele>
        <time>2019-01-03T13:34:58Z</time>
      </trkpt>
      <trkpt lat="43.80179" lon="3.55453">
        <ele>701</ele>
        <time>2019-01-03T13:34:58Z</time>
      </trkpt>
      <trkpt lat="43.80175" lon="3.55451">
        <ele>701</ele>
        <time>2019-01-03T13:34:58Z</time>
      </trkpt>
      <trkpt lat="43.8017" lon="3.55448">
        <ele>701</ele>
        <time>2019-01-03T13:35:14Z</time>
      </trkpt>
      <trkpt lat="43.80166" lon="3.55444">
        <ele>701</ele>
        <time>2019-01-03T13:35:14Z</time>
      </trkpt>
      <trkpt lat="43.80162" lon="3.55441">
        <ele>701</ele>
        <time>2019-01-03T13:35:14Z</time>
      </trkpt>
      <trkpt lat="43.80158" lon="3.55437">
        <ele>701</ele>
        <time>2019-01-03T13:35:14Z</time>
      </trkpt>
      <trkpt lat="43.80153" lon="3.55434">
        <ele>701</ele>
        <time>2019-01-03T13:35:30Z</time>
      </trkpt>
      <trkpt lat="43.80148" lon="3.55431">
        <ele>701</ele>
        <time>2019-01-03T13:35:30Z</time>
      </trkpt>
      <trkpt lat="43.80145" lon="3.55426">
        <ele>701</ele>
        <time>2019-01-03T13:35:30Z</time>
      </trkpt>
      <trkpt lat="43.80142" lon="3.55421">
        <ele>701</ele>
        <time>2019-01-03T13:35:30Z</time>
      </trkpt>
      <trkpt lat="43.80139" lon="3.55415">
        <ele>701</ele>
        <time>2019-01-03T13:35:46Z</time>
      </trkpt>
      <trkpt lat="43.80136" lon="3.55409">
        <ele>701</ele>
        <time>2019-01-03T13:35:46Z</time>
      </trkpt>
      <trkpt lat="43.80134" lon="3.55403">
        <ele>701</ele>
        <time>2019-01-03T13:35:46Z</time>
      </trkpt>
      <trkpt lat="43.80131" lon="3.55398">
        <ele>701</ele>
        <time>2019-01-03T13:35:46Z</time>
      </trkpt>
      <trkpt lat="43.80125" lon="3.55399">
        <ele>700</ele>
        <time>2019-01-03T13:36:42Z</time>
      </trkpt>
      <trkpt lat="43.80124" lon="3.55392">
        <ele>700</ele>
        <time>2019-01-03T13:36:42Z</time>
      </trkpt>
      <trkpt lat="43.80122" lon="3.55386">
        <ele>700</ele>
        <time>2019-01-03T13:36:42Z</time>
      </trkpt>
      <trkpt lat="43.8012" lon="3.55379">
        <ele>700</ele>
        <time>2019-01-03T13:36:42Z</time>
      </trkpt>
      <trkpt lat="43.80117" lon="3.55374">
        <ele>701</ele>
        <time>2019-01-03T13:36:42Z</time>
      </trkpt>
      <trkpt lat="43.80115" lon="3.55369">
        <ele>701</ele>
        <time>2019-01-03T13:36:58Z</time>
      </trkpt>
      <trkpt lat="43.80112" lon="3.55364">
        <ele>701</ele>
        <time>2019-01-03T13:36:58Z</time>
      </trkpt>
      <trkpt lat="43.80109" lon="3.5536">
        <ele>701</ele>
        <time>2019-01-03T13:36:58Z</time>
      </trkpt>
      <trkpt lat="43.80104" lon="3.55357">
        <ele>701</ele>
        <time>2019-01-03T13:36:58Z</time>
      </trkpt>
      <trkpt lat="43.80099" lon="3.55353">
        <ele>701</ele>
        <time>2019-01-03T13:37:14Z</time>
      </trkpt>
      <trkpt lat="43.80095" lon="3.55348">
        <ele>701</ele>
        <time>2019-01-03T13:37:14Z</time>
      </trkpt>
      <trkpt lat="43.80091" lon="3.55344">
        <ele>701</ele>
        <time>2019-01-03T13:37:14Z</time>
      </trkpt>
      <trkpt lat="43.80088" lon="3.5534">
        <ele>701</ele>
        <time>2019-01-03T13:37:14Z</time>
      </trkpt>
      <trkpt lat="43.80082" lon="3.55338">
        <ele>701</ele>
        <time>2019-01-03T13:37:30Z</time>
      </trkpt>
      <trkpt lat="43.80078" lon="3.55334">
        <ele>701</ele>
        <time>2019-01-03T13:37:30Z</time>
      </trkpt>
      <trkpt lat="43.80074" lon="3.5533">
        <ele>701</ele>
        <time>2019-01-03T13:37:30Z</time>
      </trkpt>
      <trkpt lat="43.80071" lon="3.55327">
        <ele>701</ele>
        <time>2019-01-03T13:37:30Z</time>
      </trkpt>
      <trkpt lat="43.80069" lon="3.55323">
        <ele>701</ele>
        <time>2019-01-03T13:37:46Z</time>
      </trkpt>
      <trkpt lat="43.80066" lon="3.55319">
        <ele>701</ele>
        <time>2019-01-03T13:37:46Z</time>
      </trkpt>
      <trkpt lat="43.80062" lon="3.55318">
        <ele>701</ele>
        <time>2019-01-03T13:37:46Z</time>
      </trkpt>
      <trkpt lat="43.80058" lon="3.55316">
        <ele>701</ele>
        <time>2019-01-03T13:37:46Z</time>
      </trkpt>
      <trkpt lat="43.80052" lon="3.55315">
        <ele>701</ele>
        <time>2019-01-03T13:38:02Z</time>
      </trkpt>
      <trkpt lat="43.80047" lon="3.55315">
        <ele>701</ele>
        <time>2019-01-03T13:38:02Z</time>
      </trkpt>
      <trkpt lat="43.80041" lon="3.55316">
        <ele>701</ele>
        <time>2019-01-03T13:38:02Z</time>
      </trkpt>
      <trkpt lat="43.80036" lon="3.55319">
        <ele>701</ele>
        <time>2019-01-03T13:38:02Z</time>
      </trkpt>
      <trkpt lat="43.80031" lon="3.55321">
        <ele>701</ele>
        <time>2019-01-03T13:38:18Z</time>
      </trkpt>
      <trkpt lat="43.80026" lon="3.55324">
        <ele>701</ele>
        <time>2019-01-03T13:38:18Z</time>
      </trkpt>
      <trkpt lat="43.80021" lon="3.55327">
        <ele>701</ele>
        <time>2019-01-03T13:38:18Z</time>
      </trkpt>
      <trkpt lat="43.80016" lon="3.55329">
        <ele>701</ele>
        <time>2019-01-03T13:38:18Z</time>
      </trkpt>
      <trkpt lat="43.80011" lon="3.55332">
        <ele>701</ele>
        <time>2019-01-03T13:38:34Z</time>
      </trkpt>
      <trkpt lat="43.80006" lon="3.55334">
        <ele>701</ele>
        <time>2019-01-03T13:38:34Z</time>
      </trkpt>
      <trkpt lat="43.80002" lon="3.55334">
        <ele>701</ele>
        <time>2019-01-03T13:38:34Z</time>
      </trkpt>
      <trkpt lat="43.79997" lon="3.55335">
        <ele>701</ele>
        <time>2019-01-03T13:38:34Z</time>
      </trkpt>
      <trkpt lat="43.79993" lon="3.55335">
        <ele>701</ele>
        <time>2019-01-03T13:38:50Z</time>
      </trkpt>
      <trkpt lat="43.79988" lon="3.55335">
        <ele>701</ele>
        <time>2019-01-03T13:38:50Z</time>
      </trkpt>
      <trkpt lat="43.79982" lon="3.55336">
        <ele>701</ele>
        <time>2019-01-03T13:38:50Z</time>
      </trkpt>
      <trkpt lat="43.79976" lon="3.55335">
        <ele>701</ele>
        <time>2019-01-03T13:38:50Z</time>
      </trkpt>
      <trkpt lat="43.7997" lon="3.55333">
        <ele>701</ele>
        <time>2019-01-03T13:39:06Z</time>
      </trkpt>
      <trkpt lat="43.79965" lon="3.55331">
        <ele>701</ele>
        <time>2019-01-03T13:39:06Z</time>
      </trkpt>
      <trkpt lat="43.7996" lon="3.55329">
        <ele>701</ele>
        <time>2019-01-03T13:39:06Z</time>
      </trkpt>
      <trkpt lat="43.79954" lon="3.55327">
        <ele>703</ele>
        <time>2019-01-03T13:39:06Z</time>
      </trkpt>
      <trkpt lat="43.7995" lon="3.55325">
        <ele>703</ele>
        <time>2019-01-03T13:39:22Z</time>
      </trkpt>
      <trkpt lat="43.79944" lon="3.55324">
        <ele>703</ele>
        <time>2019-01-03T13:39:22Z</time>
      </trkpt>
      <trkpt lat="43.79939" lon="3.55322">
        <ele>703</ele>
        <time>2019-01-03T13:39:22Z</time>
      </trkpt>
      <trkpt lat="43.79935" lon="3.5532">
        <ele>703</ele>
        <time>2019-01-03T13:39:22Z</time>
      </trkpt>
      <trkpt lat="43.79931" lon="3.55316">
        <ele>703</ele>
        <time>2019-01-03T13:39:38Z</time>
      </trkpt>
      <trkpt lat="43.79928" lon="3.55311">
        <ele>703</ele>
        <time>2019-01-03T13:39:38Z</time>
      </trkpt>
      <trkpt lat="43.79924" lon="3.55308">
        <ele>703</ele>
        <time>2019-01-03T13:39:38Z</time>
      </trkpt>
      <trkpt lat="43.79921" lon="3.55302">
        <ele>703</ele>
        <time>2019-01-03T13:39:38Z</time>
      </trkpt>
      <trkpt lat="43.79919" lon="3.55297">
        <ele>703</ele>
        <time>2019-01-03T13:39:54Z</time>
      </trkpt>
      <trkpt lat="43.79915" lon="3.55294">
        <ele>703</ele>
        <time>2019-01-03T13:39:54Z</time>
      </trkpt>
      <trkpt lat="43.79912" lon="3.55288">
        <ele>708</ele>
        <time>2019-01-03T13:39:54Z</time>
      </trkpt>
      <trkpt lat="43.79908" lon="3.55284">
        <ele>708</ele>
        <time>2019-01-03T13:39:54Z</time>
      </trkpt>
      <trkpt lat="43.79904" lon="3.5528">
        <ele>708</ele>
        <time>2019-01-03T13:40:10Z</time>
      </trkpt>
      <trkpt lat="43.79901" lon="3.55276">
        <ele>708</ele>
        <time>2019-01-03T13:40:10Z</time>
      </trkpt>
      <trkpt lat="43.79897" lon="3.55273">
        <ele>708</ele>
        <time>2019-01-03T13:40:10Z</time>
      </trkpt>
      <trkpt lat="43.79894" lon="3.55269">
        <ele>708</ele>
        <time>2019-01-03T13:40:10Z</time>
      </trkpt>
      <trkpt lat="43.7989" lon="3.55265">
        <ele>708</ele>
        <time>2019-01-03T13:40:26Z</time>
      </trkpt>
      <trkpt lat="43.79886" lon="3.5526">
        <ele>708</ele>
        <time>2019-01-03T13:40:26Z</time>
      </trkpt>
      <trkpt lat="43.79882" lon="3.55255">
        <ele>708</ele>
        <time>2019-01-03T13:40:26Z</time>
      </trkpt>
      <trkpt lat="43.79879" lon="3.55249">
        <ele>708</ele>
        <time>2019-01-03T13:40:26Z</time>
      </trkpt>
      <trkpt lat="43.79874" lon="3.55245">
        <ele>703</ele>
        <time>2019-01-03T13:40:42Z</time>
      </trkpt>
      <trkpt lat="43.7987" lon="3.55242">
        <ele>703</ele>
        <time>2019-01-03T13:40:42Z</time>
      </trkpt>
      <trkpt lat="43.79866" lon="3.55237">
        <ele>703</ele>
        <time>2019-01-03T13:40:42Z</time>
      </trkpt>
      <trkpt lat="43.79861" lon="3.55232">
        <ele>703</ele>
        <time>2019-01-03T13:40:42Z</time>
      </trkpt>
      <trkpt lat="43.79859" lon="3.55227">
        <ele>703</ele>
        <time>2019-01-03T13:40:58Z</time>
      </trkpt>
      <trkpt lat="43.79855" lon="3.55222">
        <ele>703</ele>
        <time>2019-01-03T13:40:58Z</time>
      </trkpt>
      <trkpt lat="43.79851" lon="3.55217">
        <ele>703</ele>
        <time>2019-01-03T13:40:58Z</time>
      </trkpt>
      <trkpt lat="43.79847" lon="3.55212">
        <ele>703</ele>
        <time>2019-01-03T13:40:58Z</time>
      </trkpt>
      <trkpt lat="43.79844" lon="3.55207">
        <ele>709</ele>
        <time>2019-01-03T13:41:14Z</time>
      </trkpt>
      <trkpt lat="43.79841" lon="3.55202">
        <ele>709</ele>
        <time>2019-01-03T13:41:14Z</time>
      </trkpt>
      <trkpt lat="43.79837" lon="3.55197">
        <ele>709</ele>
        <time>2019-01-03T13:41:14Z</time>
      </trkpt>
      <trkpt lat="43.79833" lon="3.55193">
        <ele>709</ele>
        <time>2019-01-03T13:41:14Z</time>
      </trkpt>
      <trkpt lat="43.79828" lon="3.55188">
        <ele>709</ele>
        <time>2019-01-03T13:41:30Z</time>
      </trkpt>
      <trkpt lat="43.79824" lon="3.55183">
        <ele>709</ele>
        <time>2019-01-03T13:41:30Z</time>
      </trkpt>
      <trkpt lat="43.79819" lon="3.55179">
        <ele>709</ele>
        <time>2019-01-03T13:41:30Z</time>
      </trkpt>
      <trkpt lat="43.79816" lon="3.55174">
        <ele>709</ele>
        <time>2019-01-03T13:41:30Z</time>
      </trkpt>
      <trkpt lat="43.79812" lon="3.5517">
        <ele>709</ele>
        <time>2019-01-03T13:41:46Z</time>
      </trkpt>
      <trkpt lat="43.79807" lon="3.55166">
        <ele>709</ele>
        <time>2019-01-03T13:41:46Z</time>
      </trkpt>
      <trkpt lat="43.79804" lon="3.55161">
        <ele>709</ele>
        <time>2019-01-03T13:41:46Z</time>
      </trkpt>
      <trkpt lat="43.79801" lon="3.55155">
        <ele>709</ele>
        <time>2019-01-03T13:41:46Z</time>
      </trkpt>
      <trkpt lat="43.79797" lon="3.55152">
        <ele>709</ele>
        <time>2019-01-03T13:42:02Z</time>
      </trkpt>
      <trkpt lat="43.79792" lon="3.55149">
        <ele>709</ele>
        <time>2019-01-03T13:42:02Z</time>
      </trkpt>
      <trkpt lat="43.79787" lon="3.55145">
        <ele>704</ele>
        <time>2019-01-03T13:42:02Z</time>
      </trkpt>
      <trkpt lat="43.79782" lon="3.55141">
        <ele>704</ele>
        <time>2019-01-03T13:42:02Z</time>
      </trkpt>
      <trkpt lat="43.79777" lon="3.55138">
        <ele>704</ele>
        <time>2019-01-03T13:42:18Z</time>
      </trkpt>
      <trkpt lat="43.79772" lon="3.55137">
        <ele>704</ele>
        <time>2019-01-03T13:42:18Z</time>
      </trkpt>
      <trkpt lat="43.79768" lon="3.55135">
        <ele>704</ele>
        <time>2019-01-03T13:42:18Z</time>
      </trkpt>
      <trkpt lat="43.79763" lon="3.55133">
        <ele>704</ele>
        <time>2019-01-03T13:42:18Z</time>
      </trkpt>
      <trkpt lat="43.7976" lon="3.5513">
        <ele>704</ele>
        <time>2019-01-03T13:42:34Z</time>
      </trkpt>
      <trkpt lat="43.79756" lon="3.55126">
        <ele>704</ele>
        <time>2019-01-03T13:42:34Z</time>
      </trkpt>
      <trkpt lat="43.79752" lon="3.55122">
        <ele>711</ele>
        <time>2019-01-03T13:42:34Z</time>
      </trkpt>
      <trkpt lat="43.79749" lon="3.55116">
        <ele>711</ele>
        <time>2019-01-03T13:42:34Z</time>
      </trkpt>
      <trkpt lat="43.79747" lon="3.55109">
        <ele>711</ele>
        <time>2019-01-03T13:42:50Z</time>
      </trkpt>
      <trkpt lat="43.79746" lon="3.55103">
        <ele>711</ele>
        <time>2019-01-03T13:42:50Z</time>
      </trkpt>
      <trkpt lat="43.79744" lon="3.55097">
        <ele>711</ele>
        <time>2019-01-03T13:42:50Z</time>
      </trkpt>
      <trkpt lat="43.79742" lon="3.5509">
        <ele>711</ele>
        <time>2019-01-03T13:42:50Z</time>
      </trkpt>
      <trkpt lat="43.79741" lon="3.55082">
        <ele>711</ele>
        <time>2019-01-03T13:43:06Z</time>
      </trkpt>
      <trkpt lat="43.79739" lon="3.55076">
        <ele>711</ele>
        <time>2019-01-03T13:43:06Z</time>
      </trkpt>
      <trkpt lat="43.79736" lon="3.5507">
        <ele>711</ele>
        <time>2019-01-03T13:43:06Z</time>
      </trkpt>
      <trkpt lat="43.79734" lon="3.55063">
        <ele>711</ele>
        <time>2019-01-03T13:43:06Z</time>
      </trkpt>
      <trkpt lat="43.79732" lon="3.55057">
        <ele>711</ele>
        <time>2019-01-03T13:43:22Z</time>
      </trkpt>
      <trkpt lat="43.7973" lon="3.5505">
        <ele>711</ele>
        <time>2019-01-03T13:43:22Z</time>
      </trkpt>
      <trkpt lat="43.79726" lon="3.55044">
        <ele>711</ele>
        <time>2019-01-03T13:43:22Z</time>
      </trkpt>
      <trkpt lat="43.79723" lon="3.55039">
        <ele>711</ele>
        <time>2019-01-03T13:43:22Z</time>
      </trkpt>
      <trkpt lat="43.7972" lon="3.55033">
        <ele>711</ele>
        <time>2019-01-03T13:43:38Z</time>
      </trkpt>
      <trkpt lat="43.79716" lon="3.5503">
        <ele>711</ele>
        <time>2019-01-03T13:43:38Z</time>
      </trkpt>
      <trkpt lat="43.79712" lon="3.55027">
        <ele>711</ele>
        <time>2019-01-03T13:43:38Z</time>
      </trkpt>
      <trkpt lat="43.79708" lon="3.55027">
        <ele>710</ele>
        <time>2019-01-03T13:43:38Z</time>
      </trkpt>
      <trkpt lat="43.79703" lon="3.55026">
        <ele>710</ele>
        <time>2019-01-03T13:43:54Z</time>
      </trkpt>
      <trkpt lat="43.79699" lon="3.55023">
        <ele>710</ele>
        <time>2019-01-03T13:43:54Z</time>
      </trkpt>
      <trkpt lat="43.79694" lon="3.55019">
        <ele>710</ele>
        <time>2019-01-03T13:43:54Z</time>
      </trkpt>
      <trkpt lat="43.79689" lon="3.5502">
        <ele>710</ele>
        <time>2019-01-03T13:43:54Z</time>
      </trkpt>
      <trkpt lat="43.79684" lon="3.5502">
        <ele>710</ele>
        <time>2019-01-03T13:44:10Z</time>
      </trkpt>
      <trkpt lat="43.79679" lon="3.55018">
        <ele>710</ele>
        <time>2019-01-03T13:44:10Z</time>
      </trkpt>
      <trkpt lat="43.79674" lon="3.55017">
        <ele>710</ele>
        <time>2019-01-03T13:44:10Z</time>
      </trkpt>
      <trkpt lat="43.7967" lon="3.55017">
        <ele>710</ele>
        <time>2019-01-03T13:44:10Z</time>
      </trkpt>
      <trkpt lat="43.79664" lon="3.55018">
        <ele>710</ele>
        <time>2019-01-03T13:44:26Z</time>
      </trkpt>
      <trkpt lat="43.79659" lon="3.55017">
        <ele>710</ele>
        <time>2019-01-03T13:44:26Z</time>
      </trkpt>
      <trkpt lat="43.79654" lon="3.55017">
        <ele>710</ele>
        <time>2019-01-03T13:44:26Z</time>
      </trkpt>
      <trkpt lat="43.7965" lon="3.55017">
        <ele>710</ele>
        <time>2019-01-03T13:44:26Z</time>
      </trkpt>
      <trkpt lat="43.79646" lon="3.55018">
        <ele>710</ele>
        <time>2019-01-03T13:44:42Z</time>
      </trkpt>
      <trkpt lat="43.79642" lon="3.55016">
        <ele>710</ele>
        <time>2019-01-03T13:44:42Z</time>
      </trkpt>
      <trkpt lat="43.79638" lon="3.55014">
        <ele>710</ele>
        <time>2019-01-03T13:44:42Z</time>
      </trkpt>
      <trkpt lat="43.79631" lon="3.55014">
        <ele>710</ele>
        <time>2019-01-03T13:44:42Z</time>
      </trkpt>
      <trkpt lat="43.79624" lon="3.55013">
        <ele>709</ele>
        <time>2019-01-03T13:44:58Z</time>
      </trkpt>
      <trkpt lat="43.79619" lon="3.5501">
        <ele>709</ele>
        <time>2019-01-03T13:44:58Z</time>
      </trkpt>
      <trkpt lat="43.79615" lon="3.5501">
        <ele>709</ele>
        <time>2019-01-03T13:44:58Z</time>
      </trkpt>
      <trkpt lat="43.7961" lon="3.55008">
        <ele>709</ele>
        <time>2019-01-03T13:44:58Z</time>
      </trkpt>
      <trkpt lat="43.79605" lon="3.55005">
        <ele>709</ele>
        <time>2019-01-03T13:45:14Z</time>
      </trkpt>
      <trkpt lat="43.79602" lon="3.55001">
        <ele>709</ele>
        <time>2019-01-03T13:45:14Z</time>
      </trkpt>
      <trkpt lat="43.79598" lon="3.54997">
        <ele>709</ele>
        <time>2019-01-03T13:45:14Z</time>
      </trkpt>
      <trkpt lat="43.79597" lon="3.54992">
        <ele>709</ele>
        <time>2019-01-03T13:45:14Z</time>
      </trkpt>
      <trkpt lat="43.79598" lon="3.54991">
        <ele>709</ele>
        <time>2019-01-03T13:45:54Z</time>
      </trkpt>
      <trkpt lat="43.79597" lon="3.5499">
        <ele>709</ele>
        <time>2019-01-03T13:45:54Z</time>
      </trkpt>
      <trkpt lat="43.79594" lon="3.54985">
        <ele>709</ele>
        <time>2019-01-03T13:45:54Z</time>
      </trkpt>
      <trkpt lat="43.79593" lon="3.5498">
        <ele>709</ele>
        <time>2019-01-03T13:45:54Z</time>
      </trkpt>
      <trkpt lat="43.79593" lon="3.54973">
        <ele>709</ele>
        <time>2019-01-03T13:46:10Z</time>
      </trkpt>
      <trkpt lat="43.79594" lon="3.54968">
        <ele>709</ele>
        <time>2019-01-03T13:46:10Z</time>
      </trkpt>
      <trkpt lat="43.79593" lon="3.54964">
        <ele>709</ele>
        <time>2019-01-03T13:46:10Z</time>
      </trkpt>
      <trkpt lat="43.79591" lon="3.54958">
        <ele>715</ele>
        <time>2019-01-03T13:46:10Z</time>
      </trkpt>
      <trkpt lat="43.79589" lon="3.54953">
        <ele>715</ele>
        <time>2019-01-03T13:46:26Z</time>
      </trkpt>
      <trkpt lat="43.79586" lon="3.54948">
        <ele>715</ele>
        <time>2019-01-03T13:46:26Z</time>
      </trkpt>
      <trkpt lat="43.79584" lon="3.54942">
        <ele>715</ele>
        <time>2019-01-03T13:46:26Z</time>
      </trkpt>
      <trkpt lat="43.79581" lon="3.54938">
        <ele>715</ele>
        <time>2019-01-03T13:46:26Z</time>
      </trkpt>
      <trkpt lat="43.79577" lon="3.54932">
        <ele>715</ele>
        <time>2019-01-03T13:46:42Z</time>
      </trkpt>
      <trkpt lat="43.79574" lon="3.54927">
        <ele>715</ele>
        <time>2019-01-03T13:46:42Z</time>
      </trkpt>
      <trkpt lat="43.79571" lon="3.54922">
        <ele>715</ele>
        <time>2019-01-03T13:46:42Z</time>
      </trkpt>
      <trkpt lat="43.79568" lon="3.54917">
        <ele>715</ele>
        <time>2019-01-03T13:46:42Z</time>
      </trkpt>
      <trkpt lat="43.79567" lon="3.54912">
        <ele>715</ele>
        <time>2019-01-03T13:46:58Z</time>
      </trkpt>
      <trkpt lat="43.79565" lon="3.54907">
        <ele>715</ele>
        <time>2019-01-03T13:46:58Z</time>
      </trkpt>
      <trkpt lat="43.79563" lon="3.54901">
        <ele>715</ele>
        <time>2019-01-03T13:46:58Z</time>
      </trkpt>
      <trkpt lat="43.79561" lon="3.54894">
        <ele>715</ele>
        <time>2019-01-03T13:46:58Z</time>
      </trkpt>
      <trkpt lat="43.7956" lon="3.5489">
        <ele>715</ele>
        <time>2019-01-03T13:47:14Z</time>
      </trkpt>
      <trkpt lat="43.79558" lon="3.54884">
        <ele>715</ele>
        <time>2019-01-03T13:47:14Z</time>
      </trkpt>
      <trkpt lat="43.79556" lon="3.54878">
        <ele>715</ele>
        <time>2019-01-03T13:47:14Z</time>
      </trkpt>
      <trkpt lat="43.79554" lon="3.54872">
        <ele>723</ele>
        <time>2019-01-03T13:47:14Z</time>
      </trkpt>
      <trkpt lat="43.79551" lon="3.54862">
        <ele>723</ele>
        <time>2019-01-03T13:48:38Z</time>
      </trkpt>
      <trkpt lat="43.79551" lon="3.54861">
        <ele>723</ele>
        <time>2019-01-03T13:48:38Z</time>
      </trkpt>
      <trkpt lat="43.7955" lon="3.5486">
        <ele>723</ele>
        <time>2019-01-03T13:48:38Z</time>
      </trkpt>
      <trkpt lat="43.79548" lon="3.54858">
        <ele>723</ele>
        <time>2019-01-03T13:48:38Z</time>
      </trkpt>
      <trkpt lat="43.79545" lon="3.54854">
        <ele>723</ele>
        <time>2019-01-03T13:48:38Z</time>
      </trkpt>
      <trkpt lat="43.79541" lon="3.54851">
        <ele>719</ele>
        <time>2019-01-03T13:48:54Z</time>
      </trkpt>
      <trkpt lat="43.79537" lon="3.54847">
        <ele>719</ele>
        <time>2019-01-03T13:48:54Z</time>
      </trkpt>
      <trkpt lat="43.79534" lon="3.54844">
        <ele>719</ele>
        <time>2019-01-03T13:48:54Z</time>
      </trkpt>
      <trkpt lat="43.79529" lon="3.5484">
        <ele>719</ele>
        <time>2019-01-03T13:48:54Z</time>
      </trkpt>
      <trkpt lat="43.79525" lon="3.54837">
        <ele>719</ele>
        <time>2019-01-03T13:49:10Z</time>
      </trkpt>
      <trkpt lat="43.7952" lon="3.54833">
        <ele>719</ele>
        <time>2019-01-03T13:49:10Z</time>
      </trkpt>
      <trkpt lat="43.79516" lon="3.54829">
        <ele>719</ele>
        <time>2019-01-03T13:49:10Z</time>
      </trkpt>
      <trkpt lat="43.79513" lon="3.54826">
        <ele>719</ele>
        <time>2019-01-03T13:49:10Z</time>
      </trkpt>
      <trkpt lat="43.79509" lon="3.54822">
        <ele>719</ele>
        <time>2019-01-03T13:49:26Z</time>
      </trkpt>
      <trkpt lat="43.79506" lon="3.54818">
        <ele>719</ele>
        <time>2019-01-03T13:49:26Z</time>
      </trkpt>
      <trkpt lat="43.79502" lon="3.54815">
        <ele>719</ele>
        <time>2019-01-03T13:49:26Z</time>
      </trkpt>
      <trkpt lat="43.79498" lon="3.54812">
        <ele>719</ele>
        <time>2019-01-03T13:49:26Z</time>
      </trkpt>
      <trkpt lat="43.79492" lon="3.54812">
        <ele>719</ele>
        <time>2019-01-03T13:49:42Z</time>
      </trkpt>
      <trkpt lat="43.79489" lon="3.54808">
        <ele>719</ele>
        <time>2019-01-03T13:49:42Z</time>
      </trkpt>
      <trkpt lat="43.79486" lon="3.54803">
        <ele>719</ele>
        <time>2019-01-03T13:49:42Z</time>
      </trkpt>
      <trkpt lat="43.79483" lon="3.54798">
        <ele>719</ele>
        <time>2019-01-03T13:49:42Z</time>
      </trkpt>
      <trkpt lat="43.79481" lon="3.54793">
        <ele>719</ele>
        <time>2019-01-03T13:49:58Z</time>
      </trkpt>
      <trkpt lat="43.7948" lon="3.54789">
        <ele>730</ele>
        <time>2019-01-03T13:49:58Z</time>
      </trkpt>
      <trkpt lat="43.79478" lon="3.54783">
        <ele>730</ele>
        <time>2019-01-03T13:49:58Z</time>
      </trkpt>
      <trkpt lat="43.79476" lon="3.54781">
        <ele>730</ele>
        <time>2019-01-03T13:49:58Z</time>
      </trkpt>
      <trkpt lat="43.79474" lon="3.54776">
        <ele>730</ele>
        <time>2019-01-03T13:50:14Z</time>
      </trkpt>
      <trkpt lat="43.7947" lon="3.5477">
        <ele>730</ele>
        <time>2019-01-03T13:50:14Z</time>
      </trkpt>
      <trkpt lat="43.79467" lon="3.54765">
        <ele>730</ele>
        <time>2019-01-03T13:50:14Z</time>
      </trkpt>
      <trkpt lat="43.79465" lon="3.54759">
        <ele>730</ele>
        <time>2019-01-03T13:50:14Z</time>
      </trkpt>
      <trkpt lat="43.79463" lon="3.54755">
        <ele>730</ele>
        <time>2019-01-03T13:50:30Z</time>
      </trkpt>
      <trkpt lat="43.79462" lon="3.54751">
        <ele>730</ele>
        <time>2019-01-03T13:50:30Z</time>
      </trkpt>
      <trkpt lat="43.79459" lon="3.54747">
        <ele>730</ele>
        <time>2019-01-03T13:50:30Z</time>
      </trkpt>
      <trkpt lat="43.79458" lon="3.54742">
        <ele>726</ele>
        <time>2019-01-03T13:50:30Z</time>
      </trkpt>
      <trkpt lat="43.79456" lon="3.54737">
        <ele>726</ele>
        <time>2019-01-03T13:50:46Z</time>
      </trkpt>
      <trkpt lat="43.79454" lon="3.54732">
        <ele>726</ele>
        <time>2019-01-03T13:50:46Z</time>
      </trkpt>
      <trkpt lat="43.79452" lon="3.54727">
        <ele>726</ele>
        <time>2019-01-03T13:50:46Z</time>
      </trkpt>
      <trkpt lat="43.7945" lon="3.54722">
        <ele>726</ele>
        <time>2019-01-03T13:50:46Z</time>
      </trkpt>
      <trkpt lat="43.79447" lon="3.54719">
        <ele>726</ele>
        <time>2019-01-03T13:51:02Z</time>
      </trkpt>
      <trkpt lat="43.79446" lon="3.54717">
        <ele>726</ele>
        <time>2019-01-03T13:51:02Z</time>
      </trkpt>
      <trkpt lat="43.79441" lon="3.54715">
        <ele>726</ele>
        <time>2019-01-03T13:51:02Z</time>
      </trkpt>
      <trkpt lat="43.79437" lon="3.54711">
        <ele>726</ele>
        <time>2019-01-03T13:51:02Z</time>
      </trkpt>
      <trkpt lat="43.79433" lon="3.54708">
        <ele>739</ele>
        <time>2019-01-03T13:51:18Z</time>
      </trkpt>
      <trkpt lat="43.7943" lon="3.54702">
        <ele>739</ele>
        <time>2019-01-03T13:51:18Z</time>
      </trkpt>
      <trkpt lat="43.79426" lon="3.547">
        <ele>739</ele>
        <time>2019-01-03T13:51:18Z</time>
      </trkpt>
      <trkpt lat="43.79421" lon="3.54696">
        <ele>739</ele>
        <time>2019-01-03T13:51:18Z</time>
      </trkpt>
      <trkpt lat="43.79416" lon="3.54693">
        <ele>739</ele>
        <time>2019-01-03T13:51:34Z</time>
      </trkpt>
      <trkpt lat="43.79411" lon="3.54691">
        <ele>739</ele>
        <time>2019-01-03T13:51:34Z</time>
      </trkpt>
      <trkpt lat="43.79407" lon="3.54689">
        <ele>739</ele>
        <time>2019-01-03T13:51:34Z</time>
      </trkpt>
      <trkpt lat="43.79403" lon="3.54686">
        <ele>739</ele>
        <time>2019-01-03T13:51:34Z</time>
      </trkpt>
      <trkpt lat="43.79397" lon="3.54683">
        <ele>739</ele>
        <time>2019-01-03T13:51:50Z</time>
      </trkpt>
      <trkpt lat="43.7939" lon="3.54678">
        <ele>739</ele>
        <time>2019-01-03T13:51:50Z</time>
      </trkpt>
      <trkpt lat="43.79384" lon="3.54672">
        <ele>739</ele>
        <time>2019-01-03T13:51:50Z</time>
      </trkpt>
      <trkpt lat="43.79379" lon="3.54668">
        <ele>739</ele>
        <time>2019-01-03T13:51:50Z</time>
      </trkpt>
      <trkpt lat="43.79375" lon="3.54664">
        <ele>735</ele>
        <time>2019-01-03T13:52:06Z</time>
      </trkpt>
      <trkpt lat="43.79372" lon="3.5466">
        <ele>735</ele>
        <time>2019-01-03T13:52:06Z</time>
      </trkpt>
      <trkpt lat="43.79369" lon="3.54657">
        <ele>735</ele>
        <time>2019-01-03T13:52:06Z</time>
      </trkpt>
      <trkpt lat="43.79366" lon="3.54654">
        <ele>735</ele>
        <time>2019-01-03T13:52:06Z</time>
      </trkpt>
      <trkpt lat="43.79363" lon="3.54652">
        <ele>735</ele>
        <time>2019-01-03T13:52:22Z</time>
      </trkpt>
      <trkpt lat="43.79359" lon="3.54648">
        <ele>735</ele>
        <time>2019-01-03T13:52:22Z</time>
      </trkpt>
      <trkpt lat="43.79356" lon="3.54643">
        <ele>735</ele>
        <time>2019-01-03T13:52:22Z</time>
      </trkpt>
      <trkpt lat="43.79355" lon="3.54639">
        <ele>735</ele>
        <time>2019-01-03T13:52:22Z</time>
      </trkpt>
      <trkpt lat="43.7935" lon="3.54629">
        <ele>735</ele>
        <time>2019-01-03T13:53:10Z</time>
      </trkpt>
      <trkpt lat="43.79348" lon="3.54627">
        <ele>735</ele>
        <time>2019-01-03T13:53:10Z</time>
      </trkpt>
      <trkpt lat="43.79347" lon="3.54627">
        <ele>735</ele>
        <time>2019-01-03T13:53:10Z</time>
      </trkpt>
      <trkpt lat="43.79345" lon="3.54626">
        <ele>735</ele>
        <time>2019-01-03T13:53:10Z</time>
      </trkpt>
      <trkpt lat="43.79343" lon="3.5462">
        <ele>738</ele>
        <time>2019-01-03T13:53:10Z</time>
      </trkpt>
      <trkpt lat="43.79339" lon="3.54619">
        <ele>738</ele>
        <time>2019-01-03T14:05:22Z</time>
      </trkpt>
      <trkpt lat="43.79336" lon="3.54616">
        <ele>738</ele>
        <time>2019-01-03T14:05:22Z</time>
      </trkpt>
      <trkpt lat="43.79333" lon="3.54613">
        <ele>738</ele>
        <time>2019-01-03T14:05:22Z</time>
      </trkpt>
      <trkpt lat="43.79331" lon="3.5461">
        <ele>738</ele>
        <time>2019-01-03T14:05:22Z</time>
      </trkpt>
      <trkpt lat="43.79329" lon="3.54606">
        <ele>738</ele>
        <time>2019-01-03T14:05:22Z</time>
      </trkpt>
      <trkpt lat="43.79327" lon="3.54604">
        <ele>738</ele>
        <time>2019-01-03T14:05:38Z</time>
      </trkpt>
      <trkpt lat="43.79324" lon="3.54598">
        <ele>738</ele>
        <time>2019-01-03T14:05:38Z</time>
      </trkpt>
      <trkpt lat="43.79323" lon="3.54592">
        <ele>738</ele>
        <time>2019-01-03T14:05:38Z</time>
      </trkpt>
      <trkpt lat="43.79321" lon="3.54586">
        <ele>738</ele>
        <time>2019-01-03T14:05:38Z</time>
      </trkpt>
      <trkpt lat="43.7932" lon="3.54579">
        <ele>738</ele>
        <time>2019-01-03T14:05:54Z</time>
      </trkpt>
      <trkpt lat="43.79316" lon="3.54573">
        <ele>738</ele>
        <time>2019-01-03T14:05:54Z</time>
      </trkpt>
      <trkpt lat="43.79315" lon="3.54564">
        <ele>738</ele>
        <time>2019-01-03T14:05:54Z</time>
      </trkpt>
      <trkpt lat="43.79313" lon="3.54559">
        <ele>738</ele>
        <time>2019-01-03T14:05:54Z</time>
      </trkpt>
      <trkpt lat="43.79311" lon="3.54555">
        <ele>738</ele>
        <time>2019-01-03T14:06:10Z</time>
      </trkpt>
      <trkpt lat="43.79309" lon="3.5455">
        <ele>738</ele>
        <time>2019-01-03T14:06:10Z</time>
      </trkpt>
      <trkpt lat="43.79306" lon="3.54546">
        <ele>738</ele>
        <time>2019-01-03T14:06:10Z</time>
      </trkpt>
      <trkpt lat="43.79304" lon="3.5454">
        <ele>739</ele>
        <time>2019-01-03T14:06:10Z</time>
      </trkpt>
      <trkpt lat="43.79301" lon="3.54535">
        <ele>739</ele>
        <time>2019-01-03T14:06:26Z</time>
      </trkpt>
      <trkpt lat="43.79297" lon="3.54529">
        <ele>739</ele>
        <time>2019-01-03T14:06:26Z</time>
      </trkpt>
      <trkpt lat="43.79294" lon="3.54524">
        <ele>739</ele>
        <time>2019-01-03T14:06:26Z</time>
      </trkpt>
      <trkpt lat="43.79292" lon="3.54518">
        <ele>732</ele>
        <time>2019-01-03T14:06:26Z</time>
      </trkpt>
      <trkpt lat="43.79289" lon="3.54512">
        <ele>732</ele>
        <time>2019-01-03T14:06:42Z</time>
      </trkpt>
      <trkpt lat="43.79286" lon="3.54505">
        <ele>732</ele>
        <time>2019-01-03T14:06:42Z</time>
      </trkpt>
      <trkpt lat="43.79283" lon="3.54498">
        <ele>732</ele>
        <time>2019-01-03T14:06:42Z</time>
      </trkpt>
      <trkpt lat="43.79282" lon="3.54492">
        <ele>732</ele>
        <time>2019-01-03T14:06:42Z</time>
      </trkpt>
      <trkpt lat="43.79281" lon="3.54486">
        <ele>732</ele>
        <time>2019-01-03T14:06:58Z</time>
      </trkpt>
      <trkpt lat="43.79279" lon="3.54479">
        <ele>732</ele>
        <time>2019-01-03T14:06:58Z</time>
      </trkpt>
      <trkpt lat="43.79277" lon="3.54474">
        <ele>732</ele>
        <time>2019-01-03T14:06:58Z</time>
      </trkpt>
      <trkpt lat="43.79274" lon="3.54468">
        <ele>732</ele>
        <time>2019-01-03T14:06:58Z</time>
      </trkpt>
      <trkpt lat="43.79271" lon="3.54463">
        <ele>732</ele>
        <time>2019-01-03T14:07:14Z</time>
      </trkpt>
      <trkpt lat="43.79269" lon="3.54459">
        <ele>732</ele>
        <time>2019-01-03T14:07:14Z</time>
      </trkpt>
      <trkpt lat="43.79266" lon="3.54452">
        <ele>732</ele>
        <time>2019-01-03T14:07:14Z</time>
      </trkpt>
      <trkpt lat="43.79263" lon="3.54445">
        <ele>732</ele>
        <time>2019-01-03T14:07:14Z</time>
      </trkpt>
      <trkpt lat="43.79261" lon="3.54439">
        <ele>732</ele>
        <time>2019-01-03T14:07:30Z</time>
      </trkpt>
      <trkpt lat="43.79258" lon="3.54434">
        <ele>732</ele>
        <time>2019-01-03T14:07:30Z</time>
      </trkpt>
      <trkpt lat="43.79256" lon="3.54428">
        <ele>732</ele>
        <time>2019-01-03T14:07:30Z</time>
      </trkpt>
      <trkpt lat="43.79254" lon="3.54422">
        <ele>732</ele>
        <time>2019-01-03T14:07:30Z</time>
      </trkpt>
      <trkpt lat="43.79252" lon="3.54416">
        <ele>732</ele>
        <time>2019-01-03T14:07:46Z</time>
      </trkpt>
      <trkpt lat="43.79247" lon="3.54411">
        <ele>732</ele>
        <time>2019-01-03T14:07:46Z</time>
      </trkpt>
      <trkpt lat="43.79242" lon="3.54406">
        <ele>732</ele>
        <time>2019-01-03T14:07:46Z</time>
      </trkpt>
      <trkpt lat="43.79238" lon="3.54401">
        <ele>732</ele>
        <time>2019-01-03T14:07:46Z</time>
      </trkpt>
      <trkpt lat="43.79236" lon="3.54397">
        <ele>732</ele>
        <time>2019-01-03T14:08:02Z</time>
      </trkpt>
      <trkpt lat="43.79232" lon="3.54394">
        <ele>732</ele>
        <time>2019-01-03T14:08:02Z</time>
      </trkpt>
      <trkpt lat="43.79229" lon="3.54389">
        <ele>732</ele>
        <time>2019-01-03T14:08:02Z</time>
      </trkpt>
      <trkpt lat="43.79226" lon="3.54383">
        <ele>732</ele>
        <time>2019-01-03T14:08:02Z</time>
      </trkpt>
      <trkpt lat="43.79223" lon="3.54377">
        <ele>732</ele>
        <time>2019-01-03T14:08:18Z</time>
      </trkpt>
      <trkpt lat="43.79218" lon="3.54372">
        <ele>733</ele>
        <time>2019-01-03T14:08:18Z</time>
      </trkpt>
      <trkpt lat="43.79213" lon="3.54368">
        <ele>733</ele>
        <time>2019-01-03T14:08:18Z</time>
      </trkpt>
      <trkpt lat="43.79209" lon="3.54363">
        <ele>733</ele>
        <time>2019-01-03T14:08:18Z</time>
      </trkpt>
      <trkpt lat="43.79205" lon="3.54358">
        <ele>730</ele>
        <time>2019-01-03T14:08:34Z</time>
      </trkpt>
      <trkpt lat="43.79201" lon="3.54353">
        <ele>730</ele>
        <time>2019-01-03T14:08:34Z</time>
      </trkpt>
      <trkpt lat="43.79198" lon="3.5435">
        <ele>730</ele>
        <time>2019-01-03T14:08:34Z</time>
      </trkpt>
      <trkpt lat="43.79193" lon="3.54346">
        <ele>730</ele>
        <time>2019-01-03T14:08:34Z</time>
      </trkpt>
      <trkpt lat="43.79189" lon="3.54343">
        <ele>730</ele>
        <time>2019-01-03T14:08:50Z</time>
      </trkpt>
      <trkpt lat="43.79186" lon="3.5434">
        <ele>730</ele>
        <time>2019-01-03T14:08:50Z</time>
      </trkpt>
      <trkpt lat="43.79184" lon="3.54337">
        <ele>730</ele>
        <time>2019-01-03T14:08:50Z</time>
      </trkpt>
      <trkpt lat="43.79179" lon="3.54334">
        <ele>730</ele>
        <time>2019-01-03T14:08:50Z</time>
      </trkpt>
      <trkpt lat="43.79174" lon="3.54333">
        <ele>730</ele>
        <time>2019-01-03T14:09:06Z</time>
      </trkpt>
      <trkpt lat="43.7917" lon="3.54331">
        <ele>730</ele>
        <time>2019-01-03T14:09:06Z</time>
      </trkpt>
      <trkpt lat="43.79164" lon="3.5433">
        <ele>730</ele>
        <time>2019-01-03T14:09:06Z</time>
      </trkpt>
      <trkpt lat="43.79159" lon="3.54327">
        <ele>730</ele>
        <time>2019-01-03T14:09:06Z</time>
      </trkpt>
      <trkpt lat="43.79154" lon="3.54327">
        <ele>730</ele>
        <time>2019-01-03T14:09:22Z</time>
      </trkpt>
      <trkpt lat="43.79149" lon="3.54327">
        <ele>730</ele>
        <time>2019-01-03T14:09:22Z</time>
      </trkpt>
      <trkpt lat="43.79145" lon="3.54325">
        <ele>730</ele>
        <time>2019-01-03T14:09:22Z</time>
      </trkpt>
      <trkpt lat="43.79142" lon="3.54324">
        <ele>730</ele>
        <time>2019-01-03T14:09:22Z</time>
      </trkpt>
      <trkpt lat="43.79136" lon="3.54324">
        <ele>730</ele>
        <time>2019-01-03T14:09:46Z</time>
      </trkpt>
      <trkpt lat="43.79128" lon="3.54323">
        <ele>730</ele>
        <time>2019-01-03T14:09:46Z</time>
      </trkpt>
      <trkpt lat="43.79123" lon="3.54321">
        <ele>725</ele>
        <time>2019-01-03T14:09:46Z</time>
      </trkpt>
      <trkpt lat="43.79117" lon="3.54321">
        <ele>725</ele>
        <time>2019-01-03T14:09:46Z</time>
      </trkpt>
      <trkpt lat="43.7911" lon="3.54321">
        <ele>725</ele>
        <time>2019-01-03T14:10:02Z</time>
      </trkpt>
      <trkpt lat="43.79104" lon="3.54321">
        <ele>725</ele>
        <time>2019-01-03T14:10:02Z</time>
      </trkpt>
      <trkpt lat="43.79099" lon="3.54321">
        <ele>725</ele>
        <time>2019-01-03T14:10:02Z</time>
      </trkpt>
      <trkpt lat="43.79092" lon="3.54321">
        <ele>725</ele>
        <time>2019-01-03T14:10:02Z</time>
      </trkpt>
      <trkpt lat="43.79087" lon="3.54322">
        <ele>725</ele>
        <time>2019-01-03T14:10:18Z</time>
      </trkpt>
      <trkpt lat="43.79082" lon="3.54323">
        <ele>725</ele>
        <time>2019-01-03T14:10:18Z</time>
      </trkpt>
      <trkpt lat="43.79079" lon="3.54324">
        <ele>725</ele>
        <time>2019-01-03T14:10:18Z</time>
      </trkpt>
      <trkpt lat="43.79077" lon="3.54323">
        <ele>725</ele>
        <time>2019-01-03T14:10:18Z</time>
      </trkpt>
      <trkpt lat="43.79075" lon="3.54323">
        <ele>725</ele>
        <time>2019-01-03T14:10:38Z</time>
      </trkpt>
      <trkpt lat="43.7907" lon="3.54324">
        <ele>725</ele>
        <time>2019-01-03T14:10:38Z</time>
      </trkpt>
      <trkpt lat="43.79067" lon="3.54324">
        <ele>725</ele>
        <time>2019-01-03T14:10:38Z</time>
      </trkpt>
      <trkpt lat="43.7906" lon="3.5432">
        <ele>725</ele>
        <time>2019-01-03T14:10:38Z</time>
      </trkpt>
      <trkpt lat="43.79053" lon="3.54319">
        <ele>725</ele>
        <time>2019-01-03T14:11:02Z</time>
      </trkpt>
      <trkpt lat="43.79046" lon="3.5432">
        <ele>725</ele>
        <time>2019-01-03T14:11:02Z</time>
      </trkpt>
      <trkpt lat="43.79045" lon="3.5432">
        <ele>725</ele>
        <time>2019-01-03T14:11:02Z</time>
      </trkpt>
      <trkpt lat="43.79035" lon="3.5432">
        <ele>717</ele>
        <time>2019-01-03T14:11:02Z</time>
      </trkpt>
      <trkpt lat="43.79028" lon="3.5432">
        <ele>717</ele>
        <time>2019-01-03T14:11:18Z</time>
      </trkpt>
      <trkpt lat="43.79023" lon="3.5432">
        <ele>717</ele>
        <time>2019-01-03T14:11:18Z</time>
      </trkpt>
      <trkpt lat="43.79019" lon="3.5432">
        <ele>717</ele>
        <time>2019-01-03T14:11:18Z</time>
      </trkpt>
      <trkpt lat="43.79014" lon="3.54319">
        <ele>717</ele>
        <time>2019-01-03T14:11:18Z</time>
      </trkpt>
      <trkpt lat="43.79013" lon="3.5432">
        <ele>717</ele>
        <time>2019-01-03T14:11:38Z</time>
      </trkpt>
      <trkpt lat="43.79005" lon="3.54321">
        <ele>717</ele>
        <time>2019-01-03T14:11:38Z</time>
      </trkpt>
      <trkpt lat="43.78997" lon="3.54321">
        <ele>717</ele>
        <time>2019-01-03T14:11:38Z</time>
      </trkpt>
      <trkpt lat="43.78991" lon="3.54322">
        <ele>717</ele>
        <time>2019-01-03T14:11:38Z</time>
      </trkpt>
      <trkpt lat="43.78987" lon="3.54324">
        <ele>717</ele>
        <time>2019-01-03T14:11:54Z</time>
      </trkpt>
      <trkpt lat="43.78985" lon="3.54323">
        <ele>717</ele>
        <time>2019-01-03T14:11:54Z</time>
      </trkpt>
      <trkpt lat="43.78977" lon="3.54325">
        <ele>717</ele>
        <time>2019-01-03T14:11:54Z</time>
      </trkpt>
      <trkpt lat="43.78974" lon="3.54324">
        <ele>717</ele>
        <time>2019-01-03T14:11:54Z</time>
      </trkpt>
      <trkpt lat="43.78972" lon="3.54324">
        <ele>717</ele>
        <time>2019-01-03T14:12:14Z</time>
      </trkpt>
      <trkpt lat="43.78964" lon="3.54323">
        <ele>717</ele>
        <time>2019-01-03T14:12:14Z</time>
      </trkpt>
      <trkpt lat="43.78961" lon="3.54322">
        <ele>717</ele>
        <time>2019-01-03T14:12:14Z</time>
      </trkpt>
      <trkpt lat="43.78955" lon="3.54321">
        <ele>707</ele>
        <time>2019-01-03T14:12:14Z</time>
      </trkpt>
      <trkpt lat="43.78948" lon="3.54319">
        <ele>707</ele>
        <time>2019-01-03T14:12:30Z</time>
      </trkpt>
      <trkpt lat="43.78944" lon="3.54319">
        <ele>707</ele>
        <time>2019-01-03T14:12:30Z</time>
      </trkpt>
      <trkpt lat="43.78942" lon="3.54319">
        <ele>707</ele>
        <time>2019-01-03T14:12:30Z</time>
      </trkpt>
      <trkpt lat="43.78936" lon="3.5432">
        <ele>707</ele>
        <time>2019-01-03T14:12:30Z</time>
      </trkpt>
      <trkpt lat="43.78929" lon="3.5432">
        <ele>707</ele>
        <time>2019-01-03T14:12:46Z</time>
      </trkpt>
      <trkpt lat="43.78923" lon="3.5432">
        <ele>707</ele>
        <time>2019-01-03T14:12:46Z</time>
      </trkpt>
      <trkpt lat="43.78917" lon="3.54319">
        <ele>707</ele>
        <time>2019-01-03T14:12:46Z</time>
      </trkpt>
      <trkpt lat="43.78912" lon="3.54316">
        <ele>707</ele>
        <time>2019-01-03T14:12:46Z</time>
      </trkpt>
      <trkpt lat="43.78908" lon="3.54312">
        <ele>707</ele>
        <time>2019-01-03T14:13:02Z</time>
      </trkpt>
      <trkpt lat="43.78903" lon="3.5431">
        <ele>707</ele>
        <time>2019-01-03T14:13:02Z</time>
      </trkpt>
      <trkpt lat="43.78902" lon="3.54309">
        <ele>707</ele>
        <time>2019-01-03T14:13:02Z</time>
      </trkpt>
      <trkpt lat="43.78899" lon="3.54307">
        <ele>707</ele>
        <time>2019-01-03T14:13:02Z</time>
      </trkpt>
      <trkpt lat="43.78895" lon="3.54305">
        <ele>707</ele>
        <time>2019-01-03T14:13:22Z</time>
      </trkpt>
      <trkpt lat="43.78891" lon="3.54303">
        <ele>707</ele>
        <time>2019-01-03T14:13:22Z</time>
      </trkpt>
      <trkpt lat="43.78888" lon="3.54302">
        <ele>707</ele>
        <time>2019-01-03T14:13:22Z</time>
      </trkpt>
      <trkpt lat="43.78883" lon="3.54299">
        <ele>707</ele>
        <time>2019-01-03T14:13:22Z</time>
      </trkpt>
      <trkpt lat="43.78873" lon="3.54294">
        <ele>700</ele>
        <time>2019-01-03T14:13:38Z</time>
      </trkpt>
      <trkpt lat="43.7887" lon="3.54292">
        <ele>700</ele>
        <time>2019-01-03T14:13:38Z</time>
      </trkpt>
      <trkpt lat="43.78866" lon="3.54292">
        <ele>700</ele>
        <time>2019-01-03T14:13:38Z</time>
      </trkpt>
      <trkpt lat="43.78861" lon="3.5429">
        <ele>704</ele>
        <time>2019-01-03T14:13:38Z</time>
      </trkpt>
      <trkpt lat="43.78858" lon="3.54289">
        <ele>704</ele>
        <time>2019-01-03T14:14:06Z</time>
      </trkpt>
      <trkpt lat="43.78854" lon="3.54285">
        <ele>704</ele>
        <time>2019-01-03T14:14:06Z</time>
      </trkpt>
      <trkpt lat="43.78843" lon="3.54283">
        <ele>704</ele>
        <time>2019-01-03T14:14:06Z</time>
      </trkpt>
      <trkpt lat="43.78828" lon="3.54283">
        <ele>704</ele>
        <time>2019-01-03T14:14:06Z</time>
      </trkpt>
      <trkpt lat="43.7882" lon="3.54285">
        <ele>704</ele>
        <time>2019-01-03T14:14:22Z</time>
      </trkpt>
      <trkpt lat="43.78813" lon="3.54285">
        <ele>704</ele>
        <time>2019-01-03T14:14:22Z</time>
      </trkpt>
      <trkpt lat="43.78809" lon="3.54285">
        <ele>704</ele>
        <time>2019-01-03T14:14:22Z</time>
      </trkpt>
      <trkpt lat="43.78806" lon="3.54284">
        <ele>704</ele>
        <time>2019-01-03T14:14:22Z</time>
      </trkpt>
      <trkpt lat="43.78806" lon="3.54286">
        <ele>704</ele>
        <time>2019-01-03T14:16:26Z</time>
      </trkpt>
      <trkpt lat="43.78804" lon="3.54288">
        <ele>704</ele>
        <time>2019-01-03T14:16:26Z</time>
      </trkpt>
      <trkpt lat="43.78803" lon="3.54288">
        <ele>704</ele>
        <time>2019-01-03T14:16:26Z</time>
      </trkpt>
      <trkpt lat="43.78799" lon="3.54289">
        <ele>704</ele>
        <time>2019-01-03T14:16:26Z</time>
      </trkpt>
      <trkpt lat="43.78796" lon="3.54289">
        <ele>704</ele>
        <time>2019-01-03T14:16:26Z</time>
      </trkpt>
      <trkpt lat="43.78794" lon="3.54289">
        <ele>704</ele>
        <time>2019-01-03T14:16:50Z</time>
      </trkpt>
      <trkpt lat="43.7879" lon="3.54287">
        <ele>695</ele>
        <time>2019-01-03T14:16:50Z</time>
      </trkpt>
      <trkpt lat="43.78786" lon="3.54286">
        <ele>695</ele>
        <time>2019-01-03T14:16:50Z</time>
      </trkpt>
      <trkpt lat="43.78784" lon="3.54286">
        <ele>695</ele>
        <time>2019-01-03T14:16:50Z</time>
      </trkpt>
      <trkpt lat="43.78781" lon="3.54284">
        <ele>695</ele>
        <time>2019-01-03T14:17:06Z</time>
      </trkpt>
      <trkpt lat="43.78772" lon="3.54282">
        <ele>695</ele>
        <time>2019-01-03T14:17:06Z</time>
      </trkpt>
      <trkpt lat="43.78764" lon="3.54282">
        <ele>695</ele>
        <time>2019-01-03T14:17:06Z</time>
      </trkpt>
      <trkpt lat="43.78758" lon="3.54285">
        <ele>695</ele>
        <time>2019-01-03T14:17:06Z</time>
      </trkpt>
      <trkpt lat="43.78753" lon="3.54287">
        <ele>695</ele>
        <time>2019-01-03T14:17:22Z</time>
      </trkpt>
      <trkpt lat="43.78748" lon="3.54288">
        <ele>695</ele>
        <time>2019-01-03T14:17:22Z</time>
      </trkpt>
      <trkpt lat="43.78744" lon="3.54288">
        <ele>695</ele>
        <time>2019-01-03T14:17:22Z</time>
      </trkpt>
      <trkpt lat="43.78739" lon="3.54289">
        <ele>695</ele>
        <time>2019-01-03T14:17:22Z</time>
      </trkpt>
      <trkpt lat="43.78734" lon="3.54288">
        <ele>695</ele>
        <time>2019-01-03T14:17:38Z</time>
      </trkpt>
      <trkpt lat="43.78729" lon="3.54286">
        <ele>695</ele>
        <time>2019-01-03T14:17:38Z</time>
      </trkpt>
      <trkpt lat="43.78723" lon="3.54283">
        <ele>695</ele>
        <time>2019-01-03T14:17:38Z</time>
      </trkpt>
      <trkpt lat="43.7872" lon="3.54279">
        <ele>695</ele>
        <time>2019-01-03T14:17:38Z</time>
      </trkpt>
      <trkpt lat="43.78718" lon="3.54273">
        <ele>695</ele>
        <time>2019-01-03T14:17:54Z</time>
      </trkpt>
      <trkpt lat="43.78715" lon="3.54267">
        <ele>695</ele>
        <time>2019-01-03T14:17:54Z</time>
      </trkpt>
      <trkpt lat="43.78712" lon="3.54262">
        <ele>695</ele>
        <time>2019-01-03T14:17:54Z</time>
      </trkpt>
      <trkpt lat="43.78708" lon="3.54259">
        <ele>695</ele>
        <time>2019-01-03T14:17:54Z</time>
      </trkpt>
      <trkpt lat="43.78703" lon="3.54257">
        <ele>678</ele>
        <time>2019-01-03T14:18:10Z</time>
      </trkpt>
      <trkpt lat="43.78699" lon="3.54251">
        <ele>678</ele>
        <time>2019-01-03T14:18:10Z</time>
      </trkpt>
      <trkpt lat="43.78697" lon="3.54246">
        <ele>678</ele>
        <time>2019-01-03T14:18:10Z</time>
      </trkpt>
      <trkpt lat="43.78695" lon="3.5424">
        <ele>678</ele>
        <time>2019-01-03T14:18:10Z</time>
      </trkpt>
      <trkpt lat="43.78694" lon="3.54234">
        <ele>678</ele>
        <time>2019-01-03T14:18:26Z</time>
      </trkpt>
      <trkpt lat="43.78693" lon="3.54227">
        <ele>678</ele>
        <time>2019-01-03T14:18:26Z</time>
      </trkpt>
      <trkpt lat="43.78693" lon="3.54222">
        <ele>678</ele>
        <time>2019-01-03T14:18:26Z</time>
      </trkpt>
      <trkpt lat="43.78691" lon="3.54215">
        <ele>678</ele>
        <time>2019-01-03T14:18:26Z</time>
      </trkpt>
      <trkpt lat="43.78689" lon="3.54209">
        <ele>678</ele>
        <time>2019-01-03T14:18:42Z</time>
      </trkpt>
      <trkpt lat="43.78687" lon="3.54204">
        <ele>686</ele>
        <time>2019-01-03T14:18:42Z</time>
      </trkpt>
      <trkpt lat="43.78685" lon="3.54197">
        <ele>686</ele>
        <time>2019-01-03T14:18:42Z</time>
      </trkpt>
      <trkpt lat="43.78683" lon="3.54192">
        <ele>686</ele>
        <time>2019-01-03T14:18:42Z</time>
      </trkpt>
      <trkpt lat="43.78682" lon="3.54186">
        <ele>686</ele>
        <time>2019-01-03T14:18:58Z</time>
      </trkpt>
      <trkpt lat="43.78681" lon="3.54182">
        <ele>686</ele>
        <time>2019-01-03T14:18:58Z</time>
      </trkpt>
      <trkpt lat="43.78681" lon="3.54176">
        <ele>686</ele>
        <time>2019-01-03T14:18:58Z</time>
      </trkpt>
      <trkpt lat="43.7868" lon="3.5417">
        <ele>686</ele>
        <time>2019-01-03T14:18:58Z</time>
      </trkpt>
      <trkpt lat="43.78678" lon="3.54163">
        <ele>686</ele>
        <time>2019-01-03T14:19:14Z</time>
      </trkpt>
      <trkpt lat="43.78678" lon="3.54158">
        <ele>686</ele>
        <time>2019-01-03T14:19:14Z</time>
      </trkpt>
      <trkpt lat="43.78677" lon="3.54152">
        <ele>686</ele>
        <time>2019-01-03T14:19:14Z</time>
      </trkpt>
      <trkpt lat="43.78675" lon="3.54151">
        <ele>686</ele>
        <time>2019-01-03T14:19:14Z</time>
      </trkpt>
      <trkpt lat="43.78672" lon="3.54148">
        <ele>686</ele>
        <time>2019-01-03T14:19:38Z</time>
      </trkpt>
      <trkpt lat="43.78669" lon="3.54145">
        <ele>686</ele>
        <time>2019-01-03T14:19:38Z</time>
      </trkpt>
      <trkpt lat="43.78667" lon="3.54142">
        <ele>686</ele>
        <time>2019-01-03T14:19:38Z</time>
      </trkpt>
      <trkpt lat="43.78665" lon="3.54141">
        <ele>686</ele>
        <time>2019-01-03T14:19:38Z</time>
      </trkpt>
      <trkpt lat="43.78664" lon="3.54139">
        <ele>686</ele>
        <time>2019-01-03T14:19:38Z</time>
      </trkpt>
      <trkpt lat="43.78659" lon="3.54134">
        <ele>686</ele>
        <time>2019-01-03T14:19:54Z</time>
      </trkpt>
      <trkpt lat="43.78657" lon="3.54132">
        <ele>686</ele>
        <time>2019-01-03T14:19:54Z</time>
      </trkpt>
      <trkpt lat="43.78654" lon="3.54128">
        <ele>686</ele>
        <time>2019-01-03T14:19:54Z</time>
      </trkpt>
      <trkpt lat="43.78651" lon="3.54124">
        <ele>692</ele>
        <time>2019-01-03T14:19:54Z</time>
      </trkpt>
      <trkpt lat="43.78648" lon="3.54119">
        <ele>692</ele>
        <time>2019-01-03T14:20:50Z</time>
      </trkpt>
      <trkpt lat="43.78646" lon="3.54115">
        <ele>692</ele>
        <time>2019-01-03T14:20:50Z</time>
      </trkpt>
      <trkpt lat="43.78645" lon="3.54114">
        <ele>692</ele>
        <time>2019-01-03T14:20:50Z</time>
      </trkpt>
      <trkpt lat="43.78643" lon="3.5411">
        <ele>692</ele>
        <time>2019-01-03T14:20:50Z</time>
      </trkpt>
      <trkpt lat="43.7863" lon="3.5411">
        <ele>692</ele>
        <time>2019-01-03T14:20:50Z</time>
      </trkpt>
      <trkpt lat="43.7862" lon="3.54108">
        <ele>697</ele>
        <time>2019-01-03T14:21:14Z</time>
      </trkpt>
      <trkpt lat="43.78617" lon="3.54107">
        <ele>697</ele>
        <time>2019-01-03T14:21:14Z</time>
      </trkpt>
      <trkpt lat="43.78607" lon="3.54102">
        <ele>697</ele>
        <time>2019-01-03T14:21:14Z</time>
      </trkpt>
      <trkpt lat="43.78603" lon="3.54101">
        <ele>697</ele>
        <time>2019-01-03T14:21:14Z</time>
      </trkpt>
      <trkpt lat="43.78601" lon="3.541">
        <ele>697</ele>
        <time>2019-01-03T14:21:38Z</time>
      </trkpt>
      <trkpt lat="43.78597" lon="3.541">
        <ele>697</ele>
        <time>2019-01-03T14:21:38Z</time>
      </trkpt>
      <trkpt lat="43.78592" lon="3.54101">
        <ele>697</ele>
        <time>2019-01-03T14:21:38Z</time>
      </trkpt>
      <trkpt lat="43.78587" lon="3.54101">
        <ele>697</ele>
        <time>2019-01-03T14:21:38Z</time>
      </trkpt>
      <trkpt lat="43.78584" lon="3.54101">
        <ele>697</ele>
        <time>2019-01-03T14:21:54Z</time>
      </trkpt>
      <trkpt lat="43.78578" lon="3.541">
        <ele>697</ele>
        <time>2019-01-03T14:21:54Z</time>
      </trkpt>
      <trkpt lat="43.78572" lon="3.54101">
        <ele>697</ele>
        <time>2019-01-03T14:21:54Z</time>
      </trkpt>
      <trkpt lat="43.78566" lon="3.541">
        <ele>697</ele>
        <time>2019-01-03T14:21:54Z</time>
      </trkpt>
      <trkpt lat="43.78565" lon="3.541">
        <ele>697</ele>
        <time>2019-01-03T14:22:10Z</time>
      </trkpt>
      <trkpt lat="43.7856" lon="3.541">
        <ele>697</ele>
        <time>2019-01-03T14:22:10Z</time>
      </trkpt>
      <trkpt lat="43.78554" lon="3.54099">
        <ele>697</ele>
        <time>2019-01-03T14:22:10Z</time>
      </trkpt>
      <trkpt lat="43.7855" lon="3.54099">
        <ele>697</ele>
        <time>2019-01-03T14:22:10Z</time>
      </trkpt>
      <trkpt lat="43.78543" lon="3.54099">
        <ele>697</ele>
        <time>2019-01-03T14:22:26Z</time>
      </trkpt>
      <trkpt lat="43.7854" lon="3.54098">
        <ele>698</ele>
        <time>2019-01-03T14:22:26Z</time>
      </trkpt>
      <trkpt lat="43.78538" lon="3.541">
        <ele>698</ele>
        <time>2019-01-03T14:22:26Z</time>
      </trkpt>
      <trkpt lat="43.78533" lon="3.54101">
        <ele>698</ele>
        <time>2019-01-03T14:22:26Z</time>
      </trkpt>
      <trkpt lat="43.78526" lon="3.541">
        <ele>698</ele>
        <time>2019-01-03T14:22:42Z</time>
      </trkpt>
      <trkpt lat="43.78522" lon="3.54098">
        <ele>698</ele>
        <time>2019-01-03T14:22:42Z</time>
      </trkpt>
      <trkpt lat="43.78517" lon="3.54097">
        <ele>698</ele>
        <time>2019-01-03T14:22:42Z</time>
      </trkpt>
      <trkpt lat="43.78514" lon="3.54096">
        <ele>698</ele>
        <time>2019-01-03T14:22:42Z</time>
      </trkpt>
      <trkpt lat="43.78511" lon="3.54095">
        <ele>698</ele>
        <time>2019-01-03T14:22:58Z</time>
      </trkpt>
      <trkpt lat="43.78508" lon="3.54094">
        <ele>698</ele>
        <time>2019-01-03T14:22:58Z</time>
      </trkpt>
      <trkpt lat="43.78504" lon="3.54092">
        <ele>698</ele>
        <time>2019-01-03T14:22:58Z</time>
      </trkpt>
      <trkpt lat="43.785" lon="3.54089">
        <ele>698</ele>
        <time>2019-01-03T14:22:58Z</time>
      </trkpt>
      <trkpt lat="43.78497" lon="3.54087">
        <ele>698</ele>
        <time>2019-01-03T14:23:14Z</time>
      </trkpt>
      <trkpt lat="43.78494" lon="3.54083">
        <ele>698</ele>
        <time>2019-01-03T14:23:14Z</time>
      </trkpt>
      <trkpt lat="43.78489" lon="3.54081">
        <ele>698</ele>
        <time>2019-01-03T14:23:14Z</time>
      </trkpt>
      <trkpt lat="43.78484" lon="3.54078">
        <ele>698</ele>
        <time>2019-01-03T14:23:14Z</time>
      </trkpt>
      <trkpt lat="43.78483" lon="3.54078">
        <ele>698</ele>
        <time>2019-01-03T14:23:30Z</time>
      </trkpt>
      <trkpt lat="43.78479" lon="3.54076">
        <ele>698</ele>
        <time>2019-01-03T14:23:30Z</time>
      </trkpt>
      <trkpt lat="43.78474" lon="3.54074">
        <ele>698</ele>
        <time>2019-01-03T14:23:30Z</time>
      </trkpt>
      <trkpt lat="43.78469" lon="3.5407">
        <ele>698</ele>
        <time>2019-01-03T14:23:30Z</time>
      </trkpt>
      <trkpt lat="43.78466" lon="3.54064">
        <ele>698</ele>
        <time>2019-01-03T14:23:46Z</time>
      </trkpt>
      <trkpt lat="43.78462" lon="3.54061">
        <ele>698</ele>
        <time>2019-01-03T14:23:46Z</time>
      </trkpt>
      <trkpt lat="43.78458" lon="3.54058">
        <ele>679</ele>
        <time>2019-01-03T14:23:46Z</time>
      </trkpt>
      <trkpt lat="43.78455" lon="3.54054">
        <ele>679</ele>
        <time>2019-01-03T14:23:46Z</time>
      </trkpt>
      <trkpt lat="43.78452" lon="3.54051">
        <ele>679</ele>
        <time>2019-01-03T14:24:02Z</time>
      </trkpt>
      <trkpt lat="43.78449" lon="3.54046">
        <ele>679</ele>
        <time>2019-01-03T14:24:02Z</time>
      </trkpt>
      <trkpt lat="43.78445" lon="3.54044">
        <ele>679</ele>
        <time>2019-01-03T14:24:02Z</time>
      </trkpt>
      <trkpt lat="43.78444" lon="3.54041">
        <ele>698</ele>
        <time>2019-01-03T14:24:02Z</time>
      </trkpt>
      <trkpt lat="43.78442" lon="3.54039">
        <ele>698</ele>
        <time>2019-01-03T14:24:18Z</time>
      </trkpt>
      <trkpt lat="43.78441" lon="3.54037">
        <ele>698</ele>
        <time>2019-01-03T14:24:18Z</time>
      </trkpt>
      <trkpt lat="43.78438" lon="3.54033">
        <ele>698</ele>
        <time>2019-01-03T14:24:18Z</time>
      </trkpt>
      <trkpt lat="43.78436" lon="3.54027">
        <ele>698</ele>
        <time>2019-01-03T14:24:18Z</time>
      </trkpt>
      <trkpt lat="43.78435" lon="3.54022">
        <ele>698</ele>
        <time>2019-01-03T14:24:38Z</time>
      </trkpt>
      <trkpt lat="43.78432" lon="3.54018">
        <ele>698</ele>
        <time>2019-01-03T14:24:38Z</time>
      </trkpt>
      <trkpt lat="43.78431" lon="3.54017">
        <ele>698</ele>
        <time>2019-01-03T14:24:38Z</time>
      </trkpt>
      <trkpt lat="43.7843" lon="3.54015">
        <ele>698</ele>
        <time>2019-01-03T14:24:38Z</time>
      </trkpt>
      <trkpt lat="43.78427" lon="3.54011">
        <ele>698</ele>
        <time>2019-01-03T14:24:38Z</time>
      </trkpt>
      <trkpt lat="43.78423" lon="3.54006">
        <ele>698</ele>
        <time>2019-01-03T14:25:14Z</time>
      </trkpt>
      <trkpt lat="43.78421" lon="3.54006">
        <ele>698</ele>
        <time>2019-01-03T14:25:14Z</time>
      </trkpt>
      <trkpt lat="43.78417" lon="3.54007">
        <ele>698</ele>
        <time>2019-01-03T14:25:14Z</time>
      </trkpt>
      <trkpt lat="43.78416" lon="3.54009">
        <ele>698</ele>
        <time>2019-01-03T14:25:14Z</time>
      </trkpt>
      <trkpt lat="43.78415" lon="3.54012">
        <ele>698</ele>
        <time>2019-01-03T14:25:14Z</time>
      </trkpt>
      <trkpt lat="43.78415" lon="3.54013">
        <ele>698</ele>
        <time>2019-01-03T14:25:38Z</time>
      </trkpt>
      <trkpt lat="43.78412" lon="3.54011">
        <ele>698</ele>
        <time>2019-01-03T14:25:38Z</time>
      </trkpt>
      <trkpt lat="43.78409" lon="3.54007">
        <ele>698</ele>
        <time>2019-01-03T14:25:38Z</time>
      </trkpt>
      <trkpt lat="43.78404" lon="3.54002">
        <ele>698</ele>
        <time>2019-01-03T14:25:38Z</time>
      </trkpt>
      <trkpt lat="43.78401" lon="3.53998">
        <ele>698</ele>
        <time>2019-01-03T14:25:54Z</time>
      </trkpt>
      <trkpt lat="43.78397" lon="3.53991">
        <ele>698</ele>
        <time>2019-01-03T14:25:54Z</time>
      </trkpt>
      <trkpt lat="43.78394" lon="3.53986">
        <ele>698</ele>
        <time>2019-01-03T14:25:54Z</time>
      </trkpt>
      <trkpt lat="43.78392" lon="3.53981">
        <ele>698</ele>
        <time>2019-01-03T14:25:54Z</time>
      </trkpt>
      <trkpt lat="43.78391" lon="3.53978">
        <ele>698</ele>
        <time>2019-01-03T14:26:10Z</time>
      </trkpt>
      <trkpt lat="43.78387" lon="3.53973">
        <ele>698</ele>
        <time>2019-01-03T14:26:10Z</time>
      </trkpt>
      <trkpt lat="43.78383" lon="3.53969">
        <ele>698</ele>
        <time>2019-01-03T14:26:10Z</time>
      </trkpt>
      <trkpt lat="43.7838" lon="3.53963">
        <ele>698</ele>
        <time>2019-01-03T14:26:10Z</time>
      </trkpt>
      <trkpt lat="43.78377" lon="3.53958">
        <ele>707</ele>
        <time>2019-01-03T14:26:46Z</time>
      </trkpt>
      <trkpt lat="43.78376" lon="3.53958">
        <ele>707</ele>
        <time>2019-01-03T14:26:46Z</time>
      </trkpt>
      <trkpt lat="43.78373" lon="3.53954">
        <ele>676</ele>
        <time>2019-01-03T14:26:46Z</time>
      </trkpt>
      <trkpt lat="43.78372" lon="3.53953">
        <ele>676</ele>
        <time>2019-01-03T14:26:46Z</time>
      </trkpt>
      <trkpt lat="43.78368" lon="3.53953">
        <ele>676</ele>
        <time>2019-01-03T14:26:46Z</time>
      </trkpt>
      <trkpt lat="43.78361" lon="3.5395">
        <ele>676</ele>
        <time>2019-01-03T14:27:06Z</time>
      </trkpt>
      <trkpt lat="43.78356" lon="3.53947">
        <ele>676</ele>
        <time>2019-01-03T14:27:06Z</time>
      </trkpt>
      <trkpt lat="43.78352" lon="3.53945">
        <ele>676</ele>
        <time>2019-01-03T14:27:06Z</time>
      </trkpt>
      <trkpt lat="43.78351" lon="3.53945">
        <ele>676</ele>
        <time>2019-01-03T14:27:06Z</time>
      </trkpt>
      <trkpt lat="43.78349" lon="3.53945">
        <ele>676</ele>
        <time>2019-01-03T14:27:22Z</time>
      </trkpt>
      <trkpt lat="43.78345" lon="3.53943">
        <ele>676</ele>
        <time>2019-01-03T14:27:22Z</time>
      </trkpt>
      <trkpt lat="43.78341" lon="3.5394">
        <ele>676</ele>
        <time>2019-01-03T14:27:22Z</time>
      </trkpt>
      <trkpt lat="43.7834" lon="3.53937">
        <ele>676</ele>
        <time>2019-01-03T14:27:22Z</time>
      </trkpt>
      <trkpt lat="43.78338" lon="3.53934">
        <ele>676</ele>
        <time>2019-01-03T14:27:50Z</time>
      </trkpt>
      <trkpt lat="43.78334" lon="3.53931">
        <ele>676</ele>
        <time>2019-01-03T14:27:50Z</time>
      </trkpt>
      <trkpt lat="43.78329" lon="3.53924">
        <ele>676</ele>
        <time>2019-01-03T14:27:50Z</time>
      </trkpt>
      <trkpt lat="43.78326" lon="3.53919">
        <ele>676</ele>
        <time>2019-01-03T14:27:50Z</time>
      </trkpt>
      <trkpt lat="43.78323" lon="3.53916">
        <ele>676</ele>
        <time>2019-01-03T14:28:10Z</time>
      </trkpt>
      <trkpt lat="43.78321" lon="3.53913">
        <ele>676</ele>
        <time>2019-01-03T14:28:10Z</time>
      </trkpt>
      <trkpt lat="43.78318" lon="3.5391">
        <ele>676</ele>
        <time>2019-01-03T14:28:10Z</time>
      </trkpt>
      <trkpt lat="43.78317" lon="3.53909">
        <ele>676</ele>
        <time>2019-01-03T14:28:10Z</time>
      </trkpt>
      <trkpt lat="43.78314" lon="3.53905">
        <ele>676</ele>
        <time>2019-01-03T14:28:10Z</time>
      </trkpt>
      <trkpt lat="43.78311" lon="3.53899">
        <ele>676</ele>
        <time>2019-01-03T14:28:30Z</time>
      </trkpt>
      <trkpt lat="43.78309" lon="3.53895">
        <ele>676</ele>
        <time>2019-01-03T14:28:30Z</time>
      </trkpt>
      <trkpt lat="43.78307" lon="3.5389">
        <ele>676</ele>
        <time>2019-01-03T14:28:30Z</time>
      </trkpt>
      <trkpt lat="43.78306" lon="3.53886">
        <ele>676</ele>
        <time>2019-01-03T14:28:30Z</time>
      </trkpt>
      <trkpt lat="43.78305" lon="3.53884">
        <ele>676</ele>
        <time>2019-01-03T14:28:58Z</time>
      </trkpt>
      <trkpt lat="43.78304" lon="3.53882">
        <ele>676</ele>
        <time>2019-01-03T14:28:58Z</time>
      </trkpt>
      <trkpt lat="43.78303" lon="3.53876">
        <ele>676</ele>
        <time>2019-01-03T14:28:58Z</time>
      </trkpt>
      <trkpt lat="43.78303" lon="3.53875">
        <ele>688</ele>
        <time>2019-01-03T14:28:58Z</time>
      </trkpt>
      <trkpt lat="43.78299" lon="3.53869">
        <ele>688</ele>
        <time>2019-01-03T14:28:58Z</time>
      </trkpt>
      <trkpt lat="43.78297" lon="3.53868">
        <ele>688</ele>
        <time>2019-01-03T14:29:22Z</time>
      </trkpt>
      <trkpt lat="43.78293" lon="3.53867">
        <ele>688</ele>
        <time>2019-01-03T14:29:22Z</time>
      </trkpt>
      <trkpt lat="43.7829" lon="3.53869">
        <ele>659</ele>
        <time>2019-01-03T14:29:22Z</time>
      </trkpt>
      <trkpt lat="43.78288" lon="3.5387">
        <ele>659</ele>
        <time>2019-01-03T14:29:22Z</time>
      </trkpt>
      <trkpt lat="43.78283" lon="3.53875">
        <ele>659</ele>
        <time>2019-01-03T14:30:06Z</time>
      </trkpt>
      <trkpt lat="43.78282" lon="3.53874">
        <ele>659</ele>
        <time>2019-01-03T14:30:06Z</time>
      </trkpt>
      <trkpt lat="43.7828" lon="3.53875">
        <ele>641</ele>
        <time>2019-01-03T14:30:06Z</time>
      </trkpt>
      <trkpt lat="43.78277" lon="3.53876">
        <ele>641</ele>
        <time>2019-01-03T14:30:06Z</time>
      </trkpt>
      <trkpt lat="43.78275" lon="3.53878">
        <ele>641</ele>
        <time>2019-01-03T14:30:06Z</time>
      </trkpt>
      <trkpt lat="43.78268" lon="3.53886">
        <ele>641</ele>
        <time>2019-01-03T14:30:38Z</time>
      </trkpt>
      <trkpt lat="43.78267" lon="3.53886">
        <ele>641</ele>
        <time>2019-01-03T14:30:38Z</time>
      </trkpt>
      <trkpt lat="43.78267" lon="3.53886">
        <ele>641</ele>
        <time>2019-01-03T14:30:38Z</time>
      </trkpt>
      <trkpt lat="43.78265" lon="3.53882">
        <ele>641</ele>
        <time>2019-01-03T14:30:38Z</time>
      </trkpt>
      <trkpt lat="43.78263" lon="3.5388">
        <ele>641</ele>
        <time>2019-01-03T14:30:38Z</time>
      </trkpt>
      <trkpt lat="43.78261" lon="3.53878">
        <ele>641</ele>
        <time>2019-01-03T14:31:22Z</time>
      </trkpt>
      <trkpt lat="43.78258" lon="3.53881">
        <ele>641</ele>
        <time>2019-01-03T14:31:22Z</time>
      </trkpt>
      <trkpt lat="43.78255" lon="3.53883">
        <ele>641</ele>
        <time>2019-01-03T14:31:22Z</time>
      </trkpt>
      <trkpt lat="43.78254" lon="3.53884">
        <ele>641</ele>
        <time>2019-01-03T14:31:22Z</time>
      </trkpt>
      <trkpt lat="43.78253" lon="3.53889">
        <ele>641</ele>
        <time>2019-01-03T14:31:22Z</time>
      </trkpt>
      <trkpt lat="43.78249" lon="3.53895">
        <ele>641</ele>
        <time>2019-01-03T14:32:10Z</time>
      </trkpt>
      <trkpt lat="43.78248" lon="3.53892">
        <ele>641</ele>
        <time>2019-01-03T14:32:10Z</time>
      </trkpt>
      <trkpt lat="43.78245" lon="3.5389">
        <ele>641</ele>
        <time>2019-01-03T14:32:10Z</time>
      </trkpt>
      <trkpt lat="43.78244" lon="3.53889">
        <ele>641</ele>
        <time>2019-01-03T14:32:10Z</time>
      </trkpt>
      <trkpt lat="43.78241" lon="3.53889">
        <ele>641</ele>
        <time>2019-01-03T14:32:10Z</time>
      </trkpt>
      <trkpt lat="43.78231" lon="3.53892">
        <ele>641</ele>
        <time>2019-01-03T14:32:46Z</time>
      </trkpt>
      <trkpt lat="43.78224" lon="3.53896">
        <ele>641</ele>
        <time>2019-01-03T14:32:46Z</time>
      </trkpt>
      <trkpt lat="43.7822" lon="3.53896">
        <ele>641</ele>
        <time>2019-01-03T14:32:46Z</time>
      </trkpt>
      <trkpt lat="43.78216" lon="3.53895">
        <ele>641</ele>
        <time>2019-01-03T14:32:46Z</time>
      </trkpt>
      <trkpt lat="43.78212" lon="3.53895">
        <ele>641</ele>
        <time>2019-01-03T14:33:18Z</time>
      </trkpt>
      <trkpt lat="43.78205" lon="3.53896">
        <ele>608</ele>
        <time>2019-01-03T14:33:18Z</time>
      </trkpt>
      <trkpt lat="43.78199" lon="3.53896">
        <ele>608</ele>
        <time>2019-01-03T14:33:18Z</time>
      </trkpt>
      <trkpt lat="43.78194" lon="3.53897">
        <ele>608</ele>
        <time>2019-01-03T14:33:18Z</time>
      </trkpt>
      <trkpt lat="43.78191" lon="3.53897">
        <ele>608</ele>
        <time>2019-01-03T14:33:38Z</time>
      </trkpt>
      <trkpt lat="43.78187" lon="3.53896">
        <ele>608</ele>
        <time>2019-01-03T14:33:38Z</time>
      </trkpt>
      <trkpt lat="43.78186" lon="3.53896">
        <ele>608</ele>
        <time>2019-01-03T14:33:38Z</time>
      </trkpt>
      <trkpt lat="43.78179" lon="3.53896">
        <ele>608</ele>
        <time>2019-01-03T14:33:38Z</time>
      </trkpt>
      <trkpt lat="43.7817" lon="3.53897">
        <ele>608</ele>
        <time>2019-01-03T14:33:58Z</time>
      </trkpt>
      <trkpt lat="43.78166" lon="3.53897">
        <ele>608</ele>
        <time>2019-01-03T14:33:58Z</time>
      </trkpt>
      <trkpt lat="43.78163" lon="3.53897">
        <ele>608</ele>
        <time>2019-01-03T14:33:58Z</time>
      </trkpt>
      <trkpt lat="43.7816" lon="3.53897">
        <ele>608</ele>
        <time>2019-01-03T14:33:58Z</time>
      </trkpt>
      <trkpt lat="43.78154" lon="3.53897">
        <ele>608</ele>
        <time>2019-01-03T14:34:22Z</time>
      </trkpt>
      <trkpt lat="43.78153" lon="3.53897">
        <ele>608</ele>
        <time>2019-01-03T14:34:22Z</time>
      </trkpt>
      <trkpt lat="43.78151" lon="3.53897">
        <ele>608</ele>
        <time>2019-01-03T14:34:22Z</time>
      </trkpt>
      <trkpt lat="43.78148" lon="3.53898">
        <ele>608</ele>
        <time>2019-01-03T14:34:22Z</time>
      </trkpt>
      <trkpt lat="43.78143" lon="3.53899">
        <ele>608</ele>
        <time>2019-01-03T14:34:22Z</time>
      </trkpt>
      <trkpt lat="43.78137" lon="3.539">
        <ele>608</ele>
        <time>2019-01-03T14:34:38Z</time>
      </trkpt>
      <trkpt lat="43.78133" lon="3.53901">
        <ele>608</ele>
        <time>2019-01-03T14:34:38Z</time>
      </trkpt>
      <trkpt lat="43.78132" lon="3.53901">
        <ele>608</ele>
        <time>2019-01-03T14:34:38Z</time>
      </trkpt>
      <trkpt lat="43.78127" lon="3.53899">
        <ele>608</ele>
        <time>2019-01-03T14:34:38Z</time>
      </trkpt>
      <trkpt lat="43.78125" lon="3.53897">
        <ele>608</ele>
        <time>2019-01-03T14:34:54Z</time>
      </trkpt>
      <trkpt lat="43.78122" lon="3.53894">
        <ele>590</ele>
        <time>2019-01-03T14:34:54Z</time>
      </trkpt>
      <trkpt lat="43.78117" lon="3.53893">
        <ele>590</ele>
        <time>2019-01-03T14:34:54Z</time>
      </trkpt>
      <trkpt lat="43.78113" lon="3.53891">
        <ele>590</ele>
        <time>2019-01-03T14:34:54Z</time>
      </trkpt>
      <trkpt lat="43.7811" lon="3.53891">
        <ele>590</ele>
        <time>2019-01-03T14:35:10Z</time>
      </trkpt>
      <trkpt lat="43.78106" lon="3.53888">
        <ele>590</ele>
        <time>2019-01-03T14:35:10Z</time>
      </trkpt>
      <trkpt lat="43.78103" lon="3.53886">
        <ele>590</ele>
        <time>2019-01-03T14:35:10Z</time>
      </trkpt>
      <trkpt lat="43.78101" lon="3.53884">
        <ele>590</ele>
        <time>2019-01-03T14:35:10Z</time>
      </trkpt>
      <trkpt lat="43.78099" lon="3.53882">
        <ele>590</ele>
        <time>2019-01-03T14:35:26Z</time>
      </trkpt>
      <trkpt lat="43.78095" lon="3.5388">
        <ele>590</ele>
        <time>2019-01-03T14:35:26Z</time>
      </trkpt>
      <trkpt lat="43.7809" lon="3.53879">
        <ele>590</ele>
        <time>2019-01-03T14:35:26Z</time>
      </trkpt>
      <trkpt lat="43.78084" lon="3.53878">
        <ele>590</ele>
        <time>2019-01-03T14:35:26Z</time>
      </trkpt>
      <trkpt lat="43.7808" lon="3.53877">
        <ele>590</ele>
        <time>2019-01-03T14:35:46Z</time>
      </trkpt>
      <trkpt lat="43.78077" lon="3.53877">
        <ele>590</ele>
        <time>2019-01-03T14:35:46Z</time>
      </trkpt>
      <trkpt lat="43.78071" lon="3.53875">
        <ele>611</ele>
        <time>2019-01-03T14:35:46Z</time>
      </trkpt>
      <trkpt lat="43.78071" lon="3.53875">
        <ele>590</ele>
        <time>2019-01-03T14:35:46Z</time>
      </trkpt>
      <trkpt lat="43.78067" lon="3.53876">
        <ele>590</ele>
        <time>2019-01-03T14:36:02Z</time>
      </trkpt>
      <trkpt lat="43.78065" lon="3.53875">
        <ele>611</ele>
        <time>2019-01-03T14:36:02Z</time>
      </trkpt>
      <trkpt lat="43.78064" lon="3.53875">
        <ele>611</ele>
        <time>2019-01-03T14:36:02Z</time>
      </trkpt>
      <trkpt lat="43.78058" lon="3.53874">
        <ele>611</ele>
        <time>2019-01-03T14:36:02Z</time>
      </trkpt>
      <trkpt lat="43.78053" lon="3.53874">
        <ele>611</ele>
        <time>2019-01-03T14:36:18Z</time>
      </trkpt>
      <trkpt lat="43.78047" lon="3.53875">
        <ele>611</ele>
        <time>2019-01-03T14:36:18Z</time>
      </trkpt>
      <trkpt lat="43.7804" lon="3.53873">
        <ele>597</ele>
        <time>2019-01-03T14:36:18Z</time>
      </trkpt>
      <trkpt lat="43.78034" lon="3.53872">
        <ele>597</ele>
        <time>2019-01-03T14:36:18Z</time>
      </trkpt>
      <trkpt lat="43.78029" lon="3.53872">
        <ele>597</ele>
        <time>2019-01-03T14:36:34Z</time>
      </trkpt>
      <trkpt lat="43.78025" lon="3.53872">
        <ele>597</ele>
        <time>2019-01-03T14:36:34Z</time>
      </trkpt>
      <trkpt lat="43.78021" lon="3.53872">
        <ele>597</ele>
        <time>2019-01-03T14:36:34Z</time>
      </trkpt>
      <trkpt lat="43.78018" lon="3.53871">
        <ele>597</ele>
        <time>2019-01-03T14:36:34Z</time>
      </trkpt>
      <trkpt lat="43.78012" lon="3.5387">
        <ele>597</ele>
        <time>2019-01-03T14:36:50Z</time>
      </trkpt>
      <trkpt lat="43.78009" lon="3.5387">
        <ele>597</ele>
        <time>2019-01-03T14:36:50Z</time>
      </trkpt>
      <trkpt lat="43.78005" lon="3.53868">
        <ele>597</ele>
        <time>2019-01-03T14:36:50Z</time>
      </trkpt>
      <trkpt lat="43.78002" lon="3.53867">
        <ele>597</ele>
        <time>2019-01-03T14:36:50Z</time>
      </trkpt>
      <trkpt lat="43.77998" lon="3.53866">
        <ele>597</ele>
        <time>2019-01-03T14:37:06Z</time>
      </trkpt>
      <trkpt lat="43.77995" lon="3.53866">
        <ele>597</ele>
        <time>2019-01-03T14:37:06Z</time>
      </trkpt>
      <trkpt lat="43.77992" lon="3.53867">
        <ele>597</ele>
        <time>2019-01-03T14:37:06Z</time>
      </trkpt>
      <trkpt lat="43.77987" lon="3.53868">
        <ele>597</ele>
        <time>2019-01-03T14:37:06Z</time>
      </trkpt>
      <trkpt lat="43.77983" lon="3.53865">
        <ele>597</ele>
        <time>2019-01-03T14:37:30Z</time>
      </trkpt>
      <trkpt lat="43.7798" lon="3.53862">
        <ele>597</ele>
        <time>2019-01-03T14:37:30Z</time>
      </trkpt>
      <trkpt lat="43.77979" lon="3.53861">
        <ele>597</ele>
        <time>2019-01-03T14:37:30Z</time>
      </trkpt>
      <trkpt lat="43.77976" lon="3.53859">
        <ele>597</ele>
        <time>2019-01-03T14:37:30Z</time>
      </trkpt>
      <trkpt lat="43.77973" lon="3.53856">
        <ele>597</ele>
        <time>2019-01-03T14:37:30Z</time>
      </trkpt>
      <trkpt lat="43.77969" lon="3.53851">
        <ele>597</ele>
        <time>2019-01-03T14:37:46Z</time>
      </trkpt>
      <trkpt lat="43.77966" lon="3.53847">
        <ele>597</ele>
        <time>2019-01-03T14:37:46Z</time>
      </trkpt>
      <trkpt lat="43.77963" lon="3.53841">
        <ele>597</ele>
        <time>2019-01-03T14:37:46Z</time>
      </trkpt>
      <trkpt lat="43.77961" lon="3.53839">
        <ele>597</ele>
        <time>2019-01-03T14:37:46Z</time>
      </trkpt>
      <trkpt lat="43.77959" lon="3.53837">
        <ele>597</ele>
        <time>2019-01-03T14:38:06Z</time>
      </trkpt>
      <trkpt lat="43.77954" lon="3.53831">
        <ele>579</ele>
        <time>2019-01-03T14:38:06Z</time>
      </trkpt>
      <trkpt lat="43.77951" lon="3.53826">
        <ele>579</ele>
        <time>2019-01-03T14:38:06Z</time>
      </trkpt>
      <trkpt lat="43.77947" lon="3.53821">
        <ele>579</ele>
        <time>2019-01-03T14:38:06Z</time>
      </trkpt>
      <trkpt lat="43.77944" lon="3.53817">
        <ele>579</ele>
        <time>2019-01-03T14:38:26Z</time>
      </trkpt>
      <trkpt lat="43.77943" lon="3.53817">
        <ele>579</ele>
        <time>2019-01-03T14:38:26Z</time>
      </trkpt>
      <trkpt lat="43.77943" lon="3.53816">
        <ele>579</ele>
        <time>2019-01-03T14:38:26Z</time>
      </trkpt>
      <trkpt lat="43.77938" lon="3.53813">
        <ele>579</ele>
        <time>2019-01-03T14:38:26Z</time>
      </trkpt>
      <trkpt lat="43.77936" lon="3.53811">
        <ele>579</ele>
        <time>2019-01-03T14:38:26Z</time>
      </trkpt>
      <trkpt lat="43.77933" lon="3.5381">
        <ele>579</ele>
        <time>2019-01-03T14:38:42Z</time>
      </trkpt>
      <trkpt lat="43.77929" lon="3.53807">
        <ele>579</ele>
        <time>2019-01-03T14:38:42Z</time>
      </trkpt>
      <trkpt lat="43.77925" lon="3.53805">
        <ele>579</ele>
        <time>2019-01-03T14:38:42Z</time>
      </trkpt>
      <trkpt lat="43.77924" lon="3.53805">
        <ele>579</ele>
        <time>2019-01-03T14:38:42Z</time>
      </trkpt>
      <trkpt lat="43.7792" lon="3.53803">
        <ele>579</ele>
        <time>2019-01-03T14:39:02Z</time>
      </trkpt>
      <trkpt lat="43.77916" lon="3.53805">
        <ele>579</ele>
        <time>2019-01-03T14:39:02Z</time>
      </trkpt>
      <trkpt lat="43.77912" lon="3.53807">
        <ele>579</ele>
        <time>2019-01-03T14:39:02Z</time>
      </trkpt>
      <trkpt lat="43.77909" lon="3.53809">
        <ele>579</ele>
        <time>2019-01-03T14:39:02Z</time>
      </trkpt>
      <trkpt lat="43.77906" lon="3.5381">
        <ele>579</ele>
        <time>2019-01-03T14:39:26Z</time>
      </trkpt>
      <trkpt lat="43.77904" lon="3.5381">
        <ele>579</ele>
        <time>2019-01-03T14:39:26Z</time>
      </trkpt>
      <trkpt lat="43.77902" lon="3.53811">
        <ele>579</ele>
        <time>2019-01-03T14:39:26Z</time>
      </trkpt>
      <trkpt lat="43.77898" lon="3.53811">
        <ele>579</ele>
        <time>2019-01-03T14:39:26Z</time>
      </trkpt>
      <trkpt lat="43.77894" lon="3.53811">
        <ele>579</ele>
        <time>2019-01-03T14:39:26Z</time>
      </trkpt>
      <trkpt lat="43.77891" lon="3.53811">
        <ele>579</ele>
        <time>2019-01-03T14:39:54Z</time>
      </trkpt>
      <trkpt lat="43.7789" lon="3.5381">
        <ele>579</ele>
        <time>2019-01-03T14:39:54Z</time>
      </trkpt>
      <trkpt lat="43.77888" lon="3.5381">
        <ele>579</ele>
        <time>2019-01-03T14:39:54Z</time>
      </trkpt>
      <trkpt lat="43.77886" lon="3.53812">
        <ele>579</ele>
        <time>2019-01-03T14:39:54Z</time>
      </trkpt>
      <trkpt lat="43.77882" lon="3.53814">
        <ele>579</ele>
        <time>2019-01-03T14:39:54Z</time>
      </trkpt>
      <trkpt lat="43.77879" lon="3.53817">
        <ele>579</ele>
        <time>2019-01-03T14:40:10Z</time>
      </trkpt>
      <trkpt lat="43.77878" lon="3.53823">
        <ele>579</ele>
        <time>2019-01-03T14:40:10Z</time>
      </trkpt>
      <trkpt lat="43.77876" lon="3.53828">
        <ele>579</ele>
        <time>2019-01-03T14:40:10Z</time>
      </trkpt>
      <trkpt lat="43.77874" lon="3.53831">
        <ele>561</ele>
        <time>2019-01-03T14:40:10Z</time>
      </trkpt>
      <trkpt lat="43.77873" lon="3.53831">
        <ele>561</ele>
        <time>2019-01-03T14:40:34Z</time>
      </trkpt>
      <trkpt lat="43.77869" lon="3.5383">
        <ele>561</ele>
        <time>2019-01-03T14:40:34Z</time>
      </trkpt>
      <trkpt lat="43.77866" lon="3.53828">
        <ele>561</ele>
        <time>2019-01-03T14:40:34Z</time>
      </trkpt>
      <trkpt lat="43.77862" lon="3.53826">
        <ele>561</ele>
        <time>2019-01-03T14:40:34Z</time>
      </trkpt>
      <trkpt lat="43.77857" lon="3.53825">
        <ele>561</ele>
        <time>2019-01-03T14:40:50Z</time>
      </trkpt>
      <trkpt lat="43.77853" lon="3.53824">
        <ele>561</ele>
        <time>2019-01-03T14:40:50Z</time>
      </trkpt>
      <trkpt lat="43.77852" lon="3.53824">
        <ele>561</ele>
        <time>2019-01-03T14:40:50Z</time>
      </trkpt>
      <trkpt lat="43.77848" lon="3.53822">
        <ele>561</ele>
        <time>2019-01-03T14:40:50Z</time>
      </trkpt>
      <trkpt lat="43.77844" lon="3.53822">
        <ele>561</ele>
        <time>2019-01-03T14:41:06Z</time>
      </trkpt>
      <trkpt lat="43.77839" lon="3.53821">
        <ele>561</ele>
        <time>2019-01-03T14:41:06Z</time>
      </trkpt>
      <trkpt lat="43.77838" lon="3.5382">
        <ele>561</ele>
        <time>2019-01-03T14:41:06Z</time>
      </trkpt>
      <trkpt lat="43.77833" lon="3.53818">
        <ele>561</ele>
        <time>2019-01-03T14:41:06Z</time>
      </trkpt>
      <trkpt lat="43.77828" lon="3.53816">
        <ele>561</ele>
        <time>2019-01-03T14:41:22Z</time>
      </trkpt>
      <trkpt lat="43.77824" lon="3.53815">
        <ele>561</ele>
        <time>2019-01-03T14:41:22Z</time>
      </trkpt>
      <trkpt lat="43.7782" lon="3.53814">
        <ele>561</ele>
        <time>2019-01-03T14:41:22Z</time>
      </trkpt>
      <trkpt lat="43.77818" lon="3.53811">
        <ele>561</ele>
        <time>2019-01-03T14:41:22Z</time>
      </trkpt>
      <trkpt lat="43.77815" lon="3.53807">
        <ele>561</ele>
        <time>2019-01-03T14:41:42Z</time>
      </trkpt>
      <trkpt lat="43.77812" lon="3.53804">
        <ele>561</ele>
        <time>2019-01-03T14:41:42Z</time>
      </trkpt>
      <trkpt lat="43.7781" lon="3.53801">
        <ele>561</ele>
        <time>2019-01-03T14:41:42Z</time>
      </trkpt>
      <trkpt lat="43.77808" lon="3.53798">
        <ele>561</ele>
        <time>2019-01-03T14:41:42Z</time>
      </trkpt>
      <trkpt lat="43.77806" lon="3.53794">
        <ele>561</ele>
        <time>2019-01-03T14:41:42Z</time>
      </trkpt>
      <trkpt lat="43.77801" lon="3.5379">
        <ele>562</ele>
        <time>2019-01-03T14:41:58Z</time>
      </trkpt>
      <trkpt lat="43.77797" lon="3.53788">
        <ele>562</ele>
        <time>2019-01-03T14:41:58Z</time>
      </trkpt>
      <trkpt lat="43.77792" lon="3.53785">
        <ele>562</ele>
        <time>2019-01-03T14:41:58Z</time>
      </trkpt>
      <trkpt lat="43.77789" lon="3.53783">
        <ele>546</ele>
        <time>2019-01-03T14:41:58Z</time>
      </trkpt>
      <trkpt lat="43.77786" lon="3.53783">
        <ele>546</ele>
        <time>2019-01-03T14:42:14Z</time>
      </trkpt>
      <trkpt lat="43.77783" lon="3.53782">
        <ele>546</ele>
        <time>2019-01-03T14:42:14Z</time>
      </trkpt>
      <trkpt lat="43.77779" lon="3.53783">
        <ele>546</ele>
        <time>2019-01-03T14:42:14Z</time>
      </trkpt>
      <trkpt lat="43.77774" lon="3.53785">
        <ele>546</ele>
        <time>2019-01-03T14:42:14Z</time>
      </trkpt>
      <trkpt lat="43.77767" lon="3.5378">
        <ele>546</ele>
        <time>2019-01-03T14:42:38Z</time>
      </trkpt>
      <trkpt lat="43.77766" lon="3.53779">
        <ele>546</ele>
        <time>2019-01-03T14:42:38Z</time>
      </trkpt>
      <trkpt lat="43.77764" lon="3.53779">
        <ele>546</ele>
        <time>2019-01-03T14:42:38Z</time>
      </trkpt>
      <trkpt lat="43.77763" lon="3.53779">
        <ele>546</ele>
        <time>2019-01-03T14:42:38Z</time>
      </trkpt>
      <trkpt lat="43.7776" lon="3.53777">
        <ele>546</ele>
        <time>2019-01-03T14:42:38Z</time>
      </trkpt>
      <trkpt lat="43.77756" lon="3.53775">
        <ele>546</ele>
        <time>2019-01-03T14:43:02Z</time>
      </trkpt>
      <trkpt lat="43.77753" lon="3.53773">
        <ele>546</ele>
        <time>2019-01-03T14:43:02Z</time>
      </trkpt>
      <trkpt lat="43.77753" lon="3.53773">
        <ele>546</ele>
        <time>2019-01-03T14:43:02Z</time>
      </trkpt>
      <trkpt lat="43.77748" lon="3.5377">
        <ele>546</ele>
        <time>2019-01-03T14:43:02Z</time>
      </trkpt>
      <trkpt lat="43.77746" lon="3.5377">
        <ele>546</ele>
        <time>2019-01-03T14:43:02Z</time>
      </trkpt>
      <trkpt lat="43.77743" lon="3.5377">
        <ele>546</ele>
        <time>2019-01-03T14:43:18Z</time>
      </trkpt>
      <trkpt lat="43.7774" lon="3.53771">
        <ele>546</ele>
        <time>2019-01-03T14:43:18Z</time>
      </trkpt>
      <trkpt lat="43.77737" lon="3.53776">
        <ele>546</ele>
        <time>2019-01-03T14:43:18Z</time>
      </trkpt>
      <trkpt lat="43.77733" lon="3.53777">
        <ele>546</ele>
        <time>2019-01-03T14:43:18Z</time>
      </trkpt>
      <trkpt lat="43.77732" lon="3.53777">
        <ele>546</ele>
        <time>2019-01-03T14:43:34Z</time>
      </trkpt>
      <trkpt lat="43.77729" lon="3.53778">
        <ele>546</ele>
        <time>2019-01-03T14:43:34Z</time>
      </trkpt>
      <trkpt lat="43.77725" lon="3.53777">
        <ele>546</ele>
        <time>2019-01-03T14:43:34Z</time>
      </trkpt>
      <trkpt lat="43.77721" lon="3.53775">
        <ele>546</ele>
        <time>2019-01-03T14:43:34Z</time>
      </trkpt>
      <trkpt lat="43.77716" lon="3.53774">
        <ele>546</ele>
        <time>2019-01-03T14:43:50Z</time>
      </trkpt>
      <trkpt lat="43.77712" lon="3.53774">
        <ele>546</ele>
        <time>2019-01-03T14:43:50Z</time>
      </trkpt>
      <trkpt lat="43.77707" lon="3.53773">
        <ele>532</ele>
        <time>2019-01-03T14:43:50Z</time>
      </trkpt>
      <trkpt lat="43.77704" lon="3.53772">
        <ele>532</ele>
        <time>2019-01-03T14:43:50Z</time>
      </trkpt>
      <trkpt lat="43.77699" lon="3.53771">
        <ele>532</ele>
        <time>2019-01-03T14:44:06Z</time>
      </trkpt>
      <trkpt lat="43.77695" lon="3.53771">
        <ele>532</ele>
        <time>2019-01-03T14:44:06Z</time>
      </trkpt>
      <trkpt lat="43.77692" lon="3.53771">
        <ele>532</ele>
        <time>2019-01-03T14:44:06Z</time>
      </trkpt>
      <trkpt lat="43.7769" lon="3.53772">
        <ele>532</ele>
        <time>2019-01-03T14:44:06Z</time>
      </trkpt>
      <trkpt lat="43.77688" lon="3.53775">
        <ele>532</ele>
        <time>2019-01-03T14:44:22Z</time>
      </trkpt>
      <trkpt lat="43.77685" lon="3.53777">
        <ele>532</ele>
        <time>2019-01-03T14:44:22Z</time>
      </trkpt>
      <trkpt lat="43.77681" lon="3.53779">
        <ele>532</ele>
        <time>2019-01-03T14:44:22Z</time>
      </trkpt>
      <trkpt lat="43.77676" lon="3.53782">
        <ele>532</ele>
        <time>2019-01-03T14:44:22Z</time>
      </trkpt>
      <trkpt lat="43.77667" lon="3.53784">
        <ele>532</ele>
        <time>2019-01-03T14:46:02Z</time>
      </trkpt>
      <trkpt lat="43.77669" lon="3.53792">
        <ele>531</ele>
        <time>2019-01-03T14:46:02Z</time>
      </trkpt>
      <trkpt lat="43.77671" lon="3.53801">
        <ele>531</ele>
        <time>2019-01-03T14:46:02Z</time>
      </trkpt>
      <trkpt lat="43.77673" lon="3.53804">
        <ele>531</ele>
        <time>2019-01-03T14:46:02Z</time>
      </trkpt>
      <trkpt lat="43.77673" lon="3.53807">
        <ele>531</ele>
        <time>2019-01-03T14:46:02Z</time>
      </trkpt>
      <trkpt lat="43.77676" lon="3.53812">
        <ele>531</ele>
        <time>2019-01-03T14:46:18Z</time>
      </trkpt>
      <trkpt lat="43.77678" lon="3.53817">
        <ele>531</ele>
        <time>2019-01-03T14:46:18Z</time>
      </trkpt>
      <trkpt lat="43.77679" lon="3.53821">
        <ele>531</ele>
        <time>2019-01-03T14:46:18Z</time>
      </trkpt>
      <trkpt lat="43.77682" lon="3.53825">
        <ele>531</ele>
        <time>2019-01-03T14:46:18Z</time>
      </trkpt>
      <trkpt lat="43.77685" lon="3.53828">
        <ele>531</ele>
        <time>2019-01-03T14:46:34Z</time>
      </trkpt>
      <trkpt lat="43.77688" lon="3.53832">
        <ele>531</ele>
        <time>2019-01-03T14:46:34Z</time>
      </trkpt>
      <trkpt lat="43.77691" lon="3.53836">
        <ele>531</ele>
        <time>2019-01-03T14:46:34Z</time>
      </trkpt>
      <trkpt lat="43.77694" lon="3.5384">
        <ele>531</ele>
        <time>2019-01-03T14:46:34Z</time>
      </trkpt>
      <trkpt lat="43.77696" lon="3.53845">
        <ele>531</ele>
        <time>2019-01-03T14:46:50Z</time>
      </trkpt>
      <trkpt lat="43.77699" lon="3.53849">
        <ele>531</ele>
        <time>2019-01-03T14:46:50Z</time>
      </trkpt>
      <trkpt lat="43.77701" lon="3.53854">
        <ele>531</ele>
        <time>2019-01-03T14:46:50Z</time>
      </trkpt>
      <trkpt lat="43.77704" lon="3.5386">
        <ele>531</ele>
        <time>2019-01-03T14:46:50Z</time>
      </trkpt>
      <trkpt lat="43.77705" lon="3.53865">
        <ele>531</ele>
        <time>2019-01-03T14:47:06Z</time>
      </trkpt>
      <trkpt lat="43.77706" lon="3.5387">
        <ele>531</ele>
        <time>2019-01-03T14:47:06Z</time>
      </trkpt>
      <trkpt lat="43.77708" lon="3.53876">
        <ele>531</ele>
        <time>2019-01-03T14:47:06Z</time>
      </trkpt>
      <trkpt lat="43.77711" lon="3.53881">
        <ele>545</ele>
        <time>2019-01-03T14:47:06Z</time>
      </trkpt>
      <trkpt lat="43.77714" lon="3.53886">
        <ele>545</ele>
        <time>2019-01-03T14:47:22Z</time>
      </trkpt>
      <trkpt lat="43.77717" lon="3.5389">
        <ele>545</ele>
        <time>2019-01-03T14:47:22Z</time>
      </trkpt>
      <trkpt lat="43.77721" lon="3.53895">
        <ele>545</ele>
        <time>2019-01-03T14:47:22Z</time>
      </trkpt>
      <trkpt lat="43.77724" lon="3.53899">
        <ele>545</ele>
        <time>2019-01-03T14:47:22Z</time>
      </trkpt>
      <trkpt lat="43.77726" lon="3.53904">
        <ele>545</ele>
        <time>2019-01-03T14:47:38Z</time>
      </trkpt>
      <trkpt lat="43.77729" lon="3.53909">
        <ele>545</ele>
        <time>2019-01-03T14:47:38Z</time>
      </trkpt>
      <trkpt lat="43.77732" lon="3.53912">
        <ele>545</ele>
        <time>2019-01-03T14:47:38Z</time>
      </trkpt>
      <trkpt lat="43.77733" lon="3.53915">
        <ele>545</ele>
        <time>2019-01-03T14:47:38Z</time>
      </trkpt>
      <trkpt lat="43.77735" lon="3.53919">
        <ele>545</ele>
        <time>2019-01-03T14:47:54Z</time>
      </trkpt>
      <trkpt lat="43.77736" lon="3.53924">
        <ele>545</ele>
        <time>2019-01-03T14:47:54Z</time>
      </trkpt>
      <trkpt lat="43.77738" lon="3.53929">
        <ele>545</ele>
        <time>2019-01-03T14:47:54Z</time>
      </trkpt>
      <trkpt lat="43.77739" lon="3.53935">
        <ele>545</ele>
        <time>2019-01-03T14:47:54Z</time>
      </trkpt>
      <trkpt lat="43.77742" lon="3.53941">
        <ele>545</ele>
        <time>2019-01-03T14:48:10Z</time>
      </trkpt>
      <trkpt lat="43.77745" lon="3.53946">
        <ele>545</ele>
        <time>2019-01-03T14:48:10Z</time>
      </trkpt>
      <trkpt lat="43.77749" lon="3.5395">
        <ele>545</ele>
        <time>2019-01-03T14:48:10Z</time>
      </trkpt>
      <trkpt lat="43.77752" lon="3.53952">
        <ele>545</ele>
        <time>2019-01-03T14:48:10Z</time>
      </trkpt>
      <trkpt lat="43.77755" lon="3.53954">
        <ele>545</ele>
        <time>2019-01-03T14:48:26Z</time>
      </trkpt>
      <trkpt lat="43.77759" lon="3.53957">
        <ele>545</ele>
        <time>2019-01-03T14:48:26Z</time>
      </trkpt>
      <trkpt lat="43.77762" lon="3.5396">
        <ele>546</ele>
        <time>2019-01-03T14:48:26Z</time>
      </trkpt>
      <trkpt lat="43.77765" lon="3.53963">
        <ele>546</ele>
        <time>2019-01-03T14:48:26Z</time>
      </trkpt>
      <trkpt lat="43.77767" lon="3.53966">
        <ele>546</ele>
        <time>2019-01-03T14:48:42Z</time>
      </trkpt>
      <trkpt lat="43.77769" lon="3.53969">
        <ele>546</ele>
        <time>2019-01-03T14:48:42Z</time>
      </trkpt>
      <trkpt lat="43.77772" lon="3.53973">
        <ele>546</ele>
        <time>2019-01-03T14:48:42Z</time>
      </trkpt>
      <trkpt lat="43.77775" lon="3.53978">
        <ele>546</ele>
        <time>2019-01-03T14:48:42Z</time>
      </trkpt>
      <trkpt lat="43.77778" lon="3.53983">
        <ele>546</ele>
        <time>2019-01-03T14:48:58Z</time>
      </trkpt>
      <trkpt lat="43.77781" lon="3.53988">
        <ele>546</ele>
        <time>2019-01-03T14:48:58Z</time>
      </trkpt>
      <trkpt lat="43.77783" lon="3.53993">
        <ele>546</ele>
        <time>2019-01-03T14:48:58Z</time>
      </trkpt>
      <trkpt lat="43.77785" lon="3.53998">
        <ele>546</ele>
        <time>2019-01-03T14:48:58Z</time>
      </trkpt>
      <trkpt lat="43.77787" lon="3.54003">
        <ele>546</ele>
        <time>2019-01-03T14:49:14Z</time>
      </trkpt>
      <trkpt lat="43.77789" lon="3.54008">
        <ele>546</ele>
        <time>2019-01-03T14:49:14Z</time>
      </trkpt>
      <trkpt lat="43.77791" lon="3.54014">
        <ele>546</ele>
        <time>2019-01-03T14:49:14Z</time>
      </trkpt>
      <trkpt lat="43.77794" lon="3.54019">
        <ele>557</ele>
        <time>2019-01-03T14:49:14Z</time>
      </trkpt>
      <trkpt lat="43.77797" lon="3.54024">
        <ele>557</ele>
        <time>2019-01-03T14:49:30Z</time>
      </trkpt>
      <trkpt lat="43.77798" lon="3.54029">
        <ele>557</ele>
        <time>2019-01-03T14:49:30Z</time>
      </trkpt>
      <trkpt lat="43.77799" lon="3.54035">
        <ele>557</ele>
        <time>2019-01-03T14:49:30Z</time>
      </trkpt>
      <trkpt lat="43.778" lon="3.54041">
        <ele>557</ele>
        <time>2019-01-03T14:49:30Z</time>
      </trkpt>
      <trkpt lat="43.77803" lon="3.54047">
        <ele>558</ele>
        <time>2019-01-03T14:49:46Z</time>
      </trkpt>
      <trkpt lat="43.77805" lon="3.54054">
        <ele>558</ele>
        <time>2019-01-03T14:49:46Z</time>
      </trkpt>
      <trkpt lat="43.77808" lon="3.54059">
        <ele>558</ele>
        <time>2019-01-03T14:49:46Z</time>
      </trkpt>
      <trkpt lat="43.77809" lon="3.54065">
        <ele>558</ele>
        <time>2019-01-03T14:49:46Z</time>
      </trkpt>
      <trkpt lat="43.77811" lon="3.5407">
        <ele>558</ele>
        <time>2019-01-03T14:50:02Z</time>
      </trkpt>
      <trkpt lat="43.77812" lon="3.54076">
        <ele>558</ele>
        <time>2019-01-03T14:50:02Z</time>
      </trkpt>
      <trkpt lat="43.77815" lon="3.54083">
        <ele>558</ele>
        <time>2019-01-03T14:50:02Z</time>
      </trkpt>
      <trkpt lat="43.77818" lon="3.54088">
        <ele>558</ele>
        <time>2019-01-03T14:50:02Z</time>
      </trkpt>
      <trkpt lat="43.7782" lon="3.54093">
        <ele>558</ele>
        <time>2019-01-03T14:50:18Z</time>
      </trkpt>
      <trkpt lat="43.77822" lon="3.54097">
        <ele>558</ele>
        <time>2019-01-03T14:50:18Z</time>
      </trkpt>
      <trkpt lat="43.77825" lon="3.54103">
        <ele>558</ele>
        <time>2019-01-03T14:50:18Z</time>
      </trkpt>
      <trkpt lat="43.77828" lon="3.54109">
        <ele>558</ele>
        <time>2019-01-03T14:50:18Z</time>
      </trkpt>
      <trkpt lat="43.77831" lon="3.54114">
        <ele>558</ele>
        <time>2019-01-03T14:50:34Z</time>
      </trkpt>
      <trkpt lat="43.77835" lon="3.5412">
        <ele>558</ele>
        <time>2019-01-03T14:50:34Z</time>
      </trkpt>
      <trkpt lat="43.77838" lon="3.54125">
        <ele>558</ele>
        <time>2019-01-03T14:50:34Z</time>
      </trkpt>
      <trkpt lat="43.77841" lon="3.5413">
        <ele>559</ele>
        <time>2019-01-03T14:50:34Z</time>
      </trkpt>
      <trkpt lat="43.77842" lon="3.54137">
        <ele>559</ele>
        <time>2019-01-03T14:50:50Z</time>
      </trkpt>
      <trkpt lat="43.77843" lon="3.54144">
        <ele>559</ele>
        <time>2019-01-03T14:50:50Z</time>
      </trkpt>
      <trkpt lat="43.77845" lon="3.54149">
        <ele>559</ele>
        <time>2019-01-03T14:50:50Z</time>
      </trkpt>
      <trkpt lat="43.77847" lon="3.54154">
        <ele>559</ele>
        <time>2019-01-03T14:50:50Z</time>
      </trkpt>
      <trkpt lat="43.77847" lon="3.54161">
        <ele>559</ele>
        <time>2019-01-03T14:51:06Z</time>
      </trkpt>
      <trkpt lat="43.77845" lon="3.54167">
        <ele>559</ele>
        <time>2019-01-03T14:51:06Z</time>
      </trkpt>
      <trkpt lat="43.77845" lon="3.54174">
        <ele>559</ele>
        <time>2019-01-03T14:51:06Z</time>
      </trkpt>
      <trkpt lat="43.77846" lon="3.5418">
        <ele>559</ele>
        <time>2019-01-03T14:51:06Z</time>
      </trkpt>
      <trkpt lat="43.77846" lon="3.54186">
        <ele>559</ele>
        <time>2019-01-03T14:51:22Z</time>
      </trkpt>
      <trkpt lat="43.77846" lon="3.54192">
        <ele>559</ele>
        <time>2019-01-03T14:51:22Z</time>
      </trkpt>
      <trkpt lat="43.77847" lon="3.54198">
        <ele>559</ele>
        <time>2019-01-03T14:51:22Z</time>
      </trkpt>
      <trkpt lat="43.77846" lon="3.54204">
        <ele>559</ele>
        <time>2019-01-03T14:51:22Z</time>
      </trkpt>
      <trkpt lat="43.77846" lon="3.54211">
        <ele>563</ele>
        <time>2019-01-03T14:51:38Z</time>
      </trkpt>
      <trkpt lat="43.77847" lon="3.54218">
        <ele>563</ele>
        <time>2019-01-03T14:51:38Z</time>
      </trkpt>
      <trkpt lat="43.77846" lon="3.54224">
        <ele>563</ele>
        <time>2019-01-03T14:51:38Z</time>
      </trkpt>
      <trkpt lat="43.77846" lon="3.5423">
        <ele>563</ele>
        <time>2019-01-03T14:51:38Z</time>
      </trkpt>
      <trkpt lat="43.77845" lon="3.54235">
        <ele>563</ele>
        <time>2019-01-03T14:51:54Z</time>
      </trkpt>
      <trkpt lat="43.77844" lon="3.5424">
        <ele>563</ele>
        <time>2019-01-03T14:51:54Z</time>
      </trkpt>
      <trkpt lat="43.77846" lon="3.54246">
        <ele>563</ele>
        <time>2019-01-03T14:51:54Z</time>
      </trkpt>
      <trkpt lat="43.77846" lon="3.54252">
        <ele>563</ele>
        <time>2019-01-03T14:51:54Z</time>
      </trkpt>
      <trkpt lat="43.77847" lon="3.54258">
        <ele>563</ele>
        <time>2019-01-03T14:52:10Z</time>
      </trkpt>
      <trkpt lat="43.77848" lon="3.54264">
        <ele>563</ele>
        <time>2019-01-03T14:52:10Z</time>
      </trkpt>
      <trkpt lat="43.77851" lon="3.54268">
        <ele>563</ele>
        <time>2019-01-03T14:52:10Z</time>
      </trkpt>
      <trkpt lat="43.77853" lon="3.54272">
        <ele>563</ele>
        <time>2019-01-03T14:52:10Z</time>
      </trkpt>
      <trkpt lat="43.77854" lon="3.54274">
        <ele>563</ele>
        <time>2019-01-03T14:53:58Z</time>
      </trkpt>
      <trkpt lat="43.77854" lon="3.5427">
        <ele>563</ele>
        <time>2019-01-03T14:53:58Z</time>
      </trkpt>
      <trkpt lat="43.77852" lon="3.54266">
        <ele>563</ele>
        <time>2019-01-03T14:53:58Z</time>
      </trkpt>
      <trkpt lat="43.77852" lon="3.54259">
        <ele>563</ele>
        <time>2019-01-03T14:53:58Z</time>
      </trkpt>
      <trkpt lat="43.77853" lon="3.54251">
        <ele>563</ele>
        <time>2019-01-03T14:53:58Z</time>
      </trkpt>
      <trkpt lat="43.77851" lon="3.54245">
        <ele>563</ele>
        <time>2019-01-03T14:54:14Z</time>
      </trkpt>
      <trkpt lat="43.7785" lon="3.5424">
        <ele>563</ele>
        <time>2019-01-03T14:54:14Z</time>
      </trkpt>
      <trkpt lat="43.7785" lon="3.54235">
        <ele>563</ele>
        <time>2019-01-03T14:54:14Z</time>
      </trkpt>
      <trkpt lat="43.77851" lon="3.54229">
        <ele>563</ele>
        <time>2019-01-03T14:54:14Z</time>
      </trkpt>
      <trkpt lat="43.77852" lon="3.54223">
        <ele>563</ele>
        <time>2019-01-03T14:54:30Z</time>
      </trkpt>
      <trkpt lat="43.77851" lon="3.54216">
        <ele>563</ele>
        <time>2019-01-03T14:54:30Z</time>
      </trkpt>
      <trkpt lat="43.7785" lon="3.54211">
        <ele>563</ele>
        <time>2019-01-03T14:54:30Z</time>
      </trkpt>
      <trkpt lat="43.77851" lon="3.54204">
        <ele>559</ele>
        <time>2019-01-03T14:54:30Z</time>
      </trkpt>
      <trkpt lat="43.7785" lon="3.542">
        <ele>559</ele>
        <time>2019-01-03T14:54:46Z</time>
      </trkpt>
      <trkpt lat="43.77851" lon="3.54194">
        <ele>559</ele>
        <time>2019-01-03T14:54:46Z</time>
      </trkpt>
      <trkpt lat="43.7785" lon="3.54189">
        <ele>559</ele>
        <time>2019-01-03T14:54:46Z</time>
      </trkpt>
      <trkpt lat="43.7785" lon="3.54183">
        <ele>559</ele>
        <time>2019-01-03T14:54:46Z</time>
      </trkpt>
      <trkpt lat="43.77851" lon="3.54171">
        <ele>559</ele>
        <time>2019-01-03T14:55:46Z</time>
      </trkpt>
      <trkpt lat="43.77847" lon="3.5417">
        <ele>559</ele>
        <time>2019-01-03T14:55:46Z</time>
      </trkpt>
      <trkpt lat="43.77846" lon="3.54164">
        <ele>559</ele>
        <time>2019-01-03T14:55:46Z</time>
      </trkpt>
      <trkpt lat="43.77846" lon="3.54158">
        <ele>559</ele>
        <time>2019-01-03T14:55:46Z</time>
      </trkpt>
      <trkpt lat="43.77845" lon="3.54153">
        <ele>559</ele>
        <time>2019-01-03T14:55:46Z</time>
      </trkpt>
      <trkpt lat="43.77844" lon="3.54151">
        <ele>559</ele>
        <time>2019-01-03T14:56:02Z</time>
      </trkpt>
      <trkpt lat="43.77843" lon="3.54142">
        <ele>559</ele>
        <time>2019-01-03T14:56:02Z</time>
      </trkpt>
      <trkpt lat="43.77842" lon="3.54136">
        <ele>559</ele>
        <time>2019-01-03T14:56:02Z</time>
      </trkpt>
      <trkpt lat="43.77841" lon="3.54131">
        <ele>559</ele>
        <time>2019-01-03T14:56:02Z</time>
      </trkpt>
      <trkpt lat="43.77839" lon="3.54126">
        <ele>559</ele>
        <time>2019-01-03T14:56:18Z</time>
      </trkpt>
      <trkpt lat="43.77836" lon="3.54122">
        <ele>558</ele>
        <time>2019-01-03T14:56:18Z</time>
      </trkpt>
      <trkpt lat="43.77834" lon="3.54116">
        <ele>558</ele>
        <time>2019-01-03T14:56:18Z</time>
      </trkpt>
      <trkpt lat="43.77831" lon="3.54111">
        <ele>558</ele>
        <time>2019-01-03T14:56:18Z</time>
      </trkpt>
      <trkpt lat="43.77828" lon="3.54105">
        <ele>558</ele>
        <time>2019-01-03T14:56:34Z</time>
      </trkpt>
      <trkpt lat="43.77825" lon="3.541">
        <ele>558</ele>
        <time>2019-01-03T14:56:34Z</time>
      </trkpt>
      <trkpt lat="43.77822" lon="3.54095">
        <ele>558</ele>
        <time>2019-01-03T14:56:34Z</time>
      </trkpt>
      <trkpt lat="43.7782" lon="3.54088">
        <ele>558</ele>
        <time>2019-01-03T14:56:34Z</time>
      </trkpt>
      <trkpt lat="43.77818" lon="3.54081">
        <ele>558</ele>
        <time>2019-01-03T14:56:50Z</time>
      </trkpt>
      <trkpt lat="43.77816" lon="3.54076">
        <ele>558</ele>
        <time>2019-01-03T14:56:50Z</time>
      </trkpt>
      <trkpt lat="43.77814" lon="3.5407">
        <ele>558</ele>
        <time>2019-01-03T14:56:50Z</time>
      </trkpt>
      <trkpt lat="43.77811" lon="3.54065">
        <ele>558</ele>
        <time>2019-01-03T14:56:50Z</time>
      </trkpt>
      <trkpt lat="43.77809" lon="3.54059">
        <ele>558</ele>
        <time>2019-01-03T14:57:06Z</time>
      </trkpt>
      <trkpt lat="43.77807" lon="3.54055">
        <ele>558</ele>
        <time>2019-01-03T14:57:06Z</time>
      </trkpt>
      <trkpt lat="43.77805" lon="3.5405">
        <ele>558</ele>
        <time>2019-01-03T14:57:06Z</time>
      </trkpt>
      <trkpt lat="43.77803" lon="3.54045">
        <ele>558</ele>
        <time>2019-01-03T14:57:06Z</time>
      </trkpt>
      <trkpt lat="43.77802" lon="3.54039">
        <ele>557</ele>
        <time>2019-01-03T14:57:22Z</time>
      </trkpt>
      <trkpt lat="43.778" lon="3.54033">
        <ele>557</ele>
        <time>2019-01-03T14:57:22Z</time>
      </trkpt>
      <trkpt lat="43.77799" lon="3.54027">
        <ele>557</ele>
        <time>2019-01-03T14:57:22Z</time>
      </trkpt>
      <trkpt lat="43.77797" lon="3.54022">
        <ele>557</ele>
        <time>2019-01-03T14:57:22Z</time>
      </trkpt>
      <trkpt lat="43.77796" lon="3.54016">
        <ele>557</ele>
        <time>2019-01-03T14:57:38Z</time>
      </trkpt>
      <trkpt lat="43.77794" lon="3.5401">
        <ele>557</ele>
        <time>2019-01-03T14:57:38Z</time>
      </trkpt>
      <trkpt lat="43.77791" lon="3.54005">
        <ele>546</ele>
        <time>2019-01-03T14:57:38Z</time>
      </trkpt>
      <trkpt lat="43.77788" lon="3.54">
        <ele>546</ele>
        <time>2019-01-03T14:57:38Z</time>
      </trkpt>
      <trkpt lat="43.77785" lon="3.53995">
        <ele>546</ele>
        <time>2019-01-03T14:57:54Z</time>
      </trkpt>
      <trkpt lat="43.77782" lon="3.5399">
        <ele>546</ele>
        <time>2019-01-03T14:57:54Z</time>
      </trkpt>
      <trkpt lat="43.7778" lon="3.53986">
        <ele>546</ele>
        <time>2019-01-03T14:57:54Z</time>
      </trkpt>
      <trkpt lat="43.77776" lon="3.53981">
        <ele>546</ele>
        <time>2019-01-03T14:57:54Z</time>
      </trkpt>
      <trkpt lat="43.77774" lon="3.53976">
        <ele>546</ele>
        <time>2019-01-03T14:58:10Z</time>
      </trkpt>
      <trkpt lat="43.77773" lon="3.53972">
        <ele>546</ele>
        <time>2019-01-03T14:58:10Z</time>
      </trkpt>
      <trkpt lat="43.77771" lon="3.53966">
        <ele>546</ele>
        <time>2019-01-03T14:58:10Z</time>
      </trkpt>
      <trkpt lat="43.77769" lon="3.53961">
        <ele>546</ele>
        <time>2019-01-03T14:58:10Z</time>
      </trkpt>
      <trkpt lat="43.77768" lon="3.53955">
        <ele>545</ele>
        <time>2019-01-03T14:58:26Z</time>
      </trkpt>
      <trkpt lat="43.7777" lon="3.5395">
        <ele>545</ele>
        <time>2019-01-03T14:58:26Z</time>
      </trkpt>
      <trkpt lat="43.77774" lon="3.5395">
        <ele>545</ele>
        <time>2019-01-03T14:58:26Z</time>
      </trkpt>
      <trkpt lat="43.77778" lon="3.5395">
        <ele>545</ele>
        <time>2019-01-03T14:58:26Z</time>
      </trkpt>
      <trkpt lat="43.77782" lon="3.53951">
        <ele>545</ele>
        <time>2019-01-03T14:58:42Z</time>
      </trkpt>
      <trkpt lat="43.77787" lon="3.53951">
        <ele>545</ele>
        <time>2019-01-03T14:58:42Z</time>
      </trkpt>
      <trkpt lat="43.77791" lon="3.53953">
        <ele>545</ele>
        <time>2019-01-03T14:58:42Z</time>
      </trkpt>
      <trkpt lat="43.77793" lon="3.53955">
        <ele>558</ele>
        <time>2019-01-03T14:58:42Z</time>
      </trkpt>
      <trkpt lat="43.77796" lon="3.53957">
        <ele>558</ele>
        <time>2019-01-03T14:58:58Z</time>
      </trkpt>
      <trkpt lat="43.77799" lon="3.53959">
        <ele>557</ele>
        <time>2019-01-03T14:58:58Z</time>
      </trkpt>
      <trkpt lat="43.77803" lon="3.53962">
        <ele>557</ele>
        <time>2019-01-03T14:58:58Z</time>
      </trkpt>
      <trkpt lat="43.77806" lon="3.53964">
        <ele>557</ele>
        <time>2019-01-03T14:58:58Z</time>
      </trkpt>
      <trkpt lat="43.77809" lon="3.53968">
        <ele>557</ele>
        <time>2019-01-03T14:59:14Z</time>
      </trkpt>
      <trkpt lat="43.77811" lon="3.53972">
        <ele>557</ele>
        <time>2019-01-03T14:59:14Z</time>
      </trkpt>
      <trkpt lat="43.77812" lon="3.53976">
        <ele>557</ele>
        <time>2019-01-03T14:59:14Z</time>
      </trkpt>
      <trkpt lat="43.77815" lon="3.5398">
        <ele>557</ele>
        <time>2019-01-03T14:59:14Z</time>
      </trkpt>
      <trkpt lat="43.77819" lon="3.53984">
        <ele>557</ele>
        <time>2019-01-03T14:59:30Z</time>
      </trkpt>
      <trkpt lat="43.77822" lon="3.53988">
        <ele>557</ele>
        <time>2019-01-03T14:59:30Z</time>
      </trkpt>
      <trkpt lat="43.77825" lon="3.53993">
        <ele>557</ele>
        <time>2019-01-03T14:59:30Z</time>
      </trkpt>
      <trkpt lat="43.77828" lon="3.53997">
        <ele>557</ele>
        <time>2019-01-03T14:59:30Z</time>
      </trkpt>
      <trkpt lat="43.7783" lon="3.54001">
        <ele>557</ele>
        <time>2019-01-03T14:59:46Z</time>
      </trkpt>
      <trkpt lat="43.77833" lon="3.54006">
        <ele>557</ele>
        <time>2019-01-03T14:59:46Z</time>
      </trkpt>
      <trkpt lat="43.77837" lon="3.54008">
        <ele>557</ele>
        <time>2019-01-03T14:59:46Z</time>
      </trkpt>
      <trkpt lat="43.77842" lon="3.54011">
        <ele>557</ele>
        <time>2019-01-03T14:59:46Z</time>
      </trkpt>
      <trkpt lat="43.77846" lon="3.54014">
        <ele>557</ele>
        <time>2019-01-03T15:00:02Z</time>
      </trkpt>
      <trkpt lat="43.77851" lon="3.54018">
        <ele>557</ele>
        <time>2019-01-03T15:00:02Z</time>
      </trkpt>
      <trkpt lat="43.77855" lon="3.54022">
        <ele>557</ele>
        <time>2019-01-03T15:00:02Z</time>
      </trkpt>
      <trkpt lat="43.7786" lon="3.54025">
        <ele>557</ele>
        <time>2019-01-03T15:00:02Z</time>
      </trkpt>
      <trkpt lat="43.77864" lon="3.54028">
        <ele>557</ele>
        <time>2019-01-03T15:00:18Z</time>
      </trkpt>
      <trkpt lat="43.77868" lon="3.54031">
        <ele>557</ele>
        <time>2019-01-03T15:00:18Z</time>
      </trkpt>
      <trkpt lat="43.77871" lon="3.54034">
        <ele>557</ele>
        <time>2019-01-03T15:00:18Z</time>
      </trkpt>
      <trkpt lat="43.77874" lon="3.54039">
        <ele>557</ele>
        <time>2019-01-03T15:00:18Z</time>
      </trkpt>
      <trkpt lat="43.77878" lon="3.54042">
        <ele>561</ele>
        <time>2019-01-03T15:00:34Z</time>
      </trkpt>
      <trkpt lat="43.77883" lon="3.54046">
        <ele>561</ele>
        <time>2019-01-03T15:00:34Z</time>
      </trkpt>
      <trkpt lat="43.77886" lon="3.5405">
        <ele>561</ele>
        <time>2019-01-03T15:00:34Z</time>
      </trkpt>
      <trkpt lat="43.77891" lon="3.54052">
        <ele>561</ele>
        <time>2019-01-03T15:00:34Z</time>
      </trkpt>
      <trkpt lat="43.77894" lon="3.54057">
        <ele>561</ele>
        <time>2019-01-03T15:00:50Z</time>
      </trkpt>
      <trkpt lat="43.77896" lon="3.54062">
        <ele>561</ele>
        <time>2019-01-03T15:00:50Z</time>
      </trkpt>
      <trkpt lat="43.77899" lon="3.54068">
        <ele>561</ele>
        <time>2019-01-03T15:00:50Z</time>
      </trkpt>
      <trkpt lat="43.77901" lon="3.54074">
        <ele>561</ele>
        <time>2019-01-03T15:00:50Z</time>
      </trkpt>
      <trkpt lat="43.77904" lon="3.5408">
        <ele>561</ele>
        <time>2019-01-03T15:01:06Z</time>
      </trkpt>
      <trkpt lat="43.77905" lon="3.54085">
        <ele>561</ele>
        <time>2019-01-03T15:01:06Z</time>
      </trkpt>
      <trkpt lat="43.77907" lon="3.54089">
        <ele>561</ele>
        <time>2019-01-03T15:01:06Z</time>
      </trkpt>
      <trkpt lat="43.77909" lon="3.54094">
        <ele>561</ele>
        <time>2019-01-03T15:01:06Z</time>
      </trkpt>
      <trkpt lat="43.77912" lon="3.54098">
        <ele>561</ele>
        <time>2019-01-03T15:01:22Z</time>
      </trkpt>
      <trkpt lat="43.77915" lon="3.54103">
        <ele>561</ele>
        <time>2019-01-03T15:01:22Z</time>
      </trkpt>
      <trkpt lat="43.77917" lon="3.54108">
        <ele>561</ele>
        <time>2019-01-03T15:01:22Z</time>
      </trkpt>
      <trkpt lat="43.77921" lon="3.54114">
        <ele>561</ele>
        <time>2019-01-03T15:01:22Z</time>
      </trkpt>
      <trkpt lat="43.77925" lon="3.54121">
        <ele>561</ele>
        <time>2019-01-03T15:01:38Z</time>
      </trkpt>
      <trkpt lat="43.77928" lon="3.54125">
        <ele>561</ele>
        <time>2019-01-03T15:01:38Z</time>
      </trkpt>
      <trkpt lat="43.7793" lon="3.5413">
        <ele>561</ele>
        <time>2019-01-03T15:01:38Z</time>
      </trkpt>
      <trkpt lat="43.77934" lon="3.54135">
        <ele>561</ele>
        <time>2019-01-03T15:01:38Z</time>
      </trkpt>
      <trkpt lat="43.77937" lon="3.54139">
        <ele>561</ele>
        <time>2019-01-03T15:01:54Z</time>
      </trkpt>
      <trkpt lat="43.77941" lon="3.54147">
        <ele>561</ele>
        <time>2019-01-03T15:01:54Z</time>
      </trkpt>
      <trkpt lat="43.77945" lon="3.54152">
        <ele>561</ele>
        <time>2019-01-03T15:01:54Z</time>
      </trkpt>
      <trkpt lat="43.77947" lon="3.54154">
        <ele>561</ele>
        <time>2019-01-03T15:01:54Z</time>
      </trkpt>
      <trkpt lat="43.77949" lon="3.54158">
        <ele>561</ele>
        <time>2019-01-03T15:02:10Z</time>
      </trkpt>
      <trkpt lat="43.77952" lon="3.54161">
        <ele>561</ele>
        <time>2019-01-03T15:02:10Z</time>
      </trkpt>
      <trkpt lat="43.77954" lon="3.54165">
        <ele>561</ele>
        <time>2019-01-03T15:02:10Z</time>
      </trkpt>
      <trkpt lat="43.77955" lon="3.54169">
        <ele>561</ele>
        <time>2019-01-03T15:02:10Z</time>
      </trkpt>
      <trkpt lat="43.77958" lon="3.54175">
        <ele>561</ele>
        <time>2019-01-03T15:02:58Z</time>
      </trkpt>
      <trkpt lat="43.77958" lon="3.54181">
        <ele>561</ele>
        <time>2019-01-03T15:02:58Z</time>
      </trkpt>
      <trkpt lat="43.7796" lon="3.54181">
        <ele>542</ele>
        <time>2019-01-03T15:02:58Z</time>
      </trkpt>
      <trkpt lat="43.77961" lon="3.54183">
        <ele>542</ele>
        <time>2019-01-03T15:02:58Z</time>
      </trkpt>
      <trkpt lat="43.77963" lon="3.54187">
        <ele>542</ele>
        <time>2019-01-03T15:02:58Z</time>
      </trkpt>
      <trkpt lat="43.77964" lon="3.54192">
        <ele>542</ele>
        <time>2019-01-03T15:03:14Z</time>
      </trkpt>
      <trkpt lat="43.77966" lon="3.54198">
        <ele>542</ele>
        <time>2019-01-03T15:03:14Z</time>
      </trkpt>
      <trkpt lat="43.77967" lon="3.54202">
        <ele>542</ele>
        <time>2019-01-03T15:03:14Z</time>
      </trkpt>
      <trkpt lat="43.77967" lon="3.54207">
        <ele>542</ele>
        <time>2019-01-03T15:03:14Z</time>
      </trkpt>
      <trkpt lat="43.77968" lon="3.54212">
        <ele>533</ele>
        <time>2019-01-03T15:03:30Z</time>
      </trkpt>
      <trkpt lat="43.77968" lon="3.54217">
        <ele>533</ele>
        <time>2019-01-03T15:03:30Z</time>
      </trkpt>
      <trkpt lat="43.77968" lon="3.54224">
        <ele>533</ele>
        <time>2019-01-03T15:03:30Z</time>
      </trkpt>
      <trkpt lat="43.77968" lon="3.54231">
        <ele>533</ele>
        <time>2019-01-03T15:03:30Z</time>
      </trkpt>
      <trkpt lat="43.77968" lon="3.54236">
        <ele>533</ele>
        <time>2019-01-03T15:03:50Z</time>
      </trkpt>
      <trkpt lat="43.77968" lon="3.5424">
        <ele>533</ele>
        <time>2019-01-03T15:03:50Z</time>
      </trkpt>
      <trkpt lat="43.77967" lon="3.54244">
        <ele>533</ele>
        <time>2019-01-03T15:03:50Z</time>
      </trkpt>
      <trkpt lat="43.77967" lon="3.54247">
        <ele>533</ele>
        <time>2019-01-03T15:03:50Z</time>
      </trkpt>
      <trkpt lat="43.77966" lon="3.54253">
        <ele>533</ele>
        <time>2019-01-03T15:03:50Z</time>
      </trkpt>
      <trkpt lat="43.77965" lon="3.54255">
        <ele>533</ele>
        <time>2019-01-03T15:04:06Z</time>
      </trkpt>
      <trkpt lat="43.77963" lon="3.54259">
        <ele>533</ele>
        <time>2019-01-03T15:04:06Z</time>
      </trkpt>
      <trkpt lat="43.77962" lon="3.54265">
        <ele>533</ele>
        <time>2019-01-03T15:04:06Z</time>
      </trkpt>
      <trkpt lat="43.77962" lon="3.54272">
        <ele>533</ele>
        <time>2019-01-03T15:04:06Z</time>
      </trkpt>
      <trkpt lat="43.77962" lon="3.54279">
        <ele>533</ele>
        <time>2019-01-03T15:04:22Z</time>
      </trkpt>
      <trkpt lat="43.77963" lon="3.54286">
        <ele>533</ele>
        <time>2019-01-03T15:04:22Z</time>
      </trkpt>
      <trkpt lat="43.77964" lon="3.54293">
        <ele>531</ele>
        <time>2019-01-03T15:04:22Z</time>
      </trkpt>
      <trkpt lat="43.77966" lon="3.543">
        <ele>531</ele>
        <time>2019-01-03T15:04:22Z</time>
      </trkpt>
      <trkpt lat="43.77967" lon="3.54308">
        <ele>531</ele>
        <time>2019-01-03T15:04:38Z</time>
      </trkpt>
      <trkpt lat="43.7797" lon="3.54312">
        <ele>531</ele>
        <time>2019-01-03T15:04:38Z</time>
      </trkpt>
      <trkpt lat="43.77972" lon="3.54317">
        <ele>531</ele>
        <time>2019-01-03T15:04:38Z</time>
      </trkpt>
      <trkpt lat="43.77974" lon="3.54323">
        <ele>531</ele>
        <time>2019-01-03T15:04:38Z</time>
      </trkpt>
      <trkpt lat="43.77976" lon="3.54328">
        <ele>531</ele>
        <time>2019-01-03T15:04:54Z</time>
      </trkpt>
      <trkpt lat="43.77977" lon="3.54334">
        <ele>531</ele>
        <time>2019-01-03T15:04:54Z</time>
      </trkpt>
      <trkpt lat="43.77978" lon="3.5434">
        <ele>531</ele>
        <time>2019-01-03T15:04:54Z</time>
      </trkpt>
      <trkpt lat="43.7798" lon="3.54345">
        <ele>531</ele>
        <time>2019-01-03T15:04:54Z</time>
      </trkpt>
      <trkpt lat="43.77982" lon="3.54351">
        <ele>531</ele>
        <time>2019-01-03T15:05:10Z</time>
      </trkpt>
      <trkpt lat="43.77983" lon="3.54357">
        <ele>531</ele>
        <time>2019-01-03T15:05:10Z</time>
      </trkpt>
      <trkpt lat="43.77986" lon="3.54363">
        <ele>531</ele>
        <time>2019-01-03T15:05:10Z</time>
      </trkpt>
      <trkpt lat="43.77987" lon="3.54368">
        <ele>531</ele>
        <time>2019-01-03T15:05:10Z</time>
      </trkpt>
      <trkpt lat="43.77987" lon="3.54373">
        <ele>531</ele>
        <time>2019-01-03T15:05:26Z</time>
      </trkpt>
      <trkpt lat="43.77988" lon="3.54379">
        <ele>535</ele>
        <time>2019-01-03T15:05:26Z</time>
      </trkpt>
      <trkpt lat="43.77989" lon="3.54385">
        <ele>535</ele>
        <time>2019-01-03T15:05:26Z</time>
      </trkpt>
      <trkpt lat="43.7799" lon="3.54393">
        <ele>535</ele>
        <time>2019-01-03T15:05:26Z</time>
      </trkpt>
      <trkpt lat="43.77991" lon="3.54399">
        <ele>535</ele>
        <time>2019-01-03T15:05:42Z</time>
      </trkpt>
      <trkpt lat="43.77992" lon="3.54403">
        <ele>535</ele>
        <time>2019-01-03T15:05:42Z</time>
      </trkpt>
      <trkpt lat="43.77994" lon="3.54409">
        <ele>535</ele>
        <time>2019-01-03T15:05:42Z</time>
      </trkpt>
      <trkpt lat="43.77994" lon="3.54414">
        <ele>535</ele>
        <time>2019-01-03T15:05:42Z</time>
      </trkpt>
      <trkpt lat="43.77996" lon="3.54417">
        <ele>535</ele>
        <time>2019-01-03T15:05:58Z</time>
      </trkpt>
      <trkpt lat="43.77999" lon="3.54423">
        <ele>535</ele>
        <time>2019-01-03T15:05:58Z</time>
      </trkpt>
      <trkpt lat="43.78002" lon="3.54429">
        <ele>535</ele>
        <time>2019-01-03T15:05:58Z</time>
      </trkpt>
      <trkpt lat="43.78004" lon="3.54433">
        <ele>535</ele>
        <time>2019-01-03T15:05:58Z</time>
      </trkpt>
      <trkpt lat="43.78007" lon="3.54438">
        <ele>535</ele>
        <time>2019-01-03T15:06:14Z</time>
      </trkpt>
      <trkpt lat="43.78011" lon="3.54441">
        <ele>535</ele>
        <time>2019-01-03T15:06:14Z</time>
      </trkpt>
      <trkpt lat="43.78013" lon="3.54446">
        <ele>535</ele>
        <time>2019-01-03T15:06:14Z</time>
      </trkpt>
      <trkpt lat="43.78016" lon="3.54449">
        <ele>535</ele>
        <time>2019-01-03T15:06:14Z</time>
      </trkpt>
      <trkpt lat="43.78019" lon="3.54452">
        <ele>535</ele>
        <time>2019-01-03T15:06:30Z</time>
      </trkpt>
      <trkpt lat="43.78023" lon="3.54454">
        <ele>535</ele>
        <time>2019-01-03T15:06:30Z</time>
      </trkpt>
      <trkpt lat="43.78027" lon="3.54454">
        <ele>535</ele>
        <time>2019-01-03T15:06:30Z</time>
      </trkpt>
      <trkpt lat="43.78029" lon="3.54449">
        <ele>535</ele>
        <time>2019-01-03T15:06:30Z</time>
      </trkpt>
      <trkpt lat="43.78028" lon="3.54441">
        <ele>535</ele>
        <time>2019-01-03T15:06:46Z</time>
      </trkpt>
      <trkpt lat="43.78026" lon="3.54434">
        <ele>535</ele>
        <time>2019-01-03T15:06:46Z</time>
      </trkpt>
      <trkpt lat="43.78024" lon="3.54429">
        <ele>535</ele>
        <time>2019-01-03T15:06:46Z</time>
      </trkpt>
      <trkpt lat="43.78023" lon="3.54423">
        <ele>535</ele>
        <time>2019-01-03T15:06:46Z</time>
      </trkpt>
      <trkpt lat="43.78022" lon="3.54417">
        <ele>535</ele>
        <time>2019-01-03T15:07:02Z</time>
      </trkpt>
      <trkpt lat="43.78021" lon="3.5441">
        <ele>535</ele>
        <time>2019-01-03T15:07:02Z</time>
      </trkpt>
      <trkpt lat="43.7802" lon="3.54405">
        <ele>535</ele>
        <time>2019-01-03T15:07:02Z</time>
      </trkpt>
      <trkpt lat="43.7802" lon="3.54399">
        <ele>535</ele>
        <time>2019-01-03T15:07:02Z</time>
      </trkpt>
      <trkpt lat="43.7802" lon="3.54393">
        <ele>535</ele>
        <time>2019-01-03T15:07:18Z</time>
      </trkpt>
      <trkpt lat="43.7802" lon="3.54388">
        <ele>535</ele>
        <time>2019-01-03T15:07:18Z</time>
      </trkpt>
      <trkpt lat="43.7802" lon="3.54384">
        <ele>535</ele>
        <time>2019-01-03T15:07:18Z</time>
      </trkpt>
      <trkpt lat="43.78021" lon="3.54378">
        <ele>535</ele>
        <time>2019-01-03T15:07:18Z</time>
      </trkpt>
      <trkpt lat="43.78021" lon="3.54371">
        <ele>531</ele>
        <time>2019-01-03T15:07:34Z</time>
      </trkpt>
      <trkpt lat="43.78022" lon="3.54364">
        <ele>531</ele>
        <time>2019-01-03T15:07:34Z</time>
      </trkpt>
      <trkpt lat="43.78022" lon="3.54357">
        <ele>531</ele>
        <time>2019-01-03T15:07:34Z</time>
      </trkpt>
      <trkpt lat="43.78022" lon="3.5435">
        <ele>531</ele>
        <time>2019-01-03T15:07:34Z</time>
      </trkpt>
      <trkpt lat="43.78022" lon="3.54344">
        <ele>531</ele>
        <time>2019-01-03T15:07:50Z</time>
      </trkpt>
      <trkpt lat="43.78021" lon="3.54338">
        <ele>531</ele>
        <time>2019-01-03T15:07:50Z</time>
      </trkpt>
      <trkpt lat="43.78021" lon="3.54332">
        <ele>531</ele>
        <time>2019-01-03T15:07:50Z</time>
      </trkpt>
      <trkpt lat="43.78022" lon="3.54327">
        <ele>531</ele>
        <time>2019-01-03T15:07:50Z</time>
      </trkpt>
      <trkpt lat="43.78024" lon="3.54322">
        <ele>531</ele>
        <time>2019-01-03T15:08:06Z</time>
      </trkpt>
      <trkpt lat="43.78025" lon="3.54316">
        <ele>531</ele>
        <time>2019-01-03T15:08:06Z</time>
      </trkpt>
      <trkpt lat="43.78026" lon="3.54311">
        <ele>531</ele>
        <time>2019-01-03T15:08:06Z</time>
      </trkpt>
      <trkpt lat="43.78028" lon="3.54306">
        <ele>531</ele>
        <time>2019-01-03T15:08:06Z</time>
      </trkpt>
      <trkpt lat="43.78029" lon="3.54301">
        <ele>531</ele>
        <time>2019-01-03T15:08:22Z</time>
      </trkpt>
      <trkpt lat="43.78031" lon="3.54296">
        <ele>531</ele>
        <time>2019-01-03T15:08:22Z</time>
      </trkpt>
      <trkpt lat="43.78035" lon="3.54292">
        <ele>531</ele>
        <time>2019-01-03T15:08:22Z</time>
      </trkpt>
      <trkpt lat="43.78037" lon="3.5429">
        <ele>533</ele>
        <time>2019-01-03T15:08:22Z</time>
      </trkpt>
      <trkpt lat="43.78038" lon="3.5429">
        <ele>533</ele>
        <time>2019-01-03T15:08:38Z</time>
      </trkpt>
      <trkpt lat="43.78042" lon="3.5429">
        <ele>520</ele>
        <time>2019-01-03T15:08:38Z</time>
      </trkpt>
      <trkpt lat="43.78046" lon="3.54289">
        <ele>520</ele>
        <time>2019-01-03T15:08:38Z</time>
      </trkpt>
      <trkpt lat="43.78048" lon="3.54289">
        <ele>520</ele>
        <time>2019-01-03T15:08:38Z</time>
      </trkpt>
      <trkpt lat="43.78053" lon="3.54291">
        <ele>520</ele>
        <time>2019-01-03T15:08:54Z</time>
      </trkpt>
      <trkpt lat="43.78057" lon="3.54293">
        <ele>509</ele>
        <time>2019-01-03T15:08:54Z</time>
      </trkpt>
      <trkpt lat="43.78061" lon="3.54293">
        <ele>509</ele>
        <time>2019-01-03T15:08:54Z</time>
      </trkpt>
      <trkpt lat="43.78066" lon="3.54292">
        <ele>509</ele>
        <time>2019-01-03T15:08:54Z</time>
      </trkpt>
      <trkpt lat="43.7807" lon="3.54288">
        <ele>520</ele>
        <time>2019-01-03T15:09:10Z</time>
      </trkpt>
      <trkpt lat="43.78074" lon="3.54285">
        <ele>520</ele>
        <time>2019-01-03T15:09:10Z</time>
      </trkpt>
      <trkpt lat="43.78078" lon="3.5428">
        <ele>520</ele>
        <time>2019-01-03T15:09:10Z</time>
      </trkpt>
      <trkpt lat="43.78082" lon="3.54276">
        <ele>520</ele>
        <time>2019-01-03T15:09:10Z</time>
      </trkpt>
      <trkpt lat="43.78088" lon="3.54274">
        <ele>520</ele>
        <time>2019-01-03T15:09:26Z</time>
      </trkpt>
      <trkpt lat="43.78093" lon="3.54275">
        <ele>520</ele>
        <time>2019-01-03T15:09:26Z</time>
      </trkpt>
      <trkpt lat="43.78097" lon="3.54279">
        <ele>520</ele>
        <time>2019-01-03T15:09:26Z</time>
      </trkpt>
      <trkpt lat="43.78099" lon="3.54283">
        <ele>520</ele>
        <time>2019-01-03T15:09:26Z</time>
      </trkpt>
      <trkpt lat="43.78101" lon="3.54286">
        <ele>520</ele>
        <time>2019-01-03T15:09:42Z</time>
      </trkpt>
      <trkpt lat="43.78103" lon="3.54291">
        <ele>520</ele>
        <time>2019-01-03T15:09:42Z</time>
      </trkpt>
      <trkpt lat="43.78105" lon="3.54296">
        <ele>509</ele>
        <time>2019-01-03T15:09:42Z</time>
      </trkpt>
      <trkpt lat="43.78107" lon="3.543">
        <ele>509</ele>
        <time>2019-01-03T15:09:42Z</time>
      </trkpt>
      <trkpt lat="43.78109" lon="3.54306">
        <ele>509</ele>
        <time>2019-01-03T15:09:58Z</time>
      </trkpt>
      <trkpt lat="43.78111" lon="3.54311">
        <ele>509</ele>
        <time>2019-01-03T15:09:58Z</time>
      </trkpt>
      <trkpt lat="43.78114" lon="3.54316">
        <ele>509</ele>
        <time>2019-01-03T15:09:58Z</time>
      </trkpt>
      <trkpt lat="43.78116" lon="3.54322">
        <ele>509</ele>
        <time>2019-01-03T15:09:58Z</time>
      </trkpt>
      <trkpt lat="43.78118" lon="3.54327">
        <ele>509</ele>
        <time>2019-01-03T15:10:14Z</time>
      </trkpt>
      <trkpt lat="43.7812" lon="3.54333">
        <ele>509</ele>
        <time>2019-01-03T15:10:14Z</time>
      </trkpt>
      <trkpt lat="43.78122" lon="3.54338">
        <ele>509</ele>
        <time>2019-01-03T15:10:14Z</time>
      </trkpt>
      <trkpt lat="43.78124" lon="3.54344">
        <ele>509</ele>
        <time>2019-01-03T15:10:14Z</time>
      </trkpt>
      <trkpt lat="43.78126" lon="3.54349">
        <ele>519</ele>
        <time>2019-01-03T15:10:30Z</time>
      </trkpt>
      <trkpt lat="43.78128" lon="3.54355">
        <ele>519</ele>
        <time>2019-01-03T15:10:30Z</time>
      </trkpt>
      <trkpt lat="43.7813" lon="3.5436">
        <ele>519</ele>
        <time>2019-01-03T15:10:30Z</time>
      </trkpt>
      <trkpt lat="43.78132" lon="3.54363">
        <ele>519</ele>
        <time>2019-01-03T15:10:30Z</time>
      </trkpt>
      <trkpt lat="43.78134" lon="3.54366">
        <ele>519</ele>
        <time>2019-01-03T15:10:46Z</time>
      </trkpt>
      <trkpt lat="43.78137" lon="3.54371">
        <ele>519</ele>
        <time>2019-01-03T15:10:46Z</time>
      </trkpt>
      <trkpt lat="43.78139" lon="3.54375">
        <ele>505</ele>
        <time>2019-01-03T15:10:46Z</time>
      </trkpt>
      <trkpt lat="43.78142" lon="3.54378">
        <ele>505</ele>
        <time>2019-01-03T15:10:46Z</time>
      </trkpt>
      <trkpt lat="43.78145" lon="3.54382">
        <ele>505</ele>
        <time>2019-01-03T15:11:02Z</time>
      </trkpt>
      <trkpt lat="43.78147" lon="3.54388">
        <ele>505</ele>
        <time>2019-01-03T15:11:02Z</time>
      </trkpt>
      <trkpt lat="43.78151" lon="3.54394">
        <ele>505</ele>
        <time>2019-01-03T15:11:02Z</time>
      </trkpt>
      <trkpt lat="43.78153" lon="3.54399">
        <ele>505</ele>
        <time>2019-01-03T15:11:02Z</time>
      </trkpt>
      <trkpt lat="43.78156" lon="3.54403">
        <ele>505</ele>
        <time>2019-01-03T15:11:18Z</time>
      </trkpt>
      <trkpt lat="43.78158" lon="3.54408">
        <ele>505</ele>
        <time>2019-01-03T15:11:18Z</time>
      </trkpt>
      <trkpt lat="43.78161" lon="3.54412">
        <ele>505</ele>
        <time>2019-01-03T15:11:18Z</time>
      </trkpt>
      <trkpt lat="43.78164" lon="3.54417">
        <ele>505</ele>
        <time>2019-01-03T15:11:18Z</time>
      </trkpt>
      <trkpt lat="43.78167" lon="3.54421">
        <ele>505</ele>
        <time>2019-01-03T15:11:34Z</time>
      </trkpt>
      <trkpt lat="43.7817" lon="3.54425">
        <ele>505</ele>
        <time>2019-01-03T15:11:34Z</time>
      </trkpt>
      <trkpt lat="43.78173" lon="3.54429">
        <ele>505</ele>
        <time>2019-01-03T15:11:34Z</time>
      </trkpt>
      <trkpt lat="43.78177" lon="3.54434">
        <ele>505</ele>
        <time>2019-01-03T15:11:34Z</time>
      </trkpt>
      <trkpt lat="43.7818" lon="3.54439">
        <ele>505</ele>
        <time>2019-01-03T15:11:50Z</time>
      </trkpt>
      <trkpt lat="43.78183" lon="3.54445">
        <ele>505</ele>
        <time>2019-01-03T15:11:50Z</time>
      </trkpt>
      <trkpt lat="43.78186" lon="3.5445">
        <ele>505</ele>
        <time>2019-01-03T15:11:50Z</time>
      </trkpt>
      <trkpt lat="43.7819" lon="3.54454">
        <ele>505</ele>
        <time>2019-01-03T15:11:50Z</time>
      </trkpt>
      <trkpt lat="43.78192" lon="3.5446">
        <ele>493</ele>
        <time>2019-01-03T15:12:06Z</time>
      </trkpt>
      <trkpt lat="43.78196" lon="3.54463">
        <ele>493</ele>
        <time>2019-01-03T15:12:06Z</time>
      </trkpt>
      <trkpt lat="43.78199" lon="3.54466">
        <ele>493</ele>
        <time>2019-01-03T15:12:06Z</time>
      </trkpt>
      <trkpt lat="43.78203" lon="3.5447">
        <ele>493</ele>
        <time>2019-01-03T15:12:06Z</time>
      </trkpt>
      <trkpt lat="43.78206" lon="3.54474">
        <ele>493</ele>
        <time>2019-01-03T15:12:22Z</time>
      </trkpt>
      <trkpt lat="43.78209" lon="3.54479">
        <ele>498</ele>
        <time>2019-01-03T15:12:22Z</time>
      </trkpt>
      <trkpt lat="43.78212" lon="3.54483">
        <ele>498</ele>
        <time>2019-01-03T15:12:22Z</time>
      </trkpt>
      <trkpt lat="43.78216" lon="3.54487">
        <ele>498</ele>
        <time>2019-01-03T15:12:22Z</time>
      </trkpt>
      <trkpt lat="43.7822" lon="3.54492">
        <ele>498</ele>
        <time>2019-01-03T15:12:38Z</time>
      </trkpt>
      <trkpt lat="43.78224" lon="3.54497">
        <ele>498</ele>
        <time>2019-01-03T15:12:38Z</time>
      </trkpt>
      <trkpt lat="43.78228" lon="3.545">
        <ele>498</ele>
        <time>2019-01-03T15:12:38Z</time>
      </trkpt>
      <trkpt lat="43.78232" lon="3.54503">
        <ele>498</ele>
        <time>2019-01-03T15:12:38Z</time>
      </trkpt>
      <trkpt lat="43.78235" lon="3.54506">
        <ele>498</ele>
        <time>2019-01-03T15:12:54Z</time>
      </trkpt>
      <trkpt lat="43.78238" lon="3.5451">
        <ele>498</ele>
        <time>2019-01-03T15:12:54Z</time>
      </trkpt>
      <trkpt lat="43.78242" lon="3.54513">
        <ele>498</ele>
        <time>2019-01-03T15:12:54Z</time>
      </trkpt>
      <trkpt lat="43.78245" lon="3.54517">
        <ele>498</ele>
        <time>2019-01-03T15:12:54Z</time>
      </trkpt>
      <trkpt lat="43.78248" lon="3.5452">
        <ele>498</ele>
        <time>2019-01-03T15:13:10Z</time>
      </trkpt>
      <trkpt lat="43.78252" lon="3.54524">
        <ele>498</ele>
        <time>2019-01-03T15:13:10Z</time>
      </trkpt>
      <trkpt lat="43.78254" lon="3.54529">
        <ele>498</ele>
        <time>2019-01-03T15:13:10Z</time>
      </trkpt>
      <trkpt lat="43.78257" lon="3.54534">
        <ele>498</ele>
        <time>2019-01-03T15:13:10Z</time>
      </trkpt>
      <trkpt lat="43.7826" lon="3.54538">
        <ele>498</ele>
        <time>2019-01-03T15:13:26Z</time>
      </trkpt>
      <trkpt lat="43.78264" lon="3.54543">
        <ele>486</ele>
        <time>2019-01-03T15:13:26Z</time>
      </trkpt>
      <trkpt lat="43.78266" lon="3.54549">
        <ele>486</ele>
        <time>2019-01-03T15:13:26Z</time>
      </trkpt>
      <trkpt lat="43.78268" lon="3.54554">
        <ele>486</ele>
        <time>2019-01-03T15:13:26Z</time>
      </trkpt>
      <trkpt lat="43.78269" lon="3.54558">
        <ele>486</ele>
        <time>2019-01-03T15:13:42Z</time>
      </trkpt>
      <trkpt lat="43.78273" lon="3.54563">
        <ele>486</ele>
        <time>2019-01-03T15:13:42Z</time>
      </trkpt>
      <trkpt lat="43.78276" lon="3.54567">
        <ele>486</ele>
        <time>2019-01-03T15:13:42Z</time>
      </trkpt>
      <trkpt lat="43.78279" lon="3.54572">
        <ele>486</ele>
        <time>2019-01-03T15:13:42Z</time>
      </trkpt>
      <trkpt lat="43.78283" lon="3.54576">
        <ele>486</ele>
        <time>2019-01-03T15:13:58Z</time>
      </trkpt>
      <trkpt lat="43.78287" lon="3.54582">
        <ele>486</ele>
        <time>2019-01-03T15:13:58Z</time>
      </trkpt>
      <trkpt lat="43.7829" lon="3.54586">
        <ele>486</ele>
        <time>2019-01-03T15:13:58Z</time>
      </trkpt>
      <trkpt lat="43.78293" lon="3.5459">
        <ele>497</ele>
        <time>2019-01-03T15:13:58Z</time>
      </trkpt>
      <trkpt lat="43.78296" lon="3.54593">
        <ele>497</ele>
        <time>2019-01-03T15:14:14Z</time>
      </trkpt>
      <trkpt lat="43.78298" lon="3.54598">
        <ele>497</ele>
        <time>2019-01-03T15:14:14Z</time>
      </trkpt>
      <trkpt lat="43.78301" lon="3.54603">
        <ele>497</ele>
        <time>2019-01-03T15:14:14Z</time>
      </trkpt>
      <trkpt lat="43.78304" lon="3.54608">
        <ele>497</ele>
        <time>2019-01-03T15:14:14Z</time>
      </trkpt>
      <trkpt lat="43.78307" lon="3.54611">
        <ele>497</ele>
        <time>2019-01-03T15:14:30Z</time>
      </trkpt>
      <trkpt lat="43.78311" lon="3.54615">
        <ele>497</ele>
        <time>2019-01-03T15:14:30Z</time>
      </trkpt>
      <trkpt lat="43.78315" lon="3.54618">
        <ele>497</ele>
        <time>2019-01-03T15:14:30Z</time>
      </trkpt>
      <trkpt lat="43.78319" lon="3.54621">
        <ele>497</ele>
        <time>2019-01-03T15:14:30Z</time>
      </trkpt>
      <trkpt lat="43.78322" lon="3.54625">
        <ele>497</ele>
        <time>2019-01-03T15:14:46Z</time>
      </trkpt>
      <trkpt lat="43.78325" lon="3.54629">
        <ele>481</ele>
        <time>2019-01-03T15:14:46Z</time>
      </trkpt>
      <trkpt lat="43.7833" lon="3.54632">
        <ele>481</ele>
        <time>2019-01-03T15:14:46Z</time>
      </trkpt>
      <trkpt lat="43.78333" lon="3.54636">
        <ele>481</ele>
        <time>2019-01-03T15:14:46Z</time>
      </trkpt>
      <trkpt lat="43.78337" lon="3.5464">
        <ele>481</ele>
        <time>2019-01-03T15:15:02Z</time>
      </trkpt>
      <trkpt lat="43.7834" lon="3.54645">
        <ele>481</ele>
        <time>2019-01-03T15:15:02Z</time>
      </trkpt>
      <trkpt lat="43.78344" lon="3.54649">
        <ele>481</ele>
        <time>2019-01-03T15:15:02Z</time>
      </trkpt>
      <trkpt lat="43.78347" lon="3.54653">
        <ele>481</ele>
        <time>2019-01-03T15:15:02Z</time>
      </trkpt>
      <trkpt lat="43.78351" lon="3.54656">
        <ele>481</ele>
        <time>2019-01-03T15:15:18Z</time>
      </trkpt>
      <trkpt lat="43.78354" lon="3.5466">
        <ele>481</ele>
        <time>2019-01-03T15:15:18Z</time>
      </trkpt>
      <trkpt lat="43.78358" lon="3.54664">
        <ele>481</ele>
        <time>2019-01-03T15:15:18Z</time>
      </trkpt>
      <trkpt lat="43.78362" lon="3.54667">
        <ele>481</ele>
        <time>2019-01-03T15:15:18Z</time>
      </trkpt>
      <trkpt lat="43.78365" lon="3.5467">
        <ele>481</ele>
        <time>2019-01-03T15:15:34Z</time>
      </trkpt>
      <trkpt lat="43.78369" lon="3.54675">
        <ele>481</ele>
        <time>2019-01-03T15:15:34Z</time>
      </trkpt>
      <trkpt lat="43.78371" lon="3.54681">
        <ele>481</ele>
        <time>2019-01-03T15:15:34Z</time>
      </trkpt>
      <trkpt lat="43.78375" lon="3.54686">
        <ele>491</ele>
        <time>2019-01-03T15:15:34Z</time>
      </trkpt>
      <trkpt lat="43.78379" lon="3.54691">
        <ele>491</ele>
        <time>2019-01-03T15:15:50Z</time>
      </trkpt>
      <trkpt lat="43.78382" lon="3.54694">
        <ele>491</ele>
        <time>2019-01-03T15:15:50Z</time>
      </trkpt>
      <trkpt lat="43.78384" lon="3.54697">
        <ele>491</ele>
        <time>2019-01-03T15:15:50Z</time>
      </trkpt>
      <trkpt lat="43.78387" lon="3.54699">
        <ele>491</ele>
        <time>2019-01-03T15:15:50Z</time>
      </trkpt>
      <trkpt lat="43.7839" lon="3.54703">
        <ele>491</ele>
        <time>2019-01-03T15:16:06Z</time>
      </trkpt>
      <trkpt lat="43.78394" lon="3.54708">
        <ele>491</ele>
        <time>2019-01-03T15:16:06Z</time>
      </trkpt>
      <trkpt lat="43.78397" lon="3.54713">
        <ele>474</ele>
        <time>2019-01-03T15:16:06Z</time>
      </trkpt>
      <trkpt lat="43.78401" lon="3.54716">
        <ele>474</ele>
        <time>2019-01-03T15:16:06Z</time>
      </trkpt>
      <trkpt lat="43.78404" lon="3.5472">
        <ele>474</ele>
        <time>2019-01-03T15:16:22Z</time>
      </trkpt>
      <trkpt lat="43.78407" lon="3.54726">
        <ele>474</ele>
        <time>2019-01-03T15:16:22Z</time>
      </trkpt>
      <trkpt lat="43.78409" lon="3.5473">
        <ele>474</ele>
        <time>2019-01-03T15:16:22Z</time>
      </trkpt>
      <trkpt lat="43.78413" lon="3.54734">
        <ele>474</ele>
        <time>2019-01-03T15:16:22Z</time>
      </trkpt>
      <trkpt lat="43.78416" lon="3.54738">
        <ele>474</ele>
        <time>2019-01-03T15:16:38Z</time>
      </trkpt>
      <trkpt lat="43.7842" lon="3.54742">
        <ele>474</ele>
        <time>2019-01-03T15:16:38Z</time>
      </trkpt>
      <trkpt lat="43.78424" lon="3.54744">
        <ele>474</ele>
        <time>2019-01-03T15:16:38Z</time>
      </trkpt>
      <trkpt lat="43.78427" lon="3.54748">
        <ele>474</ele>
        <time>2019-01-03T15:16:38Z</time>
      </trkpt>
      <trkpt lat="43.7843" lon="3.54753">
        <ele>474</ele>
        <time>2019-01-03T15:16:54Z</time>
      </trkpt>
      <trkpt lat="43.78434" lon="3.54759">
        <ele>474</ele>
        <time>2019-01-03T15:16:54Z</time>
      </trkpt>
      <trkpt lat="43.78437" lon="3.54763">
        <ele>474</ele>
        <time>2019-01-03T15:16:54Z</time>
      </trkpt>
      <trkpt lat="43.78441" lon="3.54768">
        <ele>474</ele>
        <time>2019-01-03T15:16:54Z</time>
      </trkpt>
      <trkpt lat="43.78444" lon="3.54772">
        <ele>474</ele>
        <time>2019-01-03T15:17:10Z</time>
      </trkpt>
      <trkpt lat="43.78447" lon="3.54776">
        <ele>474</ele>
        <time>2019-01-03T15:17:10Z</time>
      </trkpt>
      <trkpt lat="43.78449" lon="3.5478">
        <ele>474</ele>
        <time>2019-01-03T15:17:10Z</time>
      </trkpt>
      <trkpt lat="43.78452" lon="3.54784">
        <ele>474</ele>
        <time>2019-01-03T15:17:10Z</time>
      </trkpt>
      <trkpt lat="43.78455" lon="3.54788">
        <ele>474</ele>
        <time>2019-01-03T15:17:26Z</time>
      </trkpt>
      <trkpt lat="43.78458" lon="3.54792">
        <ele>465</ele>
        <time>2019-01-03T15:17:26Z</time>
      </trkpt>
      <trkpt lat="43.78462" lon="3.54797">
        <ele>475</ele>
        <time>2019-01-03T15:17:26Z</time>
      </trkpt>
      <trkpt lat="43.78465" lon="3.54801">
        <ele>475</ele>
        <time>2019-01-03T15:17:26Z</time>
      </trkpt>
      <trkpt lat="43.78469" lon="3.54804">
        <ele>475</ele>
        <time>2019-01-03T15:17:42Z</time>
      </trkpt>
      <trkpt lat="43.78473" lon="3.54807">
        <ele>475</ele>
        <time>2019-01-03T15:17:42Z</time>
      </trkpt>
      <trkpt lat="43.78476" lon="3.5481">
        <ele>475</ele>
        <time>2019-01-03T15:17:42Z</time>
      </trkpt>
      <trkpt lat="43.78481" lon="3.54811">
        <ele>475</ele>
        <time>2019-01-03T15:17:42Z</time>
      </trkpt>
      <trkpt lat="43.78484" lon="3.54814">
        <ele>475</ele>
        <time>2019-01-03T15:18:14Z</time>
      </trkpt>
      <trkpt lat="43.78488" lon="3.54817">
        <ele>475</ele>
        <time>2019-01-03T15:18:14Z</time>
      </trkpt>
      <trkpt lat="43.7849" lon="3.54818">
        <ele>475</ele>
        <time>2019-01-03T15:18:14Z</time>
      </trkpt>
      <trkpt lat="43.78491" lon="3.54826">
        <ele>475</ele>
        <time>2019-01-03T15:18:14Z</time>
      </trkpt>
      <trkpt lat="43.78491" lon="3.54831">
        <ele>475</ele>
        <time>2019-01-03T15:18:30Z</time>
      </trkpt>
      <trkpt lat="43.78493" lon="3.54836">
        <ele>475</ele>
        <time>2019-01-03T15:18:30Z</time>
      </trkpt>
      <trkpt lat="43.78494" lon="3.54839">
        <ele>475</ele>
        <time>2019-01-03T15:18:30Z</time>
      </trkpt>
      <trkpt lat="43.78496" lon="3.54842">
        <ele>475</ele>
        <time>2019-01-03T15:18:30Z</time>
      </trkpt>
      <trkpt lat="43.78498" lon="3.54845">
        <ele>475</ele>
        <time>2019-01-03T15:18:46Z</time>
      </trkpt>
      <trkpt lat="43.785" lon="3.54851">
        <ele>475</ele>
        <time>2019-01-03T15:18:46Z</time>
      </trkpt>
      <trkpt lat="43.78502" lon="3.54855">
        <ele>475</ele>
        <time>2019-01-03T15:18:46Z</time>
      </trkpt>
      <trkpt lat="43.78504" lon="3.54861">
        <ele>475</ele>
        <time>2019-01-03T15:18:46Z</time>
      </trkpt>
      <trkpt lat="43.78505" lon="3.54867">
        <ele>475</ele>
        <time>2019-01-03T15:19:02Z</time>
      </trkpt>
      <trkpt lat="43.78507" lon="3.54872">
        <ele>475</ele>
        <time>2019-01-03T15:19:02Z</time>
      </trkpt>
      <trkpt lat="43.7851" lon="3.54878">
        <ele>460</ele>
        <time>2019-01-03T15:19:02Z</time>
      </trkpt>
      <trkpt lat="43.78512" lon="3.54885">
        <ele>460</ele>
        <time>2019-01-03T15:19:02Z</time>
      </trkpt>
      <trkpt lat="43.78514" lon="3.5489">
        <ele>460</ele>
        <time>2019-01-03T15:19:18Z</time>
      </trkpt>
      <trkpt lat="43.78516" lon="3.54896">
        <ele>460</ele>
        <time>2019-01-03T15:19:18Z</time>
      </trkpt>
      <trkpt lat="43.78517" lon="3.54901">
        <ele>460</ele>
        <time>2019-01-03T15:19:18Z</time>
      </trkpt>
      <trkpt lat="43.78519" lon="3.54907">
        <ele>460</ele>
        <time>2019-01-03T15:19:18Z</time>
      </trkpt>
      <trkpt lat="43.78521" lon="3.54913">
        <ele>460</ele>
        <time>2019-01-03T15:19:34Z</time>
      </trkpt>
      <trkpt lat="43.78524" lon="3.54918">
        <ele>460</ele>
        <time>2019-01-03T15:19:34Z</time>
      </trkpt>
      <trkpt lat="43.78526" lon="3.54924">
        <ele>460</ele>
        <time>2019-01-03T15:19:34Z</time>
      </trkpt>
      <trkpt lat="43.78528" lon="3.5493">
        <ele>460</ele>
        <time>2019-01-03T15:19:34Z</time>
      </trkpt>
      <trkpt lat="43.78531" lon="3.54936">
        <ele>460</ele>
        <time>2019-01-03T15:19:50Z</time>
      </trkpt>
      <trkpt lat="43.78533" lon="3.54942">
        <ele>460</ele>
        <time>2019-01-03T15:19:50Z</time>
      </trkpt>
      <trkpt lat="43.78535" lon="3.54947">
        <ele>460</ele>
        <time>2019-01-03T15:19:50Z</time>
      </trkpt>
      <trkpt lat="43.78538" lon="3.54953">
        <ele>460</ele>
        <time>2019-01-03T15:19:50Z</time>
      </trkpt>
      <trkpt lat="43.78541" lon="3.54959">
        <ele>451</ele>
        <time>2019-01-03T15:20:06Z</time>
      </trkpt>
      <trkpt lat="43.78543" lon="3.54964">
        <ele>464</ele>
        <time>2019-01-03T15:20:06Z</time>
      </trkpt>
      <trkpt lat="43.78546" lon="3.54969">
        <ele>464</ele>
        <time>2019-01-03T15:20:06Z</time>
      </trkpt>
      <trkpt lat="43.78547" lon="3.54974">
        <ele>464</ele>
        <time>2019-01-03T15:20:06Z</time>
      </trkpt>
      <trkpt lat="43.78549" lon="3.54979">
        <ele>464</ele>
        <time>2019-01-03T15:20:22Z</time>
      </trkpt>
      <trkpt lat="43.78552" lon="3.54984">
        <ele>464</ele>
        <time>2019-01-03T15:20:22Z</time>
      </trkpt>
      <trkpt lat="43.78555" lon="3.54989">
        <ele>464</ele>
        <time>2019-01-03T15:20:22Z</time>
      </trkpt>
      <trkpt lat="43.78558" lon="3.54994">
        <ele>464</ele>
        <time>2019-01-03T15:20:22Z</time>
      </trkpt>
      <trkpt lat="43.78563" lon="3.54998">
        <ele>464</ele>
        <time>2019-01-03T15:20:38Z</time>
      </trkpt>
      <trkpt lat="43.78567" lon="3.55002">
        <ele>464</ele>
        <time>2019-01-03T15:20:38Z</time>
      </trkpt>
      <trkpt lat="43.7857" lon="3.55007">
        <ele>464</ele>
        <time>2019-01-03T15:20:38Z</time>
      </trkpt>
      <trkpt lat="43.78573" lon="3.55012">
        <ele>464</ele>
        <time>2019-01-03T15:20:38Z</time>
      </trkpt>
      <trkpt lat="43.78576" lon="3.55018">
        <ele>464</ele>
        <time>2019-01-03T15:20:54Z</time>
      </trkpt>
      <trkpt lat="43.78579" lon="3.55021">
        <ele>464</ele>
        <time>2019-01-03T15:20:54Z</time>
      </trkpt>
      <trkpt lat="43.78582" lon="3.55025">
        <ele>464</ele>
        <time>2019-01-03T15:20:54Z</time>
      </trkpt>
      <trkpt lat="43.78584" lon="3.5503">
        <ele>464</ele>
        <time>2019-01-03T15:20:54Z</time>
      </trkpt>
      <trkpt lat="43.78587" lon="3.55034">
        <ele>464</ele>
        <time>2019-01-03T15:21:10Z</time>
      </trkpt>
      <trkpt lat="43.78592" lon="3.55037">
        <ele>464</ele>
        <time>2019-01-03T15:21:10Z</time>
      </trkpt>
      <trkpt lat="43.78595" lon="3.55041">
        <ele>464</ele>
        <time>2019-01-03T15:21:10Z</time>
      </trkpt>
      <trkpt lat="43.786" lon="3.55045">
        <ele>442</ele>
        <time>2019-01-03T15:21:10Z</time>
      </trkpt>
      <trkpt lat="43.78604" lon="3.55047">
        <ele>442</ele>
        <time>2019-01-03T15:21:26Z</time>
      </trkpt>
      <trkpt lat="43.78609" lon="3.5505">
        <ele>442</ele>
        <time>2019-01-03T15:21:26Z</time>
      </trkpt>
      <trkpt lat="43.78612" lon="3.55055">
        <ele>442</ele>
        <time>2019-01-03T15:21:26Z</time>
      </trkpt>
      <trkpt lat="43.78616" lon="3.55059">
        <ele>442</ele>
        <time>2019-01-03T15:21:26Z</time>
      </trkpt>
      <trkpt lat="43.78619" lon="3.55064">
        <ele>442</ele>
        <time>2019-01-03T15:21:42Z</time>
      </trkpt>
      <trkpt lat="43.78622" lon="3.55068">
        <ele>442</ele>
        <time>2019-01-03T15:21:42Z</time>
      </trkpt>
      <trkpt lat="43.78624" lon="3.55073">
        <ele>442</ele>
        <time>2019-01-03T15:21:42Z</time>
      </trkpt>
      <trkpt lat="43.78627" lon="3.55079">
        <ele>468</ele>
        <time>2019-01-03T15:21:42Z</time>
      </trkpt>
      <trkpt lat="43.7863" lon="3.55082">
        <ele>468</ele>
        <time>2019-01-03T15:21:58Z</time>
      </trkpt>
      <trkpt lat="43.78634" lon="3.55086">
        <ele>468</ele>
        <time>2019-01-03T15:21:58Z</time>
      </trkpt>
      <trkpt lat="43.78638" lon="3.55089">
        <ele>468</ele>
        <time>2019-01-03T15:21:58Z</time>
      </trkpt>
      <trkpt lat="43.78641" lon="3.55093">
        <ele>468</ele>
        <time>2019-01-03T15:21:58Z</time>
      </trkpt>
      <trkpt lat="43.78645" lon="3.55097">
        <ele>468</ele>
        <time>2019-01-03T15:22:14Z</time>
      </trkpt>
      <trkpt lat="43.78647" lon="3.55101">
        <ele>468</ele>
        <time>2019-01-03T15:22:14Z</time>
      </trkpt>
      <trkpt lat="43.7865" lon="3.55106">
        <ele>468</ele>
        <time>2019-01-03T15:22:14Z</time>
      </trkpt>
      <trkpt lat="43.78653" lon="3.55112">
        <ele>468</ele>
        <time>2019-01-03T15:22:14Z</time>
      </trkpt>
      <trkpt lat="43.78657" lon="3.55118">
        <ele>468</ele>
        <time>2019-01-03T15:22:30Z</time>
      </trkpt>
      <trkpt lat="43.78661" lon="3.55122">
        <ele>468</ele>
        <time>2019-01-03T15:22:30Z</time>
      </trkpt>
      <trkpt lat="43.78665" lon="3.55126">
        <ele>450</ele>
        <time>2019-01-03T15:22:30Z</time>
      </trkpt>
      <trkpt lat="43.78668" lon="3.55131">
        <ele>450</ele>
        <time>2019-01-03T15:22:30Z</time>
      </trkpt>
      <trkpt lat="43.78671" lon="3.55135">
        <ele>450</ele>
        <time>2019-01-03T15:22:46Z</time>
      </trkpt>
      <trkpt lat="43.78674" lon="3.55141">
        <ele>450</ele>
        <time>2019-01-03T15:22:46Z</time>
      </trkpt>
      <trkpt lat="43.78677" lon="3.55147">
        <ele>450</ele>
        <time>2019-01-03T15:22:46Z</time>
      </trkpt>
      <trkpt lat="43.7868" lon="3.55152">
        <ele>450</ele>
        <time>2019-01-03T15:22:46Z</time>
      </trkpt>
      <trkpt lat="43.78683" lon="3.55158">
        <ele>450</ele>
        <time>2019-01-03T15:23:02Z</time>
      </trkpt>
      <trkpt lat="43.78684" lon="3.55164">
        <ele>450</ele>
        <time>2019-01-03T15:23:02Z</time>
      </trkpt>
      <trkpt lat="43.78685" lon="3.5517">
        <ele>450</ele>
        <time>2019-01-03T15:23:02Z</time>
      </trkpt>
      <trkpt lat="43.78686" lon="3.55176">
        <ele>450</ele>
        <time>2019-01-03T15:23:02Z</time>
      </trkpt>
      <trkpt lat="43.78688" lon="3.55181">
        <ele>450</ele>
        <time>2019-01-03T15:23:18Z</time>
      </trkpt>
      <trkpt lat="43.7869" lon="3.55186">
        <ele>450</ele>
        <time>2019-01-03T15:23:18Z</time>
      </trkpt>
      <trkpt lat="43.78693" lon="3.55191">
        <ele>450</ele>
        <time>2019-01-03T15:23:18Z</time>
      </trkpt>
      <trkpt lat="43.78696" lon="3.55197">
        <ele>450</ele>
        <time>2019-01-03T15:23:18Z</time>
      </trkpt>
      <trkpt lat="43.78698" lon="3.55203">
        <ele>450</ele>
        <time>2019-01-03T15:23:34Z</time>
      </trkpt>
      <trkpt lat="43.78702" lon="3.55208">
        <ele>450</ele>
        <time>2019-01-03T15:23:34Z</time>
      </trkpt>
      <trkpt lat="43.78705" lon="3.55213">
        <ele>434</ele>
        <time>2019-01-03T15:23:34Z</time>
      </trkpt>
      <trkpt lat="43.78707" lon="3.55218">
        <ele>434</ele>
        <time>2019-01-03T15:23:34Z</time>
      </trkpt>
      <trkpt lat="43.7871" lon="3.55222">
        <ele>461</ele>
        <time>2019-01-03T15:23:50Z</time>
      </trkpt>
      <trkpt lat="43.78713" lon="3.55226">
        <ele>461</ele>
        <time>2019-01-03T15:23:50Z</time>
      </trkpt>
      <trkpt lat="43.78715" lon="3.5523">
        <ele>461</ele>
        <time>2019-01-03T15:23:50Z</time>
      </trkpt>
      <trkpt lat="43.78718" lon="3.55235">
        <ele>461</ele>
        <time>2019-01-03T15:23:50Z</time>
      </trkpt>
      <trkpt lat="43.78719" lon="3.5524">
        <ele>461</ele>
        <time>2019-01-03T15:24:06Z</time>
      </trkpt>
      <trkpt lat="43.78721" lon="3.55245">
        <ele>461</ele>
        <time>2019-01-03T15:24:06Z</time>
      </trkpt>
      <trkpt lat="43.78723" lon="3.5525">
        <ele>461</ele>
        <time>2019-01-03T15:24:06Z</time>
      </trkpt>
      <trkpt lat="43.78725" lon="3.55255">
        <ele>461</ele>
        <time>2019-01-03T15:24:06Z</time>
      </trkpt>
      <trkpt lat="43.78727" lon="3.55261">
        <ele>461</ele>
        <time>2019-01-03T15:24:22Z</time>
      </trkpt>
      <trkpt lat="43.7873" lon="3.55267">
        <ele>461</ele>
        <time>2019-01-03T15:24:22Z</time>
      </trkpt>
      <trkpt lat="43.78732" lon="3.55272">
        <ele>461</ele>
        <time>2019-01-03T15:24:22Z</time>
      </trkpt>
      <trkpt lat="43.78734" lon="3.55277">
        <ele>461</ele>
        <time>2019-01-03T15:24:22Z</time>
      </trkpt>
      <trkpt lat="43.78735" lon="3.55282">
        <ele>461</ele>
        <time>2019-01-03T15:24:38Z</time>
      </trkpt>
      <trkpt lat="43.78737" lon="3.55287">
        <ele>461</ele>
        <time>2019-01-03T15:24:38Z</time>
      </trkpt>
      <trkpt lat="43.7874" lon="3.55293">
        <ele>441</ele>
        <time>2019-01-03T15:24:38Z</time>
      </trkpt>
      <trkpt lat="43.78743" lon="3.55299">
        <ele>441</ele>
        <time>2019-01-03T15:24:38Z</time>
      </trkpt>
      <trkpt lat="43.78746" lon="3.55303">
        <ele>441</ele>
        <time>2019-01-03T15:24:54Z</time>
      </trkpt>
      <trkpt lat="43.78748" lon="3.55307">
        <ele>441</ele>
        <time>2019-01-03T15:24:54Z</time>
      </trkpt>
      <trkpt lat="43.78751" lon="3.55311">
        <ele>441</ele>
        <time>2019-01-03T15:24:54Z</time>
      </trkpt>
      <trkpt lat="43.78753" lon="3.55316">
        <ele>441</ele>
        <time>2019-01-03T15:24:54Z</time>
      </trkpt>
      <trkpt lat="43.78756" lon="3.55321">
        <ele>441</ele>
        <time>2019-01-03T15:25:10Z</time>
      </trkpt>
      <trkpt lat="43.78758" lon="3.55325">
        <ele>441</ele>
        <time>2019-01-03T15:25:10Z</time>
      </trkpt>
      <trkpt lat="43.7876" lon="3.5533">
        <ele>441</ele>
        <time>2019-01-03T15:25:10Z</time>
      </trkpt>
      <trkpt lat="43.78762" lon="3.55335">
        <ele>441</ele>
        <time>2019-01-03T15:25:10Z</time>
      </trkpt>
      <trkpt lat="43.78764" lon="3.55339">
        <ele>441</ele>
        <time>2019-01-03T15:25:26Z</time>
      </trkpt>
      <trkpt lat="43.78767" lon="3.55344">
        <ele>441</ele>
        <time>2019-01-03T15:25:26Z</time>
      </trkpt>
      <trkpt lat="43.78769" lon="3.55349">
        <ele>441</ele>
        <time>2019-01-03T15:25:26Z</time>
      </trkpt>
      <trkpt lat="43.78772" lon="3.55354">
        <ele>441</ele>
        <time>2019-01-03T15:25:26Z</time>
      </trkpt>
      <trkpt lat="43.78775" lon="3.55358">
        <ele>441</ele>
        <time>2019-01-03T15:25:42Z</time>
      </trkpt>
      <trkpt lat="43.78777" lon="3.55362">
        <ele>441</ele>
        <time>2019-01-03T15:25:42Z</time>
      </trkpt>
      <trkpt lat="43.7878" lon="3.55365">
        <ele>441</ele>
        <time>2019-01-03T15:25:42Z</time>
      </trkpt>
      <trkpt lat="43.78782" lon="3.55369">
        <ele>441</ele>
        <time>2019-01-03T15:25:42Z</time>
      </trkpt>
      <trkpt lat="43.78785" lon="3.55374">
        <ele>441</ele>
        <time>2019-01-03T15:25:58Z</time>
      </trkpt>
      <trkpt lat="43.78787" lon="3.5538">
        <ele>420</ele>
        <time>2019-01-03T15:25:58Z</time>
      </trkpt>
      <trkpt lat="43.78789" lon="3.55386">
        <ele>420</ele>
        <time>2019-01-03T15:25:58Z</time>
      </trkpt>
      <trkpt lat="43.78792" lon="3.55391">
        <ele>420</ele>
        <time>2019-01-03T15:25:58Z</time>
      </trkpt>
      <trkpt lat="43.78795" lon="3.55394">
        <ele>449</ele>
        <time>2019-01-03T15:26:14Z</time>
      </trkpt>
      <trkpt lat="43.78797" lon="3.554">
        <ele>449</ele>
        <time>2019-01-03T15:26:14Z</time>
      </trkpt>
      <trkpt lat="43.788" lon="3.55404">
        <ele>449</ele>
        <time>2019-01-03T15:26:14Z</time>
      </trkpt>
      <trkpt lat="43.78803" lon="3.55409">
        <ele>449</ele>
        <time>2019-01-03T15:26:14Z</time>
      </trkpt>
      <trkpt lat="43.78806" lon="3.55413">
        <ele>449</ele>
        <time>2019-01-03T15:26:30Z</time>
      </trkpt>
      <trkpt lat="43.78808" lon="3.55417">
        <ele>449</ele>
        <time>2019-01-03T15:26:30Z</time>
      </trkpt>
      <trkpt lat="43.78811" lon="3.55421">
        <ele>449</ele>
        <time>2019-01-03T15:26:30Z</time>
      </trkpt>
      <trkpt lat="43.78813" lon="3.55425">
        <ele>449</ele>
        <time>2019-01-03T15:26:30Z</time>
      </trkpt>
      <trkpt lat="43.78816" lon="3.55429">
        <ele>449</ele>
        <time>2019-01-03T15:26:46Z</time>
      </trkpt>
      <trkpt lat="43.78819" lon="3.55432">
        <ele>449</ele>
        <time>2019-01-03T15:26:46Z</time>
      </trkpt>
      <trkpt lat="43.78822" lon="3.55437">
        <ele>449</ele>
        <time>2019-01-03T15:26:46Z</time>
      </trkpt>
      <trkpt lat="43.78824" lon="3.55442">
        <ele>449</ele>
        <time>2019-01-03T15:26:46Z</time>
      </trkpt>
      <trkpt lat="43.78827" lon="3.55447">
        <ele>449</ele>
        <time>2019-01-03T15:27:02Z</time>
      </trkpt>
      <trkpt lat="43.78829" lon="3.55451">
        <ele>449</ele>
        <time>2019-01-03T15:27:02Z</time>
      </trkpt>
      <trkpt lat="43.7883" lon="3.55457">
        <ele>449</ele>
        <time>2019-01-03T15:27:02Z</time>
      </trkpt>
      <trkpt lat="43.78832" lon="3.55463">
        <ele>427</ele>
        <time>2019-01-03T15:27:02Z</time>
      </trkpt>
      <trkpt lat="43.78835" lon="3.55467">
        <ele>427</ele>
        <time>2019-01-03T15:27:18Z</time>
      </trkpt>
      <trkpt lat="43.78837" lon="3.55472">
        <ele>427</ele>
        <time>2019-01-03T15:27:18Z</time>
      </trkpt>
      <trkpt lat="43.7884" lon="3.55476">
        <ele>427</ele>
        <time>2019-01-03T15:27:18Z</time>
      </trkpt>
      <trkpt lat="43.78842" lon="3.55481">
        <ele>427</ele>
        <time>2019-01-03T15:27:18Z</time>
      </trkpt>
      <trkpt lat="43.78844" lon="3.55486">
        <ele>427</ele>
        <time>2019-01-03T15:27:34Z</time>
      </trkpt>
      <trkpt lat="43.78847" lon="3.5549">
        <ele>427</ele>
        <time>2019-01-03T15:27:34Z</time>
      </trkpt>
      <trkpt lat="43.78851" lon="3.55494">
        <ele>427</ele>
        <time>2019-01-03T15:27:34Z</time>
      </trkpt>
      <trkpt lat="43.78853" lon="3.55498">
        <ele>427</ele>
        <time>2019-01-03T15:27:34Z</time>
      </trkpt>
      <trkpt lat="43.78856" lon="3.55501">
        <ele>427</ele>
        <time>2019-01-03T15:27:50Z</time>
      </trkpt>
      <trkpt lat="43.78858" lon="3.55506">
        <ele>427</ele>
        <time>2019-01-03T15:27:50Z</time>
      </trkpt>
      <trkpt lat="43.78861" lon="3.55511">
        <ele>427</ele>
        <time>2019-01-03T15:27:50Z</time>
      </trkpt>
      <trkpt lat="43.78863" lon="3.55516">
        <ele>427</ele>
        <time>2019-01-03T15:27:50Z</time>
      </trkpt>
      <trkpt lat="43.78866" lon="3.55521">
        <ele>427</ele>
        <time>2019-01-03T15:28:06Z</time>
      </trkpt>
      <trkpt lat="43.78867" lon="3.55526">
        <ele>427</ele>
        <time>2019-01-03T15:28:06Z</time>
      </trkpt>
      <trkpt lat="43.78868" lon="3.55531">
        <ele>427</ele>
        <time>2019-01-03T15:28:06Z</time>
      </trkpt>
      <trkpt lat="43.7887" lon="3.55537">
        <ele>427</ele>
        <time>2019-01-03T15:28:06Z</time>
      </trkpt>
      <trkpt lat="43.78872" lon="3.55543">
        <ele>408</ele>
        <time>2019-01-03T15:28:22Z</time>
      </trkpt>
      <trkpt lat="43.78873" lon="3.55547">
        <ele>408</ele>
        <time>2019-01-03T15:28:22Z</time>
      </trkpt>
      <trkpt lat="43.78875" lon="3.55552">
        <ele>408</ele>
        <time>2019-01-03T15:28:22Z</time>
      </trkpt>
      <trkpt lat="43.78877" lon="3.55556">
        <ele>438</ele>
        <time>2019-01-03T15:28:22Z</time>
      </trkpt>
      <trkpt lat="43.78879" lon="3.55561">
        <ele>438</ele>
        <time>2019-01-03T15:28:38Z</time>
      </trkpt>
      <trkpt lat="43.78881" lon="3.55566">
        <ele>438</ele>
        <time>2019-01-03T15:28:38Z</time>
      </trkpt>
      <trkpt lat="43.78882" lon="3.55571">
        <ele>438</ele>
        <time>2019-01-03T15:28:38Z</time>
      </trkpt>
      <trkpt lat="43.78884" lon="3.55577">
        <ele>438</ele>
        <time>2019-01-03T15:28:38Z</time>
      </trkpt>
      <trkpt lat="43.78886" lon="3.55582">
        <ele>438</ele>
        <time>2019-01-03T15:28:54Z</time>
      </trkpt>
      <trkpt lat="43.78888" lon="3.55587">
        <ele>438</ele>
        <time>2019-01-03T15:28:54Z</time>
      </trkpt>
      <trkpt lat="43.7889" lon="3.55592">
        <ele>438</ele>
        <time>2019-01-03T15:28:54Z</time>
      </trkpt>
      <trkpt lat="43.78891" lon="3.55596">
        <ele>438</ele>
        <time>2019-01-03T15:28:54Z</time>
      </trkpt>
      <trkpt lat="43.78891" lon="3.556">
        <ele>438</ele>
        <time>2019-01-03T15:29:10Z</time>
      </trkpt>
      <trkpt lat="43.78892" lon="3.55606">
        <ele>438</ele>
        <time>2019-01-03T15:29:10Z</time>
      </trkpt>
      <trkpt lat="43.78892" lon="3.55613">
        <ele>438</ele>
        <time>2019-01-03T15:29:10Z</time>
      </trkpt>
      <trkpt lat="43.78894" lon="3.55618">
        <ele>438</ele>
        <time>2019-01-03T15:29:10Z</time>
      </trkpt>
      <trkpt lat="43.78896" lon="3.55623">
        <ele>438</ele>
        <time>2019-01-03T15:29:26Z</time>
      </trkpt>
      <trkpt lat="43.78898" lon="3.55627">
        <ele>422</ele>
        <time>2019-01-03T15:29:26Z</time>
      </trkpt>
      <trkpt lat="43.789" lon="3.55633">
        <ele>422</ele>
        <time>2019-01-03T15:29:26Z</time>
      </trkpt>
      <trkpt lat="43.78903" lon="3.55638">
        <ele>422</ele>
        <time>2019-01-03T15:29:26Z</time>
      </trkpt>
      <trkpt lat="43.78906" lon="3.55643">
        <ele>422</ele>
        <time>2019-01-03T15:29:42Z</time>
      </trkpt>
      <trkpt lat="43.78908" lon="3.55648">
        <ele>422</ele>
        <time>2019-01-03T15:29:42Z</time>
      </trkpt>
      <trkpt lat="43.7891" lon="3.55652">
        <ele>422</ele>
        <time>2019-01-03T15:29:42Z</time>
      </trkpt>
      <trkpt lat="43.78912" lon="3.55658">
        <ele>422</ele>
        <time>2019-01-03T15:29:42Z</time>
      </trkpt>
      <trkpt lat="43.78913" lon="3.55664">
        <ele>422</ele>
        <time>2019-01-03T15:29:58Z</time>
      </trkpt>
      <trkpt lat="43.78914" lon="3.5567">
        <ele>422</ele>
        <time>2019-01-03T15:29:58Z</time>
      </trkpt>
      <trkpt lat="43.78915" lon="3.55675">
        <ele>422</ele>
        <time>2019-01-03T15:29:58Z</time>
      </trkpt>
      <trkpt lat="43.78917" lon="3.5568">
        <ele>422</ele>
        <time>2019-01-03T15:29:58Z</time>
      </trkpt>
      <trkpt lat="43.78917" lon="3.55685">
        <ele>422</ele>
        <time>2019-01-03T15:30:14Z</time>
      </trkpt>
      <trkpt lat="43.78918" lon="3.5569">
        <ele>422</ele>
        <time>2019-01-03T15:30:14Z</time>
      </trkpt>
      <trkpt lat="43.78918" lon="3.55697">
        <ele>422</ele>
        <time>2019-01-03T15:30:14Z</time>
      </trkpt>
      <trkpt lat="43.78918" lon="3.55703">
        <ele>422</ele>
        <time>2019-01-03T15:30:14Z</time>
      </trkpt>
      <trkpt lat="43.78918" lon="3.5571">
        <ele>411</ele>
        <time>2019-01-03T15:30:30Z</time>
      </trkpt>
      <trkpt lat="43.78918" lon="3.55717">
        <ele>411</ele>
        <time>2019-01-03T15:30:30Z</time>
      </trkpt>
      <trkpt lat="43.78918" lon="3.55723">
        <ele>411</ele>
        <time>2019-01-03T15:30:30Z</time>
      </trkpt>
      <trkpt lat="43.78918" lon="3.55729">
        <ele>411</ele>
        <time>2019-01-03T15:30:30Z</time>
      </trkpt>
      <trkpt lat="43.78917" lon="3.55736">
        <ele>411</ele>
        <time>2019-01-03T15:30:46Z</time>
      </trkpt>
      <trkpt lat="43.78918" lon="3.55743">
        <ele>411</ele>
        <time>2019-01-03T15:30:46Z</time>
      </trkpt>
      <trkpt lat="43.78918" lon="3.55748">
        <ele>411</ele>
        <time>2019-01-03T15:30:46Z</time>
      </trkpt>
      <trkpt lat="43.78919" lon="3.55754">
        <ele>411</ele>
        <time>2019-01-03T15:30:46Z</time>
      </trkpt>
      <trkpt lat="43.7892" lon="3.55759">
        <ele>411</ele>
        <time>2019-01-03T15:31:02Z</time>
      </trkpt>
      <trkpt lat="43.78922" lon="3.55765">
        <ele>411</ele>
        <time>2019-01-03T15:31:02Z</time>
      </trkpt>
      <trkpt lat="43.78923" lon="3.5577">
        <ele>411</ele>
        <time>2019-01-03T15:31:02Z</time>
      </trkpt>
      <trkpt lat="43.78924" lon="3.55776">
        <ele>411</ele>
        <time>2019-01-03T15:31:02Z</time>
      </trkpt>
      <trkpt lat="43.78926" lon="3.55781">
        <ele>411</ele>
        <time>2019-01-03T15:31:18Z</time>
      </trkpt>
      <trkpt lat="43.78928" lon="3.55786">
        <ele>411</ele>
        <time>2019-01-03T15:31:18Z</time>
      </trkpt>
      <trkpt lat="43.7893" lon="3.55792">
        <ele>398</ele>
        <time>2019-01-03T15:31:18Z</time>
      </trkpt>
      <trkpt lat="43.78933" lon="3.55797">
        <ele>398</ele>
        <time>2019-01-03T15:31:18Z</time>
      </trkpt>
      <trkpt lat="43.78935" lon="3.55802">
        <ele>398</ele>
        <time>2019-01-03T15:31:34Z</time>
      </trkpt>
      <trkpt lat="43.78937" lon="3.55807">
        <ele>398</ele>
        <time>2019-01-03T15:31:34Z</time>
      </trkpt>
      <trkpt lat="43.7894" lon="3.55812">
        <ele>398</ele>
        <time>2019-01-03T15:31:34Z</time>
      </trkpt>
      <trkpt lat="43.78942" lon="3.55817">
        <ele>398</ele>
        <time>2019-01-03T15:31:34Z</time>
      </trkpt>
      <trkpt lat="43.78945" lon="3.55821">
        <ele>398</ele>
        <time>2019-01-03T15:31:50Z</time>
      </trkpt>
      <trkpt lat="43.78947" lon="3.55826">
        <ele>398</ele>
        <time>2019-01-03T15:31:50Z</time>
      </trkpt>
      <trkpt lat="43.78949" lon="3.55832">
        <ele>398</ele>
        <time>2019-01-03T15:31:50Z</time>
      </trkpt>
      <trkpt lat="43.78952" lon="3.55836">
        <ele>398</ele>
        <time>2019-01-03T15:31:50Z</time>
      </trkpt>
      <trkpt lat="43.78956" lon="3.5584">
        <ele>398</ele>
        <time>2019-01-03T15:32:06Z</time>
      </trkpt>
      <trkpt lat="43.78959" lon="3.55844">
        <ele>421</ele>
        <time>2019-01-03T15:32:06Z</time>
      </trkpt>
      <trkpt lat="43.78962" lon="3.55849">
        <ele>421</ele>
        <time>2019-01-03T15:32:06Z</time>
      </trkpt>
      <trkpt lat="43.78966" lon="3.55853">
        <ele>421</ele>
        <time>2019-01-03T15:32:06Z</time>
      </trkpt>
      <trkpt lat="43.78969" lon="3.55857">
        <ele>421</ele>
        <time>2019-01-03T15:32:22Z</time>
      </trkpt>
      <trkpt lat="43.78972" lon="3.55862">
        <ele>421</ele>
        <time>2019-01-03T15:32:22Z</time>
      </trkpt>
      <trkpt lat="43.78975" lon="3.55866">
        <ele>421</ele>
        <time>2019-01-03T15:32:22Z</time>
      </trkpt>
      <trkpt lat="43.78978" lon="3.55869">
        <ele>421</ele>
        <time>2019-01-03T15:32:22Z</time>
      </trkpt>
      <trkpt lat="43.78982" lon="3.55874">
        <ele>421</ele>
        <time>2019-01-03T15:32:38Z</time>
      </trkpt>
      <trkpt lat="43.78985" lon="3.55878">
        <ele>400</ele>
        <time>2019-01-03T15:32:38Z</time>
      </trkpt>
      <trkpt lat="43.78988" lon="3.55883">
        <ele>400</ele>
        <time>2019-01-03T15:32:38Z</time>
      </trkpt>
      <trkpt lat="43.78989" lon="3.55888">
        <ele>400</ele>
        <time>2019-01-03T15:32:38Z</time>
      </trkpt>
      <trkpt lat="43.78992" lon="3.55892">
        <ele>400</ele>
        <time>2019-01-03T15:32:54Z</time>
      </trkpt>
      <trkpt lat="43.78994" lon="3.55897">
        <ele>400</ele>
        <time>2019-01-03T15:32:54Z</time>
      </trkpt>
      <trkpt lat="43.78997" lon="3.55901">
        <ele>400</ele>
        <time>2019-01-03T15:32:54Z</time>
      </trkpt>
      <trkpt lat="43.79001" lon="3.55906">
        <ele>400</ele>
        <time>2019-01-03T15:32:54Z</time>
      </trkpt>
      <trkpt lat="43.79003" lon="3.5591">
        <ele>400</ele>
        <time>2019-01-03T15:33:10Z</time>
      </trkpt>
      <trkpt lat="43.79007" lon="3.55915">
        <ele>400</ele>
        <time>2019-01-03T15:33:10Z</time>
      </trkpt>
      <trkpt lat="43.7901" lon="3.5592">
        <ele>400</ele>
        <time>2019-01-03T15:33:10Z</time>
      </trkpt>
      <trkpt lat="43.79013" lon="3.55923">
        <ele>400</ele>
        <time>2019-01-03T15:33:10Z</time>
      </trkpt>
      <trkpt lat="43.79015" lon="3.55926">
        <ele>400</ele>
        <time>2019-01-03T15:33:26Z</time>
      </trkpt>
      <trkpt lat="43.79018" lon="3.55931">
        <ele>400</ele>
        <time>2019-01-03T15:33:26Z</time>
      </trkpt>
      <trkpt lat="43.79022" lon="3.55936">
        <ele>400</ele>
        <time>2019-01-03T15:33:26Z</time>
      </trkpt>
      <trkpt lat="43.79025" lon="3.55941">
        <ele>400</ele>
        <time>2019-01-03T15:33:26Z</time>
      </trkpt>
      <trkpt lat="43.79027" lon="3.55946">
        <ele>400</ele>
        <time>2019-01-03T15:33:42Z</time>
      </trkpt>
      <trkpt lat="43.79029" lon="3.55951">
        <ele>400</ele>
        <time>2019-01-03T15:33:42Z</time>
      </trkpt>
      <trkpt lat="43.79029" lon="3.55957">
        <ele>400</ele>
        <time>2019-01-03T15:33:42Z</time>
      </trkpt>
      <trkpt lat="43.79031" lon="3.55963">
        <ele>389</ele>
        <time>2019-01-03T15:33:42Z</time>
      </trkpt>
      <trkpt lat="43.79032" lon="3.55969">
        <ele>389</ele>
        <time>2019-01-03T15:33:58Z</time>
      </trkpt>
      <trkpt lat="43.79031" lon="3.55974">
        <ele>389</ele>
        <time>2019-01-03T15:33:58Z</time>
      </trkpt>
      <trkpt lat="43.79029" lon="3.55979">
        <ele>389</ele>
        <time>2019-01-03T15:33:58Z</time>
      </trkpt>
      <trkpt lat="43.79027" lon="3.55984">
        <ele>389</ele>
        <time>2019-01-03T15:33:58Z</time>
      </trkpt>
      <trkpt lat="43.79024" lon="3.55987">
        <ele>389</ele>
        <time>2019-01-03T15:34:14Z</time>
      </trkpt>
      <trkpt lat="43.79021" lon="3.5599">
        <ele>389</ele>
        <time>2019-01-03T15:34:14Z</time>
      </trkpt>
      <trkpt lat="43.79018" lon="3.55994">
        <ele>389</ele>
        <time>2019-01-03T15:34:14Z</time>
      </trkpt>
      <trkpt lat="43.79015" lon="3.55998">
        <ele>389</ele>
        <time>2019-01-03T15:34:14Z</time>
      </trkpt>
      <trkpt lat="43.79013" lon="3.56002">
        <ele>389</ele>
        <time>2019-01-03T15:34:30Z</time>
      </trkpt>
      <trkpt lat="43.79011" lon="3.56006">
        <ele>389</ele>
        <time>2019-01-03T15:34:30Z</time>
      </trkpt>
      <trkpt lat="43.79008" lon="3.56012">
        <ele>389</ele>
        <time>2019-01-03T15:34:30Z</time>
      </trkpt>
      <trkpt lat="43.79006" lon="3.56017">
        <ele>389</ele>
        <time>2019-01-03T15:34:30Z</time>
      </trkpt>
      <trkpt lat="43.79005" lon="3.56024">
        <ele>389</ele>
        <time>2019-01-03T15:34:46Z</time>
      </trkpt>
      <trkpt lat="43.79004" lon="3.5603">
        <ele>389</ele>
        <time>2019-01-03T15:34:46Z</time>
      </trkpt>
      <trkpt lat="43.79004" lon="3.56037">
        <ele>389</ele>
        <time>2019-01-03T15:34:46Z</time>
      </trkpt>
      <trkpt lat="43.79004" lon="3.56044">
        <ele>381</ele>
        <time>2019-01-03T15:34:46Z</time>
      </trkpt>
      <trkpt lat="43.79005" lon="3.5605">
        <ele>381</ele>
        <time>2019-01-03T15:35:02Z</time>
      </trkpt>
      <trkpt lat="43.79005" lon="3.56055">
        <ele>381</ele>
        <time>2019-01-03T15:35:02Z</time>
      </trkpt>
      <trkpt lat="43.79006" lon="3.56061">
        <ele>381</ele>
        <time>2019-01-03T15:35:02Z</time>
      </trkpt>
      <trkpt lat="43.79008" lon="3.56068">
        <ele>381</ele>
        <time>2019-01-03T15:35:02Z</time>
      </trkpt>
      <trkpt lat="43.79009" lon="3.56074">
        <ele>381</ele>
        <time>2019-01-03T15:35:18Z</time>
      </trkpt>
      <trkpt lat="43.7901" lon="3.56079">
        <ele>381</ele>
        <time>2019-01-03T15:35:18Z</time>
      </trkpt>
      <trkpt lat="43.79012" lon="3.56085">
        <ele>381</ele>
        <time>2019-01-03T15:35:18Z</time>
      </trkpt>
      <trkpt lat="43.79013" lon="3.5609">
        <ele>381</ele>
        <time>2019-01-03T15:35:18Z</time>
      </trkpt>
      <trkpt lat="43.79015" lon="3.56096">
        <ele>381</ele>
        <time>2019-01-03T15:35:34Z</time>
      </trkpt>
      <trkpt lat="43.79016" lon="3.56102">
        <ele>381</ele>
        <time>2019-01-03T15:35:34Z</time>
      </trkpt>
      <trkpt lat="43.79018" lon="3.56108">
        <ele>381</ele>
        <time>2019-01-03T15:35:34Z</time>
      </trkpt>
      <trkpt lat="43.7902" lon="3.56112">
        <ele>381</ele>
        <time>2019-01-03T15:35:34Z</time>
      </trkpt>
      <trkpt lat="43.79021" lon="3.56117">
        <ele>381</ele>
        <time>2019-01-03T15:35:50Z</time>
      </trkpt>
      <trkpt lat="43.79023" lon="3.56121">
        <ele>381</ele>
        <time>2019-01-03T15:35:50Z</time>
      </trkpt>
      <trkpt lat="43.79025" lon="3.56126">
        <ele>365</ele>
        <time>2019-01-03T15:35:50Z</time>
      </trkpt>
      <trkpt lat="43.79027" lon="3.56131">
        <ele>365</ele>
        <time>2019-01-03T15:35:50Z</time>
      </trkpt>
      <trkpt lat="43.7903" lon="3.56137">
        <ele>365</ele>
        <time>2019-01-03T15:36:06Z</time>
      </trkpt>
      <trkpt lat="43.79034" lon="3.56142">
        <ele>365</ele>
        <time>2019-01-03T15:36:06Z</time>
      </trkpt>
      <trkpt lat="43.79039" lon="3.56145">
        <ele>365</ele>
        <time>2019-01-03T15:36:06Z</time>
      </trkpt>
      <trkpt lat="43.79043" lon="3.56149">
        <ele>400</ele>
        <time>2019-01-03T15:36:06Z</time>
      </trkpt>
      <trkpt lat="43.79045" lon="3.56154">
        <ele>400</ele>
        <time>2019-01-03T15:36:22Z</time>
      </trkpt>
      <trkpt lat="43.79045" lon="3.5616">
        <ele>400</ele>
        <time>2019-01-03T15:36:22Z</time>
      </trkpt>
      <trkpt lat="43.79047" lon="3.56166">
        <ele>400</ele>
        <time>2019-01-03T15:36:22Z</time>
      </trkpt>
      <trkpt lat="43.79049" lon="3.5617">
        <ele>400</ele>
        <time>2019-01-03T15:36:22Z</time>
      </trkpt>
      <trkpt lat="43.79051" lon="3.56174">
        <ele>400</ele>
        <time>2019-01-03T15:36:38Z</time>
      </trkpt>
      <trkpt lat="43.79054" lon="3.56179">
        <ele>400</ele>
        <time>2019-01-03T15:36:38Z</time>
      </trkpt>
      <trkpt lat="43.79056" lon="3.56184">
        <ele>400</ele>
        <time>2019-01-03T15:36:38Z</time>
      </trkpt>
      <trkpt lat="43.79059" lon="3.56189">
        <ele>400</ele>
        <time>2019-01-03T15:36:38Z</time>
      </trkpt>
      <trkpt lat="43.79062" lon="3.56193">
        <ele>400</ele>
        <time>2019-01-03T15:36:54Z</time>
      </trkpt>
      <trkpt lat="43.79064" lon="3.56199">
        <ele>400</ele>
        <time>2019-01-03T15:36:54Z</time>
      </trkpt>
      <trkpt lat="43.79066" lon="3.56206">
        <ele>400</ele>
        <time>2019-01-03T15:36:54Z</time>
      </trkpt>
      <trkpt lat="43.79066" lon="3.56212">
        <ele>382</ele>
        <time>2019-01-03T15:36:54Z</time>
      </trkpt>
      <trkpt lat="43.79068" lon="3.56219">
        <ele>382</ele>
        <time>2019-01-03T15:37:10Z</time>
      </trkpt>
      <trkpt lat="43.79068" lon="3.56224">
        <ele>382</ele>
        <time>2019-01-03T15:37:10Z</time>
      </trkpt>
      <trkpt lat="43.79069" lon="3.5623">
        <ele>382</ele>
        <time>2019-01-03T15:37:10Z</time>
      </trkpt>
      <trkpt lat="43.7907" lon="3.56237">
        <ele>382</ele>
        <time>2019-01-03T15:37:10Z</time>
      </trkpt>
      <trkpt lat="43.79072" lon="3.56242">
        <ele>382</ele>
        <time>2019-01-03T15:37:26Z</time>
      </trkpt>
      <trkpt lat="43.79074" lon="3.56248">
        <ele>382</ele>
        <time>2019-01-03T15:37:26Z</time>
      </trkpt>
      <trkpt lat="43.79077" lon="3.56252">
        <ele>382</ele>
        <time>2019-01-03T15:37:26Z</time>
      </trkpt>
      <trkpt lat="43.7908" lon="3.56257">
        <ele>382</ele>
        <time>2019-01-03T15:37:26Z</time>
      </trkpt>
      <trkpt lat="43.79083" lon="3.56262">
        <ele>382</ele>
        <time>2019-01-03T15:37:42Z</time>
      </trkpt>
      <trkpt lat="43.79087" lon="3.56266">
        <ele>382</ele>
        <time>2019-01-03T15:37:42Z</time>
      </trkpt>
      <trkpt lat="43.79091" lon="3.56271">
        <ele>382</ele>
        <time>2019-01-03T15:37:42Z</time>
      </trkpt>
      <trkpt lat="43.79094" lon="3.56275">
        <ele>382</ele>
        <time>2019-01-03T15:37:42Z</time>
      </trkpt>
      <trkpt lat="43.79098" lon="3.56279">
        <ele>382</ele>
        <time>2019-01-03T15:37:58Z</time>
      </trkpt>
      <trkpt lat="43.79102" lon="3.56282">
        <ele>382</ele>
        <time>2019-01-03T15:37:58Z</time>
      </trkpt>
      <trkpt lat="43.79106" lon="3.56283">
        <ele>382</ele>
        <time>2019-01-03T15:37:58Z</time>
      </trkpt>
      <trkpt lat="43.79109" lon="3.56285">
        <ele>382</ele>
        <time>2019-01-03T15:37:58Z</time>
      </trkpt>
      <trkpt lat="43.79114" lon="3.56286">
        <ele>382</ele>
        <time>2019-01-03T15:38:14Z</time>
      </trkpt>
      <trkpt lat="43.79118" lon="3.56291">
        <ele>382</ele>
        <time>2019-01-03T15:38:14Z</time>
      </trkpt>
      <trkpt lat="43.79122" lon="3.56295">
        <ele>348</ele>
        <time>2019-01-03T15:38:14Z</time>
      </trkpt>
      <trkpt lat="43.79126" lon="3.56301">
        <ele>385</ele>
        <time>2019-01-03T15:38:14Z</time>
      </trkpt>
      <trkpt lat="43.7913" lon="3.56307">
        <ele>385</ele>
        <time>2019-01-03T15:38:30Z</time>
      </trkpt>
      <trkpt lat="43.79134" lon="3.5631">
        <ele>385</ele>
        <time>2019-01-03T15:38:30Z</time>
      </trkpt>
      <trkpt lat="43.79137" lon="3.56314">
        <ele>385</ele>
        <time>2019-01-03T15:38:30Z</time>
      </trkpt>
      <trkpt lat="43.7914" lon="3.56318">
        <ele>385</ele>
        <time>2019-01-03T15:38:30Z</time>
      </trkpt>
      <trkpt lat="43.79143" lon="3.56323">
        <ele>385</ele>
        <time>2019-01-03T15:38:46Z</time>
      </trkpt>
      <trkpt lat="43.79147" lon="3.56327">
        <ele>385</ele>
        <time>2019-01-03T15:38:46Z</time>
      </trkpt>
      <trkpt lat="43.79151" lon="3.5633">
        <ele>385</ele>
        <time>2019-01-03T15:38:46Z</time>
      </trkpt>
      <trkpt lat="43.79155" lon="3.56334">
        <ele>385</ele>
        <time>2019-01-03T15:38:46Z</time>
      </trkpt>
      <trkpt lat="43.79158" lon="3.56338">
        <ele>385</ele>
        <time>2019-01-03T15:39:02Z</time>
      </trkpt>
      <trkpt lat="43.79161" lon="3.56342">
        <ele>385</ele>
        <time>2019-01-03T15:39:02Z</time>
      </trkpt>
      <trkpt lat="43.79165" lon="3.56345">
        <ele>385</ele>
        <time>2019-01-03T15:39:02Z</time>
      </trkpt>
      <trkpt lat="43.79168" lon="3.56347">
        <ele>385</ele>
        <time>2019-01-03T15:39:02Z</time>
      </trkpt>
      <trkpt lat="43.79172" lon="3.5635">
        <ele>385</ele>
        <time>2019-01-03T15:39:18Z</time>
      </trkpt>
      <trkpt lat="43.79175" lon="3.56353">
        <ele>385</ele>
        <time>2019-01-03T15:39:18Z</time>
      </trkpt>
      <trkpt lat="43.79178" lon="3.56357">
        <ele>385</ele>
        <time>2019-01-03T15:39:18Z</time>
      </trkpt>
      <trkpt lat="43.79179" lon="3.56358">
        <ele>385</ele>
        <time>2019-01-03T15:39:18Z</time>
      </trkpt>
      <trkpt lat="43.79183" lon="3.56363">
        <ele>385</ele>
        <time>2019-01-03T15:39:34Z</time>
      </trkpt>
      <trkpt lat="43.79185" lon="3.56369">
        <ele>385</ele>
        <time>2019-01-03T15:39:34Z</time>
      </trkpt>
      <trkpt lat="43.79187" lon="3.56376">
        <ele>352</ele>
        <time>2019-01-03T15:39:34Z</time>
      </trkpt>
      <trkpt lat="43.79188" lon="3.56383">
        <ele>352</ele>
        <time>2019-01-03T15:39:34Z</time>
      </trkpt>
      <trkpt lat="43.79189" lon="3.56389">
        <ele>352</ele>
        <time>2019-01-03T15:39:50Z</time>
      </trkpt>
      <trkpt lat="43.79191" lon="3.56394">
        <ele>352</ele>
        <time>2019-01-03T15:39:50Z</time>
      </trkpt>
      <trkpt lat="43.79193" lon="3.56399">
        <ele>352</ele>
        <time>2019-01-03T15:39:50Z</time>
      </trkpt>
      <trkpt lat="43.79196" lon="3.56404">
        <ele>352</ele>
        <time>2019-01-03T15:39:50Z</time>
      </trkpt>
      <trkpt lat="43.79197" lon="3.56406">
        <ele>352</ele>
        <time>2019-01-03T15:40:10Z</time>
      </trkpt>
      <trkpt lat="43.79198" lon="3.56408">
        <ele>352</ele>
        <time>2019-01-03T15:40:10Z</time>
      </trkpt>
      <trkpt lat="43.792" lon="3.56412">
        <ele>352</ele>
        <time>2019-01-03T15:40:10Z</time>
      </trkpt>
      <trkpt lat="43.79203" lon="3.56418">
        <ele>352</ele>
        <time>2019-01-03T15:40:10Z</time>
      </trkpt>
      <trkpt lat="43.79205" lon="3.56423">
        <ele>352</ele>
        <time>2019-01-03T15:40:26Z</time>
      </trkpt>
      <trkpt lat="43.79207" lon="3.56429">
        <ele>352</ele>
        <time>2019-01-03T15:40:26Z</time>
      </trkpt>
      <trkpt lat="43.7921" lon="3.56435">
        <ele>400</ele>
        <time>2019-01-03T15:40:26Z</time>
      </trkpt>
      <trkpt lat="43.79212" lon="3.56443">
        <ele>400</ele>
        <time>2019-01-03T15:40:26Z</time>
      </trkpt>
      <trkpt lat="43.79214" lon="3.56449">
        <ele>400</ele>
        <time>2019-01-03T15:40:42Z</time>
      </trkpt>
      <trkpt lat="43.79217" lon="3.56454">
        <ele>400</ele>
        <time>2019-01-03T15:40:42Z</time>
      </trkpt>
      <trkpt lat="43.79221" lon="3.56458">
        <ele>400</ele>
        <time>2019-01-03T15:40:42Z</time>
      </trkpt>
      <trkpt lat="43.79225" lon="3.56463">
        <ele>373</ele>
        <time>2019-01-03T15:40:42Z</time>
      </trkpt>
      <trkpt lat="43.79227" lon="3.56468">
        <ele>373</ele>
        <time>2019-01-03T15:40:58Z</time>
      </trkpt>
      <trkpt lat="43.7923" lon="3.56472">
        <ele>373</ele>
        <time>2019-01-03T15:40:58Z</time>
      </trkpt>
      <trkpt lat="43.79234" lon="3.56478">
        <ele>373</ele>
        <time>2019-01-03T15:40:58Z</time>
      </trkpt>
      <trkpt lat="43.79236" lon="3.56484">
        <ele>373</ele>
        <time>2019-01-03T15:40:58Z</time>
      </trkpt>
      <trkpt lat="43.79238" lon="3.56488">
        <ele>373</ele>
        <time>2019-01-03T15:41:14Z</time>
      </trkpt>
      <trkpt lat="43.7924" lon="3.56492">
        <ele>373</ele>
        <time>2019-01-03T15:41:14Z</time>
      </trkpt>
      <trkpt lat="43.79243" lon="3.56497">
        <ele>373</ele>
        <time>2019-01-03T15:41:14Z</time>
      </trkpt>
      <trkpt lat="43.79247" lon="3.565">
        <ele>373</ele>
        <time>2019-01-03T15:41:14Z</time>
      </trkpt>
      <trkpt lat="43.7925" lon="3.56504">
        <ele>373</ele>
        <time>2019-01-03T15:41:30Z</time>
      </trkpt>
      <trkpt lat="43.79253" lon="3.56509">
        <ele>373</ele>
        <time>2019-01-03T15:41:30Z</time>
      </trkpt>
      <trkpt lat="43.79257" lon="3.56513">
        <ele>373</ele>
        <time>2019-01-03T15:41:30Z</time>
      </trkpt>
      <trkpt lat="43.79261" lon="3.56516">
        <ele>373</ele>
        <time>2019-01-03T15:41:30Z</time>
      </trkpt>
      <trkpt lat="43.79265" lon="3.5652">
        <ele>373</ele>
        <time>2019-01-03T15:41:46Z</time>
      </trkpt>
      <trkpt lat="43.79268" lon="3.56525">
        <ele>373</ele>
        <time>2019-01-03T15:41:46Z</time>
      </trkpt>
      <trkpt lat="43.79271" lon="3.56529">
        <ele>373</ele>
        <time>2019-01-03T15:41:46Z</time>
      </trkpt>
      <trkpt lat="43.79272" lon="3.56535">
        <ele>373</ele>
        <time>2019-01-03T15:41:46Z</time>
      </trkpt>
      <trkpt lat="43.79273" lon="3.56542">
        <ele>373</ele>
        <time>2019-01-03T15:42:02Z</time>
      </trkpt>
      <trkpt lat="43.79275" lon="3.56548">
        <ele>343</ele>
        <time>2019-01-03T15:42:02Z</time>
      </trkpt>
      <trkpt lat="43.79277" lon="3.56555">
        <ele>343</ele>
        <time>2019-01-03T15:42:02Z</time>
      </trkpt>
      <trkpt lat="43.79279" lon="3.56561">
        <ele>343</ele>
        <time>2019-01-03T15:42:02Z</time>
      </trkpt>
      <trkpt lat="43.79282" lon="3.56567">
        <ele>343</ele>
        <time>2019-01-03T15:42:18Z</time>
      </trkpt>
      <trkpt lat="43.79285" lon="3.56571">
        <ele>343</ele>
        <time>2019-01-03T15:42:18Z</time>
      </trkpt>
      <trkpt lat="43.79287" lon="3.56577">
        <ele>343</ele>
        <time>2019-01-03T15:42:18Z</time>
      </trkpt>
      <trkpt lat="43.7929" lon="3.56582">
        <ele>343</ele>
        <time>2019-01-03T15:42:18Z</time>
      </trkpt>
      <trkpt lat="43.79292" lon="3.56586">
        <ele>385</ele>
        <time>2019-01-03T15:42:34Z</time>
      </trkpt>
      <trkpt lat="43.79295" lon="3.5659">
        <ele>385</ele>
        <time>2019-01-03T15:42:34Z</time>
      </trkpt>
      <trkpt lat="43.79299" lon="3.56595">
        <ele>385</ele>
        <time>2019-01-03T15:42:34Z</time>
      </trkpt>
      <trkpt lat="43.79303" lon="3.566">
        <ele>385</ele>
        <time>2019-01-03T15:42:34Z</time>
      </trkpt>
      <trkpt lat="43.79308" lon="3.56604">
        <ele>385</ele>
        <time>2019-01-03T15:42:50Z</time>
      </trkpt>
      <trkpt lat="43.79312" lon="3.56608">
        <ele>385</ele>
        <time>2019-01-03T15:42:50Z</time>
      </trkpt>
      <trkpt lat="43.79315" lon="3.56611">
        <ele>385</ele>
        <time>2019-01-03T15:42:50Z</time>
      </trkpt>
      <trkpt lat="43.79318" lon="3.56614">
        <ele>385</ele>
        <time>2019-01-03T15:42:50Z</time>
      </trkpt>
      <trkpt lat="43.79322" lon="3.56615">
        <ele>385</ele>
        <time>2019-01-03T15:43:06Z</time>
      </trkpt>
      <trkpt lat="43.79326" lon="3.56617">
        <ele>385</ele>
        <time>2019-01-03T15:43:06Z</time>
      </trkpt>
      <trkpt lat="43.79329" lon="3.56617">
        <ele>385</ele>
        <time>2019-01-03T15:43:06Z</time>
      </trkpt>
      <trkpt lat="43.79333" lon="3.56618">
        <ele>385</ele>
        <time>2019-01-03T15:43:06Z</time>
      </trkpt>
      <trkpt lat="43.79337" lon="3.5662">
        <ele>385</ele>
        <time>2019-01-03T15:43:22Z</time>
      </trkpt>
      <trkpt lat="43.79341" lon="3.5662">
        <ele>385</ele>
        <time>2019-01-03T15:43:22Z</time>
      </trkpt>
      <trkpt lat="43.79345" lon="3.56621">
        <ele>385</ele>
        <time>2019-01-03T15:43:22Z</time>
      </trkpt>
      <trkpt lat="43.7935" lon="3.56621">
        <ele>385</ele>
        <time>2019-01-03T15:43:22Z</time>
      </trkpt>
      <trkpt lat="43.79355" lon="3.56623">
        <ele>385</ele>
        <time>2019-01-03T15:43:38Z</time>
      </trkpt>
      <trkpt lat="43.7936" lon="3.56627">
        <ele>348</ele>
        <time>2019-01-03T15:43:38Z</time>
      </trkpt>
      <trkpt lat="43.79364" lon="3.56631">
        <ele>348</ele>
        <time>2019-01-03T15:43:38Z</time>
      </trkpt>
      <trkpt lat="43.79368" lon="3.56635">
        <ele>348</ele>
        <time>2019-01-03T15:43:38Z</time>
      </trkpt>
      <trkpt lat="43.79372" lon="3.56639">
        <ele>348</ele>
        <time>2019-01-03T15:43:54Z</time>
      </trkpt>
      <trkpt lat="43.79376" lon="3.56643">
        <ele>388</ele>
        <time>2019-01-03T15:43:54Z</time>
      </trkpt>
      <trkpt lat="43.7938" lon="3.56646">
        <ele>388</ele>
        <time>2019-01-03T15:43:54Z</time>
      </trkpt>
      <trkpt lat="43.79384" lon="3.5665">
        <ele>388</ele>
        <time>2019-01-03T15:43:54Z</time>
      </trkpt>
      <trkpt lat="43.79388" lon="3.56653">
        <ele>388</ele>
        <time>2019-01-03T15:44:10Z</time>
      </trkpt>
      <trkpt lat="43.79391" lon="3.56657">
        <ele>388</ele>
        <time>2019-01-03T15:44:10Z</time>
      </trkpt>
      <trkpt lat="43.79394" lon="3.56663">
        <ele>388</ele>
        <time>2019-01-03T15:44:10Z</time>
      </trkpt>
      <trkpt lat="43.79396" lon="3.56669">
        <ele>388</ele>
        <time>2019-01-03T15:44:10Z</time>
      </trkpt>
      <trkpt lat="43.79397" lon="3.56677">
        <ele>388</ele>
        <time>2019-01-03T15:44:26Z</time>
      </trkpt>
      <trkpt lat="43.79398" lon="3.56682">
        <ele>388</ele>
        <time>2019-01-03T15:44:26Z</time>
      </trkpt>
      <trkpt lat="43.79399" lon="3.56688">
        <ele>388</ele>
        <time>2019-01-03T15:44:26Z</time>
      </trkpt>
      <trkpt lat="43.79401" lon="3.56693">
        <ele>388</ele>
        <time>2019-01-03T15:44:26Z</time>
      </trkpt>
      <trkpt lat="43.79404" lon="3.56697">
        <ele>388</ele>
        <time>2019-01-03T15:44:42Z</time>
      </trkpt>
      <trkpt lat="43.79407" lon="3.56701">
        <ele>388</ele>
        <time>2019-01-03T15:44:42Z</time>
      </trkpt>
      <trkpt lat="43.79411" lon="3.56706">
        <ele>388</ele>
        <time>2019-01-03T15:44:42Z</time>
      </trkpt>
      <trkpt lat="43.79415" lon="3.5671">
        <ele>361</ele>
        <time>2019-01-03T15:44:42Z</time>
      </trkpt>
      <trkpt lat="43.79419" lon="3.56715">
        <ele>361</ele>
        <time>2019-01-03T15:44:58Z</time>
      </trkpt>
      <trkpt lat="43.79424" lon="3.56719">
        <ele>361</ele>
        <time>2019-01-03T15:44:58Z</time>
      </trkpt>
      <trkpt lat="43.79427" lon="3.56722">
        <ele>361</ele>
        <time>2019-01-03T15:44:58Z</time>
      </trkpt>
      <trkpt lat="43.7943" lon="3.56727">
        <ele>361</ele>
        <time>2019-01-03T15:44:58Z</time>
      </trkpt>
      <trkpt lat="43.79433" lon="3.56731">
        <ele>361</ele>
        <time>2019-01-03T15:45:14Z</time>
      </trkpt>
      <trkpt lat="43.79435" lon="3.56735">
        <ele>361</ele>
        <time>2019-01-03T15:45:14Z</time>
      </trkpt>
      <trkpt lat="43.79437" lon="3.56741">
        <ele>361</ele>
        <time>2019-01-03T15:45:14Z</time>
      </trkpt>
      <trkpt lat="43.79438" lon="3.56746">
        <ele>361</ele>
        <time>2019-01-03T15:45:14Z</time>
      </trkpt>
      <trkpt lat="43.7944" lon="3.56752">
        <ele>361</ele>
        <time>2019-01-03T15:45:30Z</time>
      </trkpt>
      <trkpt lat="43.79442" lon="3.56758">
        <ele>361</ele>
        <time>2019-01-03T15:45:30Z</time>
      </trkpt>
      <trkpt lat="43.79443" lon="3.56763">
        <ele>361</ele>
        <time>2019-01-03T15:45:30Z</time>
      </trkpt>
      <trkpt lat="43.79443" lon="3.56768">
        <ele>361</ele>
        <time>2019-01-03T15:45:30Z</time>
      </trkpt>
      <trkpt lat="43.79445" lon="3.56776">
        <ele>361</ele>
        <time>2019-01-03T15:45:46Z</time>
      </trkpt>
      <trkpt lat="43.79447" lon="3.56783">
        <ele>361</ele>
        <time>2019-01-03T15:45:46Z</time>
      </trkpt>
      <trkpt lat="43.79448" lon="3.56788">
        <ele>361</ele>
        <time>2019-01-03T15:45:46Z</time>
      </trkpt>
      <trkpt lat="43.7945" lon="3.56792">
        <ele>351</ele>
        <time>2019-01-03T15:45:46Z</time>
      </trkpt>
      <trkpt lat="43.79452" lon="3.56798">
        <ele>351</ele>
        <time>2019-01-03T15:46:02Z</time>
      </trkpt>
      <trkpt lat="43.79452" lon="3.56805">
        <ele>351</ele>
        <time>2019-01-03T15:46:02Z</time>
      </trkpt>
      <trkpt lat="43.79451" lon="3.5681">
        <ele>351</ele>
        <time>2019-01-03T15:46:02Z</time>
      </trkpt>
      <trkpt lat="43.79449" lon="3.56814">
        <ele>351</ele>
        <time>2019-01-03T15:46:02Z</time>
      </trkpt>
      <trkpt lat="43.79447" lon="3.56817">
        <ele>351</ele>
        <time>2019-01-03T15:46:18Z</time>
      </trkpt>
      <trkpt lat="43.79445" lon="3.5682">
        <ele>351</ele>
        <time>2019-01-03T15:46:18Z</time>
      </trkpt>
      <trkpt lat="43.79442" lon="3.56827">
        <ele>351</ele>
        <time>2019-01-03T15:46:18Z</time>
      </trkpt>
      <trkpt lat="43.7944" lon="3.56833">
        <ele>351</ele>
        <time>2019-01-03T15:46:18Z</time>
      </trkpt>
      <trkpt lat="43.79438" lon="3.56839">
        <ele>351</ele>
        <time>2019-01-03T15:46:34Z</time>
      </trkpt>
      <trkpt lat="43.79435" lon="3.56846">
        <ele>351</ele>
        <time>2019-01-03T15:46:34Z</time>
      </trkpt>
      <trkpt lat="43.79434" lon="3.56852">
        <ele>351</ele>
        <time>2019-01-03T15:46:34Z</time>
      </trkpt>
      <trkpt lat="43.79433" lon="3.56857">
        <ele>351</ele>
        <time>2019-01-03T15:46:34Z</time>
      </trkpt>
      <trkpt lat="43.79432" lon="3.56864">
        <ele>351</ele>
        <time>2019-01-03T15:46:50Z</time>
      </trkpt>
      <trkpt lat="43.79433" lon="3.56871">
        <ele>351</ele>
        <time>2019-01-03T15:46:50Z</time>
      </trkpt>
      <trkpt lat="43.79433" lon="3.56879">
        <ele>343</ele>
        <time>2019-01-03T15:46:50Z</time>
      </trkpt>
      <trkpt lat="43.79434" lon="3.56886">
        <ele>343</ele>
        <time>2019-01-03T15:46:50Z</time>
      </trkpt>
      <trkpt lat="43.79435" lon="3.56894">
        <ele>343</ele>
        <time>2019-01-03T15:47:06Z</time>
      </trkpt>
      <trkpt lat="43.79436" lon="3.56901">
        <ele>343</ele>
        <time>2019-01-03T15:47:06Z</time>
      </trkpt>
      <trkpt lat="43.79437" lon="3.56908">
        <ele>343</ele>
        <time>2019-01-03T15:47:06Z</time>
      </trkpt>
      <trkpt lat="43.79439" lon="3.56915">
        <ele>343</ele>
        <time>2019-01-03T15:47:06Z</time>
      </trkpt>
      <trkpt lat="43.79441" lon="3.56921">
        <ele>343</ele>
        <time>2019-01-03T15:47:22Z</time>
      </trkpt>
      <trkpt lat="43.79444" lon="3.56927">
        <ele>343</ele>
        <time>2019-01-03T15:47:22Z</time>
      </trkpt>
      <trkpt lat="43.79446" lon="3.56932">
        <ele>343</ele>
        <time>2019-01-03T15:47:22Z</time>
      </trkpt>
      <trkpt lat="43.79447" lon="3.56938">
        <ele>343</ele>
        <time>2019-01-03T15:47:22Z</time>
      </trkpt>
      <trkpt lat="43.79449" lon="3.56945">
        <ele>343</ele>
        <time>2019-01-03T15:47:38Z</time>
      </trkpt>
      <trkpt lat="43.79451" lon="3.56951">
        <ele>343</ele>
        <time>2019-01-03T15:47:38Z</time>
      </trkpt>
      <trkpt lat="43.79453" lon="3.56955">
        <ele>343</ele>
        <time>2019-01-03T15:47:38Z</time>
      </trkpt>
      <trkpt lat="43.79455" lon="3.56961">
        <ele>334</ele>
        <time>2019-01-03T15:47:38Z</time>
      </trkpt>
      <trkpt lat="43.79457" lon="3.56968">
        <ele>334</ele>
        <time>2019-01-03T15:47:54Z</time>
      </trkpt>
      <trkpt lat="43.79457" lon="3.56975">
        <ele>334</ele>
        <time>2019-01-03T15:47:54Z</time>
      </trkpt>
      <trkpt lat="43.79459" lon="3.56982">
        <ele>363</ele>
        <time>2019-01-03T15:47:54Z</time>
      </trkpt>
      <trkpt lat="43.79459" lon="3.56989">
        <ele>363</ele>
        <time>2019-01-03T15:47:54Z</time>
      </trkpt>
      <trkpt lat="43.79459" lon="3.56996">
        <ele>363</ele>
        <time>2019-01-03T15:48:10Z</time>
      </trkpt>
      <trkpt lat="43.7946" lon="3.57002">
        <ele>363</ele>
        <time>2019-01-03T15:48:10Z</time>
      </trkpt>
      <trkpt lat="43.79461" lon="3.57009">
        <ele>363</ele>
        <time>2019-01-03T15:48:10Z</time>
      </trkpt>
      <trkpt lat="43.79463" lon="3.57015">
        <ele>363</ele>
        <time>2019-01-03T15:48:10Z</time>
      </trkpt>
      <trkpt lat="43.79463" lon="3.57021">
        <ele>363</ele>
        <time>2019-01-03T15:48:26Z</time>
      </trkpt>
      <trkpt lat="43.79464" lon="3.57028">
        <ele>363</ele>
        <time>2019-01-03T15:48:26Z</time>
      </trkpt>
      <trkpt lat="43.79465" lon="3.57034">
        <ele>363</ele>
        <time>2019-01-03T15:48:26Z</time>
      </trkpt>
      <trkpt lat="43.79466" lon="3.57042">
        <ele>363</ele>
        <time>2019-01-03T15:48:26Z</time>
      </trkpt>
      <trkpt lat="43.79468" lon="3.57048">
        <ele>344</ele>
        <time>2019-01-03T15:48:42Z</time>
      </trkpt>
      <trkpt lat="43.79472" lon="3.57052">
        <ele>344</ele>
        <time>2019-01-03T15:48:42Z</time>
      </trkpt>
      <trkpt lat="43.79477" lon="3.57056">
        <ele>344</ele>
        <time>2019-01-03T15:48:42Z</time>
      </trkpt>
      <trkpt lat="43.79482" lon="3.57057">
        <ele>344</ele>
        <time>2019-01-03T15:48:42Z</time>
      </trkpt>
      <trkpt lat="43.79487" lon="3.57055">
        <ele>344</ele>
        <time>2019-01-03T15:48:58Z</time>
      </trkpt>
      <trkpt lat="43.79491" lon="3.57052">
        <ele>344</ele>
        <time>2019-01-03T15:48:58Z</time>
      </trkpt>
      <trkpt lat="43.79494" lon="3.57048">
        <ele>344</ele>
        <time>2019-01-03T15:48:58Z</time>
      </trkpt>
      <trkpt lat="43.79495" lon="3.57041">
        <ele>363</ele>
        <time>2019-01-03T15:48:58Z</time>
      </trkpt>
      <trkpt lat="43.79494" lon="3.57035">
        <ele>363</ele>
        <time>2019-01-03T15:49:14Z</time>
      </trkpt>
      <trkpt lat="43.79494" lon="3.57028">
        <ele>363</ele>
        <time>2019-01-03T15:49:14Z</time>
      </trkpt>
      <trkpt lat="43.79494" lon="3.57023">
        <ele>363</ele>
        <time>2019-01-03T15:49:14Z</time>
      </trkpt>
      <trkpt lat="43.79494" lon="3.57018">
        <ele>363</ele>
        <time>2019-01-03T15:49:14Z</time>
      </trkpt>
      <trkpt lat="43.79494" lon="3.57012">
        <ele>363</ele>
        <time>2019-01-03T15:49:30Z</time>
      </trkpt>
      <trkpt lat="43.79495" lon="3.57005">
        <ele>363</ele>
        <time>2019-01-03T15:49:30Z</time>
      </trkpt>
      <trkpt lat="43.79497" lon="3.57001">
        <ele>363</ele>
        <time>2019-01-03T15:49:30Z</time>
      </trkpt>
      <trkpt lat="43.795" lon="3.56995">
        <ele>363</ele>
        <time>2019-01-03T15:49:30Z</time>
      </trkpt>
      <trkpt lat="43.79503" lon="3.56992">
        <ele>363</ele>
        <time>2019-01-03T15:49:46Z</time>
      </trkpt>
      <trkpt lat="43.79506" lon="3.5699">
        <ele>363</ele>
        <time>2019-01-03T15:49:46Z</time>
      </trkpt>
      <trkpt lat="43.79509" lon="3.56988">
        <ele>363</ele>
        <time>2019-01-03T15:49:46Z</time>
      </trkpt>
      <trkpt lat="43.79512" lon="3.56986">
        <ele>363</ele>
        <time>2019-01-03T15:49:46Z</time>
      </trkpt>
      <trkpt lat="43.79515" lon="3.56986">
        <ele>363</ele>
        <time>2019-01-03T15:50:02Z</time>
      </trkpt>
      <trkpt lat="43.79519" lon="3.56987">
        <ele>363</ele>
        <time>2019-01-03T15:50:02Z</time>
      </trkpt>
      <trkpt lat="43.79522" lon="3.56989">
        <ele>363</ele>
        <time>2019-01-03T15:50:02Z</time>
      </trkpt>
      <trkpt lat="43.79526" lon="3.56992">
        <ele>363</ele>
        <time>2019-01-03T15:50:02Z</time>
      </trkpt>
      <trkpt lat="43.7953" lon="3.56995">
        <ele>363</ele>
        <time>2019-01-03T15:50:18Z</time>
      </trkpt>
      <trkpt lat="43.79533" lon="3.56999">
        <ele>363</ele>
        <time>2019-01-03T15:50:18Z</time>
      </trkpt>
      <trkpt lat="43.79537" lon="3.57003">
        <ele>363</ele>
        <time>2019-01-03T15:50:18Z</time>
      </trkpt>
      <trkpt lat="43.7954" lon="3.57006">
        <ele>363</ele>
        <time>2019-01-03T15:50:18Z</time>
      </trkpt>
      <trkpt lat="43.79545" lon="3.57011">
        <ele>365</ele>
        <time>2019-01-03T15:50:34Z</time>
      </trkpt>
      <trkpt lat="43.79548" lon="3.57014">
        <ele>365</ele>
        <time>2019-01-03T15:50:34Z</time>
      </trkpt>
      <trkpt lat="43.79551" lon="3.57019">
        <ele>365</ele>
        <time>2019-01-03T15:50:34Z</time>
      </trkpt>
      <trkpt lat="43.79553" lon="3.57023">
        <ele>365</ele>
        <time>2019-01-03T15:50:34Z</time>
      </trkpt>
      <trkpt lat="43.79556" lon="3.57026">
        <ele>365</ele>
        <time>2019-01-03T15:50:50Z</time>
      </trkpt>
      <trkpt lat="43.7956" lon="3.57027">
        <ele>365</ele>
        <time>2019-01-03T15:50:50Z</time>
      </trkpt>
      <trkpt lat="43.79564" lon="3.57026">
        <ele>365</ele>
        <time>2019-01-03T15:50:50Z</time>
      </trkpt>
      <trkpt lat="43.7957" lon="3.57024">
        <ele>365</ele>
        <time>2019-01-03T15:50:50Z</time>
      </trkpt>
      <trkpt lat="43.79576" lon="3.57021">
        <ele>365</ele>
        <time>2019-01-03T15:51:06Z</time>
      </trkpt>
      <trkpt lat="43.79582" lon="3.57018">
        <ele>365</ele>
        <time>2019-01-03T15:51:06Z</time>
      </trkpt>
      <trkpt lat="43.79587" lon="3.57016">
        <ele>365</ele>
        <time>2019-01-03T15:51:06Z</time>
      </trkpt>
      <trkpt lat="43.79591" lon="3.57015">
        <ele>365</ele>
        <time>2019-01-03T15:51:06Z</time>
      </trkpt>
      <trkpt lat="43.79596" lon="3.57014">
        <ele>365</ele>
        <time>2019-01-03T15:51:22Z</time>
      </trkpt>
      <trkpt lat="43.796" lon="3.57013">
        <ele>365</ele>
        <time>2019-01-03T15:51:22Z</time>
      </trkpt>
      <trkpt lat="43.79604" lon="3.57013">
        <ele>365</ele>
        <time>2019-01-03T15:51:22Z</time>
      </trkpt>
      <trkpt lat="43.79608" lon="3.57014">
        <ele>365</ele>
        <time>2019-01-03T15:51:22Z</time>
      </trkpt>
      <trkpt lat="43.79612" lon="3.57017">
        <ele>365</ele>
        <time>2019-01-03T15:51:38Z</time>
      </trkpt>
      <trkpt lat="43.79615" lon="3.57019">
        <ele>365</ele>
        <time>2019-01-03T15:51:38Z</time>
      </trkpt>
      <trkpt lat="43.7962" lon="3.57022">
        <ele>365</ele>
        <time>2019-01-03T15:51:38Z</time>
      </trkpt>
      <trkpt lat="43.79624" lon="3.57024">
        <ele>365</ele>
        <time>2019-01-03T15:51:38Z</time>
      </trkpt>
      <trkpt lat="43.7963" lon="3.57026">
        <ele>378</ele>
        <time>2019-01-03T15:51:54Z</time>
      </trkpt>
      <trkpt lat="43.79634" lon="3.5703">
        <ele>378</ele>
        <time>2019-01-03T15:51:54Z</time>
      </trkpt>
      <trkpt lat="43.79639" lon="3.57032">
        <ele>378</ele>
        <time>2019-01-03T15:51:54Z</time>
      </trkpt>
      <trkpt lat="43.79642" lon="3.57035">
        <ele>378</ele>
        <time>2019-01-03T15:51:54Z</time>
      </trkpt>
      <trkpt lat="43.79645" lon="3.57037">
        <ele>378</ele>
        <time>2019-01-03T15:52:10Z</time>
      </trkpt>
      <trkpt lat="43.79649" lon="3.5704">
        <ele>378</ele>
        <time>2019-01-03T15:52:10Z</time>
      </trkpt>
      <trkpt lat="43.79652" lon="3.57043">
        <ele>352</ele>
        <time>2019-01-03T15:52:10Z</time>
      </trkpt>
      <trkpt lat="43.79656" lon="3.57048">
        <ele>352</ele>
        <time>2019-01-03T15:52:10Z</time>
      </trkpt>
      <trkpt lat="43.7966" lon="3.57053">
        <ele>352</ele>
        <time>2019-01-03T15:52:26Z</time>
      </trkpt>
      <trkpt lat="43.79665" lon="3.57058">
        <ele>352</ele>
        <time>2019-01-03T15:52:26Z</time>
      </trkpt>
      <trkpt lat="43.79668" lon="3.57063">
        <ele>352</ele>
        <time>2019-01-03T15:52:26Z</time>
      </trkpt>
      <trkpt lat="43.7967" lon="3.57066">
        <ele>352</ele>
        <time>2019-01-03T15:52:26Z</time>
      </trkpt>
      <trkpt lat="43.79674" lon="3.5707">
        <ele>352</ele>
        <time>2019-01-03T15:52:42Z</time>
      </trkpt>
      <trkpt lat="43.79677" lon="3.57075">
        <ele>352</ele>
        <time>2019-01-03T15:52:42Z</time>
      </trkpt>
      <trkpt lat="43.79681" lon="3.57081">
        <ele>352</ele>
        <time>2019-01-03T15:52:42Z</time>
      </trkpt>
      <trkpt lat="43.79684" lon="3.57086">
        <ele>352</ele>
        <time>2019-01-03T15:52:42Z</time>
      </trkpt>
      <trkpt lat="43.79687" lon="3.57094">
        <ele>352</ele>
        <time>2019-01-03T15:52:58Z</time>
      </trkpt>
      <trkpt lat="43.79692" lon="3.57098">
        <ele>352</ele>
        <time>2019-01-03T15:52:58Z</time>
      </trkpt>
      <trkpt lat="43.79695" lon="3.57102">
        <ele>352</ele>
        <time>2019-01-03T15:52:58Z</time>
      </trkpt>
      <trkpt lat="43.79699" lon="3.57106">
        <ele>352</ele>
        <time>2019-01-03T15:52:58Z</time>
      </trkpt>
      <trkpt lat="43.79702" lon="3.5711">
        <ele>352</ele>
        <time>2019-01-03T15:53:14Z</time>
      </trkpt>
      <trkpt lat="43.79706" lon="3.57114">
        <ele>352</ele>
        <time>2019-01-03T15:53:14Z</time>
      </trkpt>
      <trkpt lat="43.7971" lon="3.57118">
        <ele>384</ele>
        <time>2019-01-03T15:53:14Z</time>
      </trkpt>
      <trkpt lat="43.79713" lon="3.57122">
        <ele>384</ele>
        <time>2019-01-03T15:53:14Z</time>
      </trkpt>
      <trkpt lat="43.79718" lon="3.57126">
        <ele>349</ele>
        <time>2019-01-03T15:53:30Z</time>
      </trkpt>
      <trkpt lat="43.79722" lon="3.57127">
        <ele>349</ele>
        <time>2019-01-03T15:53:30Z</time>
      </trkpt>
      <trkpt lat="43.79726" lon="3.5713">
        <ele>349</ele>
        <time>2019-01-03T15:53:30Z</time>
      </trkpt>
      <trkpt lat="43.79729" lon="3.57134">
        <ele>349</ele>
        <time>2019-01-03T15:53:30Z</time>
      </trkpt>
      <trkpt lat="43.79731" lon="3.57139">
        <ele>349</ele>
        <time>2019-01-03T15:53:46Z</time>
      </trkpt>
      <trkpt lat="43.79734" lon="3.57144">
        <ele>349</ele>
        <time>2019-01-03T15:53:46Z</time>
      </trkpt>
      <trkpt lat="43.79738" lon="3.57148">
        <ele>349</ele>
        <time>2019-01-03T15:53:46Z</time>
      </trkpt>
      <trkpt lat="43.79741" lon="3.57152">
        <ele>349</ele>
        <time>2019-01-03T15:53:46Z</time>
      </trkpt>
      <trkpt lat="43.79745" lon="3.57158">
        <ele>349</ele>
        <time>2019-01-03T15:54:02Z</time>
      </trkpt>
      <trkpt lat="43.7975" lon="3.57161">
        <ele>349</ele>
        <time>2019-01-03T15:54:02Z</time>
      </trkpt>
      <trkpt lat="43.79753" lon="3.57166">
        <ele>349</ele>
        <time>2019-01-03T15:54:02Z</time>
      </trkpt>
      <trkpt lat="43.79757" lon="3.57169">
        <ele>349</ele>
        <time>2019-01-03T15:54:02Z</time>
      </trkpt>
      <trkpt lat="43.79761" lon="3.57172">
        <ele>349</ele>
        <time>2019-01-03T15:54:18Z</time>
      </trkpt>
      <trkpt lat="43.79765" lon="3.57175">
        <ele>349</ele>
        <time>2019-01-03T15:54:18Z</time>
      </trkpt>
      <trkpt lat="43.79768" lon="3.5718">
        <ele>349</ele>
        <time>2019-01-03T15:54:18Z</time>
      </trkpt>
      <trkpt lat="43.79771" lon="3.57184">
        <ele>349</ele>
        <time>2019-01-03T15:54:18Z</time>
      </trkpt>
      <trkpt lat="43.79775" lon="3.57188">
        <ele>349</ele>
        <time>2019-01-03T15:54:34Z</time>
      </trkpt>
      <trkpt lat="43.79778" lon="3.57192">
        <ele>349</ele>
        <time>2019-01-03T15:54:34Z</time>
      </trkpt>
      <trkpt lat="43.7978" lon="3.57195">
        <ele>349</ele>
        <time>2019-01-03T15:54:34Z</time>
      </trkpt>
      <trkpt lat="43.79782" lon="3.57201">
        <ele>349</ele>
        <time>2019-01-03T15:54:34Z</time>
      </trkpt>
      <trkpt lat="43.79785" lon="3.57206">
        <ele>349</ele>
        <time>2019-01-03T15:54:50Z</time>
      </trkpt>
      <trkpt lat="43.79788" lon="3.57213">
        <ele>320</ele>
        <time>2019-01-03T15:54:50Z</time>
      </trkpt>
      <trkpt lat="43.7979" lon="3.57219">
        <ele>320</ele>
        <time>2019-01-03T15:54:50Z</time>
      </trkpt>
      <trkpt lat="43.79793" lon="3.57225">
        <ele>353</ele>
        <time>2019-01-03T15:54:50Z</time>
      </trkpt>
      <trkpt lat="43.79796" lon="3.57229">
        <ele>353</ele>
        <time>2019-01-03T15:55:06Z</time>
      </trkpt>
      <trkpt lat="43.79799" lon="3.57234">
        <ele>353</ele>
        <time>2019-01-03T15:55:06Z</time>
      </trkpt>
      <trkpt lat="43.79803" lon="3.57238">
        <ele>353</ele>
        <time>2019-01-03T15:55:06Z</time>
      </trkpt>
      <trkpt lat="43.79805" lon="3.57241">
        <ele>353</ele>
        <time>2019-01-03T15:55:06Z</time>
      </trkpt>
      <trkpt lat="43.79807" lon="3.57246">
        <ele>353</ele>
        <time>2019-01-03T15:55:22Z</time>
      </trkpt>
      <trkpt lat="43.79809" lon="3.57252">
        <ele>353</ele>
        <time>2019-01-03T15:55:22Z</time>
      </trkpt>
      <trkpt lat="43.79811" lon="3.57258">
        <ele>353</ele>
        <time>2019-01-03T15:55:22Z</time>
      </trkpt>
      <trkpt lat="43.79814" lon="3.57264">
        <ele>353</ele>
        <time>2019-01-03T15:55:22Z</time>
      </trkpt>
      <trkpt lat="43.79816" lon="3.57269">
        <ele>353</ele>
        <time>2019-01-03T15:55:38Z</time>
      </trkpt>
      <trkpt lat="43.79819" lon="3.57274">
        <ele>353</ele>
        <time>2019-01-03T15:55:38Z</time>
      </trkpt>
      <trkpt lat="43.79822" lon="3.57281">
        <ele>353</ele>
        <time>2019-01-03T15:55:38Z</time>
      </trkpt>
      <trkpt lat="43.79825" lon="3.57285">
        <ele>353</ele>
        <time>2019-01-03T15:55:38Z</time>
      </trkpt>
      <trkpt lat="43.79829" lon="3.5729">
        <ele>353</ele>
        <time>2019-01-03T15:55:54Z</time>
      </trkpt>
      <trkpt lat="43.79833" lon="3.57293">
        <ele>321</ele>
        <time>2019-01-03T15:55:54Z</time>
      </trkpt>
      <trkpt lat="43.79836" lon="3.57296">
        <ele>321</ele>
        <time>2019-01-03T15:55:54Z</time>
      </trkpt>
      <trkpt lat="43.7984" lon="3.57299">
        <ele>321</ele>
        <time>2019-01-03T15:55:54Z</time>
      </trkpt>
      <trkpt lat="43.79844" lon="3.57303">
        <ele>321</ele>
        <time>2019-01-03T15:56:10Z</time>
      </trkpt>
      <trkpt lat="43.79848" lon="3.57306">
        <ele>321</ele>
        <time>2019-01-03T15:56:10Z</time>
      </trkpt>
      <trkpt lat="43.79851" lon="3.5731">
        <ele>321</ele>
        <time>2019-01-03T15:56:10Z</time>
      </trkpt>
      <trkpt lat="43.79855" lon="3.57313">
        <ele>321</ele>
        <time>2019-01-03T15:56:10Z</time>
      </trkpt>
      <trkpt lat="43.79858" lon="3.57315">
        <ele>321</ele>
        <time>2019-01-03T15:56:26Z</time>
      </trkpt>
      <trkpt lat="43.79861" lon="3.57319">
        <ele>321</ele>
        <time>2019-01-03T15:56:26Z</time>
      </trkpt>
      <trkpt lat="43.79866" lon="3.57323">
        <ele>321</ele>
        <time>2019-01-03T15:56:26Z</time>
      </trkpt>
      <trkpt lat="43.7987" lon="3.57327">
        <ele>321</ele>
        <time>2019-01-03T15:56:26Z</time>
      </trkpt>
      <trkpt lat="43.79873" lon="3.57332">
        <ele>321</ele>
        <time>2019-01-03T15:56:42Z</time>
      </trkpt>
      <trkpt lat="43.79877" lon="3.57335">
        <ele>350</ele>
        <time>2019-01-03T15:56:42Z</time>
      </trkpt>
      <trkpt lat="43.79881" lon="3.57338">
        <ele>350</ele>
        <time>2019-01-03T15:56:42Z</time>
      </trkpt>
      <trkpt lat="43.79884" lon="3.57342">
        <ele>350</ele>
        <time>2019-01-03T15:56:42Z</time>
      </trkpt>
      <trkpt lat="43.79888" lon="3.57346">
        <ele>350</ele>
        <time>2019-01-03T15:56:58Z</time>
      </trkpt>
      <trkpt lat="43.79893" lon="3.57349">
        <ele>350</ele>
        <time>2019-01-03T15:56:58Z</time>
      </trkpt>
      <trkpt lat="43.79897" lon="3.57353">
        <ele>350</ele>
        <time>2019-01-03T15:56:58Z</time>
      </trkpt>
      <trkpt lat="43.79901" lon="3.57356">
        <ele>350</ele>
        <time>2019-01-03T15:56:58Z</time>
      </trkpt>
      <trkpt lat="43.79905" lon="3.57361">
        <ele>350</ele>
        <time>2019-01-03T15:57:14Z</time>
      </trkpt>
      <trkpt lat="43.7991" lon="3.57365">
        <ele>350</ele>
        <time>2019-01-03T15:57:14Z</time>
      </trkpt>
      <trkpt lat="43.79914" lon="3.57366">
        <ele>350</ele>
        <time>2019-01-03T15:57:14Z</time>
      </trkpt>
      <trkpt lat="43.79916" lon="3.57369">
        <ele>350</ele>
        <time>2019-01-03T15:57:14Z</time>
      </trkpt>
      <trkpt lat="43.79919" lon="3.57372">
        <ele>350</ele>
        <time>2019-01-03T15:57:30Z</time>
      </trkpt>
      <trkpt lat="43.79921" lon="3.57376">
        <ele>320</ele>
        <time>2019-01-03T15:57:30Z</time>
      </trkpt>
      <trkpt lat="43.79924" lon="3.5738">
        <ele>320</ele>
        <time>2019-01-03T15:57:30Z</time>
      </trkpt>
      <trkpt lat="43.79928" lon="3.57384">
        <ele>320</ele>
        <time>2019-01-03T15:57:30Z</time>
      </trkpt>
      <trkpt lat="43.79931" lon="3.57386">
        <ele>320</ele>
        <time>2019-01-03T15:57:46Z</time>
      </trkpt>
      <trkpt lat="43.79935" lon="3.5739">
        <ele>320</ele>
        <time>2019-01-03T15:57:46Z</time>
      </trkpt>
      <trkpt lat="43.79938" lon="3.57394">
        <ele>320</ele>
        <time>2019-01-03T15:57:46Z</time>
      </trkpt>
      <trkpt lat="43.7994" lon="3.57398">
        <ele>320</ele>
        <time>2019-01-03T15:57:46Z</time>
      </trkpt>
      <trkpt lat="43.79942" lon="3.57403">
        <ele>320</ele>
        <time>2019-01-03T15:58:02Z</time>
      </trkpt>
      <trkpt lat="43.79944" lon="3.57409">
        <ele>320</ele>
        <time>2019-01-03T15:58:02Z</time>
      </trkpt>
      <trkpt lat="43.79946" lon="3.57416">
        <ele>320</ele>
        <time>2019-01-03T15:58:02Z</time>
      </trkpt>
      <trkpt lat="43.79947" lon="3.57422">
        <ele>320</ele>
        <time>2019-01-03T15:58:02Z</time>
      </trkpt>
      <trkpt lat="43.79949" lon="3.57429">
        <ele>320</ele>
        <time>2019-01-03T15:58:18Z</time>
      </trkpt>
      <trkpt lat="43.7995" lon="3.57435">
        <ele>320</ele>
        <time>2019-01-03T15:58:18Z</time>
      </trkpt>
      <trkpt lat="43.79953" lon="3.5744">
        <ele>320</ele>
        <time>2019-01-03T15:58:18Z</time>
      </trkpt>
      <trkpt lat="43.79956" lon="3.57446">
        <ele>320</ele>
        <time>2019-01-03T15:58:18Z</time>
      </trkpt>
      <trkpt lat="43.79958" lon="3.57452">
        <ele>320</ele>
        <time>2019-01-03T15:58:34Z</time>
      </trkpt>
      <trkpt lat="43.79959" lon="3.57458">
        <ele>343</ele>
        <time>2019-01-03T15:58:34Z</time>
      </trkpt>
      <trkpt lat="43.79961" lon="3.57463">
        <ele>318</ele>
        <time>2019-01-03T15:58:34Z</time>
      </trkpt>
      <trkpt lat="43.79964" lon="3.57468">
        <ele>318</ele>
        <time>2019-01-03T15:58:34Z</time>
      </trkpt>
      <trkpt lat="43.79966" lon="3.57471">
        <ele>318</ele>
        <time>2019-01-03T15:58:50Z</time>
      </trkpt>
      <trkpt lat="43.79969" lon="3.57476">
        <ele>318</ele>
        <time>2019-01-03T15:58:50Z</time>
      </trkpt>
      <trkpt lat="43.79973" lon="3.57481">
        <ele>318</ele>
        <time>2019-01-03T15:58:50Z</time>
      </trkpt>
      <trkpt lat="43.79977" lon="3.57486">
        <ele>318</ele>
        <time>2019-01-03T15:58:50Z</time>
      </trkpt>
      <trkpt lat="43.79981" lon="3.5749">
        <ele>318</ele>
        <time>2019-01-03T15:59:06Z</time>
      </trkpt>
      <trkpt lat="43.79985" lon="3.57495">
        <ele>318</ele>
        <time>2019-01-03T15:59:06Z</time>
      </trkpt>
      <trkpt lat="43.79989" lon="3.57498">
        <ele>318</ele>
        <time>2019-01-03T15:59:06Z</time>
      </trkpt>
      <trkpt lat="43.79993" lon="3.57501">
        <ele>318</ele>
        <time>2019-01-03T15:59:06Z</time>
      </trkpt>
      <trkpt lat="43.79997" lon="3.57504">
        <ele>318</ele>
        <time>2019-01-03T15:59:22Z</time>
      </trkpt>
      <trkpt lat="43.80001" lon="3.57509">
        <ele>318</ele>
        <time>2019-01-03T15:59:22Z</time>
      </trkpt>
      <trkpt lat="43.80004" lon="3.57514">
        <ele>318</ele>
        <time>2019-01-03T15:59:22Z</time>
      </trkpt>
      <trkpt lat="43.80007" lon="3.57519">
        <ele>318</ele>
        <time>2019-01-03T15:59:22Z</time>
      </trkpt>
      <trkpt lat="43.80011" lon="3.57523">
        <ele>318</ele>
        <time>2019-01-03T15:59:38Z</time>
      </trkpt>
      <trkpt lat="43.80014" lon="3.57527">
        <ele>318</ele>
        <time>2019-01-03T15:59:38Z</time>
      </trkpt>
      <trkpt lat="43.80017" lon="3.57529">
        <ele>318</ele>
        <time>2019-01-03T15:59:38Z</time>
      </trkpt>
      <trkpt lat="43.8002" lon="3.57534">
        <ele>318</ele>
        <time>2019-01-03T15:59:38Z</time>
      </trkpt>
      <trkpt lat="43.80023" lon="3.57538">
        <ele>318</ele>
        <time>2019-01-03T15:59:54Z</time>
      </trkpt>
      <trkpt lat="43.80026" lon="3.57542">
        <ele>300</ele>
        <time>2019-01-03T15:59:54Z</time>
      </trkpt>
      <trkpt lat="43.80029" lon="3.57546">
        <ele>300</ele>
        <time>2019-01-03T15:59:54Z</time>
      </trkpt>
      <trkpt lat="43.80031" lon="3.5755">
        <ele>300</ele>
        <time>2019-01-03T15:59:54Z</time>
      </trkpt>
      <trkpt lat="43.80034" lon="3.57555">
        <ele>300</ele>
        <time>2019-01-03T16:00:10Z</time>
      </trkpt>
      <trkpt lat="43.80038" lon="3.5756">
        <ele>300</ele>
        <time>2019-01-03T16:00:10Z</time>
      </trkpt>
      <trkpt lat="43.8004" lon="3.57567">
        <ele>300</ele>
        <time>2019-01-03T16:00:10Z</time>
      </trkpt>
      <trkpt lat="43.80042" lon="3.57573">
        <ele>327</ele>
        <time>2019-01-03T16:00:10Z</time>
      </trkpt>
      <trkpt lat="43.80043" lon="3.57577">
        <ele>327</ele>
        <time>2019-01-03T16:00:26Z</time>
      </trkpt>
      <trkpt lat="43.80042" lon="3.57583">
        <ele>300</ele>
        <time>2019-01-03T16:00:26Z</time>
      </trkpt>
      <trkpt lat="43.80041" lon="3.5759">
        <ele>300</ele>
        <time>2019-01-03T16:00:26Z</time>
      </trkpt>
      <trkpt lat="43.8004" lon="3.57595">
        <ele>300</ele>
        <time>2019-01-03T16:00:26Z</time>
      </trkpt>
      <trkpt lat="43.8004" lon="3.57602">
        <ele>300</ele>
        <time>2019-01-03T16:00:42Z</time>
      </trkpt>
      <trkpt lat="43.80039" lon="3.57607">
        <ele>300</ele>
        <time>2019-01-03T16:00:42Z</time>
      </trkpt>
      <trkpt lat="43.80038" lon="3.57612">
        <ele>300</ele>
        <time>2019-01-03T16:00:42Z</time>
      </trkpt>
      <trkpt lat="43.80037" lon="3.57617">
        <ele>300</ele>
        <time>2019-01-03T16:00:42Z</time>
      </trkpt>
      <trkpt lat="43.80036" lon="3.57622">
        <ele>300</ele>
        <time>2019-01-03T16:00:58Z</time>
      </trkpt>
      <trkpt lat="43.80037" lon="3.57628">
        <ele>289</ele>
        <time>2019-01-03T16:00:58Z</time>
      </trkpt>
      <trkpt lat="43.80039" lon="3.57636">
        <ele>289</ele>
        <time>2019-01-03T16:00:58Z</time>
      </trkpt>
      <trkpt lat="43.80041" lon="3.57643">
        <ele>289</ele>
        <time>2019-01-03T16:00:58Z</time>
      </trkpt>
      <trkpt lat="43.80044" lon="3.57648">
        <ele>316</ele>
        <time>2019-01-03T16:01:14Z</time>
      </trkpt>
      <trkpt lat="43.80047" lon="3.57653">
        <ele>316</ele>
        <time>2019-01-03T16:01:14Z</time>
      </trkpt>
      <trkpt lat="43.80049" lon="3.57657">
        <ele>316</ele>
        <time>2019-01-03T16:01:14Z</time>
      </trkpt>
      <trkpt lat="43.80051" lon="3.57663">
        <ele>316</ele>
        <time>2019-01-03T16:01:14Z</time>
      </trkpt>
      <trkpt lat="43.80053" lon="3.57667">
        <ele>316</ele>
        <time>2019-01-03T16:01:30Z</time>
      </trkpt>
      <trkpt lat="43.80055" lon="3.57674">
        <ele>316</ele>
        <time>2019-01-03T16:01:30Z</time>
      </trkpt>
      <trkpt lat="43.80058" lon="3.57679">
        <ele>316</ele>
        <time>2019-01-03T16:01:30Z</time>
      </trkpt>
      <trkpt lat="43.80061" lon="3.57684">
        <ele>316</ele>
        <time>2019-01-03T16:01:30Z</time>
      </trkpt>
      <trkpt lat="43.80064" lon="3.57689">
        <ele>316</ele>
        <time>2019-01-03T16:01:46Z</time>
      </trkpt>
      <trkpt lat="43.80066" lon="3.57694">
        <ele>316</ele>
        <time>2019-01-03T16:01:46Z</time>
      </trkpt>
      <trkpt lat="43.80067" lon="3.577">
        <ele>316</ele>
        <time>2019-01-03T16:01:46Z</time>
      </trkpt>
      <trkpt lat="43.80068" lon="3.57706">
        <ele>316</ele>
        <time>2019-01-03T16:01:46Z</time>
      </trkpt>
      <trkpt lat="43.80067" lon="3.57713">
        <ele>302</ele>
        <time>2019-01-03T16:02:02Z</time>
      </trkpt>
      <trkpt lat="43.80067" lon="3.57718">
        <ele>302</ele>
        <time>2019-01-03T16:02:02Z</time>
      </trkpt>
      <trkpt lat="43.80065" lon="3.57724">
        <ele>302</ele>
        <time>2019-01-03T16:02:02Z</time>
      </trkpt>
      <trkpt lat="43.80064" lon="3.57729">
        <ele>302</ele>
        <time>2019-01-03T16:02:02Z</time>
      </trkpt>
      <trkpt lat="43.80062" lon="3.57734">
        <ele>302</ele>
        <time>2019-01-03T16:02:18Z</time>
      </trkpt>
      <trkpt lat="43.8006" lon="3.57739">
        <ele>302</ele>
        <time>2019-01-03T16:02:18Z</time>
      </trkpt>
      <trkpt lat="43.80059" lon="3.57745">
        <ele>302</ele>
        <time>2019-01-03T16:02:18Z</time>
      </trkpt>
      <trkpt lat="43.80058" lon="3.57752">
        <ele>302</ele>
        <time>2019-01-03T16:02:18Z</time>
      </trkpt>
      <trkpt lat="43.80057" lon="3.57758">
        <ele>302</ele>
        <time>2019-01-03T16:02:34Z</time>
      </trkpt>
      <trkpt lat="43.80058" lon="3.57765">
        <ele>302</ele>
        <time>2019-01-03T16:02:34Z</time>
      </trkpt>
      <trkpt lat="43.80059" lon="3.57771">
        <ele>302</ele>
        <time>2019-01-03T16:02:34Z</time>
      </trkpt>
      <trkpt lat="43.80063" lon="3.57776">
        <ele>302</ele>
        <time>2019-01-03T16:02:34Z</time>
      </trkpt>
      <trkpt lat="43.80067" lon="3.57782">
        <ele>302</ele>
        <time>2019-01-03T16:02:50Z</time>
      </trkpt>
      <trkpt lat="43.80071" lon="3.57787">
        <ele>302</ele>
        <time>2019-01-03T16:02:50Z</time>
      </trkpt>
      <trkpt lat="43.80075" lon="3.5779">
        <ele>302</ele>
        <time>2019-01-03T16:02:50Z</time>
      </trkpt>
      <trkpt lat="43.80078" lon="3.57793">
        <ele>291</ele>
        <time>2019-01-03T16:02:50Z</time>
      </trkpt>
      <trkpt lat="43.80082" lon="3.57795">
        <ele>291</ele>
        <time>2019-01-03T16:03:06Z</time>
      </trkpt>
      <trkpt lat="43.80085" lon="3.57798">
        <ele>291</ele>
        <time>2019-01-03T16:03:06Z</time>
      </trkpt>
      <trkpt lat="43.80089" lon="3.57802">
        <ele>291</ele>
        <time>2019-01-03T16:03:06Z</time>
      </trkpt>
      <trkpt lat="43.80092" lon="3.57807">
        <ele>291</ele>
        <time>2019-01-03T16:03:06Z</time>
      </trkpt>
      <trkpt lat="43.80095" lon="3.57812">
        <ele>291</ele>
        <time>2019-01-03T16:03:22Z</time>
      </trkpt>
      <trkpt lat="43.80097" lon="3.57817">
        <ele>291</ele>
        <time>2019-01-03T16:03:22Z</time>
      </trkpt>
      <trkpt lat="43.80099" lon="3.57822">
        <ele>291</ele>
        <time>2019-01-03T16:03:22Z</time>
      </trkpt>
      <trkpt lat="43.80101" lon="3.57827">
        <ele>291</ele>
        <time>2019-01-03T16:03:22Z</time>
      </trkpt>
      <trkpt lat="43.80103" lon="3.57833">
        <ele>291</ele>
        <time>2019-01-03T16:03:38Z</time>
      </trkpt>
      <trkpt lat="43.80104" lon="3.57838">
        <ele>291</ele>
        <time>2019-01-03T16:03:38Z</time>
      </trkpt>
      <trkpt lat="43.80106" lon="3.57843">
        <ele>291</ele>
        <time>2019-01-03T16:03:38Z</time>
      </trkpt>
      <trkpt lat="43.80108" lon="3.57848">
        <ele>291</ele>
        <time>2019-01-03T16:03:38Z</time>
      </trkpt>
      <trkpt lat="43.8011" lon="3.57854">
        <ele>291</ele>
        <time>2019-01-03T16:03:54Z</time>
      </trkpt>
      <trkpt lat="43.80113" lon="3.57859">
        <ele>291</ele>
        <time>2019-01-03T16:03:54Z</time>
      </trkpt>
      <trkpt lat="43.80115" lon="3.57864">
        <ele>291</ele>
        <time>2019-01-03T16:03:54Z</time>
      </trkpt>
      <trkpt lat="43.80117" lon="3.5787">
        <ele>291</ele>
        <time>2019-01-03T16:03:54Z</time>
      </trkpt>
      <trkpt lat="43.8012" lon="3.57875">
        <ele>291</ele>
        <time>2019-01-03T16:04:10Z</time>
      </trkpt>
      <trkpt lat="43.80123" lon="3.57879">
        <ele>270</ele>
        <time>2019-01-03T16:04:10Z</time>
      </trkpt>
      <trkpt lat="43.80126" lon="3.57884">
        <ele>283</ele>
        <time>2019-01-03T16:04:10Z</time>
      </trkpt>
      <trkpt lat="43.80129" lon="3.57888">
        <ele>283</ele>
        <time>2019-01-03T16:04:10Z</time>
      </trkpt>
    </trkseg>
  </trk>
</gpx>